<?xml version="1.0" encoding="utf-8"?>
<gpx xmlns:xsi="http://www.w3.org/2001/XMLSchema-instance" xmlns:xsd="http://www.w3.org/2001/XMLSchema" version="1.1" creator="Shapelink.com" xmlns="http://www.topografix.com/GPX/1/1" xmlns:gpxtpx="http://www.garmin.com/xmlschemas/TrackPointExtension/v1">
  <metadata>
    <name>Sykling 29.54 km, 2013-05-28</name>
    <desc></desc>
    <author><name>Mikael Blom</name></author> 
    <time>2013-05-28T19:34:00Z</time>
  </metadata>
  <trk>
    <name>Sykling 29.54 km, 2013-05-28</name>
    <trkseg>
      <trkpt lat="59.9788808" lon="17.7393693">
        <ele>25.6123</ele>
        <time>2013-05-28T19:34:00Z</time>
      </trkpt>
      <trkpt lat="59.9788838" lon="17.73937">
        <ele>24.1703</ele>
        <time>2013-05-28T19:34:01Z</time>
      </trkpt>
      <trkpt lat="59.9789049" lon="17.7393636">
        <ele>24.651</ele>
        <time>2013-05-28T19:34:04Z</time>
      </trkpt>
      <trkpt lat="59.9789211" lon="17.7393513">
        <ele>24.1703</ele>
        <time>2013-05-28T19:34:05Z</time>
      </trkpt>
      <trkpt lat="59.9789411" lon="17.7393422">
        <ele>23.6896</ele>
        <time>2013-05-28T19:34:06Z</time>
      </trkpt>
      <trkpt lat="59.9789426" lon="17.739341">
        <ele>20.325</ele>
        <time>2013-05-28T19:34:07Z</time>
      </trkpt>
      <trkpt lat="59.9789369" lon="17.7393548">
        <ele>17.4412</ele>
        <time>2013-05-28T19:34:08Z</time>
      </trkpt>
      <trkpt lat="59.9789419" lon="17.7393516">
        <ele>13.5958</ele>
        <time>2013-05-28T19:34:09Z</time>
      </trkpt>
      <trkpt lat="59.978954" lon="17.7393412">
        <ele>11.1925</ele>
        <time>2013-05-28T19:34:10Z</time>
      </trkpt>
      <trkpt lat="59.9789688" lon="17.7393325">
        <ele>8.78918</ele>
        <time>2013-05-28T19:34:11Z</time>
      </trkpt>
      <trkpt lat="59.9789972" lon="17.7393097">
        <ele>6.86646</ele>
        <time>2013-05-28T19:34:12Z</time>
      </trkpt>
      <trkpt lat="59.9790516" lon="17.7392684">
        <ele>7.82788</ele>
        <time>2013-05-28T19:34:13Z</time>
      </trkpt>
      <trkpt lat="59.9791091" lon="17.7392222">
        <ele>8.30859</ele>
        <time>2013-05-28T19:34:14Z</time>
      </trkpt>
      <trkpt lat="59.9791656" lon="17.7391757">
        <ele>9.2699</ele>
        <time>2013-05-28T19:34:15Z</time>
      </trkpt>
      <trkpt lat="59.9792293" lon="17.739134">
        <ele>12.1538</ele>
        <time>2013-05-28T19:34:16Z</time>
      </trkpt>
      <trkpt lat="59.9792959" lon="17.7391025">
        <ele>15.5184</ele>
        <time>2013-05-28T19:34:17Z</time>
      </trkpt>
      <trkpt lat="59.9793484" lon="17.7390796">
        <ele>16.4797</ele>
        <time>2013-05-28T19:34:18Z</time>
      </trkpt>
      <trkpt lat="59.9794142" lon="17.7390426">
        <ele>18.8831</ele>
        <time>2013-05-28T19:34:19Z</time>
      </trkpt>
      <trkpt lat="59.9794834" lon="17.7390104">
        <ele>22.7283</ele>
        <time>2013-05-28T19:34:20Z</time>
      </trkpt>
      <trkpt lat="59.9795349" lon="17.7389817">
        <ele>23.209</ele>
        <time>2013-05-28T19:34:21Z</time>
      </trkpt>
      <trkpt lat="59.9795906" lon="17.7389377">
        <ele>22.7283</ele>
        <time>2013-05-28T19:34:22Z</time>
      </trkpt>
      <trkpt lat="59.9796463" lon="17.7389108">
        <ele>23.209</ele>
        <time>2013-05-28T19:34:23Z</time>
      </trkpt>
      <trkpt lat="59.9796929" lon="17.7388917">
        <ele>22.2476</ele>
        <time>2013-05-28T19:34:24Z</time>
      </trkpt>
      <trkpt lat="59.9797184" lon="17.7388891">
        <ele>19.3638</ele>
        <time>2013-05-28T19:34:25Z</time>
      </trkpt>
      <trkpt lat="59.9797508" lon="17.7388828">
        <ele>18.4023</ele>
        <time>2013-05-28T19:34:26Z</time>
      </trkpt>
      <trkpt lat="59.9798013" lon="17.7388777">
        <ele>20.8057</ele>
        <time>2013-05-28T19:34:27Z</time>
      </trkpt>
      <trkpt lat="59.9798608" lon="17.7388724">
        <ele>21.767</ele>
        <time>2013-05-28T19:34:28Z</time>
      </trkpt>
      <trkpt lat="59.9799098" lon="17.738874">
        <ele>21.767</ele>
        <time>2013-05-28T19:34:29Z</time>
      </trkpt>
      <trkpt lat="59.9799523" lon="17.7388815">
        <ele>20.8057</ele>
        <time>2013-05-28T19:34:30Z</time>
      </trkpt>
      <trkpt lat="59.9800209" lon="17.7388866">
        <ele>24.1703</ele>
        <time>2013-05-28T19:34:31Z</time>
      </trkpt>
      <trkpt lat="59.9800798" lon="17.7388874">
        <ele>25.1317</ele>
        <time>2013-05-28T19:34:32Z</time>
      </trkpt>
      <trkpt lat="59.9801419" lon="17.7388783">
        <ele>27.0543</ele>
        <time>2013-05-28T19:34:33Z</time>
      </trkpt>
      <trkpt lat="59.9801969" lon="17.7388885">
        <ele>28.0155</ele>
        <time>2013-05-28T19:34:34Z</time>
      </trkpt>
      <trkpt lat="59.9802512" lon="17.7388985">
        <ele>29.4575</ele>
        <time>2013-05-28T19:34:35Z</time>
      </trkpt>
      <trkpt lat="59.9803066" lon="17.7389094">
        <ele>31.8607</ele>
        <time>2013-05-28T19:34:36Z</time>
      </trkpt>
      <trkpt lat="59.9803563" lon="17.7389197">
        <ele>32.8223</ele>
        <time>2013-05-28T19:34:37Z</time>
      </trkpt>
      <trkpt lat="59.9804269" lon="17.738906">
        <ele>35.7061</ele>
        <time>2013-05-28T19:34:38Z</time>
      </trkpt>
      <trkpt lat="59.9804839" lon="17.7389052">
        <ele>37.6287</ele>
        <time>2013-05-28T19:34:39Z</time>
      </trkpt>
      <trkpt lat="59.9805631" lon="17.7389005">
        <ele>42.4354</ele>
        <time>2013-05-28T19:34:40Z</time>
      </trkpt>
      <trkpt lat="59.9806097" lon="17.7388915">
        <ele>42.4354</ele>
        <time>2013-05-28T19:34:41Z</time>
      </trkpt>
      <trkpt lat="59.9806656" lon="17.7388845">
        <ele>43.8773</ele>
        <time>2013-05-28T19:34:42Z</time>
      </trkpt>
      <trkpt lat="59.9807124" lon="17.7388746">
        <ele>44.358</ele>
        <time>2013-05-28T19:34:43Z</time>
      </trkpt>
      <trkpt lat="59.9807362" lon="17.7388612">
        <ele>40.9934</ele>
        <time>2013-05-28T19:34:44Z</time>
      </trkpt>
      <trkpt lat="59.980777" lon="17.7388416">
        <ele>41.474</ele>
        <time>2013-05-28T19:34:45Z</time>
      </trkpt>
      <trkpt lat="59.9808064" lon="17.7388275">
        <ele>39.5513</ele>
        <time>2013-05-28T19:34:46Z</time>
      </trkpt>
      <trkpt lat="59.9808404" lon="17.7388104">
        <ele>38.1094</ele>
        <time>2013-05-28T19:34:47Z</time>
      </trkpt>
      <trkpt lat="59.9808935" lon="17.7387823">
        <ele>39.0707</ele>
        <time>2013-05-28T19:34:48Z</time>
      </trkpt>
      <trkpt lat="59.9809465" lon="17.7387665">
        <ele>40.9934</ele>
        <time>2013-05-28T19:34:49Z</time>
      </trkpt>
      <trkpt lat="59.9810077" lon="17.7387465">
        <ele>42.916</ele>
        <time>2013-05-28T19:34:50Z</time>
      </trkpt>
      <trkpt lat="59.9810618" lon="17.738732">
        <ele>44.358</ele>
        <time>2013-05-28T19:34:51Z</time>
      </trkpt>
      <trkpt lat="59.9811173" lon="17.7387141">
        <ele>46.7612</ele>
        <time>2013-05-28T19:34:52Z</time>
      </trkpt>
      <trkpt lat="59.9811665" lon="17.7386854">
        <ele>47.2418</ele>
        <time>2013-05-28T19:34:53Z</time>
      </trkpt>
      <trkpt lat="59.9812189" lon="17.738673">
        <ele>47.7225</ele>
        <time>2013-05-28T19:34:54Z</time>
      </trkpt>
      <trkpt lat="59.9812868" lon="17.7386507">
        <ele>50.126</ele>
        <time>2013-05-28T19:34:55Z</time>
      </trkpt>
      <trkpt lat="59.9813457" lon="17.7386277">
        <ele>51.5679</ele>
        <time>2013-05-28T19:34:56Z</time>
      </trkpt>
      <trkpt lat="59.9814095" lon="17.7386119">
        <ele>53.9712</ele>
        <time>2013-05-28T19:34:57Z</time>
      </trkpt>
      <trkpt lat="59.9814582" lon="17.7386027">
        <ele>53.9712</ele>
        <time>2013-05-28T19:34:58Z</time>
      </trkpt>
      <trkpt lat="59.9815" lon="17.7385898">
        <ele>53.4905</ele>
        <time>2013-05-28T19:34:59Z</time>
      </trkpt>
      <trkpt lat="59.9815472" lon="17.7385805">
        <ele>53.4905</ele>
        <time>2013-05-28T19:35:00Z</time>
      </trkpt>
      <trkpt lat="59.9815931" lon="17.7385715">
        <ele>54.9324</ele>
        <time>2013-05-28T19:35:01Z</time>
      </trkpt>
      <trkpt lat="59.9816431" lon="17.7385607">
        <ele>56.8551</ele>
        <time>2013-05-28T19:35:02Z</time>
      </trkpt>
      <trkpt lat="59.9816731" lon="17.738542">
        <ele>55.4131</ele>
        <time>2013-05-28T19:35:03Z</time>
      </trkpt>
      <trkpt lat="59.9817204" lon="17.7385245">
        <ele>57.3358</ele>
        <time>2013-05-28T19:35:04Z</time>
      </trkpt>
      <trkpt lat="59.9817621" lon="17.7385115">
        <ele>58.7777</ele>
        <time>2013-05-28T19:35:05Z</time>
      </trkpt>
      <trkpt lat="59.9817841" lon="17.7384987">
        <ele>57.3358</ele>
        <time>2013-05-28T19:35:06Z</time>
      </trkpt>
      <trkpt lat="59.9818012" lon="17.7384927">
        <ele>55.4131</ele>
        <time>2013-05-28T19:35:07Z</time>
      </trkpt>
      <trkpt lat="59.9818126" lon="17.7384799">
        <ele>53.9712</ele>
        <time>2013-05-28T19:35:08Z</time>
      </trkpt>
      <trkpt lat="59.9818197" lon="17.7384741">
        <ele>51.5679</ele>
        <time>2013-05-28T19:35:09Z</time>
      </trkpt>
      <trkpt lat="59.9818613" lon="17.7384389">
        <ele>54.9324</ele>
        <time>2013-05-28T19:35:10Z</time>
      </trkpt>
      <trkpt lat="59.9818794" lon="17.7384205">
        <ele>53.4905</ele>
        <time>2013-05-28T19:35:11Z</time>
      </trkpt>
      <trkpt lat="59.9819149" lon="17.7383943">
        <ele>54.4518</ele>
        <time>2013-05-28T19:35:12Z</time>
      </trkpt>
      <trkpt lat="59.981923" lon="17.7383906">
        <ele>51.5679</ele>
        <time>2013-05-28T19:35:13Z</time>
      </trkpt>
      <trkpt lat="59.9819395" lon="17.7383715">
        <ele>47.2418</ele>
        <time>2013-05-28T19:35:14Z</time>
      </trkpt>
      <trkpt lat="59.9819769" lon="17.7383576">
        <ele>46.7612</ele>
        <time>2013-05-28T19:35:15Z</time>
      </trkpt>
      <trkpt lat="59.9820126" lon="17.7383311">
        <ele>45.7999</ele>
        <time>2013-05-28T19:35:16Z</time>
      </trkpt>
      <trkpt lat="59.9820522" lon="17.7382928">
        <ele>42.4354</ele>
        <time>2013-05-28T19:35:17Z</time>
      </trkpt>
      <trkpt lat="59.982098" lon="17.7382556">
        <ele>40.0321</ele>
        <time>2013-05-28T19:35:18Z</time>
      </trkpt>
      <trkpt lat="59.982152" lon="17.7382188">
        <ele>38.1094</ele>
        <time>2013-05-28T19:35:19Z</time>
      </trkpt>
      <trkpt lat="59.9821906" lon="17.7381935">
        <ele>33.7834</ele>
        <time>2013-05-28T19:35:20Z</time>
      </trkpt>
      <trkpt lat="59.9822265" lon="17.7381722">
        <ele>28.4962</ele>
        <time>2013-05-28T19:35:21Z</time>
      </trkpt>
      <trkpt lat="59.9822753" lon="17.7381638">
        <ele>26.5736</ele>
        <time>2013-05-28T19:35:22Z</time>
      </trkpt>
      <trkpt lat="59.982305" lon="17.7381644">
        <ele>21.2864</ele>
        <time>2013-05-28T19:35:23Z</time>
      </trkpt>
      <trkpt lat="59.9823363" lon="17.738185">
        <ele>17.4412</ele>
        <time>2013-05-28T19:35:24Z</time>
      </trkpt>
      <trkpt lat="59.9823653" lon="17.7382083">
        <ele>13.1151</ele>
        <time>2013-05-28T19:35:25Z</time>
      </trkpt>
      <trkpt lat="59.9824091" lon="17.7382243">
        <ele>9.75061</ele>
        <time>2013-05-28T19:35:26Z</time>
      </trkpt>
      <trkpt lat="59.9824535" lon="17.7382458">
        <ele>6.86646</ele>
        <time>2013-05-28T19:35:27Z</time>
      </trkpt>
      <trkpt lat="59.9824912" lon="17.7382758">
        <ele>3.02124</ele>
        <time>2013-05-28T19:35:28Z</time>
      </trkpt>
      <trkpt lat="59.982536" lon="17.7382849">
        <ele>0</ele>
        <time>2013-05-28T19:35:29Z</time>
      </trkpt>
      <trkpt lat="59.9825801" lon="17.7382971">
        <ele>0</ele>
        <time>2013-05-28T19:35:30Z</time>
      </trkpt>
      <trkpt lat="59.9826306" lon="17.7383125">
        <ele>0</ele>
        <time>2013-05-28T19:35:31Z</time>
      </trkpt>
      <trkpt lat="59.9826646" lon="17.738322">
        <ele>0</ele>
        <time>2013-05-28T19:35:32Z</time>
      </trkpt>
      <trkpt lat="59.9826994" lon="17.7383296">
        <ele>0</ele>
        <time>2013-05-28T19:35:33Z</time>
      </trkpt>
      <trkpt lat="59.9827486" lon="17.7383229">
        <ele>0</ele>
        <time>2013-05-28T19:35:34Z</time>
      </trkpt>
      <trkpt lat="59.9828201" lon="17.738309">
        <ele>0</ele>
        <time>2013-05-28T19:35:35Z</time>
      </trkpt>
      <trkpt lat="59.9828914" lon="17.7382977">
        <ele>0</ele>
        <time>2013-05-28T19:35:36Z</time>
      </trkpt>
      <trkpt lat="59.9829497" lon="17.7382857">
        <ele>0</ele>
        <time>2013-05-28T19:35:37Z</time>
      </trkpt>
      <trkpt lat="59.9830237" lon="17.7382727">
        <ele>0</ele>
        <time>2013-05-28T19:35:38Z</time>
      </trkpt>
      <trkpt lat="59.9830864" lon="17.7382711">
        <ele>0</ele>
        <time>2013-05-28T19:35:39Z</time>
      </trkpt>
      <trkpt lat="59.9831542" lon="17.7382665">
        <ele>0</ele>
        <time>2013-05-28T19:35:40Z</time>
      </trkpt>
      <trkpt lat="59.9832138" lon="17.7382602">
        <ele>0</ele>
        <time>2013-05-28T19:35:41Z</time>
      </trkpt>
      <trkpt lat="59.9832792" lon="17.7382484">
        <ele>0</ele>
        <time>2013-05-28T19:35:42Z</time>
      </trkpt>
      <trkpt lat="59.9833485" lon="17.7382406">
        <ele>0</ele>
        <time>2013-05-28T19:35:43Z</time>
      </trkpt>
      <trkpt lat="59.9834178" lon="17.7382433">
        <ele>0</ele>
        <time>2013-05-28T19:35:44Z</time>
      </trkpt>
      <trkpt lat="59.9835111" lon="17.7382266">
        <ele>0</ele>
        <time>2013-05-28T19:35:45Z</time>
      </trkpt>
      <trkpt lat="59.9835904" lon="17.7382167">
        <ele>0</ele>
        <time>2013-05-28T19:35:46Z</time>
      </trkpt>
      <trkpt lat="59.9836527" lon="17.7382106">
        <ele>0</ele>
        <time>2013-05-28T19:35:47Z</time>
      </trkpt>
      <trkpt lat="59.9837062" lon="17.7382038">
        <ele>0</ele>
        <time>2013-05-28T19:35:48Z</time>
      </trkpt>
      <trkpt lat="59.9837634" lon="17.7382219">
        <ele>0</ele>
        <time>2013-05-28T19:35:49Z</time>
      </trkpt>
      <trkpt lat="59.9838198" lon="17.7382492">
        <ele>0</ele>
        <time>2013-05-28T19:35:50Z</time>
      </trkpt>
      <trkpt lat="59.983879" lon="17.7382758">
        <ele>0</ele>
        <time>2013-05-28T19:35:51Z</time>
      </trkpt>
      <trkpt lat="59.9839383" lon="17.7382968">
        <ele>0</ele>
        <time>2013-05-28T19:35:52Z</time>
      </trkpt>
      <trkpt lat="59.9840064" lon="17.7383074">
        <ele>0</ele>
        <time>2013-05-28T19:35:53Z</time>
      </trkpt>
      <trkpt lat="59.9840579" lon="17.7383191">
        <ele>0</ele>
        <time>2013-05-28T19:35:54Z</time>
      </trkpt>
      <trkpt lat="59.9841157" lon="17.7383375">
        <ele>0</ele>
        <time>2013-05-28T19:35:55Z</time>
      </trkpt>
      <trkpt lat="59.9841705" lon="17.7383552">
        <ele>0</ele>
        <time>2013-05-28T19:35:56Z</time>
      </trkpt>
      <trkpt lat="59.9842322" lon="17.7383675">
        <ele>0</ele>
        <time>2013-05-28T19:35:57Z</time>
      </trkpt>
      <trkpt lat="59.9842882" lon="17.7383836">
        <ele>0</ele>
        <time>2013-05-28T19:35:58Z</time>
      </trkpt>
      <trkpt lat="59.9843379" lon="17.7384021">
        <ele>0</ele>
        <time>2013-05-28T19:35:59Z</time>
      </trkpt>
      <trkpt lat="59.9843921" lon="17.7384158">
        <ele>0</ele>
        <time>2013-05-28T19:36:00Z</time>
      </trkpt>
      <trkpt lat="59.9844467" lon="17.7384276">
        <ele>0</ele>
        <time>2013-05-28T19:36:01Z</time>
      </trkpt>
      <trkpt lat="59.9844824" lon="17.7384462">
        <ele>0</ele>
        <time>2013-05-28T19:36:02Z</time>
      </trkpt>
      <trkpt lat="59.9845403" lon="17.7384681">
        <ele>0</ele>
        <time>2013-05-28T19:36:03Z</time>
      </trkpt>
      <trkpt lat="59.9845786" lon="17.7384989">
        <ele>0</ele>
        <time>2013-05-28T19:36:04Z</time>
      </trkpt>
      <trkpt lat="59.9846117" lon="17.7385291">
        <ele>0</ele>
        <time>2013-05-28T19:36:05Z</time>
      </trkpt>
      <trkpt lat="59.9846704" lon="17.7385587">
        <ele>0</ele>
        <time>2013-05-28T19:36:06Z</time>
      </trkpt>
      <trkpt lat="59.9847108" lon="17.7386135">
        <ele>0</ele>
        <time>2013-05-28T19:36:07Z</time>
      </trkpt>
      <trkpt lat="59.9847498" lon="17.7386598">
        <ele>0</ele>
        <time>2013-05-28T19:36:08Z</time>
      </trkpt>
      <trkpt lat="59.984801" lon="17.7386957">
        <ele>0</ele>
        <time>2013-05-28T19:36:09Z</time>
      </trkpt>
      <trkpt lat="59.9848579" lon="17.7387199">
        <ele>0</ele>
        <time>2013-05-28T19:36:10Z</time>
      </trkpt>
      <trkpt lat="59.9849134" lon="17.7387579">
        <ele>0</ele>
        <time>2013-05-28T19:36:11Z</time>
      </trkpt>
      <trkpt lat="59.9849759" lon="17.7387835">
        <ele>0</ele>
        <time>2013-05-28T19:36:12Z</time>
      </trkpt>
      <trkpt lat="59.9850191" lon="17.7388335">
        <ele>0</ele>
        <time>2013-05-28T19:36:13Z</time>
      </trkpt>
      <trkpt lat="59.9850512" lon="17.7388755">
        <ele>0</ele>
        <time>2013-05-28T19:36:14Z</time>
      </trkpt>
      <trkpt lat="59.9851003" lon="17.7389139">
        <ele>0</ele>
        <time>2013-05-28T19:36:15Z</time>
      </trkpt>
      <trkpt lat="59.9851475" lon="17.7389618">
        <ele>0</ele>
        <time>2013-05-28T19:36:16Z</time>
      </trkpt>
      <trkpt lat="59.9852116" lon="17.7389968">
        <ele>0</ele>
        <time>2013-05-28T19:36:17Z</time>
      </trkpt>
      <trkpt lat="59.9852977" lon="17.7390254">
        <ele>0</ele>
        <time>2013-05-28T19:36:18Z</time>
      </trkpt>
      <trkpt lat="59.9853796" lon="17.7390503">
        <ele>0</ele>
        <time>2013-05-28T19:36:19Z</time>
      </trkpt>
      <trkpt lat="59.9854501" lon="17.739074">
        <ele>0</ele>
        <time>2013-05-28T19:36:20Z</time>
      </trkpt>
      <trkpt lat="59.9855127" lon="17.7391106">
        <ele>0</ele>
        <time>2013-05-28T19:36:21Z</time>
      </trkpt>
      <trkpt lat="59.9855709" lon="17.7391532">
        <ele>0</ele>
        <time>2013-05-28T19:36:22Z</time>
      </trkpt>
      <trkpt lat="59.9856387" lon="17.7391804">
        <ele>0</ele>
        <time>2013-05-28T19:36:23Z</time>
      </trkpt>
      <trkpt lat="59.985721" lon="17.7391989">
        <ele>0</ele>
        <time>2013-05-28T19:36:24Z</time>
      </trkpt>
      <trkpt lat="59.9857938" lon="17.7392201">
        <ele>0</ele>
        <time>2013-05-28T19:36:25Z</time>
      </trkpt>
      <trkpt lat="59.9858498" lon="17.739242">
        <ele>0</ele>
        <time>2013-05-28T19:36:26Z</time>
      </trkpt>
      <trkpt lat="59.985911" lon="17.739275">
        <ele>0</ele>
        <time>2013-05-28T19:36:27Z</time>
      </trkpt>
      <trkpt lat="59.9859701" lon="17.7393046">
        <ele>0</ele>
        <time>2013-05-28T19:36:28Z</time>
      </trkpt>
      <trkpt lat="59.986034" lon="17.7393393">
        <ele>0</ele>
        <time>2013-05-28T19:36:29Z</time>
      </trkpt>
      <trkpt lat="59.9861017" lon="17.7393704">
        <ele>0</ele>
        <time>2013-05-28T19:36:30Z</time>
      </trkpt>
      <trkpt lat="59.9861499" lon="17.7394139">
        <ele>0</ele>
        <time>2013-05-28T19:36:31Z</time>
      </trkpt>
      <trkpt lat="59.9862173" lon="17.7394532">
        <ele>0</ele>
        <time>2013-05-28T19:36:32Z</time>
      </trkpt>
      <trkpt lat="59.9862678" lon="17.7394941">
        <ele>0</ele>
        <time>2013-05-28T19:36:33Z</time>
      </trkpt>
      <trkpt lat="59.9863115" lon="17.739547">
        <ele>0</ele>
        <time>2013-05-28T19:36:34Z</time>
      </trkpt>
      <trkpt lat="59.9863579" lon="17.7396035">
        <ele>0</ele>
        <time>2013-05-28T19:36:35Z</time>
      </trkpt>
      <trkpt lat="59.986394" lon="17.7396496">
        <ele>0</ele>
        <time>2013-05-28T19:36:36Z</time>
      </trkpt>
      <trkpt lat="59.9864261" lon="17.7396905">
        <ele>0</ele>
        <time>2013-05-28T19:36:37Z</time>
      </trkpt>
      <trkpt lat="59.9864729" lon="17.7397303">
        <ele>0</ele>
        <time>2013-05-28T19:36:38Z</time>
      </trkpt>
      <trkpt lat="59.9865196" lon="17.7397579">
        <ele>0</ele>
        <time>2013-05-28T19:36:39Z</time>
      </trkpt>
      <trkpt lat="59.9865783" lon="17.7397678">
        <ele>0</ele>
        <time>2013-05-28T19:36:40Z</time>
      </trkpt>
      <trkpt lat="59.9866244" lon="17.7397776">
        <ele>0</ele>
        <time>2013-05-28T19:36:41Z</time>
      </trkpt>
      <trkpt lat="59.9866731" lon="17.7397661">
        <ele>0</ele>
        <time>2013-05-28T19:36:42Z</time>
      </trkpt>
      <trkpt lat="59.9867369" lon="17.7397473">
        <ele>0</ele>
        <time>2013-05-28T19:36:43Z</time>
      </trkpt>
      <trkpt lat="59.9867979" lon="17.7397325">
        <ele>0</ele>
        <time>2013-05-28T19:36:44Z</time>
      </trkpt>
      <trkpt lat="59.9868623" lon="17.7397211">
        <ele>0</ele>
        <time>2013-05-28T19:36:45Z</time>
      </trkpt>
      <trkpt lat="59.9869171" lon="17.7397118">
        <ele>0</ele>
        <time>2013-05-28T19:36:46Z</time>
      </trkpt>
      <trkpt lat="59.9869809" lon="17.7397062">
        <ele>0</ele>
        <time>2013-05-28T19:36:47Z</time>
      </trkpt>
      <trkpt lat="59.9870404" lon="17.7396935">
        <ele>0</ele>
        <time>2013-05-28T19:36:48Z</time>
      </trkpt>
      <trkpt lat="59.9871011" lon="17.739683">
        <ele>0</ele>
        <time>2013-05-28T19:36:49Z</time>
      </trkpt>
      <trkpt lat="59.9871599" lon="17.739665">
        <ele>0</ele>
        <time>2013-05-28T19:36:50Z</time>
      </trkpt>
      <trkpt lat="59.9872092" lon="17.7396719">
        <ele>0</ele>
        <time>2013-05-28T19:36:51Z</time>
      </trkpt>
      <trkpt lat="59.9872725" lon="17.739668">
        <ele>0</ele>
        <time>2013-05-28T19:36:52Z</time>
      </trkpt>
      <trkpt lat="59.9873434" lon="17.7396594">
        <ele>0</ele>
        <time>2013-05-28T19:36:53Z</time>
      </trkpt>
      <trkpt lat="59.9874226" lon="17.7396485">
        <ele>0</ele>
        <time>2013-05-28T19:36:54Z</time>
      </trkpt>
      <trkpt lat="59.9874842" lon="17.7396407">
        <ele>0</ele>
        <time>2013-05-28T19:36:55Z</time>
      </trkpt>
      <trkpt lat="59.98755" lon="17.7396295">
        <ele>0</ele>
        <time>2013-05-28T19:36:56Z</time>
      </trkpt>
      <trkpt lat="59.9876133" lon="17.7396007">
        <ele>0</ele>
        <time>2013-05-28T19:36:57Z</time>
      </trkpt>
      <trkpt lat="59.9876723" lon="17.7395702">
        <ele>0</ele>
        <time>2013-05-28T19:36:58Z</time>
      </trkpt>
      <trkpt lat="59.9877189" lon="17.7395543">
        <ele>0</ele>
        <time>2013-05-28T19:36:59Z</time>
      </trkpt>
      <trkpt lat="59.9877853" lon="17.7395347">
        <ele>0</ele>
        <time>2013-05-28T19:37:00Z</time>
      </trkpt>
      <trkpt lat="59.9878581" lon="17.7395087">
        <ele>0</ele>
        <time>2013-05-28T19:37:01Z</time>
      </trkpt>
      <trkpt lat="59.9879183" lon="17.739476">
        <ele>0</ele>
        <time>2013-05-28T19:37:02Z</time>
      </trkpt>
      <trkpt lat="59.9879814" lon="17.7394444">
        <ele>0</ele>
        <time>2013-05-28T19:37:03Z</time>
      </trkpt>
      <trkpt lat="59.9880304" lon="17.7394015">
        <ele>0</ele>
        <time>2013-05-28T19:37:04Z</time>
      </trkpt>
      <trkpt lat="59.9880841" lon="17.7393609">
        <ele>0</ele>
        <time>2013-05-28T19:37:05Z</time>
      </trkpt>
      <trkpt lat="59.9881567" lon="17.7393274">
        <ele>0</ele>
        <time>2013-05-28T19:37:06Z</time>
      </trkpt>
      <trkpt lat="59.9882327" lon="17.7392983">
        <ele>0</ele>
        <time>2013-05-28T19:37:07Z</time>
      </trkpt>
      <trkpt lat="59.9883004" lon="17.7392673">
        <ele>0</ele>
        <time>2013-05-28T19:37:08Z</time>
      </trkpt>
      <trkpt lat="59.9883623" lon="17.739236">
        <ele>0</ele>
        <time>2013-05-28T19:37:09Z</time>
      </trkpt>
      <trkpt lat="59.9884281" lon="17.7391936">
        <ele>0</ele>
        <time>2013-05-28T19:37:10Z</time>
      </trkpt>
      <trkpt lat="59.9884896" lon="17.7391511">
        <ele>0</ele>
        <time>2013-05-28T19:37:11Z</time>
      </trkpt>
      <trkpt lat="59.9885483" lon="17.7391062">
        <ele>0</ele>
        <time>2013-05-28T19:37:12Z</time>
      </trkpt>
      <trkpt lat="59.9886073" lon="17.7390666">
        <ele>0</ele>
        <time>2013-05-28T19:37:13Z</time>
      </trkpt>
      <trkpt lat="59.9886539" lon="17.739027">
        <ele>0</ele>
        <time>2013-05-28T19:37:14Z</time>
      </trkpt>
      <trkpt lat="59.9886893" lon="17.7389894">
        <ele>0</ele>
        <time>2013-05-28T19:37:15Z</time>
      </trkpt>
      <trkpt lat="59.9887509" lon="17.7389523">
        <ele>0</ele>
        <time>2013-05-28T19:37:16Z</time>
      </trkpt>
      <trkpt lat="59.9888004" lon="17.7389146">
        <ele>0</ele>
        <time>2013-05-28T19:37:17Z</time>
      </trkpt>
      <trkpt lat="59.9888446" lon="17.7388835">
        <ele>0</ele>
        <time>2013-05-28T19:37:18Z</time>
      </trkpt>
      <trkpt lat="59.9889029" lon="17.7388517">
        <ele>0</ele>
        <time>2013-05-28T19:37:19Z</time>
      </trkpt>
      <trkpt lat="59.9889578" lon="17.7388239">
        <ele>0</ele>
        <time>2013-05-28T19:37:20Z</time>
      </trkpt>
      <trkpt lat="59.9890255" lon="17.7388064">
        <ele>0.137451</ele>
        <time>2013-05-28T19:37:21Z</time>
      </trkpt>
      <trkpt lat="59.9890683" lon="17.7387975">
        <ele>0</ele>
        <time>2013-05-28T19:37:22Z</time>
      </trkpt>
      <trkpt lat="59.9891106" lon="17.7387931">
        <ele>0</ele>
        <time>2013-05-28T19:37:23Z</time>
      </trkpt>
      <trkpt lat="59.9891515" lon="17.7387855">
        <ele>0</ele>
        <time>2013-05-28T19:37:24Z</time>
      </trkpt>
      <trkpt lat="59.989203" lon="17.7387649">
        <ele>0</ele>
        <time>2013-05-28T19:37:25Z</time>
      </trkpt>
      <trkpt lat="59.9892565" lon="17.7387444">
        <ele>0</ele>
        <time>2013-05-28T19:37:26Z</time>
      </trkpt>
      <trkpt lat="59.9893187" lon="17.7387259">
        <ele>0</ele>
        <time>2013-05-28T19:37:27Z</time>
      </trkpt>
      <trkpt lat="59.9893657" lon="17.7387139">
        <ele>0</ele>
        <time>2013-05-28T19:37:28Z</time>
      </trkpt>
      <trkpt lat="59.9894352" lon="17.7386968">
        <ele>0</ele>
        <time>2013-05-28T19:37:29Z</time>
      </trkpt>
      <trkpt lat="59.9895061" lon="17.7386581">
        <ele>0</ele>
        <time>2013-05-28T19:37:30Z</time>
      </trkpt>
      <trkpt lat="59.9895745" lon="17.7386186">
        <ele>0</ele>
        <time>2013-05-28T19:37:31Z</time>
      </trkpt>
      <trkpt lat="59.9896495" lon="17.7385815">
        <ele>0</ele>
        <time>2013-05-28T19:37:32Z</time>
      </trkpt>
      <trkpt lat="59.9897191" lon="17.7385499">
        <ele>0</ele>
        <time>2013-05-28T19:37:33Z</time>
      </trkpt>
      <trkpt lat="59.9897827" lon="17.7385141">
        <ele>0</ele>
        <time>2013-05-28T19:37:34Z</time>
      </trkpt>
      <trkpt lat="59.989851" lon="17.7384659">
        <ele>0</ele>
        <time>2013-05-28T19:37:35Z</time>
      </trkpt>
      <trkpt lat="59.9899188" lon="17.7384297">
        <ele>0</ele>
        <time>2013-05-28T19:37:36Z</time>
      </trkpt>
      <trkpt lat="59.9899886" lon="17.7383965">
        <ele>0</ele>
        <time>2013-05-28T19:37:37Z</time>
      </trkpt>
      <trkpt lat="59.9900645" lon="17.7383694">
        <ele>0</ele>
        <time>2013-05-28T19:37:38Z</time>
      </trkpt>
      <trkpt lat="59.9901247" lon="17.7383459">
        <ele>0</ele>
        <time>2013-05-28T19:37:39Z</time>
      </trkpt>
      <trkpt lat="59.9901948" lon="17.7383096">
        <ele>0</ele>
        <time>2013-05-28T19:37:40Z</time>
      </trkpt>
      <trkpt lat="59.9902578" lon="17.7382707">
        <ele>0</ele>
        <time>2013-05-28T19:37:41Z</time>
      </trkpt>
      <trkpt lat="59.9903104" lon="17.7382288">
        <ele>0</ele>
        <time>2013-05-28T19:37:42Z</time>
      </trkpt>
      <trkpt lat="59.9903596" lon="17.7381879">
        <ele>0</ele>
        <time>2013-05-28T19:37:43Z</time>
      </trkpt>
      <trkpt lat="59.9904173" lon="17.7381523">
        <ele>0</ele>
        <time>2013-05-28T19:37:44Z</time>
      </trkpt>
      <trkpt lat="59.9904918" lon="17.7381193">
        <ele>0</ele>
        <time>2013-05-28T19:37:45Z</time>
      </trkpt>
      <trkpt lat="59.9905758" lon="17.7380858">
        <ele>0</ele>
        <time>2013-05-28T19:37:46Z</time>
      </trkpt>
      <trkpt lat="59.9906472" lon="17.7380619">
        <ele>0</ele>
        <time>2013-05-28T19:37:47Z</time>
      </trkpt>
      <trkpt lat="59.9907225" lon="17.7380385">
        <ele>0</ele>
        <time>2013-05-28T19:37:48Z</time>
      </trkpt>
      <trkpt lat="59.9907822" lon="17.7380327">
        <ele>0</ele>
        <time>2013-05-28T19:37:49Z</time>
      </trkpt>
      <trkpt lat="59.9908532" lon="17.7380226">
        <ele>0</ele>
        <time>2013-05-28T19:37:50Z</time>
      </trkpt>
      <trkpt lat="59.9909223" lon="17.7380054">
        <ele>0</ele>
        <time>2013-05-28T19:37:51Z</time>
      </trkpt>
      <trkpt lat="59.9910025" lon="17.7379923">
        <ele>0</ele>
        <time>2013-05-28T19:37:52Z</time>
      </trkpt>
      <trkpt lat="59.9910801" lon="17.7379764">
        <ele>0</ele>
        <time>2013-05-28T19:37:53Z</time>
      </trkpt>
      <trkpt lat="59.9911532" lon="17.7379639">
        <ele>0</ele>
        <time>2013-05-28T19:37:54Z</time>
      </trkpt>
      <trkpt lat="59.9912285" lon="17.7379527">
        <ele>0</ele>
        <time>2013-05-28T19:37:55Z</time>
      </trkpt>
      <trkpt lat="59.9912911" lon="17.7379464">
        <ele>0</ele>
        <time>2013-05-28T19:37:56Z</time>
      </trkpt>
      <trkpt lat="59.9913664" lon="17.7379332">
        <ele>0</ele>
        <time>2013-05-28T19:37:57Z</time>
      </trkpt>
      <trkpt lat="59.9914331" lon="17.7379136">
        <ele>0</ele>
        <time>2013-05-28T19:37:58Z</time>
      </trkpt>
      <trkpt lat="59.9914932" lon="17.7378863">
        <ele>0</ele>
        <time>2013-05-28T19:37:59Z</time>
      </trkpt>
      <trkpt lat="59.9915668" lon="17.7378536">
        <ele>0</ele>
        <time>2013-05-28T19:38:00Z</time>
      </trkpt>
      <trkpt lat="59.9916366" lon="17.7378227">
        <ele>0</ele>
        <time>2013-05-28T19:38:01Z</time>
      </trkpt>
      <trkpt lat="59.9917168" lon="17.7377868">
        <ele>0</ele>
        <time>2013-05-28T19:38:02Z</time>
      </trkpt>
      <trkpt lat="59.9917836" lon="17.7377531">
        <ele>0</ele>
        <time>2013-05-28T19:38:03Z</time>
      </trkpt>
      <trkpt lat="59.9918401" lon="17.7377107">
        <ele>0</ele>
        <time>2013-05-28T19:38:04Z</time>
      </trkpt>
      <trkpt lat="59.9918988" lon="17.7376511">
        <ele>0</ele>
        <time>2013-05-28T19:38:05Z</time>
      </trkpt>
      <trkpt lat="59.99199" lon="17.7375836">
        <ele>0</ele>
        <time>2013-05-28T19:38:06Z</time>
      </trkpt>
      <trkpt lat="59.9920607" lon="17.7375193">
        <ele>0</ele>
        <time>2013-05-28T19:38:07Z</time>
      </trkpt>
      <trkpt lat="59.9921111" lon="17.7374511">
        <ele>0</ele>
        <time>2013-05-28T19:38:08Z</time>
      </trkpt>
      <trkpt lat="59.9921541" lon="17.7373943">
        <ele>0</ele>
        <time>2013-05-28T19:38:09Z</time>
      </trkpt>
      <trkpt lat="59.99222" lon="17.7373202">
        <ele>0</ele>
        <time>2013-05-28T19:38:10Z</time>
      </trkpt>
      <trkpt lat="59.9922919" lon="17.7372419">
        <ele>0</ele>
        <time>2013-05-28T19:38:11Z</time>
      </trkpt>
      <trkpt lat="59.9923676" lon="17.7371653">
        <ele>0</ele>
        <time>2013-05-28T19:38:12Z</time>
      </trkpt>
      <trkpt lat="59.9924473" lon="17.7370534">
        <ele>0</ele>
        <time>2013-05-28T19:38:13Z</time>
      </trkpt>
      <trkpt lat="59.9925245" lon="17.7369227">
        <ele>0</ele>
        <time>2013-05-28T19:38:14Z</time>
      </trkpt>
      <trkpt lat="59.9925909" lon="17.7367719">
        <ele>0</ele>
        <time>2013-05-28T19:38:15Z</time>
      </trkpt>
      <trkpt lat="59.9926571" lon="17.7366311">
        <ele>0</ele>
        <time>2013-05-28T19:38:16Z</time>
      </trkpt>
      <trkpt lat="59.9927215" lon="17.736499">
        <ele>0</ele>
        <time>2013-05-28T19:38:17Z</time>
      </trkpt>
      <trkpt lat="59.9927938" lon="17.7363958">
        <ele>0</ele>
        <time>2013-05-28T19:38:18Z</time>
      </trkpt>
      <trkpt lat="59.9928981" lon="17.7362578">
        <ele>0</ele>
        <time>2013-05-28T19:38:19Z</time>
      </trkpt>
      <trkpt lat="59.9930088" lon="17.7361314">
        <ele>2.54065</ele>
        <time>2013-05-28T19:38:20Z</time>
      </trkpt>
      <trkpt lat="59.9931213" lon="17.735995">
        <ele>9.75061</ele>
        <time>2013-05-28T19:38:21Z</time>
      </trkpt>
      <trkpt lat="59.9932254" lon="17.7358773">
        <ele>14.0764</ele>
        <time>2013-05-28T19:38:22Z</time>
      </trkpt>
      <trkpt lat="59.9933341" lon="17.7357705">
        <ele>18.8831</ele>
        <time>2013-05-28T19:38:23Z</time>
      </trkpt>
      <trkpt lat="59.9934319" lon="17.7356843">
        <ele>21.2864</ele>
        <time>2013-05-28T19:38:24Z</time>
      </trkpt>
      <trkpt lat="59.9935154" lon="17.7356398">
        <ele>19.8444</ele>
        <time>2013-05-28T19:38:25Z</time>
      </trkpt>
      <trkpt lat="59.9936205" lon="17.7356701">
        <ele>21.2864</ele>
        <time>2013-05-28T19:38:26Z</time>
      </trkpt>
      <trkpt lat="59.9937205" lon="17.7357423">
        <ele>19.3638</ele>
        <time>2013-05-28T19:38:27Z</time>
      </trkpt>
      <trkpt lat="59.9938066" lon="17.7357737">
        <ele>17.4412</ele>
        <time>2013-05-28T19:38:28Z</time>
      </trkpt>
      <trkpt lat="59.9938914" lon="17.7358177">
        <ele>15.5184</ele>
        <time>2013-05-28T19:38:29Z</time>
      </trkpt>
      <trkpt lat="59.9939563" lon="17.7358469">
        <ele>10.7118</ele>
        <time>2013-05-28T19:38:30Z</time>
      </trkpt>
      <trkpt lat="59.9940391" lon="17.7358794">
        <ele>9.75061</ele>
        <time>2013-05-28T19:38:31Z</time>
      </trkpt>
      <trkpt lat="59.9941204" lon="17.7359214">
        <ele>8.30859</ele>
        <time>2013-05-28T19:38:32Z</time>
      </trkpt>
      <trkpt lat="59.9941976" lon="17.7359738">
        <ele>5.90527</ele>
        <time>2013-05-28T19:38:33Z</time>
      </trkpt>
      <trkpt lat="59.9942842" lon="17.7360303">
        <ele>4.46326</ele>
        <time>2013-05-28T19:38:34Z</time>
      </trkpt>
      <trkpt lat="59.9943577" lon="17.7360955">
        <ele>2.54065</ele>
        <time>2013-05-28T19:38:35Z</time>
      </trkpt>
      <trkpt lat="59.9944246" lon="17.736152">
        <ele>0</ele>
        <time>2013-05-28T19:38:36Z</time>
      </trkpt>
      <trkpt lat="59.9945078" lon="17.7361989">
        <ele>0</ele>
        <time>2013-05-28T19:38:37Z</time>
      </trkpt>
      <trkpt lat="59.9946021" lon="17.7362526">
        <ele>0.618042</ele>
        <time>2013-05-28T19:38:38Z</time>
      </trkpt>
      <trkpt lat="59.9946837" lon="17.7363005">
        <ele>4.46326</ele>
        <time>2013-05-28T19:38:39Z</time>
      </trkpt>
      <trkpt lat="59.994749" lon="17.7363201">
        <ele>1.57935</ele>
        <time>2013-05-28T19:38:40Z</time>
      </trkpt>
      <trkpt lat="59.9948251" lon="17.7363306">
        <ele>0.137451</ele>
        <time>2013-05-28T19:38:41Z</time>
      </trkpt>
      <trkpt lat="59.9948981" lon="17.7363357">
        <ele>0</ele>
        <time>2013-05-28T19:38:42Z</time>
      </trkpt>
      <trkpt lat="59.9949706" lon="17.7363426">
        <ele>0</ele>
        <time>2013-05-28T19:38:43Z</time>
      </trkpt>
      <trkpt lat="59.9950431" lon="17.7363442">
        <ele>0</ele>
        <time>2013-05-28T19:38:44Z</time>
      </trkpt>
      <trkpt lat="59.9950973" lon="17.7363465">
        <ele>0</ele>
        <time>2013-05-28T19:38:45Z</time>
      </trkpt>
      <trkpt lat="59.9951482" lon="17.736344">
        <ele>0</ele>
        <time>2013-05-28T19:38:46Z</time>
      </trkpt>
      <trkpt lat="59.9952196" lon="17.7363353">
        <ele>0</ele>
        <time>2013-05-28T19:38:47Z</time>
      </trkpt>
      <trkpt lat="59.9952814" lon="17.7363355">
        <ele>0</ele>
        <time>2013-05-28T19:38:48Z</time>
      </trkpt>
      <trkpt lat="59.9953462" lon="17.7363343">
        <ele>0</ele>
        <time>2013-05-28T19:38:49Z</time>
      </trkpt>
      <trkpt lat="59.995418" lon="17.7363343">
        <ele>0</ele>
        <time>2013-05-28T19:38:50Z</time>
      </trkpt>
      <trkpt lat="59.9954995" lon="17.7363367">
        <ele>0</ele>
        <time>2013-05-28T19:38:51Z</time>
      </trkpt>
      <trkpt lat="59.995589" lon="17.736329">
        <ele>0</ele>
        <time>2013-05-28T19:38:52Z</time>
      </trkpt>
      <trkpt lat="59.9956751" lon="17.7363357">
        <ele>0</ele>
        <time>2013-05-28T19:38:53Z</time>
      </trkpt>
      <trkpt lat="59.9957673" lon="17.7363488">
        <ele>0</ele>
        <time>2013-05-28T19:38:54Z</time>
      </trkpt>
      <trkpt lat="59.9958427" lon="17.7363706">
        <ele>0</ele>
        <time>2013-05-28T19:38:55Z</time>
      </trkpt>
      <trkpt lat="59.995924" lon="17.7363949">
        <ele>0</ele>
        <time>2013-05-28T19:38:56Z</time>
      </trkpt>
      <trkpt lat="59.9960014" lon="17.7364327">
        <ele>0</ele>
        <time>2013-05-28T19:38:57Z</time>
      </trkpt>
      <trkpt lat="59.9960676" lon="17.7364709">
        <ele>0</ele>
        <time>2013-05-28T19:38:58Z</time>
      </trkpt>
      <trkpt lat="59.9961367" lon="17.7365126">
        <ele>0</ele>
        <time>2013-05-28T19:38:59Z</time>
      </trkpt>
      <trkpt lat="59.9962147" lon="17.7365436">
        <ele>0</ele>
        <time>2013-05-28T19:39:00Z</time>
      </trkpt>
      <trkpt lat="59.9962841" lon="17.7365778">
        <ele>0</ele>
        <time>2013-05-28T19:39:01Z</time>
      </trkpt>
      <trkpt lat="59.9963451" lon="17.7366283">
        <ele>0</ele>
        <time>2013-05-28T19:39:02Z</time>
      </trkpt>
      <trkpt lat="59.9964054" lon="17.7366788">
        <ele>0</ele>
        <time>2013-05-28T19:39:03Z</time>
      </trkpt>
      <trkpt lat="59.9964667" lon="17.7367083">
        <ele>0</ele>
        <time>2013-05-28T19:39:04Z</time>
      </trkpt>
      <trkpt lat="59.9965418" lon="17.7367363">
        <ele>0</ele>
        <time>2013-05-28T19:39:05Z</time>
      </trkpt>
      <trkpt lat="59.9966174" lon="17.7367622">
        <ele>0</ele>
        <time>2013-05-28T19:39:06Z</time>
      </trkpt>
      <trkpt lat="59.9966769" lon="17.736773">
        <ele>0</ele>
        <time>2013-05-28T19:39:07Z</time>
      </trkpt>
      <trkpt lat="59.9967357" lon="17.7367804">
        <ele>0</ele>
        <time>2013-05-28T19:39:08Z</time>
      </trkpt>
      <trkpt lat="59.9967789" lon="17.7368014">
        <ele>0</ele>
        <time>2013-05-28T19:39:09Z</time>
      </trkpt>
      <trkpt lat="59.9968442" lon="17.7368099">
        <ele>0</ele>
        <time>2013-05-28T19:39:10Z</time>
      </trkpt>
      <trkpt lat="59.9968966" lon="17.73682">
        <ele>0</ele>
        <time>2013-05-28T19:39:11Z</time>
      </trkpt>
      <trkpt lat="59.9969639" lon="17.7368306">
        <ele>0</ele>
        <time>2013-05-28T19:39:12Z</time>
      </trkpt>
      <trkpt lat="59.9970154" lon="17.7368383">
        <ele>0</ele>
        <time>2013-05-28T19:39:13Z</time>
      </trkpt>
      <trkpt lat="59.9970872" lon="17.7368419">
        <ele>0</ele>
        <time>2013-05-28T19:39:14Z</time>
      </trkpt>
      <trkpt lat="59.9971481" lon="17.7368511">
        <ele>0</ele>
        <time>2013-05-28T19:39:15Z</time>
      </trkpt>
      <trkpt lat="59.9972225" lon="17.7368601">
        <ele>0</ele>
        <time>2013-05-28T19:39:16Z</time>
      </trkpt>
      <trkpt lat="59.9972736" lon="17.7368659">
        <ele>0</ele>
        <time>2013-05-28T19:39:17Z</time>
      </trkpt>
      <trkpt lat="59.9973306" lon="17.7368642">
        <ele>0</ele>
        <time>2013-05-28T19:39:18Z</time>
      </trkpt>
      <trkpt lat="59.9974143" lon="17.7368586">
        <ele>0</ele>
        <time>2013-05-28T19:39:19Z</time>
      </trkpt>
      <trkpt lat="59.9975045" lon="17.7368554">
        <ele>0</ele>
        <time>2013-05-28T19:39:20Z</time>
      </trkpt>
      <trkpt lat="59.9975654" lon="17.7368585">
        <ele>0</ele>
        <time>2013-05-28T19:39:21Z</time>
      </trkpt>
      <trkpt lat="59.9976471" lon="17.7368554">
        <ele>0</ele>
        <time>2013-05-28T19:39:22Z</time>
      </trkpt>
      <trkpt lat="59.9977273" lon="17.7368472">
        <ele>0.137451</ele>
        <time>2013-05-28T19:39:23Z</time>
      </trkpt>
      <trkpt lat="59.9978055" lon="17.736834">
        <ele>1.57935</ele>
        <time>2013-05-28T19:39:24Z</time>
      </trkpt>
      <trkpt lat="59.9978808" lon="17.7368252">
        <ele>3.02124</ele>
        <time>2013-05-28T19:39:25Z</time>
      </trkpt>
      <trkpt lat="59.9979579" lon="17.7368263">
        <ele>4.46326</ele>
        <time>2013-05-28T19:39:26Z</time>
      </trkpt>
      <trkpt lat="59.9980475" lon="17.7368407">
        <ele>7.34717</ele>
        <time>2013-05-28T19:39:27Z</time>
      </trkpt>
      <trkpt lat="59.9981225" lon="17.7368651">
        <ele>8.30859</ele>
        <time>2013-05-28T19:39:28Z</time>
      </trkpt>
      <trkpt lat="59.9982004" lon="17.7368816">
        <ele>9.2699</ele>
        <time>2013-05-28T19:39:29Z</time>
      </trkpt>
      <trkpt lat="59.9982768" lon="17.7368979">
        <ele>9.2699</ele>
        <time>2013-05-28T19:39:30Z</time>
      </trkpt>
      <trkpt lat="59.9983515" lon="17.736916">
        <ele>9.2699</ele>
        <time>2013-05-28T19:39:31Z</time>
      </trkpt>
      <trkpt lat="59.9984314" lon="17.7369275">
        <ele>9.2699</ele>
        <time>2013-05-28T19:39:32Z</time>
      </trkpt>
      <trkpt lat="59.9985113" lon="17.736944">
        <ele>10.2312</ele>
        <time>2013-05-28T19:39:33Z</time>
      </trkpt>
      <trkpt lat="59.998583" lon="17.7369554">
        <ele>10.2312</ele>
        <time>2013-05-28T19:39:34Z</time>
      </trkpt>
      <trkpt lat="59.9986567" lon="17.7369724">
        <ele>10.2312</ele>
        <time>2013-05-28T19:39:35Z</time>
      </trkpt>
      <trkpt lat="59.9987348" lon="17.7369835">
        <ele>10.7118</ele>
        <time>2013-05-28T19:39:36Z</time>
      </trkpt>
      <trkpt lat="59.9988124" lon="17.7369896">
        <ele>12.1538</ele>
        <time>2013-05-28T19:39:37Z</time>
      </trkpt>
      <trkpt lat="59.9988871" lon="17.7369938">
        <ele>13.1151</ele>
        <time>2013-05-28T19:39:38Z</time>
      </trkpt>
      <trkpt lat="59.9989586" lon="17.7370108">
        <ele>14.0764</ele>
        <time>2013-05-28T19:39:39Z</time>
      </trkpt>
      <trkpt lat="59.9990204" lon="17.7370316">
        <ele>13.5958</ele>
        <time>2013-05-28T19:39:40Z</time>
      </trkpt>
      <trkpt lat="59.9990883" lon="17.7370511">
        <ele>13.5958</ele>
        <time>2013-05-28T19:39:41Z</time>
      </trkpt>
      <trkpt lat="59.9991473" lon="17.7370602">
        <ele>12.6344</ele>
        <time>2013-05-28T19:39:42Z</time>
      </trkpt>
      <trkpt lat="59.9992166" lon="17.7370594">
        <ele>13.1151</ele>
        <time>2013-05-28T19:39:43Z</time>
      </trkpt>
      <trkpt lat="59.9992865" lon="17.7370562">
        <ele>14.0764</ele>
        <time>2013-05-28T19:39:44Z</time>
      </trkpt>
      <trkpt lat="59.9993489" lon="17.7370612">
        <ele>13.5958</ele>
        <time>2013-05-28T19:39:45Z</time>
      </trkpt>
      <trkpt lat="59.9994173" lon="17.737058">
        <ele>14.0764</ele>
        <time>2013-05-28T19:39:46Z</time>
      </trkpt>
      <trkpt lat="59.999484" lon="17.7370593">
        <ele>13.5958</ele>
        <time>2013-05-28T19:39:47Z</time>
      </trkpt>
      <trkpt lat="59.9995476" lon="17.7370607">
        <ele>13.5958</ele>
        <time>2013-05-28T19:39:48Z</time>
      </trkpt>
      <trkpt lat="59.9996186" lon="17.7370673">
        <ele>15.999</ele>
        <time>2013-05-28T19:39:49Z</time>
      </trkpt>
      <trkpt lat="59.9996762" lon="17.7370669">
        <ele>15.5184</ele>
        <time>2013-05-28T19:39:50Z</time>
      </trkpt>
      <trkpt lat="59.9997379" lon="17.7370619">
        <ele>15.999</ele>
        <time>2013-05-28T19:39:51Z</time>
      </trkpt>
      <trkpt lat="59.9998072" lon="17.7370586">
        <ele>16.4797</ele>
        <time>2013-05-28T19:39:52Z</time>
      </trkpt>
      <trkpt lat="59.9998816" lon="17.7370491">
        <ele>17.4412</ele>
        <time>2013-05-28T19:39:53Z</time>
      </trkpt>
      <trkpt lat="59.9999616" lon="17.7370362">
        <ele>18.8831</ele>
        <time>2013-05-28T19:39:54Z</time>
      </trkpt>
      <trkpt lat="60.0000393" lon="17.7370163">
        <ele>18.4023</ele>
        <time>2013-05-28T19:39:55Z</time>
      </trkpt>
      <trkpt lat="60.000123" lon="17.736987">
        <ele>18.4023</ele>
        <time>2013-05-28T19:39:56Z</time>
      </trkpt>
      <trkpt lat="60.0002139" lon="17.736946">
        <ele>19.8444</ele>
        <time>2013-05-28T19:39:57Z</time>
      </trkpt>
      <trkpt lat="60.0003071" lon="17.7368999">
        <ele>21.2864</ele>
        <time>2013-05-28T19:39:58Z</time>
      </trkpt>
      <trkpt lat="60.0003915" lon="17.7368435">
        <ele>21.767</ele>
        <time>2013-05-28T19:39:59Z</time>
      </trkpt>
      <trkpt lat="60.0004766" lon="17.7367784">
        <ele>22.7283</ele>
        <time>2013-05-28T19:40:00Z</time>
      </trkpt>
      <trkpt lat="60.0005517" lon="17.7367109">
        <ele>21.767</ele>
        <time>2013-05-28T19:40:01Z</time>
      </trkpt>
      <trkpt lat="60.000625" lon="17.7366487">
        <ele>20.8057</ele>
        <time>2013-05-28T19:40:02Z</time>
      </trkpt>
      <trkpt lat="60.0007028" lon="17.7365937">
        <ele>20.8057</ele>
        <time>2013-05-28T19:40:03Z</time>
      </trkpt>
      <trkpt lat="60.000781" lon="17.7365492">
        <ele>20.8057</ele>
        <time>2013-05-28T19:40:04Z</time>
      </trkpt>
      <trkpt lat="60.000851" lon="17.736511">
        <ele>20.325</ele>
        <time>2013-05-28T19:40:05Z</time>
      </trkpt>
      <trkpt lat="60.000924" lon="17.7364696">
        <ele>19.8444</ele>
        <time>2013-05-28T19:40:06Z</time>
      </trkpt>
      <trkpt lat="60.0009992" lon="17.7364342">
        <ele>19.8444</ele>
        <time>2013-05-28T19:40:07Z</time>
      </trkpt>
      <trkpt lat="60.0010778" lon="17.7363943">
        <ele>20.325</ele>
        <time>2013-05-28T19:40:08Z</time>
      </trkpt>
      <trkpt lat="60.0011571" lon="17.7363389">
        <ele>22.2476</ele>
        <time>2013-05-28T19:40:09Z</time>
      </trkpt>
      <trkpt lat="60.0012262" lon="17.736278">
        <ele>23.209</ele>
        <time>2013-05-28T19:40:10Z</time>
      </trkpt>
      <trkpt lat="60.0012733" lon="17.7362151">
        <ele>20.8057</ele>
        <time>2013-05-28T19:40:11Z</time>
      </trkpt>
      <trkpt lat="60.0013204" lon="17.7361488">
        <ele>19.3638</ele>
        <time>2013-05-28T19:40:12Z</time>
      </trkpt>
      <trkpt lat="60.0013781" lon="17.7360795">
        <ele>18.8831</ele>
        <time>2013-05-28T19:40:13Z</time>
      </trkpt>
      <trkpt lat="60.0014343" lon="17.7360111">
        <ele>17.4412</ele>
        <time>2013-05-28T19:40:14Z</time>
      </trkpt>
      <trkpt lat="60.0014907" lon="17.735924">
        <ele>15.999</ele>
        <time>2013-05-28T19:40:15Z</time>
      </trkpt>
      <trkpt lat="60.0015483" lon="17.735837">
        <ele>14.557</ele>
        <time>2013-05-28T19:40:16Z</time>
      </trkpt>
      <trkpt lat="60.001609" lon="17.735749">
        <ele>13.5958</ele>
        <time>2013-05-28T19:40:17Z</time>
      </trkpt>
      <trkpt lat="60.0016715" lon="17.7356382">
        <ele>13.1151</ele>
        <time>2013-05-28T19:40:18Z</time>
      </trkpt>
      <trkpt lat="60.0017353" lon="17.7355117">
        <ele>11.6732</ele>
        <time>2013-05-28T19:40:19Z</time>
      </trkpt>
      <trkpt lat="60.0017917" lon="17.735363">
        <ele>10.7118</ele>
        <time>2013-05-28T19:40:20Z</time>
      </trkpt>
      <trkpt lat="60.0018413" lon="17.7352048">
        <ele>9.75061</ele>
        <time>2013-05-28T19:40:21Z</time>
      </trkpt>
      <trkpt lat="60.0018801" lon="17.7350305">
        <ele>9.2699</ele>
        <time>2013-05-28T19:40:22Z</time>
      </trkpt>
      <trkpt lat="60.0019062" lon="17.7348506">
        <ele>7.34717</ele>
        <time>2013-05-28T19:40:23Z</time>
      </trkpt>
      <trkpt lat="60.0019389" lon="17.7346348">
        <ele>7.34717</ele>
        <time>2013-05-28T19:40:24Z</time>
      </trkpt>
      <trkpt lat="60.0019444" lon="17.7343387">
        <ele>7.82788</ele>
        <time>2013-05-28T19:40:25Z</time>
      </trkpt>
      <trkpt lat="60.0019597" lon="17.7341546">
        <ele>6.86646</ele>
        <time>2013-05-28T19:40:26Z</time>
      </trkpt>
      <trkpt lat="60.0019944" lon="17.7339891">
        <ele>5.90527</ele>
        <time>2013-05-28T19:40:27Z</time>
      </trkpt>
      <trkpt lat="60.0020423" lon="17.7337671">
        <ele>6.38586</ele>
        <time>2013-05-28T19:40:28Z</time>
      </trkpt>
      <trkpt lat="60.0020702" lon="17.7335535">
        <ele>7.34717</ele>
        <time>2013-05-28T19:40:29Z</time>
      </trkpt>
      <trkpt lat="60.0020804" lon="17.7333709">
        <ele>6.86646</ele>
        <time>2013-05-28T19:40:30Z</time>
      </trkpt>
      <trkpt lat="60.0020808" lon="17.7331925">
        <ele>6.38586</ele>
        <time>2013-05-28T19:40:31Z</time>
      </trkpt>
      <trkpt lat="60.0020819" lon="17.733022">
        <ele>3.98267</ele>
        <time>2013-05-28T19:40:32Z</time>
      </trkpt>
      <trkpt lat="60.0020869" lon="17.7328417">
        <ele>4.46326</ele>
        <time>2013-05-28T19:40:33Z</time>
      </trkpt>
      <trkpt lat="60.002103" lon="17.7326526">
        <ele>6.38586</ele>
        <time>2013-05-28T19:40:34Z</time>
      </trkpt>
      <trkpt lat="60.0021279" lon="17.7324749">
        <ele>4.94385</ele>
        <time>2013-05-28T19:40:35Z</time>
      </trkpt>
      <trkpt lat="60.0021601" lon="17.73231">
        <ele>3.50195</ele>
        <time>2013-05-28T19:40:36Z</time>
      </trkpt>
      <trkpt lat="60.0022166" lon="17.7321115">
        <ele>2.54065</ele>
        <time>2013-05-28T19:40:37Z</time>
      </trkpt>
      <trkpt lat="60.0022872" lon="17.7318676">
        <ele>3.98267</ele>
        <time>2013-05-28T19:40:38Z</time>
      </trkpt>
      <trkpt lat="60.0023428" lon="17.73171">
        <ele>4.46326</ele>
        <time>2013-05-28T19:40:39Z</time>
      </trkpt>
      <trkpt lat="60.0024069" lon="17.7314978">
        <ele>3.50195</ele>
        <time>2013-05-28T19:40:40Z</time>
      </trkpt>
      <trkpt lat="60.0024737" lon="17.7313127">
        <ele>5.42456</ele>
        <time>2013-05-28T19:40:41Z</time>
      </trkpt>
      <trkpt lat="60.0025473" lon="17.7311302">
        <ele>7.82788</ele>
        <time>2013-05-28T19:40:42Z</time>
      </trkpt>
      <trkpt lat="60.0026132" lon="17.7309818">
        <ele>10.2312</ele>
        <time>2013-05-28T19:40:43Z</time>
      </trkpt>
      <trkpt lat="60.002676" lon="17.7308191">
        <ele>11.1925</ele>
        <time>2013-05-28T19:40:44Z</time>
      </trkpt>
      <trkpt lat="60.0027709" lon="17.7306362">
        <ele>13.5958</ele>
        <time>2013-05-28T19:40:45Z</time>
      </trkpt>
      <trkpt lat="60.0028598" lon="17.7304364">
        <ele>14.0764</ele>
        <time>2013-05-28T19:40:46Z</time>
      </trkpt>
      <trkpt lat="60.0029551" lon="17.7302825">
        <ele>15.999</ele>
        <time>2013-05-28T19:40:47Z</time>
      </trkpt>
      <trkpt lat="60.0030546" lon="17.7301658">
        <ele>18.8831</ele>
        <time>2013-05-28T19:40:48Z</time>
      </trkpt>
      <trkpt lat="60.0031806" lon="17.7300945">
        <ele>24.651</ele>
        <time>2013-05-28T19:40:49Z</time>
      </trkpt>
      <trkpt lat="60.0032606" lon="17.7300156">
        <ele>24.1703</ele>
        <time>2013-05-28T19:40:50Z</time>
      </trkpt>
      <trkpt lat="60.00334" lon="17.7299087">
        <ele>23.6896</ele>
        <time>2013-05-28T19:40:51Z</time>
      </trkpt>
      <trkpt lat="60.003403" lon="17.7297779">
        <ele>21.2864</ele>
        <time>2013-05-28T19:40:52Z</time>
      </trkpt>
      <trkpt lat="60.0034504" lon="17.7296585">
        <ele>18.4023</ele>
        <time>2013-05-28T19:40:53Z</time>
      </trkpt>
      <trkpt lat="60.0035032" lon="17.7295316">
        <ele>15.999</ele>
        <time>2013-05-28T19:40:54Z</time>
      </trkpt>
      <trkpt lat="60.0035596" lon="17.7293827">
        <ele>14.557</ele>
        <time>2013-05-28T19:40:55Z</time>
      </trkpt>
      <trkpt lat="60.003616" lon="17.7292539">
        <ele>12.6344</ele>
        <time>2013-05-28T19:40:56Z</time>
      </trkpt>
      <trkpt lat="60.0036727" lon="17.7291046">
        <ele>11.6732</ele>
        <time>2013-05-28T19:40:57Z</time>
      </trkpt>
      <trkpt lat="60.0037208" lon="17.7289982">
        <ele>9.2699</ele>
        <time>2013-05-28T19:40:58Z</time>
      </trkpt>
      <trkpt lat="60.0037597" lon="17.7289044">
        <ele>6.38586</ele>
        <time>2013-05-28T19:40:59Z</time>
      </trkpt>
      <trkpt lat="60.0037897" lon="17.7288221">
        <ele>1.57935</ele>
        <time>2013-05-28T19:41:00Z</time>
      </trkpt>
      <trkpt lat="60.0038139" lon="17.7287765">
        <ele>0</ele>
        <time>2013-05-28T19:41:01Z</time>
      </trkpt>
      <trkpt lat="60.0038317" lon="17.7287911">
        <ele>0</ele>
        <time>2013-05-28T19:41:02Z</time>
      </trkpt>
      <trkpt lat="60.0038372" lon="17.7288666">
        <ele>0</ele>
        <time>2013-05-28T19:41:03Z</time>
      </trkpt>
      <trkpt lat="60.0038279" lon="17.7289852">
        <ele>0</ele>
        <time>2013-05-28T19:41:04Z</time>
      </trkpt>
      <trkpt lat="60.0038348" lon="17.7291123">
        <ele>0</ele>
        <time>2013-05-28T19:41:05Z</time>
      </trkpt>
      <trkpt lat="60.0038259" lon="17.7292323">
        <ele>0</ele>
        <time>2013-05-28T19:41:06Z</time>
      </trkpt>
      <trkpt lat="60.0038353" lon="17.7293408">
        <ele>0</ele>
        <time>2013-05-28T19:41:07Z</time>
      </trkpt>
      <trkpt lat="60.0038514" lon="17.7294371">
        <ele>0</ele>
        <time>2013-05-28T19:41:08Z</time>
      </trkpt>
      <trkpt lat="60.0038606" lon="17.7295357">
        <ele>0</ele>
        <time>2013-05-28T19:41:09Z</time>
      </trkpt>
      <trkpt lat="60.0038582" lon="17.7296344">
        <ele>0</ele>
        <time>2013-05-28T19:41:10Z</time>
      </trkpt>
      <trkpt lat="60.0038688" lon="17.7297451">
        <ele>0</ele>
        <time>2013-05-28T19:41:11Z</time>
      </trkpt>
      <trkpt lat="60.0038925" lon="17.7298538">
        <ele>0</ele>
        <time>2013-05-28T19:41:12Z</time>
      </trkpt>
      <trkpt lat="60.0039404" lon="17.7299664">
        <ele>0</ele>
        <time>2013-05-28T19:41:13Z</time>
      </trkpt>
      <trkpt lat="60.0039684" lon="17.7300767">
        <ele>0</ele>
        <time>2013-05-28T19:41:14Z</time>
      </trkpt>
      <trkpt lat="60.0039886" lon="17.7302009">
        <ele>0</ele>
        <time>2013-05-28T19:41:15Z</time>
      </trkpt>
      <trkpt lat="60.0040234" lon="17.7303236">
        <ele>0</ele>
        <time>2013-05-28T19:41:16Z</time>
      </trkpt>
      <trkpt lat="60.0040647" lon="17.7304481">
        <ele>0</ele>
        <time>2013-05-28T19:41:17Z</time>
      </trkpt>
      <trkpt lat="60.0040942" lon="17.7305752">
        <ele>0</ele>
        <time>2013-05-28T19:41:18Z</time>
      </trkpt>
      <trkpt lat="60.0041516" lon="17.7306821">
        <ele>0</ele>
        <time>2013-05-28T19:41:19Z</time>
      </trkpt>
      <trkpt lat="60.0041928" lon="17.7307955">
        <ele>0</ele>
        <time>2013-05-28T19:41:20Z</time>
      </trkpt>
      <trkpt lat="60.0042448" lon="17.730901">
        <ele>0</ele>
        <time>2013-05-28T19:41:21Z</time>
      </trkpt>
      <trkpt lat="60.0042662" lon="17.7310181">
        <ele>0</ele>
        <time>2013-05-28T19:41:22Z</time>
      </trkpt>
      <trkpt lat="60.0042916" lon="17.7311226">
        <ele>0</ele>
        <time>2013-05-28T19:41:23Z</time>
      </trkpt>
      <trkpt lat="60.0043294" lon="17.7312081">
        <ele>0</ele>
        <time>2013-05-28T19:41:24Z</time>
      </trkpt>
      <trkpt lat="60.0043725" lon="17.7312875">
        <ele>0</ele>
        <time>2013-05-28T19:41:25Z</time>
      </trkpt>
      <trkpt lat="60.0044211" lon="17.7313789">
        <ele>0</ele>
        <time>2013-05-28T19:41:26Z</time>
      </trkpt>
      <trkpt lat="60.0044631" lon="17.731464">
        <ele>0</ele>
        <time>2013-05-28T19:41:27Z</time>
      </trkpt>
      <trkpt lat="60.0045111" lon="17.7315458">
        <ele>0</ele>
        <time>2013-05-28T19:41:28Z</time>
      </trkpt>
      <trkpt lat="60.0045697" lon="17.7316264">
        <ele>0</ele>
        <time>2013-05-28T19:41:29Z</time>
      </trkpt>
      <trkpt lat="60.0046183" lon="17.7317112">
        <ele>0</ele>
        <time>2013-05-28T19:41:30Z</time>
      </trkpt>
      <trkpt lat="60.0046686" lon="17.7317906">
        <ele>1.09863</ele>
        <time>2013-05-28T19:41:31Z</time>
      </trkpt>
      <trkpt lat="60.0047261" lon="17.7318746">
        <ele>4.94385</ele>
        <time>2013-05-28T19:41:32Z</time>
      </trkpt>
      <trkpt lat="60.0047761" lon="17.7319551">
        <ele>7.34717</ele>
        <time>2013-05-28T19:41:33Z</time>
      </trkpt>
      <trkpt lat="60.0048418" lon="17.7320274">
        <ele>9.75061</ele>
        <time>2013-05-28T19:41:34Z</time>
      </trkpt>
      <trkpt lat="60.0049107" lon="17.7320862">
        <ele>11.1925</ele>
        <time>2013-05-28T19:41:35Z</time>
      </trkpt>
      <trkpt lat="60.0049619" lon="17.7321208">
        <ele>10.2312</ele>
        <time>2013-05-28T19:41:36Z</time>
      </trkpt>
      <trkpt lat="60.0050042" lon="17.7321101">
        <ele>7.82788</ele>
        <time>2013-05-28T19:41:37Z</time>
      </trkpt>
      <trkpt lat="60.0050681" lon="17.7320633">
        <ele>7.82788</ele>
        <time>2013-05-28T19:41:38Z</time>
      </trkpt>
      <trkpt lat="60.0051351" lon="17.7319969">
        <ele>9.75061</ele>
        <time>2013-05-28T19:41:39Z</time>
      </trkpt>
      <trkpt lat="60.0052137" lon="17.7319374">
        <ele>11.6732</ele>
        <time>2013-05-28T19:41:40Z</time>
      </trkpt>
      <trkpt lat="60.0052861" lon="17.7318608">
        <ele>14.557</ele>
        <time>2013-05-28T19:41:41Z</time>
      </trkpt>
      <trkpt lat="60.0053603" lon="17.7317886">
        <ele>17.4412</ele>
        <time>2013-05-28T19:41:42Z</time>
      </trkpt>
      <trkpt lat="60.0054131" lon="17.7317007">
        <ele>15.5184</ele>
        <time>2013-05-28T19:41:43Z</time>
      </trkpt>
      <trkpt lat="60.0054834" lon="17.7316173">
        <ele>19.3638</ele>
        <time>2013-05-28T19:41:44Z</time>
      </trkpt>
      <trkpt lat="60.0055592" lon="17.731551">
        <ele>22.2476</ele>
        <time>2013-05-28T19:41:45Z</time>
      </trkpt>
      <trkpt lat="60.0056354" lon="17.7314837">
        <ele>25.1317</ele>
        <time>2013-05-28T19:41:46Z</time>
      </trkpt>
      <trkpt lat="60.005717" lon="17.7314164">
        <ele>28.4962</ele>
        <time>2013-05-28T19:41:47Z</time>
      </trkpt>
      <trkpt lat="60.0057818" lon="17.7313547">
        <ele>27.5349</ele>
        <time>2013-05-28T19:41:48Z</time>
      </trkpt>
      <trkpt lat="60.0058575" lon="17.731293">
        <ele>27.0543</ele>
        <time>2013-05-28T19:41:49Z</time>
      </trkpt>
      <trkpt lat="60.0059258" lon="17.7312226">
        <ele>26.5736</ele>
        <time>2013-05-28T19:41:50Z</time>
      </trkpt>
      <trkpt lat="60.0059995" lon="17.731167">
        <ele>25.6123</ele>
        <time>2013-05-28T19:41:51Z</time>
      </trkpt>
      <trkpt lat="60.0060809" lon="17.7311049">
        <ele>26.0929</ele>
        <time>2013-05-28T19:41:52Z</time>
      </trkpt>
      <trkpt lat="60.0061611" lon="17.7310407">
        <ele>26.5736</ele>
        <time>2013-05-28T19:41:53Z</time>
      </trkpt>
      <trkpt lat="60.0062387" lon="17.7309696">
        <ele>25.6123</ele>
        <time>2013-05-28T19:41:54Z</time>
      </trkpt>
      <trkpt lat="60.0063253" lon="17.7308921">
        <ele>26.5736</ele>
        <time>2013-05-28T19:41:55Z</time>
      </trkpt>
      <trkpt lat="60.0064045" lon="17.7308268">
        <ele>26.0929</ele>
        <time>2013-05-28T19:41:56Z</time>
      </trkpt>
      <trkpt lat="60.0064844" lon="17.7307681">
        <ele>25.1317</ele>
        <time>2013-05-28T19:41:57Z</time>
      </trkpt>
      <trkpt lat="60.0065553" lon="17.7306984">
        <ele>23.209</ele>
        <time>2013-05-28T19:41:58Z</time>
      </trkpt>
      <trkpt lat="60.00665" lon="17.7306419">
        <ele>25.1317</ele>
        <time>2013-05-28T19:41:59Z</time>
      </trkpt>
      <trkpt lat="60.0067289" lon="17.7305843">
        <ele>24.1703</ele>
        <time>2013-05-28T19:42:00Z</time>
      </trkpt>
      <trkpt lat="60.0068045" lon="17.7305227">
        <ele>22.2476</ele>
        <time>2013-05-28T19:42:01Z</time>
      </trkpt>
      <trkpt lat="60.006891" lon="17.7304694">
        <ele>22.2476</ele>
        <time>2013-05-28T19:42:02Z</time>
      </trkpt>
      <trkpt lat="60.0069863" lon="17.7304086">
        <ele>23.6896</ele>
        <time>2013-05-28T19:42:03Z</time>
      </trkpt>
      <trkpt lat="60.0070769" lon="17.7303554">
        <ele>24.1703</ele>
        <time>2013-05-28T19:42:04Z</time>
      </trkpt>
      <trkpt lat="60.007157" lon="17.7303046">
        <ele>23.209</ele>
        <time>2013-05-28T19:42:05Z</time>
      </trkpt>
      <trkpt lat="60.0072338" lon="17.7302744">
        <ele>21.2864</ele>
        <time>2013-05-28T19:42:06Z</time>
      </trkpt>
      <trkpt lat="60.0072986" lon="17.7302504">
        <ele>18.4023</ele>
        <time>2013-05-28T19:42:07Z</time>
      </trkpt>
      <trkpt lat="60.0073567" lon="17.7302352">
        <ele>14.557</ele>
        <time>2013-05-28T19:42:08Z</time>
      </trkpt>
      <trkpt lat="60.0074153" lon="17.7302227">
        <ele>10.2312</ele>
        <time>2013-05-28T19:42:09Z</time>
      </trkpt>
      <trkpt lat="60.0074726" lon="17.7302202">
        <ele>5.42456</ele>
        <time>2013-05-28T19:42:10Z</time>
      </trkpt>
      <trkpt lat="60.007538" lon="17.7302027">
        <ele>0.137451</ele>
        <time>2013-05-28T19:42:11Z</time>
      </trkpt>
      <trkpt lat="60.0076031" lon="17.7301965">
        <ele>0</ele>
        <time>2013-05-28T19:42:12Z</time>
      </trkpt>
      <trkpt lat="60.0076645" lon="17.7301974">
        <ele>0</ele>
        <time>2013-05-28T19:42:13Z</time>
      </trkpt>
      <trkpt lat="60.0077246" lon="17.730204">
        <ele>0</ele>
        <time>2013-05-28T19:42:14Z</time>
      </trkpt>
      <trkpt lat="60.0077922" lon="17.7302107">
        <ele>0</ele>
        <time>2013-05-28T19:42:15Z</time>
      </trkpt>
      <trkpt lat="60.0078643" lon="17.7302201">
        <ele>0</ele>
        <time>2013-05-28T19:42:16Z</time>
      </trkpt>
      <trkpt lat="60.0079401" lon="17.7302341">
        <ele>0</ele>
        <time>2013-05-28T19:42:17Z</time>
      </trkpt>
      <trkpt lat="60.0080235" lon="17.730256">
        <ele>0</ele>
        <time>2013-05-28T19:42:18Z</time>
      </trkpt>
      <trkpt lat="60.0081208" lon="17.7302782">
        <ele>0</ele>
        <time>2013-05-28T19:42:19Z</time>
      </trkpt>
      <trkpt lat="60.0082171" lon="17.730303">
        <ele>0</ele>
        <time>2013-05-28T19:42:20Z</time>
      </trkpt>
      <trkpt lat="60.0083119" lon="17.7303387">
        <ele>0</ele>
        <time>2013-05-28T19:42:21Z</time>
      </trkpt>
      <trkpt lat="60.008401" lon="17.7303834">
        <ele>0</ele>
        <time>2013-05-28T19:42:22Z</time>
      </trkpt>
      <trkpt lat="60.0084999" lon="17.7304296">
        <ele>0</ele>
        <time>2013-05-28T19:42:23Z</time>
      </trkpt>
      <trkpt lat="60.0085954" lon="17.7304814">
        <ele>0</ele>
        <time>2013-05-28T19:42:24Z</time>
      </trkpt>
      <trkpt lat="60.0086966" lon="17.7305392">
        <ele>0</ele>
        <time>2013-05-28T19:42:25Z</time>
      </trkpt>
      <trkpt lat="60.0087807" lon="17.7306028">
        <ele>0</ele>
        <time>2013-05-28T19:42:26Z</time>
      </trkpt>
      <trkpt lat="60.0088604" lon="17.7306717">
        <ele>0</ele>
        <time>2013-05-28T19:42:27Z</time>
      </trkpt>
      <trkpt lat="60.0089402" lon="17.7307472">
        <ele>0</ele>
        <time>2013-05-28T19:42:28Z</time>
      </trkpt>
      <trkpt lat="60.0090253" lon="17.7308232">
        <ele>0</ele>
        <time>2013-05-28T19:42:29Z</time>
      </trkpt>
      <trkpt lat="60.0091064" lon="17.7309077">
        <ele>0</ele>
        <time>2013-05-28T19:42:30Z</time>
      </trkpt>
      <trkpt lat="60.009181" lon="17.730991">
        <ele>0</ele>
        <time>2013-05-28T19:42:31Z</time>
      </trkpt>
      <trkpt lat="60.0092714" lon="17.7310808">
        <ele>0</ele>
        <time>2013-05-28T19:42:32Z</time>
      </trkpt>
      <trkpt lat="60.0093677" lon="17.7311761">
        <ele>0</ele>
        <time>2013-05-28T19:42:33Z</time>
      </trkpt>
      <trkpt lat="60.0094458" lon="17.7312749">
        <ele>0</ele>
        <time>2013-05-28T19:42:34Z</time>
      </trkpt>
      <trkpt lat="60.0095304" lon="17.7313682">
        <ele>0</ele>
        <time>2013-05-28T19:42:35Z</time>
      </trkpt>
      <trkpt lat="60.0096189" lon="17.7314592">
        <ele>0</ele>
        <time>2013-05-28T19:42:36Z</time>
      </trkpt>
      <trkpt lat="60.0097007" lon="17.7315474">
        <ele>0</ele>
        <time>2013-05-28T19:42:37Z</time>
      </trkpt>
      <trkpt lat="60.0097835" lon="17.7316349">
        <ele>0</ele>
        <time>2013-05-28T19:42:38Z</time>
      </trkpt>
      <trkpt lat="60.0098619" lon="17.7317198">
        <ele>0</ele>
        <time>2013-05-28T19:42:39Z</time>
      </trkpt>
      <trkpt lat="60.009936" lon="17.7318029">
        <ele>0</ele>
        <time>2013-05-28T19:42:40Z</time>
      </trkpt>
      <trkpt lat="60.0100296" lon="17.7318961">
        <ele>0</ele>
        <time>2013-05-28T19:42:41Z</time>
      </trkpt>
      <trkpt lat="60.0101302" lon="17.7319927">
        <ele>0</ele>
        <time>2013-05-28T19:42:42Z</time>
      </trkpt>
      <trkpt lat="60.0102442" lon="17.7320901">
        <ele>0</ele>
        <time>2013-05-28T19:42:43Z</time>
      </trkpt>
      <trkpt lat="60.0103404" lon="17.732182">
        <ele>0</ele>
        <time>2013-05-28T19:42:44Z</time>
      </trkpt>
      <trkpt lat="60.0104285" lon="17.7322691">
        <ele>1.09863</ele>
        <time>2013-05-28T19:42:45Z</time>
      </trkpt>
      <trkpt lat="60.0105233" lon="17.7323551">
        <ele>6.38586</ele>
        <time>2013-05-28T19:42:46Z</time>
      </trkpt>
      <trkpt lat="60.0106046" lon="17.7324343">
        <ele>9.2699</ele>
        <time>2013-05-28T19:42:47Z</time>
      </trkpt>
      <trkpt lat="60.0106885" lon="17.7324985">
        <ele>14.557</ele>
        <time>2013-05-28T19:42:48Z</time>
      </trkpt>
      <trkpt lat="60.0107476" lon="17.7325539">
        <ele>13.1151</ele>
        <time>2013-05-28T19:42:49Z</time>
      </trkpt>
      <trkpt lat="60.0108171" lon="17.7326061">
        <ele>12.6344</ele>
        <time>2013-05-28T19:42:50Z</time>
      </trkpt>
      <trkpt lat="60.0109184" lon="17.7326661">
        <ele>17.9218</ele>
        <time>2013-05-28T19:42:51Z</time>
      </trkpt>
      <trkpt lat="60.0109849" lon="17.732716">
        <ele>17.9218</ele>
        <time>2013-05-28T19:42:52Z</time>
      </trkpt>
      <trkpt lat="60.0110589" lon="17.7327569">
        <ele>19.3638</ele>
        <time>2013-05-28T19:42:53Z</time>
      </trkpt>
      <trkpt lat="60.0111231" lon="17.7327943">
        <ele>17.9218</ele>
        <time>2013-05-28T19:42:54Z</time>
      </trkpt>
      <trkpt lat="60.0111872" lon="17.7328267">
        <ele>15.999</ele>
        <time>2013-05-28T19:42:55Z</time>
      </trkpt>
      <trkpt lat="60.0112527" lon="17.7328549">
        <ele>14.557</ele>
        <time>2013-05-28T19:42:56Z</time>
      </trkpt>
      <trkpt lat="60.0113108" lon="17.7328714">
        <ele>13.1151</ele>
        <time>2013-05-28T19:42:57Z</time>
      </trkpt>
      <trkpt lat="60.0113583" lon="17.7328864">
        <ele>9.2699</ele>
        <time>2013-05-28T19:42:58Z</time>
      </trkpt>
      <trkpt lat="60.0114226" lon="17.7329045">
        <ele>7.34717</ele>
        <time>2013-05-28T19:42:59Z</time>
      </trkpt>
      <trkpt lat="60.0114764" lon="17.7329086">
        <ele>3.98267</ele>
        <time>2013-05-28T19:43:00Z</time>
      </trkpt>
      <trkpt lat="60.0115401" lon="17.7329073">
        <ele>2.54065</ele>
        <time>2013-05-28T19:43:01Z</time>
      </trkpt>
      <trkpt lat="60.0116013" lon="17.7329061">
        <ele>0</ele>
        <time>2013-05-28T19:43:02Z</time>
      </trkpt>
      <trkpt lat="60.0116562" lon="17.7329051">
        <ele>0</ele>
        <time>2013-05-28T19:43:03Z</time>
      </trkpt>
      <trkpt lat="60.0117207" lon="17.7328999">
        <ele>0</ele>
        <time>2013-05-28T19:43:04Z</time>
      </trkpt>
      <trkpt lat="60.0117867" lon="17.7328885">
        <ele>0</ele>
        <time>2013-05-28T19:43:05Z</time>
      </trkpt>
      <trkpt lat="60.0118576" lon="17.7328694">
        <ele>0</ele>
        <time>2013-05-28T19:43:06Z</time>
      </trkpt>
      <trkpt lat="60.0119293" lon="17.7328449">
        <ele>0</ele>
        <time>2013-05-28T19:43:07Z</time>
      </trkpt>
      <trkpt lat="60.0119986" lon="17.7328181">
        <ele>0</ele>
        <time>2013-05-28T19:43:08Z</time>
      </trkpt>
      <trkpt lat="60.0120701" lon="17.7327918">
        <ele>0</ele>
        <time>2013-05-28T19:43:09Z</time>
      </trkpt>
      <trkpt lat="60.0121391" lon="17.7327707">
        <ele>0</ele>
        <time>2013-05-28T19:43:10Z</time>
      </trkpt>
      <trkpt lat="60.0122155" lon="17.7327495">
        <ele>0</ele>
        <time>2013-05-28T19:43:11Z</time>
      </trkpt>
      <trkpt lat="60.012299" lon="17.7327229">
        <ele>0</ele>
        <time>2013-05-28T19:43:12Z</time>
      </trkpt>
      <trkpt lat="60.0123822" lon="17.7326963">
        <ele>0</ele>
        <time>2013-05-28T19:43:13Z</time>
      </trkpt>
      <trkpt lat="60.0124571" lon="17.7326678">
        <ele>0</ele>
        <time>2013-05-28T19:43:14Z</time>
      </trkpt>
      <trkpt lat="60.0125389" lon="17.7326362">
        <ele>0</ele>
        <time>2013-05-28T19:43:15Z</time>
      </trkpt>
      <trkpt lat="60.0126086" lon="17.7326052">
        <ele>0</ele>
        <time>2013-05-28T19:43:16Z</time>
      </trkpt>
      <trkpt lat="60.0126865" lon="17.7325729">
        <ele>0</ele>
        <time>2013-05-28T19:43:17Z</time>
      </trkpt>
      <trkpt lat="60.012778" lon="17.732544">
        <ele>0</ele>
        <time>2013-05-28T19:43:18Z</time>
      </trkpt>
      <trkpt lat="60.0128565" lon="17.7325276">
        <ele>0</ele>
        <time>2013-05-28T19:43:19Z</time>
      </trkpt>
      <trkpt lat="60.0129472" lon="17.7325184">
        <ele>0</ele>
        <time>2013-05-28T19:43:20Z</time>
      </trkpt>
      <trkpt lat="60.0130433" lon="17.7325155">
        <ele>0</ele>
        <time>2013-05-28T19:43:21Z</time>
      </trkpt>
      <trkpt lat="60.0131356" lon="17.7325188">
        <ele>0</ele>
        <time>2013-05-28T19:43:22Z</time>
      </trkpt>
      <trkpt lat="60.0132281" lon="17.7325191">
        <ele>0</ele>
        <time>2013-05-28T19:43:23Z</time>
      </trkpt>
      <trkpt lat="60.0133174" lon="17.7325236">
        <ele>0</ele>
        <time>2013-05-28T19:43:24Z</time>
      </trkpt>
      <trkpt lat="60.0134013" lon="17.7325302">
        <ele>0</ele>
        <time>2013-05-28T19:43:25Z</time>
      </trkpt>
      <trkpt lat="60.0134893" lon="17.7325511">
        <ele>0</ele>
        <time>2013-05-28T19:43:26Z</time>
      </trkpt>
      <trkpt lat="60.0135854" lon="17.7325808">
        <ele>0</ele>
        <time>2013-05-28T19:43:27Z</time>
      </trkpt>
      <trkpt lat="60.0136767" lon="17.7326075">
        <ele>0</ele>
        <time>2013-05-28T19:43:28Z</time>
      </trkpt>
      <trkpt lat="60.0137664" lon="17.7326477">
        <ele>0</ele>
        <time>2013-05-28T19:43:29Z</time>
      </trkpt>
      <trkpt lat="60.013844" lon="17.7326824">
        <ele>0</ele>
        <time>2013-05-28T19:43:30Z</time>
      </trkpt>
      <trkpt lat="60.0139259" lon="17.7327207">
        <ele>0</ele>
        <time>2013-05-28T19:43:31Z</time>
      </trkpt>
      <trkpt lat="60.0140065" lon="17.7327652">
        <ele>0</ele>
        <time>2013-05-28T19:43:32Z</time>
      </trkpt>
      <trkpt lat="60.0140894" lon="17.7328144">
        <ele>0</ele>
        <time>2013-05-28T19:43:33Z</time>
      </trkpt>
      <trkpt lat="60.0141653" lon="17.7328641">
        <ele>0</ele>
        <time>2013-05-28T19:43:34Z</time>
      </trkpt>
      <trkpt lat="60.014229" lon="17.732923">
        <ele>0</ele>
        <time>2013-05-28T19:43:35Z</time>
      </trkpt>
      <trkpt lat="60.0143026" lon="17.7329901">
        <ele>0</ele>
        <time>2013-05-28T19:43:36Z</time>
      </trkpt>
      <trkpt lat="60.0144031" lon="17.7330641">
        <ele>0</ele>
        <time>2013-05-28T19:43:37Z</time>
      </trkpt>
      <trkpt lat="60.0144918" lon="17.7331377">
        <ele>0</ele>
        <time>2013-05-28T19:43:38Z</time>
      </trkpt>
      <trkpt lat="60.0145784" lon="17.7332102">
        <ele>0</ele>
        <time>2013-05-28T19:43:39Z</time>
      </trkpt>
      <trkpt lat="60.0146775" lon="17.7332732">
        <ele>0</ele>
        <time>2013-05-28T19:43:40Z</time>
      </trkpt>
      <trkpt lat="60.0147863" lon="17.7333206">
        <ele>0</ele>
        <time>2013-05-28T19:43:41Z</time>
      </trkpt>
      <trkpt lat="60.0148766" lon="17.7333612">
        <ele>0</ele>
        <time>2013-05-28T19:43:42Z</time>
      </trkpt>
      <trkpt lat="60.0149588" lon="17.7333916">
        <ele>0</ele>
        <time>2013-05-28T19:43:43Z</time>
      </trkpt>
      <trkpt lat="60.0150256" lon="17.733408">
        <ele>0</ele>
        <time>2013-05-28T19:43:44Z</time>
      </trkpt>
      <trkpt lat="60.0150919" lon="17.7334281">
        <ele>0</ele>
        <time>2013-05-28T19:43:45Z</time>
      </trkpt>
      <trkpt lat="60.0151688" lon="17.7334573">
        <ele>0</ele>
        <time>2013-05-28T19:43:46Z</time>
      </trkpt>
      <trkpt lat="60.0152416" lon="17.733479">
        <ele>0</ele>
        <time>2013-05-28T19:43:47Z</time>
      </trkpt>
      <trkpt lat="60.0153144" lon="17.7334947">
        <ele>0</ele>
        <time>2013-05-28T19:43:48Z</time>
      </trkpt>
      <trkpt lat="60.0153801" lon="17.7335029">
        <ele>1.09863</ele>
        <time>2013-05-28T19:43:49Z</time>
      </trkpt>
      <trkpt lat="60.0154634" lon="17.733513">
        <ele>8.30859</ele>
        <time>2013-05-28T19:43:50Z</time>
      </trkpt>
      <trkpt lat="60.0155452" lon="17.7335175">
        <ele>14.557</ele>
        <time>2013-05-28T19:43:51Z</time>
      </trkpt>
      <trkpt lat="60.0156042" lon="17.7335301">
        <ele>13.5958</ele>
        <time>2013-05-28T19:43:52Z</time>
      </trkpt>
      <trkpt lat="60.0156617" lon="17.7335395">
        <ele>13.1151</ele>
        <time>2013-05-28T19:43:53Z</time>
      </trkpt>
      <trkpt lat="60.015728" lon="17.7335529">
        <ele>13.5958</ele>
        <time>2013-05-28T19:43:54Z</time>
      </trkpt>
      <trkpt lat="60.0157934" lon="17.7335567">
        <ele>13.1151</ele>
        <time>2013-05-28T19:43:55Z</time>
      </trkpt>
      <trkpt lat="60.0158666" lon="17.7335553">
        <ele>15.0377</ele>
        <time>2013-05-28T19:43:56Z</time>
      </trkpt>
      <trkpt lat="60.0159303" lon="17.7335646">
        <ele>16.4797</ele>
        <time>2013-05-28T19:43:57Z</time>
      </trkpt>
      <trkpt lat="60.015986" lon="17.7335853">
        <ele>16.4797</ele>
        <time>2013-05-28T19:43:58Z</time>
      </trkpt>
      <trkpt lat="60.0160478" lon="17.7336182">
        <ele>18.8831</ele>
        <time>2013-05-28T19:43:59Z</time>
      </trkpt>
      <trkpt lat="60.0161111" lon="17.7336459">
        <ele>20.8057</ele>
        <time>2013-05-28T19:44:00Z</time>
      </trkpt>
      <trkpt lat="60.0161754" lon="17.7336754">
        <ele>22.7283</ele>
        <time>2013-05-28T19:44:01Z</time>
      </trkpt>
      <trkpt lat="60.0162264" lon="17.7337138">
        <ele>21.767</ele>
        <time>2013-05-28T19:44:02Z</time>
      </trkpt>
      <trkpt lat="60.0162782" lon="17.7337437">
        <ele>19.8444</ele>
        <time>2013-05-28T19:44:03Z</time>
      </trkpt>
      <trkpt lat="60.0163406" lon="17.733766">
        <ele>17.9218</ele>
        <time>2013-05-28T19:44:04Z</time>
      </trkpt>
      <trkpt lat="60.0163986" lon="17.7337774">
        <ele>14.557</ele>
        <time>2013-05-28T19:44:05Z</time>
      </trkpt>
      <trkpt lat="60.0164631" lon="17.7338064">
        <ele>12.6344</ele>
        <time>2013-05-28T19:44:06Z</time>
      </trkpt>
      <trkpt lat="60.0165328" lon="17.7338168">
        <ele>12.6344</ele>
        <time>2013-05-28T19:44:07Z</time>
      </trkpt>
      <trkpt lat="60.0166063" lon="17.7338319">
        <ele>13.5958</ele>
        <time>2013-05-28T19:44:08Z</time>
      </trkpt>
      <trkpt lat="60.0166615" lon="17.7338593">
        <ele>12.1538</ele>
        <time>2013-05-28T19:44:09Z</time>
      </trkpt>
      <trkpt lat="60.0167213" lon="17.7338924">
        <ele>10.7118</ele>
        <time>2013-05-28T19:44:10Z</time>
      </trkpt>
      <trkpt lat="60.0167765" lon="17.7339236">
        <ele>7.82788</ele>
        <time>2013-05-28T19:44:11Z</time>
      </trkpt>
      <trkpt lat="60.0168352" lon="17.7339484">
        <ele>5.90527</ele>
        <time>2013-05-28T19:44:12Z</time>
      </trkpt>
      <trkpt lat="60.0169099" lon="17.733968">
        <ele>7.34717</ele>
        <time>2013-05-28T19:44:13Z</time>
      </trkpt>
      <trkpt lat="60.0169725" lon="17.7339908">
        <ele>5.90527</ele>
        <time>2013-05-28T19:44:14Z</time>
      </trkpt>
      <trkpt lat="60.0170373" lon="17.7340132">
        <ele>3.98267</ele>
        <time>2013-05-28T19:44:15Z</time>
      </trkpt>
      <trkpt lat="60.0171019" lon="17.7340347">
        <ele>2.54065</ele>
        <time>2013-05-28T19:44:16Z</time>
      </trkpt>
      <trkpt lat="60.017173" lon="17.7340504">
        <ele>1.57935</ele>
        <time>2013-05-28T19:44:17Z</time>
      </trkpt>
      <trkpt lat="60.0172521" lon="17.7340691">
        <ele>3.02124</ele>
        <time>2013-05-28T19:44:18Z</time>
      </trkpt>
      <trkpt lat="60.0173206" lon="17.7340925">
        <ele>1.57935</ele>
        <time>2013-05-28T19:44:19Z</time>
      </trkpt>
      <trkpt lat="60.0173998" lon="17.7341198">
        <ele>3.02124</ele>
        <time>2013-05-28T19:44:20Z</time>
      </trkpt>
      <trkpt lat="60.0174838" lon="17.7341517">
        <ele>5.42456</ele>
        <time>2013-05-28T19:44:21Z</time>
      </trkpt>
      <trkpt lat="60.0175587" lon="17.7341908">
        <ele>6.38586</ele>
        <time>2013-05-28T19:44:22Z</time>
      </trkpt>
      <trkpt lat="60.0176191" lon="17.7342353">
        <ele>3.98267</ele>
        <time>2013-05-28T19:44:23Z</time>
      </trkpt>
      <trkpt lat="60.0176811" lon="17.7342831">
        <ele>3.02124</ele>
        <time>2013-05-28T19:44:24Z</time>
      </trkpt>
      <trkpt lat="60.0177407" lon="17.7343388">
        <ele>2.06006</ele>
        <time>2013-05-28T19:44:25Z</time>
      </trkpt>
      <trkpt lat="60.0177924" lon="17.7343895">
        <ele>1.09863</ele>
        <time>2013-05-28T19:44:26Z</time>
      </trkpt>
      <trkpt lat="60.0178541" lon="17.7344385">
        <ele>1.57935</ele>
        <time>2013-05-28T19:44:27Z</time>
      </trkpt>
      <trkpt lat="60.017928" lon="17.7344901">
        <ele>4.46326</ele>
        <time>2013-05-28T19:44:28Z</time>
      </trkpt>
      <trkpt lat="60.0179741" lon="17.7345542">
        <ele>4.46326</ele>
        <time>2013-05-28T19:44:29Z</time>
      </trkpt>
      <trkpt lat="60.0180192" lon="17.7346149">
        <ele>3.02124</ele>
        <time>2013-05-28T19:44:30Z</time>
      </trkpt>
      <trkpt lat="60.0180731" lon="17.7346813">
        <ele>3.02124</ele>
        <time>2013-05-28T19:44:31Z</time>
      </trkpt>
      <trkpt lat="60.0181189" lon="17.7347428">
        <ele>2.06006</ele>
        <time>2013-05-28T19:44:32Z</time>
      </trkpt>
      <trkpt lat="60.0181531" lon="17.7348171">
        <ele>0.137451</ele>
        <time>2013-05-28T19:44:33Z</time>
      </trkpt>
      <trkpt lat="60.0182043" lon="17.7348792">
        <ele>0</ele>
        <time>2013-05-28T19:44:34Z</time>
      </trkpt>
      <trkpt lat="60.0182568" lon="17.7349419">
        <ele>0</ele>
        <time>2013-05-28T19:44:35Z</time>
      </trkpt>
      <trkpt lat="60.0183214" lon="17.7350134">
        <ele>0</ele>
        <time>2013-05-28T19:44:36Z</time>
      </trkpt>
      <trkpt lat="60.0183842" lon="17.7350901">
        <ele>0</ele>
        <time>2013-05-28T19:44:37Z</time>
      </trkpt>
      <trkpt lat="60.0184301" lon="17.7351776">
        <ele>0</ele>
        <time>2013-05-28T19:44:38Z</time>
      </trkpt>
      <trkpt lat="60.0184794" lon="17.735262">
        <ele>0</ele>
        <time>2013-05-28T19:44:39Z</time>
      </trkpt>
      <trkpt lat="60.0185416" lon="17.7353434">
        <ele>0</ele>
        <time>2013-05-28T19:44:40Z</time>
      </trkpt>
      <trkpt lat="60.0186036" lon="17.7354232">
        <ele>0</ele>
        <time>2013-05-28T19:44:41Z</time>
      </trkpt>
      <trkpt lat="60.0186673" lon="17.7355063">
        <ele>0</ele>
        <time>2013-05-28T19:44:42Z</time>
      </trkpt>
      <trkpt lat="60.0187383" lon="17.7355868">
        <ele>0</ele>
        <time>2013-05-28T19:44:43Z</time>
      </trkpt>
      <trkpt lat="60.0188151" lon="17.7356716">
        <ele>0</ele>
        <time>2013-05-28T19:44:44Z</time>
      </trkpt>
      <trkpt lat="60.0188753" lon="17.7357572">
        <ele>0.618042</ele>
        <time>2013-05-28T19:44:45Z</time>
      </trkpt>
      <trkpt lat="60.0189166" lon="17.7358487">
        <ele>0</ele>
        <time>2013-05-28T19:44:46Z</time>
      </trkpt>
      <trkpt lat="60.0189815" lon="17.73594">
        <ele>0</ele>
        <time>2013-05-28T19:44:47Z</time>
      </trkpt>
      <trkpt lat="60.0190381" lon="17.7360354">
        <ele>0</ele>
        <time>2013-05-28T19:44:48Z</time>
      </trkpt>
      <trkpt lat="60.0191022" lon="17.7361203">
        <ele>0</ele>
        <time>2013-05-28T19:44:49Z</time>
      </trkpt>
      <trkpt lat="60.019171" lon="17.7362013">
        <ele>1.57935</ele>
        <time>2013-05-28T19:44:50Z</time>
      </trkpt>
      <trkpt lat="60.0192294" lon="17.7362859">
        <ele>0.618042</ele>
        <time>2013-05-28T19:44:51Z</time>
      </trkpt>
      <trkpt lat="60.0192926" lon="17.7363693">
        <ele>1.57935</ele>
        <time>2013-05-28T19:44:52Z</time>
      </trkpt>
      <trkpt lat="60.0193573" lon="17.736454">
        <ele>3.02124</ele>
        <time>2013-05-28T19:44:53Z</time>
      </trkpt>
      <trkpt lat="60.0194129" lon="17.7365389">
        <ele>2.54065</ele>
        <time>2013-05-28T19:44:54Z</time>
      </trkpt>
      <trkpt lat="60.0194609" lon="17.7366149">
        <ele>0.137451</ele>
        <time>2013-05-28T19:44:55Z</time>
      </trkpt>
      <trkpt lat="60.0195039" lon="17.7366927">
        <ele>0</ele>
        <time>2013-05-28T19:44:56Z</time>
      </trkpt>
      <trkpt lat="60.0195611" lon="17.7367811">
        <ele>0</ele>
        <time>2013-05-28T19:44:57Z</time>
      </trkpt>
      <trkpt lat="60.0196107" lon="17.736878">
        <ele>0</ele>
        <time>2013-05-28T19:44:58Z</time>
      </trkpt>
      <trkpt lat="60.0196382" lon="17.7369838">
        <ele>0</ele>
        <time>2013-05-28T19:44:59Z</time>
      </trkpt>
      <trkpt lat="60.019679" lon="17.7370917">
        <ele>0</ele>
        <time>2013-05-28T19:45:00Z</time>
      </trkpt>
      <trkpt lat="60.0197315" lon="17.7372246">
        <ele>0</ele>
        <time>2013-05-28T19:45:01Z</time>
      </trkpt>
      <trkpt lat="60.0197756" lon="17.7373631">
        <ele>0</ele>
        <time>2013-05-28T19:45:02Z</time>
      </trkpt>
      <trkpt lat="60.0198268" lon="17.7374977">
        <ele>0</ele>
        <time>2013-05-28T19:45:03Z</time>
      </trkpt>
      <trkpt lat="60.0198781" lon="17.7376293">
        <ele>0</ele>
        <time>2013-05-28T19:45:04Z</time>
      </trkpt>
      <trkpt lat="60.0199318" lon="17.7377625">
        <ele>0</ele>
        <time>2013-05-28T19:45:05Z</time>
      </trkpt>
      <trkpt lat="60.0199816" lon="17.7378919">
        <ele>0</ele>
        <time>2013-05-28T19:45:06Z</time>
      </trkpt>
      <trkpt lat="60.0200319" lon="17.7380213">
        <ele>0.137451</ele>
        <time>2013-05-28T19:45:07Z</time>
      </trkpt>
      <trkpt lat="60.0200819" lon="17.7381474">
        <ele>2.06006</ele>
        <time>2013-05-28T19:45:08Z</time>
      </trkpt>
      <trkpt lat="60.0201302" lon="17.7382707">
        <ele>3.98267</ele>
        <time>2013-05-28T19:45:09Z</time>
      </trkpt>
      <trkpt lat="60.0201759" lon="17.7383887">
        <ele>4.94385</ele>
        <time>2013-05-28T19:45:10Z</time>
      </trkpt>
      <trkpt lat="60.0202215" lon="17.7385058">
        <ele>5.42456</ele>
        <time>2013-05-28T19:45:11Z</time>
      </trkpt>
      <trkpt lat="60.0202751" lon="17.7386248">
        <ele>5.90527</ele>
        <time>2013-05-28T19:45:12Z</time>
      </trkpt>
      <trkpt lat="60.0203226" lon="17.7387358">
        <ele>5.42456</ele>
        <time>2013-05-28T19:45:13Z</time>
      </trkpt>
      <trkpt lat="60.0203736" lon="17.738841">
        <ele>4.94385</ele>
        <time>2013-05-28T19:45:14Z</time>
      </trkpt>
      <trkpt lat="60.0204249" lon="17.7389399">
        <ele>5.90527</ele>
        <time>2013-05-28T19:45:15Z</time>
      </trkpt>
      <trkpt lat="60.0204882" lon="17.7390285">
        <ele>8.30859</ele>
        <time>2013-05-28T19:45:16Z</time>
      </trkpt>
      <trkpt lat="60.0205329" lon="17.7391229">
        <ele>5.90527</ele>
        <time>2013-05-28T19:45:17Z</time>
      </trkpt>
      <trkpt lat="60.0205805" lon="17.7392202">
        <ele>3.98267</ele>
        <time>2013-05-28T19:45:18Z</time>
      </trkpt>
      <trkpt lat="60.0206295" lon="17.7393135">
        <ele>2.06006</ele>
        <time>2013-05-28T19:45:19Z</time>
      </trkpt>
      <trkpt lat="60.0206849" lon="17.7394015">
        <ele>1.09863</ele>
        <time>2013-05-28T19:45:20Z</time>
      </trkpt>
      <trkpt lat="60.020737" lon="17.7394831">
        <ele>0</ele>
        <time>2013-05-28T19:45:21Z</time>
      </trkpt>
      <trkpt lat="60.0207869" lon="17.7395631">
        <ele>0</ele>
        <time>2013-05-28T19:45:22Z</time>
      </trkpt>
      <trkpt lat="60.0208358" lon="17.7396543">
        <ele>0</ele>
        <time>2013-05-28T19:45:23Z</time>
      </trkpt>
      <trkpt lat="60.0208923" lon="17.7397376">
        <ele>0</ele>
        <time>2013-05-28T19:45:24Z</time>
      </trkpt>
      <trkpt lat="60.0209664" lon="17.7398065">
        <ele>0</ele>
        <time>2013-05-28T19:45:25Z</time>
      </trkpt>
      <trkpt lat="60.0210316" lon="17.7398697">
        <ele>0</ele>
        <time>2013-05-28T19:45:26Z</time>
      </trkpt>
      <trkpt lat="60.0210974" lon="17.7399371">
        <ele>0</ele>
        <time>2013-05-28T19:45:27Z</time>
      </trkpt>
      <trkpt lat="60.0211732" lon="17.7400002">
        <ele>0</ele>
        <time>2013-05-28T19:45:28Z</time>
      </trkpt>
      <trkpt lat="60.0212236" lon="17.7400666">
        <ele>0</ele>
        <time>2013-05-28T19:45:29Z</time>
      </trkpt>
      <trkpt lat="60.0212938" lon="17.7401386">
        <ele>0</ele>
        <time>2013-05-28T19:45:30Z</time>
      </trkpt>
      <trkpt lat="60.0213667" lon="17.7402076">
        <ele>0.137451</ele>
        <time>2013-05-28T19:45:31Z</time>
      </trkpt>
      <trkpt lat="60.0214372" lon="17.7402706">
        <ele>1.57935</ele>
        <time>2013-05-28T19:45:32Z</time>
      </trkpt>
      <trkpt lat="60.0215155" lon="17.7403287">
        <ele>3.98267</ele>
        <time>2013-05-28T19:45:33Z</time>
      </trkpt>
      <trkpt lat="60.0215891" lon="17.7403894">
        <ele>5.90527</ele>
        <time>2013-05-28T19:45:34Z</time>
      </trkpt>
      <trkpt lat="60.0216595" lon="17.7404573">
        <ele>7.82788</ele>
        <time>2013-05-28T19:45:35Z</time>
      </trkpt>
      <trkpt lat="60.0217319" lon="17.7405204">
        <ele>10.7118</ele>
        <time>2013-05-28T19:45:36Z</time>
      </trkpt>
      <trkpt lat="60.0218039" lon="17.7405719">
        <ele>11.6732</ele>
        <time>2013-05-28T19:45:37Z</time>
      </trkpt>
      <trkpt lat="60.0218797" lon="17.7406385">
        <ele>14.557</ele>
        <time>2013-05-28T19:45:38Z</time>
      </trkpt>
      <trkpt lat="60.0219512" lon="17.7407069">
        <ele>15.999</ele>
        <time>2013-05-28T19:45:39Z</time>
      </trkpt>
      <trkpt lat="60.0220241" lon="17.7407742">
        <ele>18.4023</ele>
        <time>2013-05-28T19:45:40Z</time>
      </trkpt>
      <trkpt lat="60.0220759" lon="17.7408467">
        <ele>16.9604</ele>
        <time>2013-05-28T19:45:41Z</time>
      </trkpt>
      <trkpt lat="60.022119" lon="17.7409243">
        <ele>14.0764</ele>
        <time>2013-05-28T19:45:42Z</time>
      </trkpt>
      <trkpt lat="60.0221649" lon="17.7410056">
        <ele>12.6344</ele>
        <time>2013-05-28T19:45:43Z</time>
      </trkpt>
      <trkpt lat="60.0222218" lon="17.7410887">
        <ele>14.557</ele>
        <time>2013-05-28T19:45:44Z</time>
      </trkpt>
      <trkpt lat="60.0222769" lon="17.7411736">
        <ele>16.9604</ele>
        <time>2013-05-28T19:45:45Z</time>
      </trkpt>
      <trkpt lat="60.0223162" lon="17.7412522">
        <ele>15.999</ele>
        <time>2013-05-28T19:45:46Z</time>
      </trkpt>
      <trkpt lat="60.0223531" lon="17.7413062">
        <ele>13.1151</ele>
        <time>2013-05-28T19:45:47Z</time>
      </trkpt>
      <trkpt lat="60.0224055" lon="17.7413137">
        <ele>12.1538</ele>
        <time>2013-05-28T19:45:48Z</time>
      </trkpt>
      <trkpt lat="60.0224723" lon="17.7412452">
        <ele>12.1538</ele>
        <time>2013-05-28T19:45:49Z</time>
      </trkpt>
      <trkpt lat="60.0225163" lon="17.7411275">
        <ele>9.2699</ele>
        <time>2013-05-28T19:45:50Z</time>
      </trkpt>
      <trkpt lat="60.0225446" lon="17.7409704">
        <ele>8.30859</ele>
        <time>2013-05-28T19:45:51Z</time>
      </trkpt>
      <trkpt lat="60.0225414" lon="17.7407737">
        <ele>7.82788</ele>
        <time>2013-05-28T19:45:52Z</time>
      </trkpt>
      <trkpt lat="60.0225442" lon="17.7405608">
        <ele>5.90527</ele>
        <time>2013-05-28T19:45:53Z</time>
      </trkpt>
      <trkpt lat="60.0225546" lon="17.7403685">
        <ele>4.94385</ele>
        <time>2013-05-28T19:45:54Z</time>
      </trkpt>
      <trkpt lat="60.0225727" lon="17.7401874">
        <ele>5.90527</ele>
        <time>2013-05-28T19:45:55Z</time>
      </trkpt>
      <trkpt lat="60.0225979" lon="17.7399894">
        <ele>7.82788</ele>
        <time>2013-05-28T19:45:56Z</time>
      </trkpt>
      <trkpt lat="60.0226167" lon="17.7398219">
        <ele>7.82788</ele>
        <time>2013-05-28T19:45:57Z</time>
      </trkpt>
      <trkpt lat="60.0226331" lon="17.73966">
        <ele>7.34717</ele>
        <time>2013-05-28T19:45:58Z</time>
      </trkpt>
      <trkpt lat="60.0226469" lon="17.7395014">
        <ele>6.38586</ele>
        <time>2013-05-28T19:45:59Z</time>
      </trkpt>
      <trkpt lat="60.0226588" lon="17.739344">
        <ele>4.94385</ele>
        <time>2013-05-28T19:46:00Z</time>
      </trkpt>
      <trkpt lat="60.0226744" lon="17.7391735">
        <ele>3.98267</ele>
        <time>2013-05-28T19:46:01Z</time>
      </trkpt>
      <trkpt lat="60.022685" lon="17.7390063">
        <ele>2.54065</ele>
        <time>2013-05-28T19:46:02Z</time>
      </trkpt>
      <trkpt lat="60.0226942" lon="17.7388367">
        <ele>1.09863</ele>
        <time>2013-05-28T19:46:03Z</time>
      </trkpt>
      <trkpt lat="60.0227039" lon="17.7386629">
        <ele>0.137451</ele>
        <time>2013-05-28T19:46:04Z</time>
      </trkpt>
      <trkpt lat="60.0227131" lon="17.7384896">
        <ele>0</ele>
        <time>2013-05-28T19:46:05Z</time>
      </trkpt>
      <trkpt lat="60.0227245" lon="17.7383112">
        <ele>0</ele>
        <time>2013-05-28T19:46:06Z</time>
      </trkpt>
      <trkpt lat="60.0227357" lon="17.7381321">
        <ele>0</ele>
        <time>2013-05-28T19:46:07Z</time>
      </trkpt>
      <trkpt lat="60.0227478" lon="17.7379491">
        <ele>0</ele>
        <time>2013-05-28T19:46:08Z</time>
      </trkpt>
      <trkpt lat="60.02276" lon="17.7377604">
        <ele>0</ele>
        <time>2013-05-28T19:46:09Z</time>
      </trkpt>
      <trkpt lat="60.0227716" lon="17.7375692">
        <ele>0</ele>
        <time>2013-05-28T19:46:10Z</time>
      </trkpt>
      <trkpt lat="60.0227851" lon="17.7373753">
        <ele>0</ele>
        <time>2013-05-28T19:46:11Z</time>
      </trkpt>
      <trkpt lat="60.0227997" lon="17.7371792">
        <ele>0</ele>
        <time>2013-05-28T19:46:12Z</time>
      </trkpt>
      <trkpt lat="60.0228147" lon="17.7369823">
        <ele>0</ele>
        <time>2013-05-28T19:46:13Z</time>
      </trkpt>
      <trkpt lat="60.0228296" lon="17.7367849">
        <ele>0</ele>
        <time>2013-05-28T19:46:14Z</time>
      </trkpt>
      <trkpt lat="60.0228442" lon="17.7365893">
        <ele>0</ele>
        <time>2013-05-28T19:46:15Z</time>
      </trkpt>
      <trkpt lat="60.0228602" lon="17.7363924">
        <ele>0</ele>
        <time>2013-05-28T19:46:16Z</time>
      </trkpt>
      <trkpt lat="60.0228747" lon="17.7361991">
        <ele>0</ele>
        <time>2013-05-28T19:46:17Z</time>
      </trkpt>
      <trkpt lat="60.0228877" lon="17.7360093">
        <ele>0</ele>
        <time>2013-05-28T19:46:18Z</time>
      </trkpt>
      <trkpt lat="60.022902" lon="17.7358184">
        <ele>0</ele>
        <time>2013-05-28T19:46:19Z</time>
      </trkpt>
      <trkpt lat="60.022916" lon="17.7356289">
        <ele>0</ele>
        <time>2013-05-28T19:46:20Z</time>
      </trkpt>
      <trkpt lat="60.0229305" lon="17.7354376">
        <ele>0</ele>
        <time>2013-05-28T19:46:21Z</time>
      </trkpt>
      <trkpt lat="60.0229462" lon="17.735248">
        <ele>0</ele>
        <time>2013-05-28T19:46:22Z</time>
      </trkpt>
      <trkpt lat="60.0229602" lon="17.735062">
        <ele>0</ele>
        <time>2013-05-28T19:46:23Z</time>
      </trkpt>
      <trkpt lat="60.022976" lon="17.7348777">
        <ele>0</ele>
        <time>2013-05-28T19:46:24Z</time>
      </trkpt>
      <trkpt lat="60.0229933" lon="17.734696">
        <ele>0</ele>
        <time>2013-05-28T19:46:25Z</time>
      </trkpt>
      <trkpt lat="60.0230126" lon="17.7345159">
        <ele>0</ele>
        <time>2013-05-28T19:46:26Z</time>
      </trkpt>
      <trkpt lat="60.0230326" lon="17.7343385">
        <ele>0</ele>
        <time>2013-05-28T19:46:27Z</time>
      </trkpt>
      <trkpt lat="60.0230528" lon="17.7341636">
        <ele>0</ele>
        <time>2013-05-28T19:46:28Z</time>
      </trkpt>
      <trkpt lat="60.0230786" lon="17.7339902">
        <ele>0</ele>
        <time>2013-05-28T19:46:29Z</time>
      </trkpt>
      <trkpt lat="60.0230989" lon="17.7338205">
        <ele>0</ele>
        <time>2013-05-28T19:46:30Z</time>
      </trkpt>
      <trkpt lat="60.0231169" lon="17.7336526">
        <ele>0</ele>
        <time>2013-05-28T19:46:31Z</time>
      </trkpt>
      <trkpt lat="60.0231457" lon="17.7334826">
        <ele>0</ele>
        <time>2013-05-28T19:46:32Z</time>
      </trkpt>
      <trkpt lat="60.0231631" lon="17.7333158">
        <ele>0</ele>
        <time>2013-05-28T19:46:33Z</time>
      </trkpt>
      <trkpt lat="60.0231776" lon="17.7331476">
        <ele>0</ele>
        <time>2013-05-28T19:46:34Z</time>
      </trkpt>
      <trkpt lat="60.0231871" lon="17.7329766">
        <ele>0</ele>
        <time>2013-05-28T19:46:35Z</time>
      </trkpt>
      <trkpt lat="60.0231846" lon="17.7328151">
        <ele>0</ele>
        <time>2013-05-28T19:46:36Z</time>
      </trkpt>
      <trkpt lat="60.0231767" lon="17.7326588">
        <ele>0</ele>
        <time>2013-05-28T19:46:37Z</time>
      </trkpt>
      <trkpt lat="60.0231601" lon="17.7325035">
        <ele>0</ele>
        <time>2013-05-28T19:46:38Z</time>
      </trkpt>
      <trkpt lat="60.0231441" lon="17.7323348">
        <ele>0</ele>
        <time>2013-05-28T19:46:39Z</time>
      </trkpt>
      <trkpt lat="60.0231218" lon="17.7321646">
        <ele>0</ele>
        <time>2013-05-28T19:46:40Z</time>
      </trkpt>
      <trkpt lat="60.0230959" lon="17.7319966">
        <ele>0</ele>
        <time>2013-05-28T19:46:41Z</time>
      </trkpt>
      <trkpt lat="60.0230551" lon="17.7318478">
        <ele>0</ele>
        <time>2013-05-28T19:46:42Z</time>
      </trkpt>
      <trkpt lat="60.0230027" lon="17.7317157">
        <ele>0</ele>
        <time>2013-05-28T19:46:43Z</time>
      </trkpt>
      <trkpt lat="60.0229472" lon="17.7315862">
        <ele>0</ele>
        <time>2013-05-28T19:46:44Z</time>
      </trkpt>
      <trkpt lat="60.0228914" lon="17.7314562">
        <ele>0</ele>
        <time>2013-05-28T19:46:45Z</time>
      </trkpt>
      <trkpt lat="60.0228291" lon="17.7313284">
        <ele>0</ele>
        <time>2013-05-28T19:46:46Z</time>
      </trkpt>
      <trkpt lat="60.0227778" lon="17.7311868">
        <ele>0</ele>
        <time>2013-05-28T19:46:47Z</time>
      </trkpt>
      <trkpt lat="60.0227136" lon="17.7310473">
        <ele>0</ele>
        <time>2013-05-28T19:46:48Z</time>
      </trkpt>
      <trkpt lat="60.0226383" lon="17.7309191">
        <ele>0</ele>
        <time>2013-05-28T19:46:49Z</time>
      </trkpt>
      <trkpt lat="60.0225601" lon="17.7307858">
        <ele>0</ele>
        <time>2013-05-28T19:46:50Z</time>
      </trkpt>
      <trkpt lat="60.0224831" lon="17.730637">
        <ele>0</ele>
        <time>2013-05-28T19:46:51Z</time>
      </trkpt>
      <trkpt lat="60.0224059" lon="17.7304782">
        <ele>0</ele>
        <time>2013-05-28T19:46:52Z</time>
      </trkpt>
      <trkpt lat="60.0223427" lon="17.7302941">
        <ele>0</ele>
        <time>2013-05-28T19:46:53Z</time>
      </trkpt>
      <trkpt lat="60.0222666" lon="17.7301135">
        <ele>0</ele>
        <time>2013-05-28T19:46:54Z</time>
      </trkpt>
      <trkpt lat="60.0221977" lon="17.729911">
        <ele>0</ele>
        <time>2013-05-28T19:46:55Z</time>
      </trkpt>
      <trkpt lat="60.0221256" lon="17.729721">
        <ele>0</ele>
        <time>2013-05-28T19:46:56Z</time>
      </trkpt>
      <trkpt lat="60.0220655" lon="17.7295209">
        <ele>0</ele>
        <time>2013-05-28T19:46:57Z</time>
      </trkpt>
      <trkpt lat="60.0220194" lon="17.7293106">
        <ele>0</ele>
        <time>2013-05-28T19:46:58Z</time>
      </trkpt>
      <trkpt lat="60.0219832" lon="17.7291141">
        <ele>0</ele>
        <time>2013-05-28T19:46:59Z</time>
      </trkpt>
      <trkpt lat="60.0219698" lon="17.728948">
        <ele>0</ele>
        <time>2013-05-28T19:47:00Z</time>
      </trkpt>
      <trkpt lat="60.0219862" lon="17.7288055">
        <ele>0</ele>
        <time>2013-05-28T19:47:01Z</time>
      </trkpt>
      <trkpt lat="60.0220277" lon="17.728657">
        <ele>0</ele>
        <time>2013-05-28T19:47:02Z</time>
      </trkpt>
      <trkpt lat="60.0220652" lon="17.7285008">
        <ele>0</ele>
        <time>2013-05-28T19:47:03Z</time>
      </trkpt>
      <trkpt lat="60.0221034" lon="17.7283273">
        <ele>0</ele>
        <time>2013-05-28T19:47:04Z</time>
      </trkpt>
      <trkpt lat="60.0221381" lon="17.7281452">
        <ele>0</ele>
        <time>2013-05-28T19:47:05Z</time>
      </trkpt>
      <trkpt lat="60.0221618" lon="17.7279746">
        <ele>0</ele>
        <time>2013-05-28T19:47:06Z</time>
      </trkpt>
      <trkpt lat="60.0221918" lon="17.7278105">
        <ele>1.57935</ele>
        <time>2013-05-28T19:47:07Z</time>
      </trkpt>
      <trkpt lat="60.0221847" lon="17.727688">
        <ele>0</ele>
        <time>2013-05-28T19:47:08Z</time>
      </trkpt>
      <trkpt lat="60.0222216" lon="17.7275264">
        <ele>1.09863</ele>
        <time>2013-05-28T19:47:09Z</time>
      </trkpt>
      <trkpt lat="60.0222234" lon="17.7274067">
        <ele>0</ele>
        <time>2013-05-28T19:47:10Z</time>
      </trkpt>
      <trkpt lat="60.0222251" lon="17.7272838">
        <ele>0</ele>
        <time>2013-05-28T19:47:11Z</time>
      </trkpt>
      <trkpt lat="60.0222275" lon="17.727146">
        <ele>0</ele>
        <time>2013-05-28T19:47:12Z</time>
      </trkpt>
      <trkpt lat="60.0222313" lon="17.7270023">
        <ele>0</ele>
        <time>2013-05-28T19:47:13Z</time>
      </trkpt>
      <trkpt lat="60.022232" lon="17.726863">
        <ele>0</ele>
        <time>2013-05-28T19:47:14Z</time>
      </trkpt>
      <trkpt lat="60.0222298" lon="17.726722">
        <ele>0</ele>
        <time>2013-05-28T19:47:15Z</time>
      </trkpt>
      <trkpt lat="60.0222297" lon="17.7265673">
        <ele>0</ele>
        <time>2013-05-28T19:47:16Z</time>
      </trkpt>
      <trkpt lat="60.022225" lon="17.7264148">
        <ele>0</ele>
        <time>2013-05-28T19:47:17Z</time>
      </trkpt>
      <trkpt lat="60.0222211" lon="17.7262611">
        <ele>0</ele>
        <time>2013-05-28T19:47:18Z</time>
      </trkpt>
      <trkpt lat="60.0222345" lon="17.7260864">
        <ele>0</ele>
        <time>2013-05-28T19:47:19Z</time>
      </trkpt>
      <trkpt lat="60.0222413" lon="17.7259125">
        <ele>0.618042</ele>
        <time>2013-05-28T19:47:20Z</time>
      </trkpt>
      <trkpt lat="60.0222392" lon="17.7257463">
        <ele>1.57935</ele>
        <time>2013-05-28T19:47:21Z</time>
      </trkpt>
      <trkpt lat="60.0222355" lon="17.7255851">
        <ele>2.06006</ele>
        <time>2013-05-28T19:47:22Z</time>
      </trkpt>
      <trkpt lat="60.0222403" lon="17.7254108">
        <ele>3.98267</ele>
        <time>2013-05-28T19:47:23Z</time>
      </trkpt>
      <trkpt lat="60.0222389" lon="17.7252442">
        <ele>4.94385</ele>
        <time>2013-05-28T19:47:24Z</time>
      </trkpt>
      <trkpt lat="60.0222313" lon="17.7250799">
        <ele>6.38586</ele>
        <time>2013-05-28T19:47:25Z</time>
      </trkpt>
      <trkpt lat="60.0222257" lon="17.7249146">
        <ele>7.82788</ele>
        <time>2013-05-28T19:47:26Z</time>
      </trkpt>
      <trkpt lat="60.0222141" lon="17.7247537">
        <ele>8.78918</ele>
        <time>2013-05-28T19:47:27Z</time>
      </trkpt>
      <trkpt lat="60.0221995" lon="17.7245982">
        <ele>9.2699</ele>
        <time>2013-05-28T19:47:28Z</time>
      </trkpt>
      <trkpt lat="60.0221811" lon="17.7244424">
        <ele>9.75061</ele>
        <time>2013-05-28T19:47:29Z</time>
      </trkpt>
      <trkpt lat="60.0221682" lon="17.7242854">
        <ele>10.2312</ele>
        <time>2013-05-28T19:47:30Z</time>
      </trkpt>
      <trkpt lat="60.0221505" lon="17.724129">
        <ele>10.2312</ele>
        <time>2013-05-28T19:47:31Z</time>
      </trkpt>
      <trkpt lat="60.0221355" lon="17.7239755">
        <ele>10.7118</ele>
        <time>2013-05-28T19:47:32Z</time>
      </trkpt>
      <trkpt lat="60.0221163" lon="17.7238274">
        <ele>10.7118</ele>
        <time>2013-05-28T19:47:33Z</time>
      </trkpt>
      <trkpt lat="60.0220996" lon="17.7236799">
        <ele>11.1925</ele>
        <time>2013-05-28T19:47:34Z</time>
      </trkpt>
      <trkpt lat="60.0220822" lon="17.7235343">
        <ele>12.1538</ele>
        <time>2013-05-28T19:47:35Z</time>
      </trkpt>
      <trkpt lat="60.022064" lon="17.7233856">
        <ele>12.1538</ele>
        <time>2013-05-28T19:47:36Z</time>
      </trkpt>
      <trkpt lat="60.022048" lon="17.7232414">
        <ele>12.6344</ele>
        <time>2013-05-28T19:47:37Z</time>
      </trkpt>
      <trkpt lat="60.0220397" lon="17.7230986">
        <ele>13.1151</ele>
        <time>2013-05-28T19:47:38Z</time>
      </trkpt>
      <trkpt lat="60.0220304" lon="17.7229624">
        <ele>13.5958</ele>
        <time>2013-05-28T19:47:39Z</time>
      </trkpt>
      <trkpt lat="60.0220191" lon="17.7228324">
        <ele>13.5958</ele>
        <time>2013-05-28T19:47:40Z</time>
      </trkpt>
      <trkpt lat="60.0220117" lon="17.7227001">
        <ele>14.0764</ele>
        <time>2013-05-28T19:47:41Z</time>
      </trkpt>
      <trkpt lat="60.0219987" lon="17.7225703">
        <ele>14.0764</ele>
        <time>2013-05-28T19:47:42Z</time>
      </trkpt>
      <trkpt lat="60.0219844" lon="17.7224427">
        <ele>14.557</ele>
        <time>2013-05-28T19:47:43Z</time>
      </trkpt>
      <trkpt lat="60.0219638" lon="17.7223154">
        <ele>14.557</ele>
        <time>2013-05-28T19:47:44Z</time>
      </trkpt>
      <trkpt lat="60.0219408" lon="17.7221933">
        <ele>14.557</ele>
        <time>2013-05-28T19:47:45Z</time>
      </trkpt>
      <trkpt lat="60.0219195" lon="17.7220719">
        <ele>15.5184</ele>
        <time>2013-05-28T19:47:46Z</time>
      </trkpt>
      <trkpt lat="60.0218968" lon="17.7219512">
        <ele>15.999</ele>
        <time>2013-05-28T19:47:47Z</time>
      </trkpt>
      <trkpt lat="60.0218579" lon="17.7218438">
        <ele>16.4797</ele>
        <time>2013-05-28T19:47:48Z</time>
      </trkpt>
      <trkpt lat="60.0218133" lon="17.7217478">
        <ele>17.4412</ele>
        <time>2013-05-28T19:47:49Z</time>
      </trkpt>
      <trkpt lat="60.0217605" lon="17.7216643">
        <ele>17.9218</ele>
        <time>2013-05-28T19:47:50Z</time>
      </trkpt>
      <trkpt lat="60.0216966" lon="17.7215969">
        <ele>16.9604</ele>
        <time>2013-05-28T19:47:51Z</time>
      </trkpt>
      <trkpt lat="60.0216258" lon="17.7215465">
        <ele>16.4797</ele>
        <time>2013-05-28T19:47:52Z</time>
      </trkpt>
      <trkpt lat="60.0215521" lon="17.7215073">
        <ele>15.999</ele>
        <time>2013-05-28T19:47:53Z</time>
      </trkpt>
      <trkpt lat="60.0214751" lon="17.7214784">
        <ele>15.999</ele>
        <time>2013-05-28T19:47:54Z</time>
      </trkpt>
      <trkpt lat="60.0213983" lon="17.7214528">
        <ele>15.5184</ele>
        <time>2013-05-28T19:47:55Z</time>
      </trkpt>
      <trkpt lat="60.0213226" lon="17.7214296">
        <ele>14.557</ele>
        <time>2013-05-28T19:47:56Z</time>
      </trkpt>
      <trkpt lat="60.0212462" lon="17.7214092">
        <ele>14.557</ele>
        <time>2013-05-28T19:47:57Z</time>
      </trkpt>
      <trkpt lat="60.0211731" lon="17.7213886">
        <ele>14.557</ele>
        <time>2013-05-28T19:47:58Z</time>
      </trkpt>
      <trkpt lat="60.0211" lon="17.721368">
        <ele>14.557</ele>
        <time>2013-05-28T19:47:59Z</time>
      </trkpt>
      <trkpt lat="60.0210237" lon="17.7213493">
        <ele>14.557</ele>
        <time>2013-05-28T19:48:00Z</time>
      </trkpt>
      <trkpt lat="60.0209456" lon="17.7213332">
        <ele>14.557</ele>
        <time>2013-05-28T19:48:01Z</time>
      </trkpt>
      <trkpt lat="60.0208727" lon="17.7213129">
        <ele>15.0377</ele>
        <time>2013-05-28T19:48:02Z</time>
      </trkpt>
      <trkpt lat="60.0208006" lon="17.7212925">
        <ele>15.0377</ele>
        <time>2013-05-28T19:48:03Z</time>
      </trkpt>
      <trkpt lat="60.0207272" lon="17.7212742">
        <ele>15.5184</ele>
        <time>2013-05-28T19:48:04Z</time>
      </trkpt>
      <trkpt lat="60.0206541" lon="17.7212571">
        <ele>15.5184</ele>
        <time>2013-05-28T19:48:05Z</time>
      </trkpt>
      <trkpt lat="60.0205866" lon="17.7212364">
        <ele>16.4797</ele>
        <time>2013-05-28T19:48:06Z</time>
      </trkpt>
      <trkpt lat="60.0205147" lon="17.7212173">
        <ele>16.4797</ele>
        <time>2013-05-28T19:48:07Z</time>
      </trkpt>
      <trkpt lat="60.020442" lon="17.7212015">
        <ele>16.9604</ele>
        <time>2013-05-28T19:48:08Z</time>
      </trkpt>
      <trkpt lat="60.0203686" lon="17.7211847">
        <ele>16.9604</ele>
        <time>2013-05-28T19:48:09Z</time>
      </trkpt>
      <trkpt lat="60.0202948" lon="17.7211691">
        <ele>16.9604</ele>
        <time>2013-05-28T19:48:10Z</time>
      </trkpt>
      <trkpt lat="60.0202192" lon="17.7211518">
        <ele>16.9604</ele>
        <time>2013-05-28T19:48:11Z</time>
      </trkpt>
      <trkpt lat="60.0201436" lon="17.7211347">
        <ele>17.4412</ele>
        <time>2013-05-28T19:48:12Z</time>
      </trkpt>
      <trkpt lat="60.0200672" lon="17.7211178">
        <ele>17.4412</ele>
        <time>2013-05-28T19:48:13Z</time>
      </trkpt>
      <trkpt lat="60.0199889" lon="17.7211001">
        <ele>17.9218</ele>
        <time>2013-05-28T19:48:14Z</time>
      </trkpt>
      <trkpt lat="60.0199084" lon="17.7210815">
        <ele>17.9218</ele>
        <time>2013-05-28T19:48:15Z</time>
      </trkpt>
      <trkpt lat="60.0198258" lon="17.7210635">
        <ele>18.4023</ele>
        <time>2013-05-28T19:48:16Z</time>
      </trkpt>
      <trkpt lat="60.0197418" lon="17.7210448">
        <ele>18.8831</ele>
        <time>2013-05-28T19:48:17Z</time>
      </trkpt>
      <trkpt lat="60.0196572" lon="17.7210235">
        <ele>18.8831</ele>
        <time>2013-05-28T19:48:18Z</time>
      </trkpt>
      <trkpt lat="60.0195723" lon="17.7210049">
        <ele>18.8831</ele>
        <time>2013-05-28T19:48:19Z</time>
      </trkpt>
      <trkpt lat="60.0194869" lon="17.7209848">
        <ele>19.3638</ele>
        <time>2013-05-28T19:48:20Z</time>
      </trkpt>
      <trkpt lat="60.019402" lon="17.7209634">
        <ele>19.3638</ele>
        <time>2013-05-28T19:48:21Z</time>
      </trkpt>
      <trkpt lat="60.0193182" lon="17.7209427">
        <ele>19.3638</ele>
        <time>2013-05-28T19:48:22Z</time>
      </trkpt>
      <trkpt lat="60.0192346" lon="17.7209208">
        <ele>19.8444</ele>
        <time>2013-05-28T19:48:23Z</time>
      </trkpt>
      <trkpt lat="60.0191507" lon="17.7208974">
        <ele>20.325</ele>
        <time>2013-05-28T19:48:24Z</time>
      </trkpt>
      <trkpt lat="60.0190671" lon="17.7208752">
        <ele>20.325</ele>
        <time>2013-05-28T19:48:25Z</time>
      </trkpt>
      <trkpt lat="60.0189832" lon="17.7208541">
        <ele>20.325</ele>
        <time>2013-05-28T19:48:26Z</time>
      </trkpt>
      <trkpt lat="60.018899" lon="17.7208317">
        <ele>20.325</ele>
        <time>2013-05-28T19:48:27Z</time>
      </trkpt>
      <trkpt lat="60.0188151" lon="17.7208096">
        <ele>20.8057</ele>
        <time>2013-05-28T19:48:28Z</time>
      </trkpt>
      <trkpt lat="60.0187315" lon="17.7207878">
        <ele>20.8057</ele>
        <time>2013-05-28T19:48:29Z</time>
      </trkpt>
      <trkpt lat="60.0186467" lon="17.720764">
        <ele>20.8057</ele>
        <time>2013-05-28T19:48:30Z</time>
      </trkpt>
      <trkpt lat="60.0185602" lon="17.7207396">
        <ele>20.8057</ele>
        <time>2013-05-28T19:48:31Z</time>
      </trkpt>
      <trkpt lat="60.0184723" lon="17.7207158">
        <ele>20.8057</ele>
        <time>2013-05-28T19:48:32Z</time>
      </trkpt>
      <trkpt lat="60.0183831" lon="17.7206981">
        <ele>21.2864</ele>
        <time>2013-05-28T19:48:33Z</time>
      </trkpt>
      <trkpt lat="60.0182929" lon="17.720678">
        <ele>21.2864</ele>
        <time>2013-05-28T19:48:34Z</time>
      </trkpt>
      <trkpt lat="60.0182033" lon="17.7206495">
        <ele>21.2864</ele>
        <time>2013-05-28T19:48:35Z</time>
      </trkpt>
      <trkpt lat="60.0181146" lon="17.7206223">
        <ele>21.767</ele>
        <time>2013-05-28T19:48:36Z</time>
      </trkpt>
      <trkpt lat="60.0180257" lon="17.7205983">
        <ele>21.767</ele>
        <time>2013-05-28T19:48:37Z</time>
      </trkpt>
      <trkpt lat="60.0179376" lon="17.7205784">
        <ele>22.2476</ele>
        <time>2013-05-28T19:48:38Z</time>
      </trkpt>
      <trkpt lat="60.0178508" lon="17.7205598">
        <ele>22.2476</ele>
        <time>2013-05-28T19:48:39Z</time>
      </trkpt>
      <trkpt lat="60.0177656" lon="17.7205419">
        <ele>22.2476</ele>
        <time>2013-05-28T19:48:40Z</time>
      </trkpt>
      <trkpt lat="60.0176827" lon="17.7205226">
        <ele>22.7283</ele>
        <time>2013-05-28T19:48:41Z</time>
      </trkpt>
      <trkpt lat="60.0176012" lon="17.7205039">
        <ele>22.7283</ele>
        <time>2013-05-28T19:48:42Z</time>
      </trkpt>
      <trkpt lat="60.0175206" lon="17.7204926">
        <ele>23.209</ele>
        <time>2013-05-28T19:48:43Z</time>
      </trkpt>
      <trkpt lat="60.0174408" lon="17.7204878">
        <ele>23.209</ele>
        <time>2013-05-28T19:48:44Z</time>
      </trkpt>
      <trkpt lat="60.0173614" lon="17.7204826">
        <ele>23.6896</ele>
        <time>2013-05-28T19:48:45Z</time>
      </trkpt>
      <trkpt lat="60.0172821" lon="17.7204786">
        <ele>24.1703</ele>
        <time>2013-05-28T19:48:46Z</time>
      </trkpt>
      <trkpt lat="60.0172044" lon="17.7204832">
        <ele>24.1703</ele>
        <time>2013-05-28T19:48:47Z</time>
      </trkpt>
      <trkpt lat="60.01713" lon="17.7204915">
        <ele>24.651</ele>
        <time>2013-05-28T19:48:48Z</time>
      </trkpt>
      <trkpt lat="60.0170595" lon="17.7205044">
        <ele>24.651</ele>
        <time>2013-05-28T19:48:49Z</time>
      </trkpt>
      <trkpt lat="60.0169907" lon="17.7205006">
        <ele>24.651</ele>
        <time>2013-05-28T19:48:50Z</time>
      </trkpt>
      <trkpt lat="60.0169288" lon="17.7204524">
        <ele>24.651</ele>
        <time>2013-05-28T19:48:51Z</time>
      </trkpt>
      <trkpt lat="60.0168856" lon="17.7203492">
        <ele>25.1317</ele>
        <time>2013-05-28T19:48:52Z</time>
      </trkpt>
      <trkpt lat="60.0168699" lon="17.7202236">
        <ele>25.6123</ele>
        <time>2013-05-28T19:48:53Z</time>
      </trkpt>
      <trkpt lat="60.0168749" lon="17.7200756">
        <ele>25.6123</ele>
        <time>2013-05-28T19:48:54Z</time>
      </trkpt>
      <trkpt lat="60.0168864" lon="17.7199134">
        <ele>25.6123</ele>
        <time>2013-05-28T19:48:55Z</time>
      </trkpt>
      <trkpt lat="60.016899" lon="17.7197498">
        <ele>25.6123</ele>
        <time>2013-05-28T19:48:56Z</time>
      </trkpt>
      <trkpt lat="60.0169129" lon="17.7195843">
        <ele>25.1317</ele>
        <time>2013-05-28T19:48:57Z</time>
      </trkpt>
      <trkpt lat="60.016926" lon="17.7194115">
        <ele>25.1317</ele>
        <time>2013-05-28T19:48:58Z</time>
      </trkpt>
      <trkpt lat="60.0169368" lon="17.7192286">
        <ele>25.1317</ele>
        <time>2013-05-28T19:48:59Z</time>
      </trkpt>
      <trkpt lat="60.016947" lon="17.7190385">
        <ele>24.651</ele>
        <time>2013-05-28T19:49:00Z</time>
      </trkpt>
      <trkpt lat="60.0169564" lon="17.7188428">
        <ele>24.651</ele>
        <time>2013-05-28T19:49:01Z</time>
      </trkpt>
      <trkpt lat="60.0169645" lon="17.718642">
        <ele>24.1703</ele>
        <time>2013-05-28T19:49:02Z</time>
      </trkpt>
      <trkpt lat="60.016973" lon="17.7184355">
        <ele>23.6896</ele>
        <time>2013-05-28T19:49:03Z</time>
      </trkpt>
      <trkpt lat="60.0169834" lon="17.7182226">
        <ele>23.6896</ele>
        <time>2013-05-28T19:49:04Z</time>
      </trkpt>
      <trkpt lat="60.0169958" lon="17.7180034">
        <ele>23.209</ele>
        <time>2013-05-28T19:49:05Z</time>
      </trkpt>
      <trkpt lat="60.0170115" lon="17.7177808">
        <ele>22.7283</ele>
        <time>2013-05-28T19:49:06Z</time>
      </trkpt>
      <trkpt lat="60.0170329" lon="17.7175588">
        <ele>22.7283</ele>
        <time>2013-05-28T19:49:07Z</time>
      </trkpt>
      <trkpt lat="60.0170602" lon="17.7173373">
        <ele>22.2476</ele>
        <time>2013-05-28T19:49:08Z</time>
      </trkpt>
      <trkpt lat="60.0170927" lon="17.7171098">
        <ele>20.8057</ele>
        <time>2013-05-28T19:49:09Z</time>
      </trkpt>
      <trkpt lat="60.0171295" lon="17.7168836">
        <ele>21.2864</ele>
        <time>2013-05-28T19:49:10Z</time>
      </trkpt>
      <trkpt lat="60.0171714" lon="17.7166658">
        <ele>20.8057</ele>
        <time>2013-05-28T19:49:11Z</time>
      </trkpt>
      <trkpt lat="60.0172149" lon="17.7164521">
        <ele>20.8057</ele>
        <time>2013-05-28T19:49:12Z</time>
      </trkpt>
      <trkpt lat="60.017261" lon="17.7162356">
        <ele>19.8444</ele>
        <time>2013-05-28T19:49:13Z</time>
      </trkpt>
      <trkpt lat="60.0173109" lon="17.7160237">
        <ele>19.3638</ele>
        <time>2013-05-28T19:49:14Z</time>
      </trkpt>
      <trkpt lat="60.0173615" lon="17.7158199">
        <ele>19.8444</ele>
        <time>2013-05-28T19:49:15Z</time>
      </trkpt>
      <trkpt lat="60.0174105" lon="17.7156182">
        <ele>19.8444</ele>
        <time>2013-05-28T19:49:16Z</time>
      </trkpt>
      <trkpt lat="60.0174574" lon="17.7154192">
        <ele>20.8057</ele>
        <time>2013-05-28T19:49:17Z</time>
      </trkpt>
      <trkpt lat="60.0175018" lon="17.7152249">
        <ele>20.8057</ele>
        <time>2013-05-28T19:49:18Z</time>
      </trkpt>
      <trkpt lat="60.0175432" lon="17.7150342">
        <ele>21.2864</ele>
        <time>2013-05-28T19:49:19Z</time>
      </trkpt>
      <trkpt lat="60.0175815" lon="17.7148448">
        <ele>22.2476</ele>
        <time>2013-05-28T19:49:20Z</time>
      </trkpt>
      <trkpt lat="60.0176159" lon="17.7146587">
        <ele>22.7283</ele>
        <time>2013-05-28T19:49:21Z</time>
      </trkpt>
      <trkpt lat="60.0176462" lon="17.7144759">
        <ele>23.6896</ele>
        <time>2013-05-28T19:49:22Z</time>
      </trkpt>
      <trkpt lat="60.0176729" lon="17.7142962">
        <ele>24.1703</ele>
        <time>2013-05-28T19:49:23Z</time>
      </trkpt>
      <trkpt lat="60.0176962" lon="17.7141185">
        <ele>25.1317</ele>
        <time>2013-05-28T19:49:24Z</time>
      </trkpt>
      <trkpt lat="60.0177168" lon="17.7139433">
        <ele>25.6123</ele>
        <time>2013-05-28T19:49:25Z</time>
      </trkpt>
      <trkpt lat="60.0177346" lon="17.7137703">
        <ele>26.0929</ele>
        <time>2013-05-28T19:49:26Z</time>
      </trkpt>
      <trkpt lat="60.0177495" lon="17.7135987">
        <ele>26.5736</ele>
        <time>2013-05-28T19:49:27Z</time>
      </trkpt>
      <trkpt lat="60.0177625" lon="17.7134279">
        <ele>27.0543</ele>
        <time>2013-05-28T19:49:28Z</time>
      </trkpt>
      <trkpt lat="60.0177743" lon="17.7132585">
        <ele>28.0155</ele>
        <time>2013-05-28T19:49:29Z</time>
      </trkpt>
      <trkpt lat="60.0177853" lon="17.7130898">
        <ele>28.0155</ele>
        <time>2013-05-28T19:49:30Z</time>
      </trkpt>
      <trkpt lat="60.0177952" lon="17.7129214">
        <ele>28.9769</ele>
        <time>2013-05-28T19:49:31Z</time>
      </trkpt>
      <trkpt lat="60.0178051" lon="17.7127546">
        <ele>29.4575</ele>
        <time>2013-05-28T19:49:32Z</time>
      </trkpt>
      <trkpt lat="60.0178164" lon="17.7125907">
        <ele>29.9381</ele>
        <time>2013-05-28T19:49:33Z</time>
      </trkpt>
      <trkpt lat="60.0178281" lon="17.7124292">
        <ele>30.4188</ele>
        <time>2013-05-28T19:49:34Z</time>
      </trkpt>
      <trkpt lat="60.0178392" lon="17.7122696">
        <ele>31.3801</ele>
        <time>2013-05-28T19:49:35Z</time>
      </trkpt>
      <trkpt lat="60.0178495" lon="17.7121114">
        <ele>31.8607</ele>
        <time>2013-05-28T19:49:36Z</time>
      </trkpt>
      <trkpt lat="60.0178589" lon="17.7119542">
        <ele>32.3416</ele>
        <time>2013-05-28T19:49:37Z</time>
      </trkpt>
      <trkpt lat="60.0178682" lon="17.7117983">
        <ele>32.8223</ele>
        <time>2013-05-28T19:49:38Z</time>
      </trkpt>
      <trkpt lat="60.017878" lon="17.7116434">
        <ele>33.3029</ele>
        <time>2013-05-28T19:49:39Z</time>
      </trkpt>
      <trkpt lat="60.0178876" lon="17.7114893">
        <ele>33.7834</ele>
        <time>2013-05-28T19:49:40Z</time>
      </trkpt>
      <trkpt lat="60.017897" lon="17.7113362">
        <ele>34.2642</ele>
        <time>2013-05-28T19:49:41Z</time>
      </trkpt>
      <trkpt lat="60.0179066" lon="17.7111802">
        <ele>32.8223</ele>
        <time>2013-05-28T19:49:42Z</time>
      </trkpt>
      <trkpt lat="60.0179157" lon="17.7110254">
        <ele>31.8607</ele>
        <time>2013-05-28T19:49:43Z</time>
      </trkpt>
      <trkpt lat="60.0179242" lon="17.710871">
        <ele>30.8995</ele>
        <time>2013-05-28T19:49:44Z</time>
      </trkpt>
      <trkpt lat="60.0179343" lon="17.7107166">
        <ele>30.4188</ele>
        <time>2013-05-28T19:49:45Z</time>
      </trkpt>
      <trkpt lat="60.0179459" lon="17.7105649">
        <ele>30.4188</ele>
        <time>2013-05-28T19:49:46Z</time>
      </trkpt>
      <trkpt lat="60.0179578" lon="17.7104122">
        <ele>30.4188</ele>
        <time>2013-05-28T19:49:47Z</time>
      </trkpt>
      <trkpt lat="60.0179679" lon="17.7102581">
        <ele>30.8995</ele>
        <time>2013-05-28T19:49:48Z</time>
      </trkpt>
      <trkpt lat="60.0179768" lon="17.7101014">
        <ele>29.9381</ele>
        <time>2013-05-28T19:49:49Z</time>
      </trkpt>
      <trkpt lat="60.0179862" lon="17.7099469">
        <ele>29.4575</ele>
        <time>2013-05-28T19:49:50Z</time>
      </trkpt>
      <trkpt lat="60.0179959" lon="17.7097947">
        <ele>29.9381</ele>
        <time>2013-05-28T19:49:51Z</time>
      </trkpt>
      <trkpt lat="60.0180049" lon="17.7096429">
        <ele>29.9381</ele>
        <time>2013-05-28T19:49:52Z</time>
      </trkpt>
      <trkpt lat="60.0180147" lon="17.7094913">
        <ele>29.9381</ele>
        <time>2013-05-28T19:49:53Z</time>
      </trkpt>
      <trkpt lat="60.0180256" lon="17.7093393">
        <ele>30.4188</ele>
        <time>2013-05-28T19:49:54Z</time>
      </trkpt>
      <trkpt lat="60.0180358" lon="17.7091864">
        <ele>30.8995</ele>
        <time>2013-05-28T19:49:55Z</time>
      </trkpt>
      <trkpt lat="60.0180448" lon="17.7090329">
        <ele>30.8995</ele>
        <time>2013-05-28T19:49:56Z</time>
      </trkpt>
      <trkpt lat="60.0180541" lon="17.7088802">
        <ele>31.3801</ele>
        <time>2013-05-28T19:49:57Z</time>
      </trkpt>
      <trkpt lat="60.0180638" lon="17.708728">
        <ele>31.3801</ele>
        <time>2013-05-28T19:49:58Z</time>
      </trkpt>
      <trkpt lat="60.0180744" lon="17.7085757">
        <ele>31.8607</ele>
        <time>2013-05-28T19:49:59Z</time>
      </trkpt>
      <trkpt lat="60.018086" lon="17.708424">
        <ele>31.8607</ele>
        <time>2013-05-28T19:50:00Z</time>
      </trkpt>
      <trkpt lat="60.0180969" lon="17.7082717">
        <ele>32.3416</ele>
        <time>2013-05-28T19:50:01Z</time>
      </trkpt>
      <trkpt lat="60.018107" lon="17.7081187">
        <ele>32.3416</ele>
        <time>2013-05-28T19:50:02Z</time>
      </trkpt>
      <trkpt lat="60.0181169" lon="17.7079659">
        <ele>32.8223</ele>
        <time>2013-05-28T19:50:03Z</time>
      </trkpt>
      <trkpt lat="60.018127" lon="17.7078136">
        <ele>32.8223</ele>
        <time>2013-05-28T19:50:04Z</time>
      </trkpt>
      <trkpt lat="60.0181375" lon="17.7076609">
        <ele>33.3029</ele>
        <time>2013-05-28T19:50:05Z</time>
      </trkpt>
      <trkpt lat="60.0181478" lon="17.7075075">
        <ele>33.3029</ele>
        <time>2013-05-28T19:50:06Z</time>
      </trkpt>
      <trkpt lat="60.0181587" lon="17.7073537">
        <ele>33.3029</ele>
        <time>2013-05-28T19:50:07Z</time>
      </trkpt>
      <trkpt lat="60.018171" lon="17.707201">
        <ele>33.3029</ele>
        <time>2013-05-28T19:50:08Z</time>
      </trkpt>
      <trkpt lat="60.0181856" lon="17.7070481">
        <ele>32.8223</ele>
        <time>2013-05-28T19:50:09Z</time>
      </trkpt>
      <trkpt lat="60.0182024" lon="17.7068958">
        <ele>32.8223</ele>
        <time>2013-05-28T19:50:10Z</time>
      </trkpt>
      <trkpt lat="60.0182205" lon="17.7067438">
        <ele>32.8223</ele>
        <time>2013-05-28T19:50:11Z</time>
      </trkpt>
      <trkpt lat="60.0182397" lon="17.7065924">
        <ele>32.8223</ele>
        <time>2013-05-28T19:50:12Z</time>
      </trkpt>
      <trkpt lat="60.0182608" lon="17.7064388">
        <ele>33.3029</ele>
        <time>2013-05-28T19:50:13Z</time>
      </trkpt>
      <trkpt lat="60.0182844" lon="17.7062861">
        <ele>33.3029</ele>
        <time>2013-05-28T19:50:14Z</time>
      </trkpt>
      <trkpt lat="60.0183105" lon="17.7061338">
        <ele>33.3029</ele>
        <time>2013-05-28T19:50:15Z</time>
      </trkpt>
      <trkpt lat="60.0183399" lon="17.7059815">
        <ele>33.3029</ele>
        <time>2013-05-28T19:50:16Z</time>
      </trkpt>
      <trkpt lat="60.0183722" lon="17.7058277">
        <ele>33.7834</ele>
        <time>2013-05-28T19:50:17Z</time>
      </trkpt>
      <trkpt lat="60.0184065" lon="17.7056741">
        <ele>33.3029</ele>
        <time>2013-05-28T19:50:18Z</time>
      </trkpt>
      <trkpt lat="60.0184446" lon="17.7055208">
        <ele>33.3029</ele>
        <time>2013-05-28T19:50:19Z</time>
      </trkpt>
      <trkpt lat="60.0184851" lon="17.7053665">
        <ele>33.3029</ele>
        <time>2013-05-28T19:50:20Z</time>
      </trkpt>
      <trkpt lat="60.018527" lon="17.7052102">
        <ele>33.3029</ele>
        <time>2013-05-28T19:50:21Z</time>
      </trkpt>
      <trkpt lat="60.0185716" lon="17.7050537">
        <ele>33.3029</ele>
        <time>2013-05-28T19:50:22Z</time>
      </trkpt>
      <trkpt lat="60.0186188" lon="17.7049002">
        <ele>33.3029</ele>
        <time>2013-05-28T19:50:23Z</time>
      </trkpt>
      <trkpt lat="60.0186689" lon="17.7047497">
        <ele>33.3029</ele>
        <time>2013-05-28T19:50:24Z</time>
      </trkpt>
      <trkpt lat="60.0187213" lon="17.7046031">
        <ele>33.3029</ele>
        <time>2013-05-28T19:50:25Z</time>
      </trkpt>
      <trkpt lat="60.0187758" lon="17.7044591">
        <ele>33.3029</ele>
        <time>2013-05-28T19:50:26Z</time>
      </trkpt>
      <trkpt lat="60.0188322" lon="17.7043182">
        <ele>33.7834</ele>
        <time>2013-05-28T19:50:27Z</time>
      </trkpt>
      <trkpt lat="60.0188906" lon="17.7041821">
        <ele>33.7834</ele>
        <time>2013-05-28T19:50:28Z</time>
      </trkpt>
      <trkpt lat="60.0189502" lon="17.70405">
        <ele>33.7834</ele>
        <time>2013-05-28T19:50:29Z</time>
      </trkpt>
      <trkpt lat="60.0190109" lon="17.7039227">
        <ele>34.2642</ele>
        <time>2013-05-28T19:50:30Z</time>
      </trkpt>
      <trkpt lat="60.0190732" lon="17.7038023">
        <ele>34.2642</ele>
        <time>2013-05-28T19:50:31Z</time>
      </trkpt>
      <trkpt lat="60.0191366" lon="17.7036866">
        <ele>34.7449</ele>
        <time>2013-05-28T19:50:32Z</time>
      </trkpt>
      <trkpt lat="60.0192005" lon="17.7035748">
        <ele>34.7449</ele>
        <time>2013-05-28T19:50:33Z</time>
      </trkpt>
      <trkpt lat="60.0192647" lon="17.703466">
        <ele>35.2255</ele>
        <time>2013-05-28T19:50:34Z</time>
      </trkpt>
      <trkpt lat="60.0193289" lon="17.7033594">
        <ele>35.7061</ele>
        <time>2013-05-28T19:50:35Z</time>
      </trkpt>
      <trkpt lat="60.0193932" lon="17.7032556">
        <ele>35.7061</ele>
        <time>2013-05-28T19:50:36Z</time>
      </trkpt>
      <trkpt lat="60.0194575" lon="17.7031537">
        <ele>36.1868</ele>
        <time>2013-05-28T19:50:37Z</time>
      </trkpt>
      <trkpt lat="60.0195214" lon="17.7030532">
        <ele>36.6675</ele>
        <time>2013-05-28T19:50:38Z</time>
      </trkpt>
      <trkpt lat="60.0195844" lon="17.7029522">
        <ele>37.1481</ele>
        <time>2013-05-28T19:50:39Z</time>
      </trkpt>
      <trkpt lat="60.019646" lon="17.7028522">
        <ele>37.1481</ele>
        <time>2013-05-28T19:50:40Z</time>
      </trkpt>
      <trkpt lat="60.019706" lon="17.7027534">
        <ele>37.1481</ele>
        <time>2013-05-28T19:50:41Z</time>
      </trkpt>
      <trkpt lat="60.0197647" lon="17.7026527">
        <ele>37.1481</ele>
        <time>2013-05-28T19:50:42Z</time>
      </trkpt>
      <trkpt lat="60.0198219" lon="17.7025497">
        <ele>37.6287</ele>
        <time>2013-05-28T19:50:43Z</time>
      </trkpt>
      <trkpt lat="60.0198765" lon="17.7024443">
        <ele>37.6287</ele>
        <time>2013-05-28T19:50:44Z</time>
      </trkpt>
      <trkpt lat="60.0199298" lon="17.7023368">
        <ele>38.1094</ele>
        <time>2013-05-28T19:50:45Z</time>
      </trkpt>
      <trkpt lat="60.0199827" lon="17.7022296">
        <ele>38.1094</ele>
        <time>2013-05-28T19:50:46Z</time>
      </trkpt>
      <trkpt lat="60.0200345" lon="17.7021218">
        <ele>38.5901</ele>
        <time>2013-05-28T19:50:47Z</time>
      </trkpt>
      <trkpt lat="60.0200838" lon="17.7020118">
        <ele>38.5901</ele>
        <time>2013-05-28T19:50:48Z</time>
      </trkpt>
      <trkpt lat="60.0201312" lon="17.7018987">
        <ele>39.0707</ele>
        <time>2013-05-28T19:50:49Z</time>
      </trkpt>
      <trkpt lat="60.0201772" lon="17.7017844">
        <ele>39.5513</ele>
        <time>2013-05-28T19:50:50Z</time>
      </trkpt>
      <trkpt lat="60.0202228" lon="17.7016699">
        <ele>40.0321</ele>
        <time>2013-05-28T19:50:51Z</time>
      </trkpt>
      <trkpt lat="60.0202676" lon="17.7015545">
        <ele>40.0321</ele>
        <time>2013-05-28T19:50:52Z</time>
      </trkpt>
      <trkpt lat="60.0203095" lon="17.701435">
        <ele>40.5128</ele>
        <time>2013-05-28T19:50:53Z</time>
      </trkpt>
      <trkpt lat="60.0203497" lon="17.7013126">
        <ele>40.5128</ele>
        <time>2013-05-28T19:50:54Z</time>
      </trkpt>
      <trkpt lat="60.0203896" lon="17.7011914">
        <ele>40.9934</ele>
        <time>2013-05-28T19:50:55Z</time>
      </trkpt>
      <trkpt lat="60.0204282" lon="17.7010692">
        <ele>40.9934</ele>
        <time>2013-05-28T19:50:56Z</time>
      </trkpt>
      <trkpt lat="60.0204649" lon="17.7009454">
        <ele>41.474</ele>
        <time>2013-05-28T19:50:57Z</time>
      </trkpt>
      <trkpt lat="60.0205003" lon="17.7008196">
        <ele>41.474</ele>
        <time>2013-05-28T19:50:58Z</time>
      </trkpt>
      <trkpt lat="60.0205353" lon="17.7006916">
        <ele>41.474</ele>
        <time>2013-05-28T19:50:59Z</time>
      </trkpt>
      <trkpt lat="60.020569" lon="17.700564">
        <ele>41.474</ele>
        <time>2013-05-28T19:51:00Z</time>
      </trkpt>
      <trkpt lat="60.0206033" lon="17.7004382">
        <ele>41.9547</ele>
        <time>2013-05-28T19:51:01Z</time>
      </trkpt>
      <trkpt lat="60.0206385" lon="17.7003138">
        <ele>41.9547</ele>
        <time>2013-05-28T19:51:02Z</time>
      </trkpt>
      <trkpt lat="60.0206724" lon="17.700189">
        <ele>41.9547</ele>
        <time>2013-05-28T19:51:03Z</time>
      </trkpt>
      <trkpt lat="60.0207051" lon="17.7000634">
        <ele>41.9547</ele>
        <time>2013-05-28T19:51:04Z</time>
      </trkpt>
      <trkpt lat="60.020737" lon="17.6999379">
        <ele>41.9547</ele>
        <time>2013-05-28T19:51:05Z</time>
      </trkpt>
      <trkpt lat="60.0207686" lon="17.6998129">
        <ele>42.4354</ele>
        <time>2013-05-28T19:51:06Z</time>
      </trkpt>
      <trkpt lat="60.0208011" lon="17.6996899">
        <ele>42.4354</ele>
        <time>2013-05-28T19:51:07Z</time>
      </trkpt>
      <trkpt lat="60.0208343" lon="17.6995678">
        <ele>42.4354</ele>
        <time>2013-05-28T19:51:08Z</time>
      </trkpt>
      <trkpt lat="60.0208651" lon="17.6994435">
        <ele>42.4354</ele>
        <time>2013-05-28T19:51:09Z</time>
      </trkpt>
      <trkpt lat="60.0208934" lon="17.6993169">
        <ele>42.4354</ele>
        <time>2013-05-28T19:51:10Z</time>
      </trkpt>
      <trkpt lat="60.0209244" lon="17.6991929">
        <ele>42.916</ele>
        <time>2013-05-28T19:51:11Z</time>
      </trkpt>
      <trkpt lat="60.0209584" lon="17.6990724">
        <ele>42.916</ele>
        <time>2013-05-28T19:51:12Z</time>
      </trkpt>
      <trkpt lat="60.0209922" lon="17.6989519">
        <ele>42.4354</ele>
        <time>2013-05-28T19:51:13Z</time>
      </trkpt>
      <trkpt lat="60.0210255" lon="17.6988294">
        <ele>42.4354</ele>
        <time>2013-05-28T19:51:14Z</time>
      </trkpt>
      <trkpt lat="60.0210597" lon="17.698706">
        <ele>42.4354</ele>
        <time>2013-05-28T19:51:15Z</time>
      </trkpt>
      <trkpt lat="60.0210949" lon="17.6985817">
        <ele>42.4354</ele>
        <time>2013-05-28T19:51:16Z</time>
      </trkpt>
      <trkpt lat="60.0211304" lon="17.698456">
        <ele>41.9547</ele>
        <time>2013-05-28T19:51:17Z</time>
      </trkpt>
      <trkpt lat="60.0211662" lon="17.6983294">
        <ele>41.9547</ele>
        <time>2013-05-28T19:51:18Z</time>
      </trkpt>
      <trkpt lat="60.0212017" lon="17.6981995">
        <ele>41.9547</ele>
        <time>2013-05-28T19:51:19Z</time>
      </trkpt>
      <trkpt lat="60.0212363" lon="17.6980654">
        <ele>41.474</ele>
        <time>2013-05-28T19:51:20Z</time>
      </trkpt>
      <trkpt lat="60.0212704" lon="17.6979301">
        <ele>40.9934</ele>
        <time>2013-05-28T19:51:21Z</time>
      </trkpt>
      <trkpt lat="60.0213046" lon="17.6977929">
        <ele>40.9934</ele>
        <time>2013-05-28T19:51:22Z</time>
      </trkpt>
      <trkpt lat="60.0213391" lon="17.6976538">
        <ele>40.5128</ele>
        <time>2013-05-28T19:51:23Z</time>
      </trkpt>
      <trkpt lat="60.0213751" lon="17.6975108">
        <ele>40.0321</ele>
        <time>2013-05-28T19:51:24Z</time>
      </trkpt>
      <trkpt lat="60.0214098" lon="17.6973649">
        <ele>38.5901</ele>
        <time>2013-05-28T19:51:25Z</time>
      </trkpt>
      <trkpt lat="60.0214467" lon="17.6972189">
        <ele>36.6675</ele>
        <time>2013-05-28T19:51:26Z</time>
      </trkpt>
      <trkpt lat="60.0214853" lon="17.6970695">
        <ele>35.2255</ele>
        <time>2013-05-28T19:51:27Z</time>
      </trkpt>
      <trkpt lat="60.0215248" lon="17.6969182">
        <ele>33.7834</ele>
        <time>2013-05-28T19:51:28Z</time>
      </trkpt>
      <trkpt lat="60.0215656" lon="17.6967661">
        <ele>33.3029</ele>
        <time>2013-05-28T19:51:29Z</time>
      </trkpt>
      <trkpt lat="60.0216064" lon="17.6966107">
        <ele>33.3029</ele>
        <time>2013-05-28T19:51:30Z</time>
      </trkpt>
      <trkpt lat="60.0216481" lon="17.6964558">
        <ele>33.3029</ele>
        <time>2013-05-28T19:51:31Z</time>
      </trkpt>
      <trkpt lat="60.0216898" lon="17.6963014">
        <ele>33.3029</ele>
        <time>2013-05-28T19:51:32Z</time>
      </trkpt>
      <trkpt lat="60.0217316" lon="17.6961459">
        <ele>32.8223</ele>
        <time>2013-05-28T19:51:33Z</time>
      </trkpt>
      <trkpt lat="60.0217733" lon="17.6959868">
        <ele>33.3029</ele>
        <time>2013-05-28T19:51:34Z</time>
      </trkpt>
      <trkpt lat="60.0218154" lon="17.6958307">
        <ele>33.3029</ele>
        <time>2013-05-28T19:51:35Z</time>
      </trkpt>
      <trkpt lat="60.0218569" lon="17.6956762">
        <ele>33.3029</ele>
        <time>2013-05-28T19:51:36Z</time>
      </trkpt>
      <trkpt lat="60.0218978" lon="17.6955225">
        <ele>33.3029</ele>
        <time>2013-05-28T19:51:37Z</time>
      </trkpt>
      <trkpt lat="60.0219382" lon="17.6953696">
        <ele>33.3029</ele>
        <time>2013-05-28T19:51:38Z</time>
      </trkpt>
      <trkpt lat="60.0219765" lon="17.6952163">
        <ele>33.3029</ele>
        <time>2013-05-28T19:51:39Z</time>
      </trkpt>
      <trkpt lat="60.0220129" lon="17.6950624">
        <ele>33.7834</ele>
        <time>2013-05-28T19:51:40Z</time>
      </trkpt>
      <trkpt lat="60.0220476" lon="17.6949079">
        <ele>33.7834</ele>
        <time>2013-05-28T19:51:41Z</time>
      </trkpt>
      <trkpt lat="60.0220806" lon="17.6947529">
        <ele>33.7834</ele>
        <time>2013-05-28T19:51:42Z</time>
      </trkpt>
      <trkpt lat="60.0221116" lon="17.6945972">
        <ele>33.7834</ele>
        <time>2013-05-28T19:51:43Z</time>
      </trkpt>
      <trkpt lat="60.0221407" lon="17.6944412">
        <ele>34.2642</ele>
        <time>2013-05-28T19:51:44Z</time>
      </trkpt>
      <trkpt lat="60.0221685" lon="17.6942847">
        <ele>34.2642</ele>
        <time>2013-05-28T19:51:45Z</time>
      </trkpt>
      <trkpt lat="60.0221951" lon="17.6941264">
        <ele>34.2642</ele>
        <time>2013-05-28T19:51:46Z</time>
      </trkpt>
      <trkpt lat="60.0222201" lon="17.6939659">
        <ele>34.7449</ele>
        <time>2013-05-28T19:51:47Z</time>
      </trkpt>
      <trkpt lat="60.0222433" lon="17.6938037">
        <ele>34.7449</ele>
        <time>2013-05-28T19:51:48Z</time>
      </trkpt>
      <trkpt lat="60.0222659" lon="17.6936404">
        <ele>34.7449</ele>
        <time>2013-05-28T19:51:49Z</time>
      </trkpt>
      <trkpt lat="60.0222877" lon="17.6934763">
        <ele>34.7449</ele>
        <time>2013-05-28T19:51:50Z</time>
      </trkpt>
      <trkpt lat="60.0223083" lon="17.6933115">
        <ele>35.2255</ele>
        <time>2013-05-28T19:51:51Z</time>
      </trkpt>
      <trkpt lat="60.0223265" lon="17.6931458">
        <ele>35.2255</ele>
        <time>2013-05-28T19:51:52Z</time>
      </trkpt>
      <trkpt lat="60.0223417" lon="17.6929806">
        <ele>35.2255</ele>
        <time>2013-05-28T19:51:53Z</time>
      </trkpt>
      <trkpt lat="60.022355" lon="17.6928159">
        <ele>35.2255</ele>
        <time>2013-05-28T19:51:54Z</time>
      </trkpt>
      <trkpt lat="60.022367" lon="17.6926515">
        <ele>35.7061</ele>
        <time>2013-05-28T19:51:55Z</time>
      </trkpt>
      <trkpt lat="60.0223789" lon="17.6924885">
        <ele>35.7061</ele>
        <time>2013-05-28T19:51:56Z</time>
      </trkpt>
      <trkpt lat="60.0223903" lon="17.692326">
        <ele>35.7061</ele>
        <time>2013-05-28T19:51:57Z</time>
      </trkpt>
      <trkpt lat="60.0224002" lon="17.692162">
        <ele>36.1868</ele>
        <time>2013-05-28T19:51:58Z</time>
      </trkpt>
      <trkpt lat="60.0224095" lon="17.6919968">
        <ele>36.1868</ele>
        <time>2013-05-28T19:51:59Z</time>
      </trkpt>
      <trkpt lat="60.0224204" lon="17.6918314">
        <ele>36.1868</ele>
        <time>2013-05-28T19:52:00Z</time>
      </trkpt>
      <trkpt lat="60.0224299" lon="17.6916621">
        <ele>35.2255</ele>
        <time>2013-05-28T19:52:01Z</time>
      </trkpt>
      <trkpt lat="60.0224375" lon="17.6914912">
        <ele>34.2642</ele>
        <time>2013-05-28T19:52:02Z</time>
      </trkpt>
      <trkpt lat="60.0224452" lon="17.6913199">
        <ele>33.7834</ele>
        <time>2013-05-28T19:52:03Z</time>
      </trkpt>
      <trkpt lat="60.022453" lon="17.6911473">
        <ele>33.3029</ele>
        <time>2013-05-28T19:52:04Z</time>
      </trkpt>
      <trkpt lat="60.0224604" lon="17.690973">
        <ele>32.8223</ele>
        <time>2013-05-28T19:52:05Z</time>
      </trkpt>
      <trkpt lat="60.0224681" lon="17.6907979">
        <ele>32.3416</ele>
        <time>2013-05-28T19:52:06Z</time>
      </trkpt>
      <trkpt lat="60.0224764" lon="17.6906237">
        <ele>31.8607</ele>
        <time>2013-05-28T19:52:07Z</time>
      </trkpt>
      <trkpt lat="60.022485" lon="17.69045">
        <ele>31.3801</ele>
        <time>2013-05-28T19:52:08Z</time>
      </trkpt>
      <trkpt lat="60.0224927" lon="17.6902755">
        <ele>30.8995</ele>
        <time>2013-05-28T19:52:09Z</time>
      </trkpt>
      <trkpt lat="60.0224997" lon="17.6900999">
        <ele>30.4188</ele>
        <time>2013-05-28T19:52:10Z</time>
      </trkpt>
      <trkpt lat="60.022507" lon="17.6899238">
        <ele>30.4188</ele>
        <time>2013-05-28T19:52:11Z</time>
      </trkpt>
      <trkpt lat="60.0225147" lon="17.6897481">
        <ele>29.9381</ele>
        <time>2013-05-28T19:52:12Z</time>
      </trkpt>
      <trkpt lat="60.0225239" lon="17.6895733">
        <ele>29.9381</ele>
        <time>2013-05-28T19:52:13Z</time>
      </trkpt>
      <trkpt lat="60.0225328" lon="17.6893979">
        <ele>29.4575</ele>
        <time>2013-05-28T19:52:14Z</time>
      </trkpt>
      <trkpt lat="60.0225411" lon="17.6892217">
        <ele>29.4575</ele>
        <time>2013-05-28T19:52:15Z</time>
      </trkpt>
      <trkpt lat="60.022549" lon="17.6890447">
        <ele>29.4575</ele>
        <time>2013-05-28T19:52:16Z</time>
      </trkpt>
      <trkpt lat="60.0225572" lon="17.6888675">
        <ele>28.9769</ele>
        <time>2013-05-28T19:52:17Z</time>
      </trkpt>
      <trkpt lat="60.022566" lon="17.6886903">
        <ele>28.9769</ele>
        <time>2013-05-28T19:52:18Z</time>
      </trkpt>
      <trkpt lat="60.0225738" lon="17.6885096">
        <ele>28.9769</ele>
        <time>2013-05-28T19:52:19Z</time>
      </trkpt>
      <trkpt lat="60.0225818" lon="17.6883296">
        <ele>28.9769</ele>
        <time>2013-05-28T19:52:20Z</time>
      </trkpt>
      <trkpt lat="60.0225902" lon="17.6881546">
        <ele>28.9769</ele>
        <time>2013-05-28T19:52:21Z</time>
      </trkpt>
      <trkpt lat="60.022599" lon="17.6879781">
        <ele>28.9769</ele>
        <time>2013-05-28T19:52:22Z</time>
      </trkpt>
      <trkpt lat="60.0226028" lon="17.6878028">
        <ele>28.4962</ele>
        <time>2013-05-28T19:52:23Z</time>
      </trkpt>
      <trkpt lat="60.0226112" lon="17.6876232">
        <ele>28.0155</ele>
        <time>2013-05-28T19:52:24Z</time>
      </trkpt>
      <trkpt lat="60.0226184" lon="17.6874483">
        <ele>27.5349</ele>
        <time>2013-05-28T19:52:25Z</time>
      </trkpt>
      <trkpt lat="60.022624" lon="17.6872739">
        <ele>27.0543</ele>
        <time>2013-05-28T19:52:26Z</time>
      </trkpt>
      <trkpt lat="60.0226298" lon="17.687098">
        <ele>26.5736</ele>
        <time>2013-05-28T19:52:27Z</time>
      </trkpt>
      <trkpt lat="60.0226357" lon="17.6869185">
        <ele>25.6123</ele>
        <time>2013-05-28T19:52:28Z</time>
      </trkpt>
      <trkpt lat="60.0226445" lon="17.686741">
        <ele>25.1317</ele>
        <time>2013-05-28T19:52:29Z</time>
      </trkpt>
      <trkpt lat="60.0226513" lon="17.6865618">
        <ele>24.651</ele>
        <time>2013-05-28T19:52:30Z</time>
      </trkpt>
      <trkpt lat="60.0226577" lon="17.6863845">
        <ele>24.1703</ele>
        <time>2013-05-28T19:52:31Z</time>
      </trkpt>
      <trkpt lat="60.022665" lon="17.686207">
        <ele>23.6896</ele>
        <time>2013-05-28T19:52:32Z</time>
      </trkpt>
      <trkpt lat="60.0226726" lon="17.6860278">
        <ele>23.209</ele>
        <time>2013-05-28T19:52:33Z</time>
      </trkpt>
      <trkpt lat="60.0226792" lon="17.6858474">
        <ele>22.7283</ele>
        <time>2013-05-28T19:52:34Z</time>
      </trkpt>
      <trkpt lat="60.0226861" lon="17.6856663">
        <ele>22.2476</ele>
        <time>2013-05-28T19:52:35Z</time>
      </trkpt>
      <trkpt lat="60.0226934" lon="17.6854874">
        <ele>22.2476</ele>
        <time>2013-05-28T19:52:36Z</time>
      </trkpt>
      <trkpt lat="60.0227017" lon="17.6853106">
        <ele>22.2476</ele>
        <time>2013-05-28T19:52:37Z</time>
      </trkpt>
      <trkpt lat="60.022708" lon="17.6851332">
        <ele>22.7283</ele>
        <time>2013-05-28T19:52:38Z</time>
      </trkpt>
      <trkpt lat="60.0227136" lon="17.6849545">
        <ele>23.209</ele>
        <time>2013-05-28T19:52:39Z</time>
      </trkpt>
      <trkpt lat="60.0227194" lon="17.6847753">
        <ele>23.209</ele>
        <time>2013-05-28T19:52:40Z</time>
      </trkpt>
      <trkpt lat="60.022724" lon="17.6845964">
        <ele>23.6896</ele>
        <time>2013-05-28T19:52:41Z</time>
      </trkpt>
      <trkpt lat="60.022726" lon="17.6844168">
        <ele>23.6896</ele>
        <time>2013-05-28T19:52:42Z</time>
      </trkpt>
      <trkpt lat="60.0227275" lon="17.6842363">
        <ele>24.1703</ele>
        <time>2013-05-28T19:52:43Z</time>
      </trkpt>
      <trkpt lat="60.022729" lon="17.6840563">
        <ele>24.1703</ele>
        <time>2013-05-28T19:52:44Z</time>
      </trkpt>
      <trkpt lat="60.0227302" lon="17.683878">
        <ele>24.651</ele>
        <time>2013-05-28T19:52:45Z</time>
      </trkpt>
      <trkpt lat="60.0227303" lon="17.6836988">
        <ele>24.651</ele>
        <time>2013-05-28T19:52:46Z</time>
      </trkpt>
      <trkpt lat="60.0227285" lon="17.683518">
        <ele>25.1317</ele>
        <time>2013-05-28T19:52:47Z</time>
      </trkpt>
      <trkpt lat="60.022726" lon="17.6833357">
        <ele>25.1317</ele>
        <time>2013-05-28T19:52:48Z</time>
      </trkpt>
      <trkpt lat="60.0227232" lon="17.6831521">
        <ele>25.1317</ele>
        <time>2013-05-28T19:52:49Z</time>
      </trkpt>
      <trkpt lat="60.0227188" lon="17.6829689">
        <ele>25.6123</ele>
        <time>2013-05-28T19:52:50Z</time>
      </trkpt>
      <trkpt lat="60.0227134" lon="17.6827865">
        <ele>25.6123</ele>
        <time>2013-05-28T19:52:51Z</time>
      </trkpt>
      <trkpt lat="60.0227078" lon="17.682604">
        <ele>25.6123</ele>
        <time>2013-05-28T19:52:52Z</time>
      </trkpt>
      <trkpt lat="60.0227006" lon="17.6824203">
        <ele>25.6123</ele>
        <time>2013-05-28T19:52:53Z</time>
      </trkpt>
      <trkpt lat="60.0226911" lon="17.6822357">
        <ele>25.6123</ele>
        <time>2013-05-28T19:52:54Z</time>
      </trkpt>
      <trkpt lat="60.0226809" lon="17.68205">
        <ele>25.6123</ele>
        <time>2013-05-28T19:52:55Z</time>
      </trkpt>
      <trkpt lat="60.0226702" lon="17.6818625">
        <ele>25.6123</ele>
        <time>2013-05-28T19:52:56Z</time>
      </trkpt>
      <trkpt lat="60.0226582" lon="17.6816723">
        <ele>25.6123</ele>
        <time>2013-05-28T19:52:57Z</time>
      </trkpt>
      <trkpt lat="60.0226437" lon="17.6814813">
        <ele>25.6123</ele>
        <time>2013-05-28T19:52:58Z</time>
      </trkpt>
      <trkpt lat="60.0226281" lon="17.6812907">
        <ele>25.6123</ele>
        <time>2013-05-28T19:52:59Z</time>
      </trkpt>
      <trkpt lat="60.0226116" lon="17.6811015">
        <ele>26.0929</ele>
        <time>2013-05-28T19:53:00Z</time>
      </trkpt>
      <trkpt lat="60.022594" lon="17.6809131">
        <ele>26.0929</ele>
        <time>2013-05-28T19:53:01Z</time>
      </trkpt>
      <trkpt lat="60.0225743" lon="17.6807249">
        <ele>25.6123</ele>
        <time>2013-05-28T19:53:02Z</time>
      </trkpt>
      <trkpt lat="60.0225537" lon="17.6805362">
        <ele>25.6123</ele>
        <time>2013-05-28T19:53:03Z</time>
      </trkpt>
      <trkpt lat="60.0225326" lon="17.6803471">
        <ele>25.6123</ele>
        <time>2013-05-28T19:53:04Z</time>
      </trkpt>
      <trkpt lat="60.02251" lon="17.6801582">
        <ele>25.6123</ele>
        <time>2013-05-28T19:53:05Z</time>
      </trkpt>
      <trkpt lat="60.0224857" lon="17.67997">
        <ele>25.6123</ele>
        <time>2013-05-28T19:53:06Z</time>
      </trkpt>
      <trkpt lat="60.0224594" lon="17.6797821">
        <ele>25.6123</ele>
        <time>2013-05-28T19:53:07Z</time>
      </trkpt>
      <trkpt lat="60.0224326" lon="17.6795931">
        <ele>25.6123</ele>
        <time>2013-05-28T19:53:08Z</time>
      </trkpt>
      <trkpt lat="60.0224058" lon="17.679404">
        <ele>25.6123</ele>
        <time>2013-05-28T19:53:09Z</time>
      </trkpt>
      <trkpt lat="60.0223784" lon="17.679215">
        <ele>25.6123</ele>
        <time>2013-05-28T19:53:10Z</time>
      </trkpt>
      <trkpt lat="60.0223496" lon="17.6790263">
        <ele>25.6123</ele>
        <time>2013-05-28T19:53:11Z</time>
      </trkpt>
      <trkpt lat="60.022319" lon="17.6788377">
        <ele>25.6123</ele>
        <time>2013-05-28T19:53:12Z</time>
      </trkpt>
      <trkpt lat="60.0222878" lon="17.6786475">
        <ele>25.6123</ele>
        <time>2013-05-28T19:53:13Z</time>
      </trkpt>
      <trkpt lat="60.022257" lon="17.678456">
        <ele>25.6123</ele>
        <time>2013-05-28T19:53:14Z</time>
      </trkpt>
      <trkpt lat="60.0222247" lon="17.678267">
        <ele>24.651</ele>
        <time>2013-05-28T19:53:15Z</time>
      </trkpt>
      <trkpt lat="60.022192" lon="17.6780772">
        <ele>24.1703</ele>
        <time>2013-05-28T19:53:16Z</time>
      </trkpt>
      <trkpt lat="60.0221589" lon="17.6778852">
        <ele>23.6896</ele>
        <time>2013-05-28T19:53:17Z</time>
      </trkpt>
      <trkpt lat="60.0221263" lon="17.6776928">
        <ele>23.209</ele>
        <time>2013-05-28T19:53:18Z</time>
      </trkpt>
      <trkpt lat="60.0220941" lon="17.6775008">
        <ele>23.6896</ele>
        <time>2013-05-28T19:53:19Z</time>
      </trkpt>
      <trkpt lat="60.0220635" lon="17.6773097">
        <ele>23.6896</ele>
        <time>2013-05-28T19:53:20Z</time>
      </trkpt>
      <trkpt lat="60.0220333" lon="17.6771155">
        <ele>23.209</ele>
        <time>2013-05-28T19:53:21Z</time>
      </trkpt>
      <trkpt lat="60.0220033" lon="17.676921">
        <ele>22.7283</ele>
        <time>2013-05-28T19:53:22Z</time>
      </trkpt>
      <trkpt lat="60.0219749" lon="17.676726">
        <ele>22.2476</ele>
        <time>2013-05-28T19:53:23Z</time>
      </trkpt>
      <trkpt lat="60.0219496" lon="17.6765357">
        <ele>22.2476</ele>
        <time>2013-05-28T19:53:24Z</time>
      </trkpt>
      <trkpt lat="60.0219262" lon="17.6763451">
        <ele>22.7283</ele>
        <time>2013-05-28T19:53:25Z</time>
      </trkpt>
      <trkpt lat="60.0219041" lon="17.6761514">
        <ele>21.767</ele>
        <time>2013-05-28T19:53:26Z</time>
      </trkpt>
      <trkpt lat="60.0218853" lon="17.6759578">
        <ele>22.2476</ele>
        <time>2013-05-28T19:53:27Z</time>
      </trkpt>
      <trkpt lat="60.0218687" lon="17.6757644">
        <ele>22.2476</ele>
        <time>2013-05-28T19:53:28Z</time>
      </trkpt>
      <trkpt lat="60.0218549" lon="17.6755702">
        <ele>22.2476</ele>
        <time>2013-05-28T19:53:29Z</time>
      </trkpt>
      <trkpt lat="60.0218432" lon="17.6753753">
        <ele>22.7283</ele>
        <time>2013-05-28T19:53:30Z</time>
      </trkpt>
      <trkpt lat="60.0218334" lon="17.6751805">
        <ele>22.7283</ele>
        <time>2013-05-28T19:53:31Z</time>
      </trkpt>
      <trkpt lat="60.0218248" lon="17.6749828">
        <ele>22.2476</ele>
        <time>2013-05-28T19:53:32Z</time>
      </trkpt>
      <trkpt lat="60.0218209" lon="17.674785">
        <ele>22.2476</ele>
        <time>2013-05-28T19:53:33Z</time>
      </trkpt>
      <trkpt lat="60.0218194" lon="17.674588">
        <ele>22.7283</ele>
        <time>2013-05-28T19:53:34Z</time>
      </trkpt>
      <trkpt lat="60.0218178" lon="17.6743875">
        <ele>21.767</ele>
        <time>2013-05-28T19:53:35Z</time>
      </trkpt>
      <trkpt lat="60.021818" lon="17.674188">
        <ele>21.767</ele>
        <time>2013-05-28T19:53:36Z</time>
      </trkpt>
      <trkpt lat="60.0218188" lon="17.6739888">
        <ele>21.2864</ele>
        <time>2013-05-28T19:53:37Z</time>
      </trkpt>
      <trkpt lat="60.0218195" lon="17.6737911">
        <ele>20.8057</ele>
        <time>2013-05-28T19:53:38Z</time>
      </trkpt>
      <trkpt lat="60.0218202" lon="17.6735955">
        <ele>20.325</ele>
        <time>2013-05-28T19:53:39Z</time>
      </trkpt>
      <trkpt lat="60.02182" lon="17.6734027">
        <ele>19.8444</ele>
        <time>2013-05-28T19:53:40Z</time>
      </trkpt>
      <trkpt lat="60.021818" lon="17.6732094">
        <ele>19.8444</ele>
        <time>2013-05-28T19:53:41Z</time>
      </trkpt>
      <trkpt lat="60.021816" lon="17.6730159">
        <ele>20.325</ele>
        <time>2013-05-28T19:53:42Z</time>
      </trkpt>
      <trkpt lat="60.0218126" lon="17.6728227">
        <ele>20.325</ele>
        <time>2013-05-28T19:53:43Z</time>
      </trkpt>
      <trkpt lat="60.0218088" lon="17.6726289">
        <ele>20.8057</ele>
        <time>2013-05-28T19:53:44Z</time>
      </trkpt>
      <trkpt lat="60.0218055" lon="17.6724363">
        <ele>20.8057</ele>
        <time>2013-05-28T19:53:45Z</time>
      </trkpt>
      <trkpt lat="60.0217988" lon="17.6722435">
        <ele>21.2864</ele>
        <time>2013-05-28T19:53:46Z</time>
      </trkpt>
      <trkpt lat="60.0217883" lon="17.6720508">
        <ele>21.2864</ele>
        <time>2013-05-28T19:53:47Z</time>
      </trkpt>
      <trkpt lat="60.021775" lon="17.6718591">
        <ele>21.767</ele>
        <time>2013-05-28T19:53:48Z</time>
      </trkpt>
      <trkpt lat="60.0217603" lon="17.671669">
        <ele>22.2476</ele>
        <time>2013-05-28T19:53:49Z</time>
      </trkpt>
      <trkpt lat="60.0217424" lon="17.6714798">
        <ele>21.767</ele>
        <time>2013-05-28T19:53:50Z</time>
      </trkpt>
      <trkpt lat="60.0217225" lon="17.671293">
        <ele>22.2476</ele>
        <time>2013-05-28T19:53:51Z</time>
      </trkpt>
      <trkpt lat="60.0217002" lon="17.6711065">
        <ele>21.767</ele>
        <time>2013-05-28T19:53:52Z</time>
      </trkpt>
      <trkpt lat="60.0216755" lon="17.6709217">
        <ele>21.767</ele>
        <time>2013-05-28T19:53:53Z</time>
      </trkpt>
      <trkpt lat="60.021649" lon="17.6707398">
        <ele>21.767</ele>
        <time>2013-05-28T19:53:54Z</time>
      </trkpt>
      <trkpt lat="60.0216227" lon="17.6705574">
        <ele>22.2476</ele>
        <time>2013-05-28T19:53:55Z</time>
      </trkpt>
      <trkpt lat="60.0215932" lon="17.6703774">
        <ele>21.767</ele>
        <time>2013-05-28T19:53:56Z</time>
      </trkpt>
      <trkpt lat="60.0215631" lon="17.6701962">
        <ele>21.2864</ele>
        <time>2013-05-28T19:53:57Z</time>
      </trkpt>
      <trkpt lat="60.0215331" lon="17.6700192">
        <ele>20.8057</ele>
        <time>2013-05-28T19:53:58Z</time>
      </trkpt>
      <trkpt lat="60.0215" lon="17.6698384">
        <ele>20.8057</ele>
        <time>2013-05-28T19:53:59Z</time>
      </trkpt>
      <trkpt lat="60.0214663" lon="17.6696562">
        <ele>21.2864</ele>
        <time>2013-05-28T19:54:00Z</time>
      </trkpt>
      <trkpt lat="60.0214326" lon="17.6694851">
        <ele>20.8057</ele>
        <time>2013-05-28T19:54:01Z</time>
      </trkpt>
      <trkpt lat="60.0213952" lon="17.6693122">
        <ele>20.8057</ele>
        <time>2013-05-28T19:54:02Z</time>
      </trkpt>
      <trkpt lat="60.0213534" lon="17.6691436">
        <ele>20.325</ele>
        <time>2013-05-28T19:54:03Z</time>
      </trkpt>
      <trkpt lat="60.0213092" lon="17.6689749">
        <ele>20.325</ele>
        <time>2013-05-28T19:54:04Z</time>
      </trkpt>
      <trkpt lat="60.0212641" lon="17.6688076">
        <ele>19.8444</ele>
        <time>2013-05-28T19:54:05Z</time>
      </trkpt>
      <trkpt lat="60.021218" lon="17.6686459">
        <ele>19.8444</ele>
        <time>2013-05-28T19:54:06Z</time>
      </trkpt>
      <trkpt lat="60.0211704" lon="17.6684884">
        <ele>19.8444</ele>
        <time>2013-05-28T19:54:07Z</time>
      </trkpt>
      <trkpt lat="60.0211205" lon="17.6683341">
        <ele>19.3638</ele>
        <time>2013-05-28T19:54:08Z</time>
      </trkpt>
      <trkpt lat="60.0210695" lon="17.6681828">
        <ele>19.3638</ele>
        <time>2013-05-28T19:54:09Z</time>
      </trkpt>
      <trkpt lat="60.0210176" lon="17.6680346">
        <ele>19.3638</ele>
        <time>2013-05-28T19:54:10Z</time>
      </trkpt>
      <trkpt lat="60.0209651" lon="17.6678885">
        <ele>19.3638</ele>
        <time>2013-05-28T19:54:11Z</time>
      </trkpt>
      <trkpt lat="60.020912" lon="17.6677458">
        <ele>18.8831</ele>
        <time>2013-05-28T19:54:12Z</time>
      </trkpt>
      <trkpt lat="60.0208596" lon="17.6676043">
        <ele>18.8831</ele>
        <time>2013-05-28T19:54:13Z</time>
      </trkpt>
      <trkpt lat="60.0208074" lon="17.6674623">
        <ele>19.3638</ele>
        <time>2013-05-28T19:54:14Z</time>
      </trkpt>
      <trkpt lat="60.0207546" lon="17.6673218">
        <ele>19.3638</ele>
        <time>2013-05-28T19:54:15Z</time>
      </trkpt>
      <trkpt lat="60.020702" lon="17.6671793">
        <ele>19.3638</ele>
        <time>2013-05-28T19:54:16Z</time>
      </trkpt>
      <trkpt lat="60.0206483" lon="17.6670425">
        <ele>19.3638</ele>
        <time>2013-05-28T19:54:17Z</time>
      </trkpt>
      <trkpt lat="60.0205944" lon="17.6669047">
        <ele>19.3638</ele>
        <time>2013-05-28T19:54:18Z</time>
      </trkpt>
      <trkpt lat="60.0205417" lon="17.6667618">
        <ele>19.3638</ele>
        <time>2013-05-28T19:54:19Z</time>
      </trkpt>
      <trkpt lat="60.0204882" lon="17.6666162">
        <ele>19.8444</ele>
        <time>2013-05-28T19:54:20Z</time>
      </trkpt>
      <trkpt lat="60.0204347" lon="17.6664687">
        <ele>19.8444</ele>
        <time>2013-05-28T19:54:21Z</time>
      </trkpt>
      <trkpt lat="60.0203822" lon="17.6663197">
        <ele>20.325</ele>
        <time>2013-05-28T19:54:22Z</time>
      </trkpt>
      <trkpt lat="60.0203295" lon="17.6661712">
        <ele>20.325</ele>
        <time>2013-05-28T19:54:23Z</time>
      </trkpt>
      <trkpt lat="60.0202757" lon="17.6660221">
        <ele>20.325</ele>
        <time>2013-05-28T19:54:24Z</time>
      </trkpt>
      <trkpt lat="60.0202215" lon="17.6658719">
        <ele>20.325</ele>
        <time>2013-05-28T19:54:25Z</time>
      </trkpt>
      <trkpt lat="60.0201675" lon="17.6657229">
        <ele>20.325</ele>
        <time>2013-05-28T19:54:26Z</time>
      </trkpt>
      <trkpt lat="60.0201138" lon="17.6655757">
        <ele>20.325</ele>
        <time>2013-05-28T19:54:27Z</time>
      </trkpt>
      <trkpt lat="60.0200615" lon="17.6654291">
        <ele>20.8057</ele>
        <time>2013-05-28T19:54:28Z</time>
      </trkpt>
      <trkpt lat="60.0200101" lon="17.6652818">
        <ele>20.8057</ele>
        <time>2013-05-28T19:54:29Z</time>
      </trkpt>
      <trkpt lat="60.0199597" lon="17.6651347">
        <ele>20.8057</ele>
        <time>2013-05-28T19:54:30Z</time>
      </trkpt>
      <trkpt lat="60.0199107" lon="17.6649894">
        <ele>20.8057</ele>
        <time>2013-05-28T19:54:31Z</time>
      </trkpt>
      <trkpt lat="60.019862" lon="17.6648458">
        <ele>20.8057</ele>
        <time>2013-05-28T19:54:32Z</time>
      </trkpt>
      <trkpt lat="60.0198148" lon="17.6647016">
        <ele>21.2864</ele>
        <time>2013-05-28T19:54:33Z</time>
      </trkpt>
      <trkpt lat="60.0197707" lon="17.6645556">
        <ele>21.2864</ele>
        <time>2013-05-28T19:54:34Z</time>
      </trkpt>
      <trkpt lat="60.0197286" lon="17.6644071">
        <ele>21.2864</ele>
        <time>2013-05-28T19:54:35Z</time>
      </trkpt>
      <trkpt lat="60.0196882" lon="17.6642554">
        <ele>21.2864</ele>
        <time>2013-05-28T19:54:36Z</time>
      </trkpt>
      <trkpt lat="60.0196492" lon="17.6641023">
        <ele>21.2864</ele>
        <time>2013-05-28T19:54:37Z</time>
      </trkpt>
      <trkpt lat="60.0196117" lon="17.6639489">
        <ele>21.2864</ele>
        <time>2013-05-28T19:54:38Z</time>
      </trkpt>
      <trkpt lat="60.0195751" lon="17.6637948">
        <ele>21.767</ele>
        <time>2013-05-28T19:54:39Z</time>
      </trkpt>
      <trkpt lat="60.0195393" lon="17.6636393">
        <ele>21.767</ele>
        <time>2013-05-28T19:54:40Z</time>
      </trkpt>
      <trkpt lat="60.0195052" lon="17.6634818">
        <ele>21.767</ele>
        <time>2013-05-28T19:54:41Z</time>
      </trkpt>
      <trkpt lat="60.0194735" lon="17.6633229">
        <ele>21.767</ele>
        <time>2013-05-28T19:54:42Z</time>
      </trkpt>
      <trkpt lat="60.0194428" lon="17.6631633">
        <ele>21.767</ele>
        <time>2013-05-28T19:54:43Z</time>
      </trkpt>
      <trkpt lat="60.0194128" lon="17.6630038">
        <ele>21.767</ele>
        <time>2013-05-28T19:54:44Z</time>
      </trkpt>
      <trkpt lat="60.0193849" lon="17.6628445">
        <ele>21.767</ele>
        <time>2013-05-28T19:54:45Z</time>
      </trkpt>
      <trkpt lat="60.0193589" lon="17.6626826">
        <ele>21.767</ele>
        <time>2013-05-28T19:54:46Z</time>
      </trkpt>
      <trkpt lat="60.0193334" lon="17.6625195">
        <ele>21.2864</ele>
        <time>2013-05-28T19:54:47Z</time>
      </trkpt>
      <trkpt lat="60.0193087" lon="17.6623558">
        <ele>21.2864</ele>
        <time>2013-05-28T19:54:48Z</time>
      </trkpt>
      <trkpt lat="60.0192859" lon="17.6621905">
        <ele>21.2864</ele>
        <time>2013-05-28T19:54:49Z</time>
      </trkpt>
      <trkpt lat="60.0192652" lon="17.662022">
        <ele>21.2864</ele>
        <time>2013-05-28T19:54:50Z</time>
      </trkpt>
      <trkpt lat="60.0192465" lon="17.6618522">
        <ele>21.2864</ele>
        <time>2013-05-28T19:54:51Z</time>
      </trkpt>
      <trkpt lat="60.0192291" lon="17.6616808">
        <ele>21.2864</ele>
        <time>2013-05-28T19:54:52Z</time>
      </trkpt>
      <trkpt lat="60.019214" lon="17.6615071">
        <ele>21.2864</ele>
        <time>2013-05-28T19:54:53Z</time>
      </trkpt>
      <trkpt lat="60.0192004" lon="17.6613316">
        <ele>21.2864</ele>
        <time>2013-05-28T19:54:54Z</time>
      </trkpt>
      <trkpt lat="60.019186" lon="17.6611546">
        <ele>20.8057</ele>
        <time>2013-05-28T19:54:55Z</time>
      </trkpt>
      <trkpt lat="60.019172" lon="17.6609759">
        <ele>20.8057</ele>
        <time>2013-05-28T19:54:56Z</time>
      </trkpt>
      <trkpt lat="60.0191593" lon="17.660797">
        <ele>20.8057</ele>
        <time>2013-05-28T19:54:57Z</time>
      </trkpt>
      <trkpt lat="60.0191456" lon="17.660619">
        <ele>20.8057</ele>
        <time>2013-05-28T19:54:58Z</time>
      </trkpt>
      <trkpt lat="60.0191321" lon="17.6604428">
        <ele>20.8057</ele>
        <time>2013-05-28T19:54:59Z</time>
      </trkpt>
      <trkpt lat="60.0191198" lon="17.6602686">
        <ele>20.8057</ele>
        <time>2013-05-28T19:55:00Z</time>
      </trkpt>
      <trkpt lat="60.0191072" lon="17.6600952">
        <ele>20.8057</ele>
        <time>2013-05-28T19:55:01Z</time>
      </trkpt>
      <trkpt lat="60.0190947" lon="17.6599217">
        <ele>20.325</ele>
        <time>2013-05-28T19:55:02Z</time>
      </trkpt>
      <trkpt lat="60.0190824" lon="17.6597494">
        <ele>20.8057</ele>
        <time>2013-05-28T19:55:03Z</time>
      </trkpt>
      <trkpt lat="60.0190695" lon="17.6595771">
        <ele>20.8057</ele>
        <time>2013-05-28T19:55:04Z</time>
      </trkpt>
      <trkpt lat="60.0190576" lon="17.659405">
        <ele>20.8057</ele>
        <time>2013-05-28T19:55:05Z</time>
      </trkpt>
      <trkpt lat="60.0190456" lon="17.6592338">
        <ele>21.2864</ele>
        <time>2013-05-28T19:55:06Z</time>
      </trkpt>
      <trkpt lat="60.0190327" lon="17.6590633">
        <ele>21.2864</ele>
        <time>2013-05-28T19:55:07Z</time>
      </trkpt>
      <trkpt lat="60.0190196" lon="17.6588923">
        <ele>21.2864</ele>
        <time>2013-05-28T19:55:08Z</time>
      </trkpt>
      <trkpt lat="60.0190066" lon="17.6587208">
        <ele>21.767</ele>
        <time>2013-05-28T19:55:09Z</time>
      </trkpt>
      <trkpt lat="60.0189942" lon="17.6585488">
        <ele>21.767</ele>
        <time>2013-05-28T19:55:10Z</time>
      </trkpt>
      <trkpt lat="60.018983" lon="17.6583755">
        <ele>21.767</ele>
        <time>2013-05-28T19:55:11Z</time>
      </trkpt>
      <trkpt lat="60.018972" lon="17.6582019">
        <ele>22.2476</ele>
        <time>2013-05-28T19:55:12Z</time>
      </trkpt>
      <trkpt lat="60.0189597" lon="17.6580274">
        <ele>22.2476</ele>
        <time>2013-05-28T19:55:13Z</time>
      </trkpt>
      <trkpt lat="60.0189467" lon="17.6578521">
        <ele>22.2476</ele>
        <time>2013-05-28T19:55:14Z</time>
      </trkpt>
      <trkpt lat="60.0189337" lon="17.6576769">
        <ele>22.2476</ele>
        <time>2013-05-28T19:55:15Z</time>
      </trkpt>
      <trkpt lat="60.0189213" lon="17.6575016">
        <ele>22.7283</ele>
        <time>2013-05-28T19:55:16Z</time>
      </trkpt>
      <trkpt lat="60.0189089" lon="17.6573254">
        <ele>22.7283</ele>
        <time>2013-05-28T19:55:17Z</time>
      </trkpt>
      <trkpt lat="60.0188969" lon="17.657148">
        <ele>22.7283</ele>
        <time>2013-05-28T19:55:18Z</time>
      </trkpt>
      <trkpt lat="60.0188851" lon="17.6569709">
        <ele>23.209</ele>
        <time>2013-05-28T19:55:19Z</time>
      </trkpt>
      <trkpt lat="60.018873" lon="17.6567947">
        <ele>23.209</ele>
        <time>2013-05-28T19:55:20Z</time>
      </trkpt>
      <trkpt lat="60.0188601" lon="17.6566181">
        <ele>23.209</ele>
        <time>2013-05-28T19:55:21Z</time>
      </trkpt>
      <trkpt lat="60.0188483" lon="17.6564404">
        <ele>23.209</ele>
        <time>2013-05-28T19:55:22Z</time>
      </trkpt>
      <trkpt lat="60.0188361" lon="17.6562619">
        <ele>23.6896</ele>
        <time>2013-05-28T19:55:23Z</time>
      </trkpt>
      <trkpt lat="60.0188233" lon="17.6560827">
        <ele>23.6896</ele>
        <time>2013-05-28T19:55:24Z</time>
      </trkpt>
      <trkpt lat="60.0188097" lon="17.6559035">
        <ele>23.6896</ele>
        <time>2013-05-28T19:55:25Z</time>
      </trkpt>
      <trkpt lat="60.0187934" lon="17.6557268">
        <ele>23.6896</ele>
        <time>2013-05-28T19:55:26Z</time>
      </trkpt>
      <trkpt lat="60.0187779" lon="17.6555502">
        <ele>24.1703</ele>
        <time>2013-05-28T19:55:27Z</time>
      </trkpt>
      <trkpt lat="60.0187655" lon="17.6553719">
        <ele>24.1703</ele>
        <time>2013-05-28T19:55:28Z</time>
      </trkpt>
      <trkpt lat="60.0187533" lon="17.6551936">
        <ele>24.1703</ele>
        <time>2013-05-28T19:55:29Z</time>
      </trkpt>
      <trkpt lat="60.018741" lon="17.6550153">
        <ele>24.1703</ele>
        <time>2013-05-28T19:55:30Z</time>
      </trkpt>
      <trkpt lat="60.0187286" lon="17.6548366">
        <ele>24.651</ele>
        <time>2013-05-28T19:55:31Z</time>
      </trkpt>
      <trkpt lat="60.0187157" lon="17.6546579">
        <ele>24.651</ele>
        <time>2013-05-28T19:55:32Z</time>
      </trkpt>
      <trkpt lat="60.0187021" lon="17.6544789">
        <ele>24.651</ele>
        <time>2013-05-28T19:55:33Z</time>
      </trkpt>
      <trkpt lat="60.0186891" lon="17.654299">
        <ele>24.651</ele>
        <time>2013-05-28T19:55:34Z</time>
      </trkpt>
      <trkpt lat="60.0186771" lon="17.654119">
        <ele>25.1317</ele>
        <time>2013-05-28T19:55:35Z</time>
      </trkpt>
      <trkpt lat="60.0186649" lon="17.6539391">
        <ele>25.1317</ele>
        <time>2013-05-28T19:55:36Z</time>
      </trkpt>
      <trkpt lat="60.0186513" lon="17.6537589">
        <ele>25.6123</ele>
        <time>2013-05-28T19:55:37Z</time>
      </trkpt>
      <trkpt lat="60.0186373" lon="17.6535786">
        <ele>25.6123</ele>
        <time>2013-05-28T19:55:38Z</time>
      </trkpt>
      <trkpt lat="60.0186218" lon="17.6533964">
        <ele>24.651</ele>
        <time>2013-05-28T19:55:39Z</time>
      </trkpt>
      <trkpt lat="60.0186082" lon="17.6532158">
        <ele>25.1317</ele>
        <time>2013-05-28T19:55:40Z</time>
      </trkpt>
      <trkpt lat="60.0185954" lon="17.6530357">
        <ele>25.1317</ele>
        <time>2013-05-28T19:55:41Z</time>
      </trkpt>
      <trkpt lat="60.0185821" lon="17.6528569">
        <ele>25.6123</ele>
        <time>2013-05-28T19:55:42Z</time>
      </trkpt>
      <trkpt lat="60.0185681" lon="17.6526772">
        <ele>25.6123</ele>
        <time>2013-05-28T19:55:43Z</time>
      </trkpt>
      <trkpt lat="60.0185549" lon="17.652497">
        <ele>26.0929</ele>
        <time>2013-05-28T19:55:44Z</time>
      </trkpt>
      <trkpt lat="60.018543" lon="17.6523165">
        <ele>26.0929</ele>
        <time>2013-05-28T19:55:45Z</time>
      </trkpt>
      <trkpt lat="60.0185282" lon="17.6521357">
        <ele>25.1317</ele>
        <time>2013-05-28T19:55:46Z</time>
      </trkpt>
      <trkpt lat="60.0185124" lon="17.6519555">
        <ele>25.1317</ele>
        <time>2013-05-28T19:55:47Z</time>
      </trkpt>
      <trkpt lat="60.0184966" lon="17.6517748">
        <ele>24.651</ele>
        <time>2013-05-28T19:55:48Z</time>
      </trkpt>
      <trkpt lat="60.0184824" lon="17.6515934">
        <ele>24.1703</ele>
        <time>2013-05-28T19:55:49Z</time>
      </trkpt>
      <trkpt lat="60.0184701" lon="17.65141">
        <ele>24.1703</ele>
        <time>2013-05-28T19:55:50Z</time>
      </trkpt>
      <trkpt lat="60.0184586" lon="17.6512263">
        <ele>23.6896</ele>
        <time>2013-05-28T19:55:51Z</time>
      </trkpt>
      <trkpt lat="60.0184462" lon="17.6510435">
        <ele>23.6896</ele>
        <time>2013-05-28T19:55:52Z</time>
      </trkpt>
      <trkpt lat="60.0184342" lon="17.6508609">
        <ele>23.6896</ele>
        <time>2013-05-28T19:55:53Z</time>
      </trkpt>
      <trkpt lat="60.018424" lon="17.6506786">
        <ele>23.209</ele>
        <time>2013-05-28T19:55:54Z</time>
      </trkpt>
      <trkpt lat="60.0184146" lon="17.6504967">
        <ele>23.209</ele>
        <time>2013-05-28T19:55:55Z</time>
      </trkpt>
      <trkpt lat="60.0184065" lon="17.6503151">
        <ele>23.209</ele>
        <time>2013-05-28T19:55:56Z</time>
      </trkpt>
      <trkpt lat="60.0183991" lon="17.6501333">
        <ele>23.209</ele>
        <time>2013-05-28T19:55:57Z</time>
      </trkpt>
      <trkpt lat="60.0183918" lon="17.649951">
        <ele>23.209</ele>
        <time>2013-05-28T19:55:58Z</time>
      </trkpt>
      <trkpt lat="60.0183863" lon="17.6497689">
        <ele>23.209</ele>
        <time>2013-05-28T19:55:59Z</time>
      </trkpt>
      <trkpt lat="60.0183834" lon="17.6495864">
        <ele>22.7283</ele>
        <time>2013-05-28T19:56:00Z</time>
      </trkpt>
      <trkpt lat="60.018382" lon="17.6494049">
        <ele>23.209</ele>
        <time>2013-05-28T19:56:01Z</time>
      </trkpt>
      <trkpt lat="60.0183803" lon="17.6492232">
        <ele>22.7283</ele>
        <time>2013-05-28T19:56:02Z</time>
      </trkpt>
      <trkpt lat="60.0183793" lon="17.6490434">
        <ele>23.209</ele>
        <time>2013-05-28T19:56:03Z</time>
      </trkpt>
      <trkpt lat="60.0183775" lon="17.6488638">
        <ele>23.209</ele>
        <time>2013-05-28T19:56:04Z</time>
      </trkpt>
      <trkpt lat="60.0183764" lon="17.6486842">
        <ele>23.209</ele>
        <time>2013-05-28T19:56:05Z</time>
      </trkpt>
      <trkpt lat="60.0183767" lon="17.6485057">
        <ele>23.6896</ele>
        <time>2013-05-28T19:56:06Z</time>
      </trkpt>
      <trkpt lat="60.0183773" lon="17.6483282">
        <ele>23.6896</ele>
        <time>2013-05-28T19:56:07Z</time>
      </trkpt>
      <trkpt lat="60.0183778" lon="17.6481509">
        <ele>23.6896</ele>
        <time>2013-05-28T19:56:08Z</time>
      </trkpt>
      <trkpt lat="60.0183779" lon="17.647973">
        <ele>23.6896</ele>
        <time>2013-05-28T19:56:09Z</time>
      </trkpt>
      <trkpt lat="60.0183779" lon="17.6477951">
        <ele>24.1703</ele>
        <time>2013-05-28T19:56:10Z</time>
      </trkpt>
      <trkpt lat="60.0183779" lon="17.647618">
        <ele>24.1703</ele>
        <time>2013-05-28T19:56:11Z</time>
      </trkpt>
      <trkpt lat="60.0183774" lon="17.6474412">
        <ele>24.651</ele>
        <time>2013-05-28T19:56:12Z</time>
      </trkpt>
      <trkpt lat="60.0183763" lon="17.6472651">
        <ele>24.651</ele>
        <time>2013-05-28T19:56:13Z</time>
      </trkpt>
      <trkpt lat="60.0183756" lon="17.6470895">
        <ele>25.1317</ele>
        <time>2013-05-28T19:56:14Z</time>
      </trkpt>
      <trkpt lat="60.0183749" lon="17.6469143">
        <ele>25.1317</ele>
        <time>2013-05-28T19:56:15Z</time>
      </trkpt>
      <trkpt lat="60.0183743" lon="17.6467388">
        <ele>25.1317</ele>
        <time>2013-05-28T19:56:16Z</time>
      </trkpt>
      <trkpt lat="60.0183737" lon="17.6465641">
        <ele>25.6123</ele>
        <time>2013-05-28T19:56:17Z</time>
      </trkpt>
      <trkpt lat="60.0183726" lon="17.6463906">
        <ele>26.0929</ele>
        <time>2013-05-28T19:56:18Z</time>
      </trkpt>
      <trkpt lat="60.018372" lon="17.646217">
        <ele>26.0929</ele>
        <time>2013-05-28T19:56:19Z</time>
      </trkpt>
      <trkpt lat="60.0183711" lon="17.6460421">
        <ele>25.6123</ele>
        <time>2013-05-28T19:56:20Z</time>
      </trkpt>
      <trkpt lat="60.0183701" lon="17.6458673">
        <ele>25.6123</ele>
        <time>2013-05-28T19:56:21Z</time>
      </trkpt>
      <trkpt lat="60.0183685" lon="17.6456917">
        <ele>25.6123</ele>
        <time>2013-05-28T19:56:22Z</time>
      </trkpt>
      <trkpt lat="60.0183666" lon="17.6455166">
        <ele>25.6123</ele>
        <time>2013-05-28T19:56:23Z</time>
      </trkpt>
      <trkpt lat="60.018365" lon="17.6453422">
        <ele>25.6123</ele>
        <time>2013-05-28T19:56:24Z</time>
      </trkpt>
      <trkpt lat="60.0183649" lon="17.6451685">
        <ele>25.6123</ele>
        <time>2013-05-28T19:56:25Z</time>
      </trkpt>
      <trkpt lat="60.0183654" lon="17.6449966">
        <ele>25.6123</ele>
        <time>2013-05-28T19:56:26Z</time>
      </trkpt>
      <trkpt lat="60.0183654" lon="17.6448266">
        <ele>26.0929</ele>
        <time>2013-05-28T19:56:27Z</time>
      </trkpt>
      <trkpt lat="60.0183653" lon="17.6446585">
        <ele>26.5736</ele>
        <time>2013-05-28T19:56:28Z</time>
      </trkpt>
      <trkpt lat="60.0183655" lon="17.6444923">
        <ele>26.5736</ele>
        <time>2013-05-28T19:56:29Z</time>
      </trkpt>
      <trkpt lat="60.018367" lon="17.6443273">
        <ele>27.0543</ele>
        <time>2013-05-28T19:56:30Z</time>
      </trkpt>
      <trkpt lat="60.0183704" lon="17.6441625">
        <ele>27.5349</ele>
        <time>2013-05-28T19:56:31Z</time>
      </trkpt>
      <trkpt lat="60.0183742" lon="17.6439988">
        <ele>27.5349</ele>
        <time>2013-05-28T19:56:32Z</time>
      </trkpt>
      <trkpt lat="60.0183773" lon="17.6438357">
        <ele>28.0155</ele>
        <time>2013-05-28T19:56:33Z</time>
      </trkpt>
      <trkpt lat="60.0183789" lon="17.6436728">
        <ele>28.0155</ele>
        <time>2013-05-28T19:56:34Z</time>
      </trkpt>
      <trkpt lat="60.0183806" lon="17.6435112">
        <ele>27.5349</ele>
        <time>2013-05-28T19:56:35Z</time>
      </trkpt>
      <trkpt lat="60.0183826" lon="17.6433494">
        <ele>27.5349</ele>
        <time>2013-05-28T19:56:36Z</time>
      </trkpt>
      <trkpt lat="60.0183826" lon="17.6431845">
        <ele>27.5349</ele>
        <time>2013-05-28T19:56:37Z</time>
      </trkpt>
      <trkpt lat="60.01838" lon="17.6430184">
        <ele>27.5349</ele>
        <time>2013-05-28T19:56:38Z</time>
      </trkpt>
      <trkpt lat="60.0183759" lon="17.6428527">
        <ele>27.0543</ele>
        <time>2013-05-28T19:56:39Z</time>
      </trkpt>
      <trkpt lat="60.0183711" lon="17.6426828">
        <ele>27.0543</ele>
        <time>2013-05-28T19:56:40Z</time>
      </trkpt>
      <trkpt lat="60.0183643" lon="17.6425116">
        <ele>27.0543</ele>
        <time>2013-05-28T19:56:41Z</time>
      </trkpt>
      <trkpt lat="60.0183538" lon="17.6423393">
        <ele>27.0543</ele>
        <time>2013-05-28T19:56:42Z</time>
      </trkpt>
      <trkpt lat="60.01834" lon="17.6421647">
        <ele>27.0543</ele>
        <time>2013-05-28T19:56:43Z</time>
      </trkpt>
      <trkpt lat="60.0183244" lon="17.6419879">
        <ele>27.5349</ele>
        <time>2013-05-28T19:56:44Z</time>
      </trkpt>
      <trkpt lat="60.0183085" lon="17.6418092">
        <ele>27.5349</ele>
        <time>2013-05-28T19:56:45Z</time>
      </trkpt>
      <trkpt lat="60.018293" lon="17.6416291">
        <ele>27.5349</ele>
        <time>2013-05-28T19:56:46Z</time>
      </trkpt>
      <trkpt lat="60.0182773" lon="17.6414467">
        <ele>28.0155</ele>
        <time>2013-05-28T19:56:47Z</time>
      </trkpt>
      <trkpt lat="60.0182599" lon="17.6412629">
        <ele>28.0155</ele>
        <time>2013-05-28T19:56:48Z</time>
      </trkpt>
      <trkpt lat="60.0182414" lon="17.6410793">
        <ele>28.4962</ele>
        <time>2013-05-28T19:56:49Z</time>
      </trkpt>
      <trkpt lat="60.018223" lon="17.6408965">
        <ele>28.4962</ele>
        <time>2013-05-28T19:56:50Z</time>
      </trkpt>
      <trkpt lat="60.0182062" lon="17.6407139">
        <ele>28.9769</ele>
        <time>2013-05-28T19:56:51Z</time>
      </trkpt>
      <trkpt lat="60.0181881" lon="17.640532">
        <ele>28.9769</ele>
        <time>2013-05-28T19:56:52Z</time>
      </trkpt>
      <trkpt lat="60.0181699" lon="17.6403507">
        <ele>29.4575</ele>
        <time>2013-05-28T19:56:53Z</time>
      </trkpt>
      <trkpt lat="60.0181526" lon="17.6401684">
        <ele>29.4575</ele>
        <time>2013-05-28T19:56:54Z</time>
      </trkpt>
      <trkpt lat="60.0181349" lon="17.6399866">
        <ele>29.9381</ele>
        <time>2013-05-28T19:56:55Z</time>
      </trkpt>
      <trkpt lat="60.0181173" lon="17.6398052">
        <ele>29.9381</ele>
        <time>2013-05-28T19:56:56Z</time>
      </trkpt>
      <trkpt lat="60.0181" lon="17.6396234">
        <ele>30.4188</ele>
        <time>2013-05-28T19:56:57Z</time>
      </trkpt>
      <trkpt lat="60.0180834" lon="17.6394415">
        <ele>30.4188</ele>
        <time>2013-05-28T19:56:58Z</time>
      </trkpt>
      <trkpt lat="60.0180644" lon="17.6392567">
        <ele>29.4575</ele>
        <time>2013-05-28T19:56:59Z</time>
      </trkpt>
      <trkpt lat="60.0180457" lon="17.6390724">
        <ele>28.9769</ele>
        <time>2013-05-28T19:57:00Z</time>
      </trkpt>
      <trkpt lat="60.0180273" lon="17.6388893">
        <ele>28.4962</ele>
        <time>2013-05-28T19:57:01Z</time>
      </trkpt>
      <trkpt lat="60.0180096" lon="17.6387081">
        <ele>28.4962</ele>
        <time>2013-05-28T19:57:02Z</time>
      </trkpt>
      <trkpt lat="60.0179899" lon="17.6385288">
        <ele>28.4962</ele>
        <time>2013-05-28T19:57:03Z</time>
      </trkpt>
      <trkpt lat="60.0179659" lon="17.6383522">
        <ele>28.9769</ele>
        <time>2013-05-28T19:57:04Z</time>
      </trkpt>
      <trkpt lat="60.0179365" lon="17.6381782">
        <ele>28.9769</ele>
        <time>2013-05-28T19:57:05Z</time>
      </trkpt>
      <trkpt lat="60.0179058" lon="17.6380046">
        <ele>28.9769</ele>
        <time>2013-05-28T19:57:06Z</time>
      </trkpt>
      <trkpt lat="60.0178721" lon="17.6378321">
        <ele>28.9769</ele>
        <time>2013-05-28T19:57:07Z</time>
      </trkpt>
      <trkpt lat="60.0178345" lon="17.6376622">
        <ele>28.9769</ele>
        <time>2013-05-28T19:57:08Z</time>
      </trkpt>
      <trkpt lat="60.0177936" lon="17.6374935">
        <ele>28.9769</ele>
        <time>2013-05-28T19:57:09Z</time>
      </trkpt>
      <trkpt lat="60.0177506" lon="17.6373255">
        <ele>28.9769</ele>
        <time>2013-05-28T19:57:10Z</time>
      </trkpt>
      <trkpt lat="60.0177058" lon="17.6371604">
        <ele>28.9769</ele>
        <time>2013-05-28T19:57:11Z</time>
      </trkpt>
      <trkpt lat="60.0176589" lon="17.6369988">
        <ele>28.9769</ele>
        <time>2013-05-28T19:57:12Z</time>
      </trkpt>
      <trkpt lat="60.0176106" lon="17.6368375">
        <ele>28.9769</ele>
        <time>2013-05-28T19:57:13Z</time>
      </trkpt>
      <trkpt lat="60.0175618" lon="17.636675">
        <ele>29.4575</ele>
        <time>2013-05-28T19:57:14Z</time>
      </trkpt>
      <trkpt lat="60.0175133" lon="17.6365117">
        <ele>29.4575</ele>
        <time>2013-05-28T19:57:15Z</time>
      </trkpt>
      <trkpt lat="60.0174649" lon="17.6363478">
        <ele>29.4575</ele>
        <time>2013-05-28T19:57:16Z</time>
      </trkpt>
      <trkpt lat="60.0174166" lon="17.6361833">
        <ele>29.4575</ele>
        <time>2013-05-28T19:57:17Z</time>
      </trkpt>
      <trkpt lat="60.0173692" lon="17.6360191">
        <ele>29.4575</ele>
        <time>2013-05-28T19:57:18Z</time>
      </trkpt>
      <trkpt lat="60.0173222" lon="17.6358549">
        <ele>29.9381</ele>
        <time>2013-05-28T19:57:19Z</time>
      </trkpt>
      <trkpt lat="60.0172751" lon="17.6356907">
        <ele>29.9381</ele>
        <time>2013-05-28T19:57:20Z</time>
      </trkpt>
      <trkpt lat="60.0172253" lon="17.6355255">
        <ele>28.9769</ele>
        <time>2013-05-28T19:57:21Z</time>
      </trkpt>
      <trkpt lat="60.0171762" lon="17.6353607">
        <ele>28.0155</ele>
        <time>2013-05-28T19:57:22Z</time>
      </trkpt>
      <trkpt lat="60.0171274" lon="17.6351964">
        <ele>27.0543</ele>
        <time>2013-05-28T19:57:23Z</time>
      </trkpt>
      <trkpt lat="60.017079" lon="17.6350326">
        <ele>26.5736</ele>
        <time>2013-05-28T19:57:24Z</time>
      </trkpt>
      <trkpt lat="60.0170308" lon="17.6348682">
        <ele>26.0929</ele>
        <time>2013-05-28T19:57:25Z</time>
      </trkpt>
      <trkpt lat="60.0169818" lon="17.6347043">
        <ele>25.6123</ele>
        <time>2013-05-28T19:57:26Z</time>
      </trkpt>
      <trkpt lat="60.0169336" lon="17.6345385">
        <ele>25.6123</ele>
        <time>2013-05-28T19:57:27Z</time>
      </trkpt>
      <trkpt lat="60.016886" lon="17.6343712">
        <ele>25.1317</ele>
        <time>2013-05-28T19:57:28Z</time>
      </trkpt>
      <trkpt lat="60.0168376" lon="17.6342055">
        <ele>24.651</ele>
        <time>2013-05-28T19:57:29Z</time>
      </trkpt>
      <trkpt lat="60.0167871" lon="17.634043">
        <ele>24.651</ele>
        <time>2013-05-28T19:57:30Z</time>
      </trkpt>
      <trkpt lat="60.0167338" lon="17.6338842">
        <ele>24.651</ele>
        <time>2013-05-28T19:57:31Z</time>
      </trkpt>
      <trkpt lat="60.016677" lon="17.6337298">
        <ele>24.1703</ele>
        <time>2013-05-28T19:57:32Z</time>
      </trkpt>
      <trkpt lat="60.0166169" lon="17.6335808">
        <ele>24.1703</ele>
        <time>2013-05-28T19:57:33Z</time>
      </trkpt>
      <trkpt lat="60.0165538" lon="17.6334376">
        <ele>23.6896</ele>
        <time>2013-05-28T19:57:34Z</time>
      </trkpt>
      <trkpt lat="60.0164882" lon="17.6332984">
        <ele>23.6896</ele>
        <time>2013-05-28T19:57:35Z</time>
      </trkpt>
      <trkpt lat="60.0164212" lon="17.6331634">
        <ele>23.209</ele>
        <time>2013-05-28T19:57:36Z</time>
      </trkpt>
      <trkpt lat="60.016353" lon="17.6330317">
        <ele>23.209</ele>
        <time>2013-05-28T19:57:37Z</time>
      </trkpt>
      <trkpt lat="60.0162842" lon="17.6329033">
        <ele>23.209</ele>
        <time>2013-05-28T19:57:38Z</time>
      </trkpt>
      <trkpt lat="60.0162162" lon="17.6327749">
        <ele>23.209</ele>
        <time>2013-05-28T19:57:39Z</time>
      </trkpt>
      <trkpt lat="60.0161478" lon="17.6326469">
        <ele>23.209</ele>
        <time>2013-05-28T19:57:40Z</time>
      </trkpt>
      <trkpt lat="60.0160793" lon="17.6325199">
        <ele>23.209</ele>
        <time>2013-05-28T19:57:41Z</time>
      </trkpt>
      <trkpt lat="60.0160114" lon="17.6323914">
        <ele>23.209</ele>
        <time>2013-05-28T19:57:42Z</time>
      </trkpt>
      <trkpt lat="60.0159446" lon="17.6322625">
        <ele>23.209</ele>
        <time>2013-05-28T19:57:43Z</time>
      </trkpt>
      <trkpt lat="60.0158784" lon="17.6321309">
        <ele>23.209</ele>
        <time>2013-05-28T19:57:44Z</time>
      </trkpt>
      <trkpt lat="60.0158142" lon="17.6319957">
        <ele>22.7283</ele>
        <time>2013-05-28T19:57:45Z</time>
      </trkpt>
      <trkpt lat="60.0157522" lon="17.6318552">
        <ele>22.7283</ele>
        <time>2013-05-28T19:57:46Z</time>
      </trkpt>
      <trkpt lat="60.0156908" lon="17.6317153">
        <ele>22.7283</ele>
        <time>2013-05-28T19:57:47Z</time>
      </trkpt>
      <trkpt lat="60.0156298" lon="17.6315747">
        <ele>22.7283</ele>
        <time>2013-05-28T19:57:48Z</time>
      </trkpt>
      <trkpt lat="60.0155691" lon="17.631434">
        <ele>22.7283</ele>
        <time>2013-05-28T19:57:49Z</time>
      </trkpt>
      <trkpt lat="60.0155094" lon="17.6312926">
        <ele>22.7283</ele>
        <time>2013-05-28T19:57:50Z</time>
      </trkpt>
      <trkpt lat="60.0154505" lon="17.6311529">
        <ele>22.7283</ele>
        <time>2013-05-28T19:57:51Z</time>
      </trkpt>
      <trkpt lat="60.0153929" lon="17.6310154">
        <ele>22.7283</ele>
        <time>2013-05-28T19:57:52Z</time>
      </trkpt>
      <trkpt lat="60.0153351" lon="17.6308788">
        <ele>22.2476</ele>
        <time>2013-05-28T19:57:53Z</time>
      </trkpt>
      <trkpt lat="60.0152761" lon="17.6307446">
        <ele>22.2476</ele>
        <time>2013-05-28T19:57:54Z</time>
      </trkpt>
      <trkpt lat="60.015215" lon="17.6306141">
        <ele>21.767</ele>
        <time>2013-05-28T19:57:55Z</time>
      </trkpt>
      <trkpt lat="60.0151525" lon="17.6304862">
        <ele>21.767</ele>
        <time>2013-05-28T19:57:56Z</time>
      </trkpt>
      <trkpt lat="60.0150875" lon="17.6303612">
        <ele>21.767</ele>
        <time>2013-05-28T19:57:57Z</time>
      </trkpt>
      <trkpt lat="60.0150211" lon="17.630238">
        <ele>21.767</ele>
        <time>2013-05-28T19:57:58Z</time>
      </trkpt>
      <trkpt lat="60.014951" lon="17.6301224">
        <ele>21.767</ele>
        <time>2013-05-28T19:57:59Z</time>
      </trkpt>
      <trkpt lat="60.0148795" lon="17.6300071">
        <ele>21.767</ele>
        <time>2013-05-28T19:58:00Z</time>
      </trkpt>
      <trkpt lat="60.0148087" lon="17.6298906">
        <ele>22.2476</ele>
        <time>2013-05-28T19:58:01Z</time>
      </trkpt>
      <trkpt lat="60.0147377" lon="17.6297746">
        <ele>22.2476</ele>
        <time>2013-05-28T19:58:02Z</time>
      </trkpt>
      <trkpt lat="60.0146661" lon="17.6296621">
        <ele>22.7283</ele>
        <time>2013-05-28T19:58:03Z</time>
      </trkpt>
      <trkpt lat="60.0145936" lon="17.6295539">
        <ele>22.7283</ele>
        <time>2013-05-28T19:58:04Z</time>
      </trkpt>
      <trkpt lat="60.0145204" lon="17.6294476">
        <ele>23.209</ele>
        <time>2013-05-28T19:58:05Z</time>
      </trkpt>
      <trkpt lat="60.0144476" lon="17.6293415">
        <ele>23.209</ele>
        <time>2013-05-28T19:58:06Z</time>
      </trkpt>
      <trkpt lat="60.0143747" lon="17.6292363">
        <ele>23.6896</ele>
        <time>2013-05-28T19:58:07Z</time>
      </trkpt>
      <trkpt lat="60.0143011" lon="17.629133">
        <ele>23.6896</ele>
        <time>2013-05-28T19:58:08Z</time>
      </trkpt>
      <trkpt lat="60.0142268" lon="17.6290311">
        <ele>23.6896</ele>
        <time>2013-05-28T19:58:09Z</time>
      </trkpt>
      <trkpt lat="60.014152" lon="17.6289291">
        <ele>24.1703</ele>
        <time>2013-05-28T19:58:10Z</time>
      </trkpt>
      <trkpt lat="60.0140777" lon="17.6288263">
        <ele>24.1703</ele>
        <time>2013-05-28T19:58:11Z</time>
      </trkpt>
      <trkpt lat="60.0140031" lon="17.6287229">
        <ele>24.1703</ele>
        <time>2013-05-28T19:58:12Z</time>
      </trkpt>
      <trkpt lat="60.0139281" lon="17.6286193">
        <ele>24.651</ele>
        <time>2013-05-28T19:58:13Z</time>
      </trkpt>
      <trkpt lat="60.0138532" lon="17.6285136">
        <ele>24.651</ele>
        <time>2013-05-28T19:58:14Z</time>
      </trkpt>
      <trkpt lat="60.0137795" lon="17.6284053">
        <ele>24.651</ele>
        <time>2013-05-28T19:58:15Z</time>
      </trkpt>
      <trkpt lat="60.0137064" lon="17.6282957">
        <ele>25.1317</ele>
        <time>2013-05-28T19:58:16Z</time>
      </trkpt>
      <trkpt lat="60.0136325" lon="17.6281867">
        <ele>25.1317</ele>
        <time>2013-05-28T19:58:17Z</time>
      </trkpt>
      <trkpt lat="60.0135583" lon="17.6280781">
        <ele>25.1317</ele>
        <time>2013-05-28T19:58:18Z</time>
      </trkpt>
      <trkpt lat="60.0134846" lon="17.6279666">
        <ele>25.6123</ele>
        <time>2013-05-28T19:58:19Z</time>
      </trkpt>
      <trkpt lat="60.0134121" lon="17.6278521">
        <ele>25.6123</ele>
        <time>2013-05-28T19:58:20Z</time>
      </trkpt>
      <trkpt lat="60.0133405" lon="17.627737">
        <ele>25.6123</ele>
        <time>2013-05-28T19:58:21Z</time>
      </trkpt>
      <trkpt lat="60.0132698" lon="17.62762">
        <ele>25.6123</ele>
        <time>2013-05-28T19:58:22Z</time>
      </trkpt>
      <trkpt lat="60.0131999" lon="17.6275009">
        <ele>26.0929</ele>
        <time>2013-05-28T19:58:23Z</time>
      </trkpt>
      <trkpt lat="60.0131297" lon="17.6273823">
        <ele>26.0929</ele>
        <time>2013-05-28T19:58:24Z</time>
      </trkpt>
      <trkpt lat="60.0130595" lon="17.6272621">
        <ele>26.0929</ele>
        <time>2013-05-28T19:58:25Z</time>
      </trkpt>
      <trkpt lat="60.0129904" lon="17.6271395">
        <ele>26.0929</ele>
        <time>2013-05-28T19:58:26Z</time>
      </trkpt>
      <trkpt lat="60.012922" lon="17.6270119">
        <ele>26.0929</ele>
        <time>2013-05-28T19:58:27Z</time>
      </trkpt>
      <trkpt lat="60.0128547" lon="17.6268813">
        <ele>26.0929</ele>
        <time>2013-05-28T19:58:28Z</time>
      </trkpt>
      <trkpt lat="60.0127881" lon="17.6267479">
        <ele>26.0929</ele>
        <time>2013-05-28T19:58:29Z</time>
      </trkpt>
      <trkpt lat="60.0127223" lon="17.6266125">
        <ele>26.0929</ele>
        <time>2013-05-28T19:58:30Z</time>
      </trkpt>
      <trkpt lat="60.0126568" lon="17.6264758">
        <ele>26.0929</ele>
        <time>2013-05-28T19:58:31Z</time>
      </trkpt>
      <trkpt lat="60.0125931" lon="17.6263378">
        <ele>26.0929</ele>
        <time>2013-05-28T19:58:32Z</time>
      </trkpt>
      <trkpt lat="60.012532" lon="17.6261961">
        <ele>26.0929</ele>
        <time>2013-05-28T19:58:33Z</time>
      </trkpt>
      <trkpt lat="60.012472" lon="17.6260511">
        <ele>26.0929</ele>
        <time>2013-05-28T19:58:34Z</time>
      </trkpt>
      <trkpt lat="60.0124124" lon="17.6259045">
        <ele>26.0929</ele>
        <time>2013-05-28T19:58:35Z</time>
      </trkpt>
      <trkpt lat="60.012353" lon="17.6257563">
        <ele>26.0929</ele>
        <time>2013-05-28T19:58:36Z</time>
      </trkpt>
      <trkpt lat="60.0122944" lon="17.6256065">
        <ele>26.0929</ele>
        <time>2013-05-28T19:58:37Z</time>
      </trkpt>
      <trkpt lat="60.0122358" lon="17.6254559">
        <ele>26.0929</ele>
        <time>2013-05-28T19:58:38Z</time>
      </trkpt>
      <trkpt lat="60.0121774" lon="17.6253049">
        <ele>26.0929</ele>
        <time>2013-05-28T19:58:39Z</time>
      </trkpt>
      <trkpt lat="60.0121188" lon="17.6251543">
        <ele>26.0929</ele>
        <time>2013-05-28T19:58:40Z</time>
      </trkpt>
      <trkpt lat="60.0120598" lon="17.6250041">
        <ele>26.0929</ele>
        <time>2013-05-28T19:58:41Z</time>
      </trkpt>
      <trkpt lat="60.0120005" lon="17.6248565">
        <ele>25.6123</ele>
        <time>2013-05-28T19:58:42Z</time>
      </trkpt>
      <trkpt lat="60.0119437" lon="17.6247062">
        <ele>25.6123</ele>
        <time>2013-05-28T19:58:43Z</time>
      </trkpt>
      <trkpt lat="60.0118872" lon="17.6245539">
        <ele>25.6123</ele>
        <time>2013-05-28T19:58:44Z</time>
      </trkpt>
      <trkpt lat="60.0118266" lon="17.6243994">
        <ele>25.6123</ele>
        <time>2013-05-28T19:58:45Z</time>
      </trkpt>
      <trkpt lat="60.0117642" lon="17.6242495">
        <ele>25.1317</ele>
        <time>2013-05-28T19:58:46Z</time>
      </trkpt>
      <trkpt lat="60.0117007" lon="17.6240997">
        <ele>25.1317</ele>
        <time>2013-05-28T19:58:47Z</time>
      </trkpt>
      <trkpt lat="60.0116364" lon="17.6239525">
        <ele>25.1317</ele>
        <time>2013-05-28T19:58:48Z</time>
      </trkpt>
      <trkpt lat="60.0115702" lon="17.6238085">
        <ele>25.1317</ele>
        <time>2013-05-28T19:58:49Z</time>
      </trkpt>
      <trkpt lat="60.011503" lon="17.6236683">
        <ele>25.6123</ele>
        <time>2013-05-28T19:58:50Z</time>
      </trkpt>
      <trkpt lat="60.0114345" lon="17.6235349">
        <ele>25.1317</ele>
        <time>2013-05-28T19:58:51Z</time>
      </trkpt>
      <trkpt lat="60.0113649" lon="17.6234064">
        <ele>25.1317</ele>
        <time>2013-05-28T19:58:52Z</time>
      </trkpt>
      <trkpt lat="60.0112941" lon="17.6232844">
        <ele>25.6123</ele>
        <time>2013-05-28T19:58:53Z</time>
      </trkpt>
      <trkpt lat="60.0112219" lon="17.623166">
        <ele>25.6123</ele>
        <time>2013-05-28T19:58:54Z</time>
      </trkpt>
      <trkpt lat="60.0111479" lon="17.6230557">
        <ele>25.1317</ele>
        <time>2013-05-28T19:58:55Z</time>
      </trkpt>
      <trkpt lat="60.011073" lon="17.6229527">
        <ele>25.1317</ele>
        <time>2013-05-28T19:58:56Z</time>
      </trkpt>
      <trkpt lat="60.0109988" lon="17.6228533">
        <ele>25.6123</ele>
        <time>2013-05-28T19:58:57Z</time>
      </trkpt>
      <trkpt lat="60.0109242" lon="17.6227568">
        <ele>25.6123</ele>
        <time>2013-05-28T19:58:58Z</time>
      </trkpt>
      <trkpt lat="60.0108496" lon="17.6226661">
        <ele>26.0929</ele>
        <time>2013-05-28T19:58:59Z</time>
      </trkpt>
      <trkpt lat="60.0107746" lon="17.6225793">
        <ele>26.0929</ele>
        <time>2013-05-28T19:59:00Z</time>
      </trkpt>
      <trkpt lat="60.0106994" lon="17.6224976">
        <ele>26.5736</ele>
        <time>2013-05-28T19:59:01Z</time>
      </trkpt>
      <trkpt lat="60.0106252" lon="17.6224196">
        <ele>27.0543</ele>
        <time>2013-05-28T19:59:02Z</time>
      </trkpt>
      <trkpt lat="60.0105523" lon="17.6223426">
        <ele>27.0543</ele>
        <time>2013-05-28T19:59:03Z</time>
      </trkpt>
      <trkpt lat="60.0104792" lon="17.6222696">
        <ele>27.5349</ele>
        <time>2013-05-28T19:59:04Z</time>
      </trkpt>
      <trkpt lat="60.0104062" lon="17.622198">
        <ele>27.5349</ele>
        <time>2013-05-28T19:59:05Z</time>
      </trkpt>
      <trkpt lat="60.010334" lon="17.6221246">
        <ele>27.5349</ele>
        <time>2013-05-28T19:59:06Z</time>
      </trkpt>
      <trkpt lat="60.0102617" lon="17.6220515">
        <ele>27.5349</ele>
        <time>2013-05-28T19:59:07Z</time>
      </trkpt>
      <trkpt lat="60.0101898" lon="17.6219774">
        <ele>27.5349</ele>
        <time>2013-05-28T19:59:08Z</time>
      </trkpt>
      <trkpt lat="60.0101187" lon="17.6219011">
        <ele>28.0155</ele>
        <time>2013-05-28T19:59:09Z</time>
      </trkpt>
      <trkpt lat="60.0100483" lon="17.6218223">
        <ele>28.0155</ele>
        <time>2013-05-28T19:59:10Z</time>
      </trkpt>
      <trkpt lat="60.0099788" lon="17.6217421">
        <ele>27.5349</ele>
        <time>2013-05-28T19:59:11Z</time>
      </trkpt>
      <trkpt lat="60.0099084" lon="17.6216617">
        <ele>27.5349</ele>
        <time>2013-05-28T19:59:12Z</time>
      </trkpt>
      <trkpt lat="60.0098405" lon="17.6215769">
        <ele>27.5349</ele>
        <time>2013-05-28T19:59:13Z</time>
      </trkpt>
      <trkpt lat="60.0097744" lon="17.6214884">
        <ele>27.0543</ele>
        <time>2013-05-28T19:59:14Z</time>
      </trkpt>
      <trkpt lat="60.0097105" lon="17.6213958">
        <ele>27.0543</ele>
        <time>2013-05-28T19:59:15Z</time>
      </trkpt>
      <trkpt lat="60.0096473" lon="17.6213015">
        <ele>26.5736</ele>
        <time>2013-05-28T19:59:16Z</time>
      </trkpt>
      <trkpt lat="60.0095847" lon="17.6212072">
        <ele>26.5736</ele>
        <time>2013-05-28T19:59:17Z</time>
      </trkpt>
      <trkpt lat="60.0095224" lon="17.6211122">
        <ele>26.0929</ele>
        <time>2013-05-28T19:59:18Z</time>
      </trkpt>
      <trkpt lat="60.0094619" lon="17.6210149">
        <ele>25.6123</ele>
        <time>2013-05-28T19:59:19Z</time>
      </trkpt>
      <trkpt lat="60.0094034" lon="17.6209139">
        <ele>25.6123</ele>
        <time>2013-05-28T19:59:20Z</time>
      </trkpt>
      <trkpt lat="60.0093456" lon="17.6208101">
        <ele>25.1317</ele>
        <time>2013-05-28T19:59:21Z</time>
      </trkpt>
      <trkpt lat="60.0092869" lon="17.6207051">
        <ele>25.1317</ele>
        <time>2013-05-28T19:59:22Z</time>
      </trkpt>
      <trkpt lat="60.0092275" lon="17.6205994">
        <ele>25.6123</ele>
        <time>2013-05-28T19:59:23Z</time>
      </trkpt>
      <trkpt lat="60.0091677" lon="17.6204941">
        <ele>25.6123</ele>
        <time>2013-05-28T19:59:24Z</time>
      </trkpt>
      <trkpt lat="60.0091096" lon="17.620388">
        <ele>25.6123</ele>
        <time>2013-05-28T19:59:25Z</time>
      </trkpt>
      <trkpt lat="60.0090535" lon="17.6202809">
        <ele>26.0929</ele>
        <time>2013-05-28T19:59:26Z</time>
      </trkpt>
      <trkpt lat="60.0089994" lon="17.6201719">
        <ele>26.0929</ele>
        <time>2013-05-28T19:59:27Z</time>
      </trkpt>
      <trkpt lat="60.0089464" lon="17.6200612">
        <ele>26.5736</ele>
        <time>2013-05-28T19:59:28Z</time>
      </trkpt>
      <trkpt lat="60.0088945" lon="17.6199483">
        <ele>26.5736</ele>
        <time>2013-05-28T19:59:29Z</time>
      </trkpt>
      <trkpt lat="60.008843" lon="17.6198333">
        <ele>26.5736</ele>
        <time>2013-05-28T19:59:30Z</time>
      </trkpt>
      <trkpt lat="60.0087919" lon="17.6197173">
        <ele>26.5736</ele>
        <time>2013-05-28T19:59:31Z</time>
      </trkpt>
      <trkpt lat="60.0087429" lon="17.6196">
        <ele>27.0543</ele>
        <time>2013-05-28T19:59:32Z</time>
      </trkpt>
      <trkpt lat="60.0086959" lon="17.6194802">
        <ele>27.0543</ele>
        <time>2013-05-28T19:59:33Z</time>
      </trkpt>
      <trkpt lat="60.0086486" lon="17.6193599">
        <ele>27.0543</ele>
        <time>2013-05-28T19:59:34Z</time>
      </trkpt>
      <trkpt lat="60.008602" lon="17.619237">
        <ele>27.0543</ele>
        <time>2013-05-28T19:59:35Z</time>
      </trkpt>
      <trkpt lat="60.0085569" lon="17.6191108">
        <ele>27.0543</ele>
        <time>2013-05-28T19:59:36Z</time>
      </trkpt>
      <trkpt lat="60.0085124" lon="17.6189817">
        <ele>27.0543</ele>
        <time>2013-05-28T19:59:37Z</time>
      </trkpt>
      <trkpt lat="60.0084678" lon="17.6188511">
        <ele>27.0543</ele>
        <time>2013-05-28T19:59:38Z</time>
      </trkpt>
      <trkpt lat="60.0084249" lon="17.6187171">
        <ele>27.0543</ele>
        <time>2013-05-28T19:59:39Z</time>
      </trkpt>
      <trkpt lat="60.0083838" lon="17.6185801">
        <ele>27.5349</ele>
        <time>2013-05-28T19:59:40Z</time>
      </trkpt>
      <trkpt lat="60.0083433" lon="17.6184399">
        <ele>27.5349</ele>
        <time>2013-05-28T19:59:41Z</time>
      </trkpt>
      <trkpt lat="60.0083036" lon="17.6182975">
        <ele>27.5349</ele>
        <time>2013-05-28T19:59:42Z</time>
      </trkpt>
      <trkpt lat="60.0082648" lon="17.6181524">
        <ele>27.0543</ele>
        <time>2013-05-28T19:59:43Z</time>
      </trkpt>
      <trkpt lat="60.0082264" lon="17.6180058">
        <ele>27.0543</ele>
        <time>2013-05-28T19:59:44Z</time>
      </trkpt>
      <trkpt lat="60.0081894" lon="17.6178561">
        <ele>27.0543</ele>
        <time>2013-05-28T19:59:45Z</time>
      </trkpt>
      <trkpt lat="60.0081532" lon="17.6177037">
        <ele>27.0543</ele>
        <time>2013-05-28T19:59:46Z</time>
      </trkpt>
      <trkpt lat="60.0081191" lon="17.6175503">
        <ele>26.5736</ele>
        <time>2013-05-28T19:59:47Z</time>
      </trkpt>
      <trkpt lat="60.008086" lon="17.6173957">
        <ele>26.5736</ele>
        <time>2013-05-28T19:59:48Z</time>
      </trkpt>
      <trkpt lat="60.0080539" lon="17.6172396">
        <ele>26.5736</ele>
        <time>2013-05-28T19:59:49Z</time>
      </trkpt>
      <trkpt lat="60.0080217" lon="17.6170812">
        <ele>26.5736</ele>
        <time>2013-05-28T19:59:50Z</time>
      </trkpt>
      <trkpt lat="60.0079916" lon="17.6169191">
        <ele>26.5736</ele>
        <time>2013-05-28T19:59:51Z</time>
      </trkpt>
      <trkpt lat="60.0079643" lon="17.6167548">
        <ele>26.5736</ele>
        <time>2013-05-28T19:59:52Z</time>
      </trkpt>
      <trkpt lat="60.007938" lon="17.6165897">
        <ele>26.5736</ele>
        <time>2013-05-28T19:59:53Z</time>
      </trkpt>
      <trkpt lat="60.0079125" lon="17.6164242">
        <ele>26.5736</ele>
        <time>2013-05-28T19:59:54Z</time>
      </trkpt>
      <trkpt lat="60.0078887" lon="17.616258">
        <ele>26.5736</ele>
        <time>2013-05-28T19:59:55Z</time>
      </trkpt>
      <trkpt lat="60.0078665" lon="17.6160902">
        <ele>26.5736</ele>
        <time>2013-05-28T19:59:56Z</time>
      </trkpt>
      <trkpt lat="60.0078462" lon="17.6159209">
        <ele>26.0929</ele>
        <time>2013-05-28T19:59:57Z</time>
      </trkpt>
      <trkpt lat="60.0078281" lon="17.6157503">
        <ele>26.0929</ele>
        <time>2013-05-28T19:59:58Z</time>
      </trkpt>
      <trkpt lat="60.0078125" lon="17.6155777">
        <ele>26.0929</ele>
        <time>2013-05-28T19:59:59Z</time>
      </trkpt>
      <trkpt lat="60.007798" lon="17.6154033">
        <ele>26.0929</ele>
        <time>2013-05-28T20:00:00Z</time>
      </trkpt>
      <trkpt lat="60.0077846" lon="17.6152271">
        <ele>26.0929</ele>
        <time>2013-05-28T20:00:01Z</time>
      </trkpt>
      <trkpt lat="60.0077722" lon="17.6150516">
        <ele>26.0929</ele>
        <time>2013-05-28T20:00:02Z</time>
      </trkpt>
      <trkpt lat="60.007761" lon="17.6148746">
        <ele>26.0929</ele>
        <time>2013-05-28T20:00:03Z</time>
      </trkpt>
      <trkpt lat="60.0077519" lon="17.6146966">
        <ele>26.0929</ele>
        <time>2013-05-28T20:00:04Z</time>
      </trkpt>
      <trkpt lat="60.0077456" lon="17.6145175">
        <ele>26.0929</ele>
        <time>2013-05-28T20:00:05Z</time>
      </trkpt>
      <trkpt lat="60.007742" lon="17.6143365">
        <ele>26.0929</ele>
        <time>2013-05-28T20:00:06Z</time>
      </trkpt>
      <trkpt lat="60.007739" lon="17.6141544">
        <ele>26.5736</ele>
        <time>2013-05-28T20:00:07Z</time>
      </trkpt>
      <trkpt lat="60.0077362" lon="17.6139716">
        <ele>26.5736</ele>
        <time>2013-05-28T20:00:08Z</time>
      </trkpt>
      <trkpt lat="60.0077347" lon="17.6137883">
        <ele>26.5736</ele>
        <time>2013-05-28T20:00:09Z</time>
      </trkpt>
      <trkpt lat="60.0077348" lon="17.6136032">
        <ele>27.0543</ele>
        <time>2013-05-28T20:00:10Z</time>
      </trkpt>
      <trkpt lat="60.0077354" lon="17.6134173">
        <ele>27.5349</ele>
        <time>2013-05-28T20:00:11Z</time>
      </trkpt>
      <trkpt lat="60.0077368" lon="17.6132309">
        <ele>27.5349</ele>
        <time>2013-05-28T20:00:12Z</time>
      </trkpt>
      <trkpt lat="60.0077416" lon="17.6130442">
        <ele>28.4962</ele>
        <time>2013-05-28T20:00:13Z</time>
      </trkpt>
      <trkpt lat="60.0077468" lon="17.6128573">
        <ele>28.9769</ele>
        <time>2013-05-28T20:00:14Z</time>
      </trkpt>
      <trkpt lat="60.0077517" lon="17.6126707">
        <ele>29.9381</ele>
        <time>2013-05-28T20:00:15Z</time>
      </trkpt>
      <trkpt lat="60.0077576" lon="17.6124852">
        <ele>30.4188</ele>
        <time>2013-05-28T20:00:16Z</time>
      </trkpt>
      <trkpt lat="60.0077644" lon="17.6123008">
        <ele>31.3801</ele>
        <time>2013-05-28T20:00:17Z</time>
      </trkpt>
      <trkpt lat="60.0077716" lon="17.6121171">
        <ele>31.8607</ele>
        <time>2013-05-28T20:00:18Z</time>
      </trkpt>
      <trkpt lat="60.0077793" lon="17.6119343">
        <ele>32.3416</ele>
        <time>2013-05-28T20:00:19Z</time>
      </trkpt>
      <trkpt lat="60.0077866" lon="17.611753">
        <ele>33.3029</ele>
        <time>2013-05-28T20:00:20Z</time>
      </trkpt>
      <trkpt lat="60.0077939" lon="17.6115724">
        <ele>33.7834</ele>
        <time>2013-05-28T20:00:21Z</time>
      </trkpt>
      <trkpt lat="60.0078028" lon="17.611393">
        <ele>34.2642</ele>
        <time>2013-05-28T20:00:22Z</time>
      </trkpt>
      <trkpt lat="60.0078134" lon="17.6112131">
        <ele>34.7449</ele>
        <time>2013-05-28T20:00:23Z</time>
      </trkpt>
      <trkpt lat="60.0078253" lon="17.6110333">
        <ele>35.2255</ele>
        <time>2013-05-28T20:00:24Z</time>
      </trkpt>
      <trkpt lat="60.0078369" lon="17.6108536">
        <ele>35.7061</ele>
        <time>2013-05-28T20:00:25Z</time>
      </trkpt>
      <trkpt lat="60.0078473" lon="17.6106739">
        <ele>36.6675</ele>
        <time>2013-05-28T20:00:26Z</time>
      </trkpt>
      <trkpt lat="60.0078571" lon="17.6104941">
        <ele>37.1481</ele>
        <time>2013-05-28T20:00:27Z</time>
      </trkpt>
      <trkpt lat="60.007868" lon="17.6103155">
        <ele>37.6287</ele>
        <time>2013-05-28T20:00:28Z</time>
      </trkpt>
      <trkpt lat="60.0078809" lon="17.6101353">
        <ele>37.6287</ele>
        <time>2013-05-28T20:00:29Z</time>
      </trkpt>
      <trkpt lat="60.0078911" lon="17.6099543">
        <ele>36.6675</ele>
        <time>2013-05-28T20:00:30Z</time>
      </trkpt>
      <trkpt lat="60.0079016" lon="17.6097721">
        <ele>35.7061</ele>
        <time>2013-05-28T20:00:31Z</time>
      </trkpt>
      <trkpt lat="60.0079125" lon="17.609588">
        <ele>35.2255</ele>
        <time>2013-05-28T20:00:32Z</time>
      </trkpt>
      <trkpt lat="60.0079248" lon="17.6094035">
        <ele>34.7449</ele>
        <time>2013-05-28T20:00:33Z</time>
      </trkpt>
      <trkpt lat="60.0079396" lon="17.6092236">
        <ele>34.7449</ele>
        <time>2013-05-28T20:00:34Z</time>
      </trkpt>
      <trkpt lat="60.0079555" lon="17.6090428">
        <ele>34.7449</ele>
        <time>2013-05-28T20:00:35Z</time>
      </trkpt>
      <trkpt lat="60.00797" lon="17.6088589">
        <ele>33.7834</ele>
        <time>2013-05-28T20:00:36Z</time>
      </trkpt>
      <trkpt lat="60.0079866" lon="17.6086745">
        <ele>34.2642</ele>
        <time>2013-05-28T20:00:37Z</time>
      </trkpt>
      <trkpt lat="60.0080046" lon="17.60849">
        <ele>34.2642</ele>
        <time>2013-05-28T20:00:38Z</time>
      </trkpt>
      <trkpt lat="60.0080235" lon="17.6083048">
        <ele>34.2642</ele>
        <time>2013-05-28T20:00:39Z</time>
      </trkpt>
      <trkpt lat="60.0080428" lon="17.6081196">
        <ele>34.7449</ele>
        <time>2013-05-28T20:00:40Z</time>
      </trkpt>
      <trkpt lat="60.0080617" lon="17.6079348">
        <ele>34.7449</ele>
        <time>2013-05-28T20:00:41Z</time>
      </trkpt>
      <trkpt lat="60.0080805" lon="17.6077503">
        <ele>35.2255</ele>
        <time>2013-05-28T20:00:42Z</time>
      </trkpt>
      <trkpt lat="60.0081005" lon="17.607567">
        <ele>35.2255</ele>
        <time>2013-05-28T20:00:43Z</time>
      </trkpt>
      <trkpt lat="60.0081217" lon="17.6073835">
        <ele>35.7061</ele>
        <time>2013-05-28T20:00:44Z</time>
      </trkpt>
      <trkpt lat="60.0081439" lon="17.6072013">
        <ele>36.1868</ele>
        <time>2013-05-28T20:00:45Z</time>
      </trkpt>
      <trkpt lat="60.0081669" lon="17.6070212">
        <ele>36.1868</ele>
        <time>2013-05-28T20:00:46Z</time>
      </trkpt>
      <trkpt lat="60.008191" lon="17.6068427">
        <ele>36.6675</ele>
        <time>2013-05-28T20:00:47Z</time>
      </trkpt>
      <trkpt lat="60.0082154" lon="17.6066665">
        <ele>36.6675</ele>
        <time>2013-05-28T20:00:48Z</time>
      </trkpt>
      <trkpt lat="60.0082382" lon="17.6064915">
        <ele>37.1481</ele>
        <time>2013-05-28T20:00:49Z</time>
      </trkpt>
      <trkpt lat="60.0082601" lon="17.6063159">
        <ele>37.6287</ele>
        <time>2013-05-28T20:00:50Z</time>
      </trkpt>
      <trkpt lat="60.0082828" lon="17.6061398">
        <ele>38.1094</ele>
        <time>2013-05-28T20:00:51Z</time>
      </trkpt>
      <trkpt lat="60.0083062" lon="17.6059641">
        <ele>38.1094</ele>
        <time>2013-05-28T20:00:52Z</time>
      </trkpt>
      <trkpt lat="60.0083304" lon="17.6057892">
        <ele>38.5901</ele>
        <time>2013-05-28T20:00:53Z</time>
      </trkpt>
      <trkpt lat="60.0083548" lon="17.6056164">
        <ele>39.0707</ele>
        <time>2013-05-28T20:00:54Z</time>
      </trkpt>
      <trkpt lat="60.0083792" lon="17.605445">
        <ele>39.5513</ele>
        <time>2013-05-28T20:00:55Z</time>
      </trkpt>
      <trkpt lat="60.0084041" lon="17.6052762">
        <ele>40.0321</ele>
        <time>2013-05-28T20:00:56Z</time>
      </trkpt>
      <trkpt lat="60.0084285" lon="17.6051104">
        <ele>40.5128</ele>
        <time>2013-05-28T20:00:57Z</time>
      </trkpt>
      <trkpt lat="60.0084526" lon="17.6049466">
        <ele>40.9934</ele>
        <time>2013-05-28T20:00:58Z</time>
      </trkpt>
      <trkpt lat="60.0084777" lon="17.6047862">
        <ele>41.474</ele>
        <time>2013-05-28T20:00:59Z</time>
      </trkpt>
      <trkpt lat="60.008503" lon="17.6046292">
        <ele>41.9547</ele>
        <time>2013-05-28T20:01:00Z</time>
      </trkpt>
      <trkpt lat="60.0085267" lon="17.6044748">
        <ele>42.4354</ele>
        <time>2013-05-28T20:01:01Z</time>
      </trkpt>
      <trkpt lat="60.0085486" lon="17.6043227">
        <ele>42.916</ele>
        <time>2013-05-28T20:01:02Z</time>
      </trkpt>
      <trkpt lat="60.0085702" lon="17.6041732">
        <ele>43.3966</ele>
        <time>2013-05-28T20:01:03Z</time>
      </trkpt>
      <trkpt lat="60.0085923" lon="17.604025">
        <ele>43.8773</ele>
        <time>2013-05-28T20:01:04Z</time>
      </trkpt>
      <trkpt lat="60.0086145" lon="17.6038772">
        <ele>44.358</ele>
        <time>2013-05-28T20:01:05Z</time>
      </trkpt>
      <trkpt lat="60.0086363" lon="17.6037305">
        <ele>44.8386</ele>
        <time>2013-05-28T20:01:06Z</time>
      </trkpt>
      <trkpt lat="60.0086574" lon="17.6035854">
        <ele>45.3192</ele>
        <time>2013-05-28T20:01:07Z</time>
      </trkpt>
      <trkpt lat="60.0086777" lon="17.603442">
        <ele>45.7999</ele>
        <time>2013-05-28T20:01:08Z</time>
      </trkpt>
      <trkpt lat="60.0086987" lon="17.6033016">
        <ele>45.7999</ele>
        <time>2013-05-28T20:01:09Z</time>
      </trkpt>
      <trkpt lat="60.0087204" lon="17.6031622">
        <ele>46.2806</ele>
        <time>2013-05-28T20:01:10Z</time>
      </trkpt>
      <trkpt lat="60.008742" lon="17.6030213">
        <ele>46.7612</ele>
        <time>2013-05-28T20:01:11Z</time>
      </trkpt>
      <trkpt lat="60.0087632" lon="17.6028794">
        <ele>47.2418</ele>
        <time>2013-05-28T20:01:12Z</time>
      </trkpt>
      <trkpt lat="60.0087844" lon="17.6027381">
        <ele>47.7225</ele>
        <time>2013-05-28T20:01:13Z</time>
      </trkpt>
      <trkpt lat="60.0088066" lon="17.6025961">
        <ele>48.2034</ele>
        <time>2013-05-28T20:01:14Z</time>
      </trkpt>
      <trkpt lat="60.0088289" lon="17.6024536">
        <ele>48.2034</ele>
        <time>2013-05-28T20:01:15Z</time>
      </trkpt>
      <trkpt lat="60.0088504" lon="17.6023136">
        <ele>48.684</ele>
        <time>2013-05-28T20:01:16Z</time>
      </trkpt>
      <trkpt lat="60.0088729" lon="17.6021728">
        <ele>49.1646</ele>
        <time>2013-05-28T20:01:17Z</time>
      </trkpt>
      <trkpt lat="60.008891" lon="17.6020265">
        <ele>46.7612</ele>
        <time>2013-05-28T20:01:18Z</time>
      </trkpt>
      <trkpt lat="60.0089138" lon="17.6018821">
        <ele>47.2418</ele>
        <time>2013-05-28T20:01:19Z</time>
      </trkpt>
      <trkpt lat="60.0089374" lon="17.601738">
        <ele>47.7225</ele>
        <time>2013-05-28T20:01:20Z</time>
      </trkpt>
      <trkpt lat="60.0089605" lon="17.6015942">
        <ele>48.2034</ele>
        <time>2013-05-28T20:01:21Z</time>
      </trkpt>
      <trkpt lat="60.008983" lon="17.6014505">
        <ele>48.684</ele>
        <time>2013-05-28T20:01:22Z</time>
      </trkpt>
      <trkpt lat="60.0090061" lon="17.6013072">
        <ele>48.684</ele>
        <time>2013-05-28T20:01:23Z</time>
      </trkpt>
      <trkpt lat="60.0090291" lon="17.6011597">
        <ele>49.1646</ele>
        <time>2013-05-28T20:01:24Z</time>
      </trkpt>
      <trkpt lat="60.0090521" lon="17.601014">
        <ele>49.1646</ele>
        <time>2013-05-28T20:01:25Z</time>
      </trkpt>
      <trkpt lat="60.0090747" lon="17.6008663">
        <ele>49.6453</ele>
        <time>2013-05-28T20:01:26Z</time>
      </trkpt>
      <trkpt lat="60.0090962" lon="17.6007167">
        <ele>50.126</ele>
        <time>2013-05-28T20:01:27Z</time>
      </trkpt>
      <trkpt lat="60.0091188" lon="17.6005686">
        <ele>50.126</ele>
        <time>2013-05-28T20:01:28Z</time>
      </trkpt>
      <trkpt lat="60.0091359" lon="17.6004151">
        <ele>46.7612</ele>
        <time>2013-05-28T20:01:29Z</time>
      </trkpt>
      <trkpt lat="60.0091598" lon="17.6002672">
        <ele>47.2418</ele>
        <time>2013-05-28T20:01:30Z</time>
      </trkpt>
      <trkpt lat="60.0091794" lon="17.6001167">
        <ele>44.8386</ele>
        <time>2013-05-28T20:01:31Z</time>
      </trkpt>
      <trkpt lat="60.0092004" lon="17.599964">
        <ele>43.3966</ele>
        <time>2013-05-28T20:01:32Z</time>
      </trkpt>
      <trkpt lat="60.0092246" lon="17.5998117">
        <ele>43.3966</ele>
        <time>2013-05-28T20:01:33Z</time>
      </trkpt>
      <trkpt lat="60.0092493" lon="17.5996595">
        <ele>43.3966</ele>
        <time>2013-05-28T20:01:34Z</time>
      </trkpt>
      <trkpt lat="60.0092736" lon="17.5995064">
        <ele>43.8773</ele>
        <time>2013-05-28T20:01:35Z</time>
      </trkpt>
      <trkpt lat="60.0092946" lon="17.5993532">
        <ele>42.4354</ele>
        <time>2013-05-28T20:01:36Z</time>
      </trkpt>
      <trkpt lat="60.009317" lon="17.5992004">
        <ele>41.474</ele>
        <time>2013-05-28T20:01:37Z</time>
      </trkpt>
      <trkpt lat="60.0093396" lon="17.5990495">
        <ele>40.5128</ele>
        <time>2013-05-28T20:01:38Z</time>
      </trkpt>
      <trkpt lat="60.0093651" lon="17.5988994">
        <ele>40.9934</ele>
        <time>2013-05-28T20:01:39Z</time>
      </trkpt>
      <trkpt lat="60.0093928" lon="17.5987461">
        <ele>40.9934</ele>
        <time>2013-05-28T20:01:40Z</time>
      </trkpt>
      <trkpt lat="60.0094203" lon="17.5985921">
        <ele>40.9934</ele>
        <time>2013-05-28T20:01:41Z</time>
      </trkpt>
      <trkpt lat="60.0094472" lon="17.5984384">
        <ele>41.474</ele>
        <time>2013-05-28T20:01:42Z</time>
      </trkpt>
      <trkpt lat="60.0094753" lon="17.5982834">
        <ele>41.9547</ele>
        <time>2013-05-28T20:01:43Z</time>
      </trkpt>
      <trkpt lat="60.0095001" lon="17.5981247">
        <ele>40.9934</ele>
        <time>2013-05-28T20:01:44Z</time>
      </trkpt>
      <trkpt lat="60.009524" lon="17.597964">
        <ele>40.5128</ele>
        <time>2013-05-28T20:01:45Z</time>
      </trkpt>
      <trkpt lat="60.0095485" lon="17.5978045">
        <ele>39.5513</ele>
        <time>2013-05-28T20:01:46Z</time>
      </trkpt>
      <trkpt lat="60.0095744" lon="17.5976476">
        <ele>39.5513</ele>
        <time>2013-05-28T20:01:47Z</time>
      </trkpt>
      <trkpt lat="60.0096016" lon="17.5974877">
        <ele>40.0321</ele>
        <time>2013-05-28T20:01:48Z</time>
      </trkpt>
      <trkpt lat="60.0096287" lon="17.5973264">
        <ele>40.5128</ele>
        <time>2013-05-28T20:01:49Z</time>
      </trkpt>
      <trkpt lat="60.0096565" lon="17.5971643">
        <ele>40.9934</ele>
        <time>2013-05-28T20:01:50Z</time>
      </trkpt>
      <trkpt lat="60.0096851" lon="17.5970005">
        <ele>41.9547</ele>
        <time>2013-05-28T20:01:51Z</time>
      </trkpt>
      <trkpt lat="60.0097142" lon="17.5968353">
        <ele>41.9547</ele>
        <time>2013-05-28T20:01:52Z</time>
      </trkpt>
      <trkpt lat="60.0097437" lon="17.5966696">
        <ele>42.4354</ele>
        <time>2013-05-28T20:01:53Z</time>
      </trkpt>
      <trkpt lat="60.0097744" lon="17.5965042">
        <ele>42.916</ele>
        <time>2013-05-28T20:01:54Z</time>
      </trkpt>
      <trkpt lat="60.0098059" lon="17.5963381">
        <ele>43.3966</ele>
        <time>2013-05-28T20:01:55Z</time>
      </trkpt>
      <trkpt lat="60.009837" lon="17.5961711">
        <ele>43.8773</ele>
        <time>2013-05-28T20:01:56Z</time>
      </trkpt>
      <trkpt lat="60.0098679" lon="17.5960027">
        <ele>43.8773</ele>
        <time>2013-05-28T20:01:57Z</time>
      </trkpt>
      <trkpt lat="60.009899" lon="17.5958339">
        <ele>44.358</ele>
        <time>2013-05-28T20:01:58Z</time>
      </trkpt>
      <trkpt lat="60.0099294" lon="17.5956645">
        <ele>44.8386</ele>
        <time>2013-05-28T20:01:59Z</time>
      </trkpt>
      <trkpt lat="60.009959" lon="17.5954953">
        <ele>45.3192</ele>
        <time>2013-05-28T20:02:00Z</time>
      </trkpt>
      <trkpt lat="60.0099891" lon="17.5953269">
        <ele>45.3192</ele>
        <time>2013-05-28T20:02:01Z</time>
      </trkpt>
      <trkpt lat="60.0100197" lon="17.5951598">
        <ele>45.7999</ele>
        <time>2013-05-28T20:02:02Z</time>
      </trkpt>
      <trkpt lat="60.0100496" lon="17.5949936">
        <ele>46.2806</ele>
        <time>2013-05-28T20:02:03Z</time>
      </trkpt>
      <trkpt lat="60.0100798" lon="17.5948285">
        <ele>46.2806</ele>
        <time>2013-05-28T20:02:04Z</time>
      </trkpt>
      <trkpt lat="60.0101108" lon="17.5946643">
        <ele>46.7612</ele>
        <time>2013-05-28T20:02:05Z</time>
      </trkpt>
      <trkpt lat="60.0101418" lon="17.5945001">
        <ele>46.7612</ele>
        <time>2013-05-28T20:02:06Z</time>
      </trkpt>
      <trkpt lat="60.0101731" lon="17.5943355">
        <ele>47.2418</ele>
        <time>2013-05-28T20:02:07Z</time>
      </trkpt>
      <trkpt lat="60.0102041" lon="17.5941709">
        <ele>47.7225</ele>
        <time>2013-05-28T20:02:08Z</time>
      </trkpt>
      <trkpt lat="60.0102349" lon="17.594006">
        <ele>47.7225</ele>
        <time>2013-05-28T20:02:09Z</time>
      </trkpt>
      <trkpt lat="60.0102658" lon="17.5938411">
        <ele>48.2034</ele>
        <time>2013-05-28T20:02:10Z</time>
      </trkpt>
      <trkpt lat="60.0102962" lon="17.5936763">
        <ele>48.2034</ele>
        <time>2013-05-28T20:02:11Z</time>
      </trkpt>
      <trkpt lat="60.0103236" lon="17.5935106">
        <ele>48.684</ele>
        <time>2013-05-28T20:02:12Z</time>
      </trkpt>
      <trkpt lat="60.0103498" lon="17.593346">
        <ele>48.684</ele>
        <time>2013-05-28T20:02:13Z</time>
      </trkpt>
      <trkpt lat="60.0103788" lon="17.5931857">
        <ele>49.1646</ele>
        <time>2013-05-28T20:02:14Z</time>
      </trkpt>
      <trkpt lat="60.0104098" lon="17.5930263">
        <ele>49.1646</ele>
        <time>2013-05-28T20:02:15Z</time>
      </trkpt>
      <trkpt lat="60.0104412" lon="17.5928673">
        <ele>49.6453</ele>
        <time>2013-05-28T20:02:16Z</time>
      </trkpt>
      <trkpt lat="60.0104723" lon="17.5927076">
        <ele>49.6453</ele>
        <time>2013-05-28T20:02:17Z</time>
      </trkpt>
      <trkpt lat="60.0105006" lon="17.5925467">
        <ele>50.126</ele>
        <time>2013-05-28T20:02:18Z</time>
      </trkpt>
      <trkpt lat="60.010529" lon="17.5923872">
        <ele>50.126</ele>
        <time>2013-05-28T20:02:19Z</time>
      </trkpt>
      <trkpt lat="60.0105602" lon="17.5922308">
        <ele>50.126</ele>
        <time>2013-05-28T20:02:20Z</time>
      </trkpt>
      <trkpt lat="60.010593" lon="17.5920753">
        <ele>50.6066</ele>
        <time>2013-05-28T20:02:21Z</time>
      </trkpt>
      <trkpt lat="60.0106259" lon="17.5919204">
        <ele>50.6066</ele>
        <time>2013-05-28T20:02:22Z</time>
      </trkpt>
      <trkpt lat="60.0106594" lon="17.5917679">
        <ele>50.6066</ele>
        <time>2013-05-28T20:02:23Z</time>
      </trkpt>
      <trkpt lat="60.0106954" lon="17.5916209">
        <ele>51.0872</ele>
        <time>2013-05-28T20:02:24Z</time>
      </trkpt>
      <trkpt lat="60.0107303" lon="17.5914775">
        <ele>51.0872</ele>
        <time>2013-05-28T20:02:25Z</time>
      </trkpt>
      <trkpt lat="60.0107471" lon="17.5913267">
        <ele>51.5679</ele>
        <time>2013-05-28T20:02:26Z</time>
      </trkpt>
      <trkpt lat="60.0107191" lon="17.5911952">
        <ele>51.0872</ele>
        <time>2013-05-28T20:02:27Z</time>
      </trkpt>
      <trkpt lat="60.0106873" lon="17.5910675">
        <ele>51.0872</ele>
        <time>2013-05-28T20:02:28Z</time>
      </trkpt>
      <trkpt lat="60.0106337" lon="17.5909903">
        <ele>51.5679</ele>
        <time>2013-05-28T20:02:29Z</time>
      </trkpt>
      <trkpt lat="60.0105723" lon="17.5909708">
        <ele>51.0872</ele>
        <time>2013-05-28T20:02:30Z</time>
      </trkpt>
      <trkpt lat="60.0104875" lon="17.5909805">
        <ele>46.2806</ele>
        <time>2013-05-28T20:02:31Z</time>
      </trkpt>
      <trkpt lat="60.010396" lon="17.5910152">
        <ele>42.4354</ele>
        <time>2013-05-28T20:02:32Z</time>
      </trkpt>
      <trkpt lat="60.0103017" lon="17.5910533">
        <ele>40.0321</ele>
        <time>2013-05-28T20:02:33Z</time>
      </trkpt>
      <trkpt lat="60.0102104" lon="17.5910858">
        <ele>37.1481</ele>
        <time>2013-05-28T20:02:34Z</time>
      </trkpt>
      <trkpt lat="60.0101088" lon="17.5911184">
        <ele>34.7449</ele>
        <time>2013-05-28T20:02:35Z</time>
      </trkpt>
      <trkpt lat="60.0100068" lon="17.5911599">
        <ele>32.3416</ele>
        <time>2013-05-28T20:02:36Z</time>
      </trkpt>
      <trkpt lat="60.009901" lon="17.5911983">
        <ele>30.4188</ele>
        <time>2013-05-28T20:02:37Z</time>
      </trkpt>
      <trkpt lat="60.0097891" lon="17.5912331">
        <ele>28.9769</ele>
        <time>2013-05-28T20:02:38Z</time>
      </trkpt>
      <trkpt lat="60.0096762" lon="17.5912626">
        <ele>27.5349</ele>
        <time>2013-05-28T20:02:39Z</time>
      </trkpt>
      <trkpt lat="60.0095622" lon="17.5912918">
        <ele>26.5736</ele>
        <time>2013-05-28T20:02:40Z</time>
      </trkpt>
      <trkpt lat="60.0094472" lon="17.5913247">
        <ele>26.0929</ele>
        <time>2013-05-28T20:02:41Z</time>
      </trkpt>
      <trkpt lat="60.009335" lon="17.5913542">
        <ele>25.1317</ele>
        <time>2013-05-28T20:02:42Z</time>
      </trkpt>
      <trkpt lat="60.0092241" lon="17.5913832">
        <ele>24.651</ele>
        <time>2013-05-28T20:02:43Z</time>
      </trkpt>
      <trkpt lat="60.0091151" lon="17.5914122">
        <ele>24.1703</ele>
        <time>2013-05-28T20:02:44Z</time>
      </trkpt>
      <trkpt lat="60.0090077" lon="17.5914412">
        <ele>23.6896</ele>
        <time>2013-05-28T20:02:45Z</time>
      </trkpt>
      <trkpt lat="60.0089022" lon="17.5914707">
        <ele>23.209</ele>
        <time>2013-05-28T20:02:46Z</time>
      </trkpt>
      <trkpt lat="60.0087971" lon="17.5915007">
        <ele>23.209</ele>
        <time>2013-05-28T20:02:47Z</time>
      </trkpt>
      <trkpt lat="60.0086935" lon="17.5915288">
        <ele>23.209</ele>
        <time>2013-05-28T20:02:48Z</time>
      </trkpt>
      <trkpt lat="60.0085916" lon="17.5915561">
        <ele>22.7283</ele>
        <time>2013-05-28T20:02:49Z</time>
      </trkpt>
      <trkpt lat="60.0084914" lon="17.591584">
        <ele>22.7283</ele>
        <time>2013-05-28T20:02:50Z</time>
      </trkpt>
      <trkpt lat="60.0083927" lon="17.5916116">
        <ele>22.7283</ele>
        <time>2013-05-28T20:02:51Z</time>
      </trkpt>
      <trkpt lat="60.0082956" lon="17.5916394">
        <ele>22.7283</ele>
        <time>2013-05-28T20:02:52Z</time>
      </trkpt>
      <trkpt lat="60.0081995" lon="17.5916676">
        <ele>22.7283</ele>
        <time>2013-05-28T20:02:53Z</time>
      </trkpt>
      <trkpt lat="60.0081043" lon="17.5916946">
        <ele>22.7283</ele>
        <time>2013-05-28T20:02:54Z</time>
      </trkpt>
      <trkpt lat="60.0080104" lon="17.5917198">
        <ele>22.7283</ele>
        <time>2013-05-28T20:02:55Z</time>
      </trkpt>
      <trkpt lat="60.007918" lon="17.591743">
        <ele>22.7283</ele>
        <time>2013-05-28T20:02:56Z</time>
      </trkpt>
      <trkpt lat="60.0078274" lon="17.5917659">
        <ele>22.7283</ele>
        <time>2013-05-28T20:02:57Z</time>
      </trkpt>
      <trkpt lat="60.0077383" lon="17.5917888">
        <ele>23.209</ele>
        <time>2013-05-28T20:02:58Z</time>
      </trkpt>
      <trkpt lat="60.0076514" lon="17.5918114">
        <ele>23.209</ele>
        <time>2013-05-28T20:02:59Z</time>
      </trkpt>
      <trkpt lat="60.007566" lon="17.5918345">
        <ele>23.209</ele>
        <time>2013-05-28T20:03:00Z</time>
      </trkpt>
      <trkpt lat="60.007482" lon="17.5918571">
        <ele>23.209</ele>
        <time>2013-05-28T20:03:01Z</time>
      </trkpt>
      <trkpt lat="60.0073997" lon="17.5918805">
        <ele>23.209</ele>
        <time>2013-05-28T20:03:02Z</time>
      </trkpt>
      <trkpt lat="60.0073187" lon="17.5919033">
        <ele>23.209</ele>
        <time>2013-05-28T20:03:03Z</time>
      </trkpt>
      <trkpt lat="60.0072377" lon="17.5919249">
        <ele>23.209</ele>
        <time>2013-05-28T20:03:04Z</time>
      </trkpt>
      <trkpt lat="60.0071567" lon="17.5919467">
        <ele>22.7283</ele>
        <time>2013-05-28T20:03:05Z</time>
      </trkpt>
      <trkpt lat="60.007075" lon="17.5919665">
        <ele>22.7283</ele>
        <time>2013-05-28T20:03:06Z</time>
      </trkpt>
      <trkpt lat="60.006991" lon="17.5919873">
        <ele>22.7283</ele>
        <time>2013-05-28T20:03:07Z</time>
      </trkpt>
      <trkpt lat="60.0069054" lon="17.5920106">
        <ele>22.2476</ele>
        <time>2013-05-28T20:03:08Z</time>
      </trkpt>
      <trkpt lat="60.0068188" lon="17.5920334">
        <ele>22.2476</ele>
        <time>2013-05-28T20:03:09Z</time>
      </trkpt>
      <trkpt lat="60.0067303" lon="17.5920554">
        <ele>22.2476</ele>
        <time>2013-05-28T20:03:10Z</time>
      </trkpt>
      <trkpt lat="60.0066422" lon="17.5920783">
        <ele>21.767</ele>
        <time>2013-05-28T20:03:11Z</time>
      </trkpt>
      <trkpt lat="60.0065557" lon="17.5921001">
        <ele>21.767</ele>
        <time>2013-05-28T20:03:12Z</time>
      </trkpt>
      <trkpt lat="60.0064693" lon="17.5921187">
        <ele>21.767</ele>
        <time>2013-05-28T20:03:13Z</time>
      </trkpt>
      <trkpt lat="60.0063831" lon="17.5921369">
        <ele>21.767</ele>
        <time>2013-05-28T20:03:14Z</time>
      </trkpt>
      <trkpt lat="60.006298" lon="17.5921587">
        <ele>21.767</ele>
        <time>2013-05-28T20:03:15Z</time>
      </trkpt>
      <trkpt lat="60.0062143" lon="17.5921814">
        <ele>21.767</ele>
        <time>2013-05-28T20:03:16Z</time>
      </trkpt>
      <trkpt lat="60.0061307" lon="17.5922016">
        <ele>21.767</ele>
        <time>2013-05-28T20:03:17Z</time>
      </trkpt>
      <trkpt lat="60.0060477" lon="17.5922218">
        <ele>21.767</ele>
        <time>2013-05-28T20:03:18Z</time>
      </trkpt>
      <trkpt lat="60.0059647" lon="17.5922426">
        <ele>21.767</ele>
        <time>2013-05-28T20:03:19Z</time>
      </trkpt>
      <trkpt lat="60.0058819" lon="17.5922638">
        <ele>21.767</ele>
        <time>2013-05-28T20:03:20Z</time>
      </trkpt>
      <trkpt lat="60.0058" lon="17.5922854">
        <ele>21.767</ele>
        <time>2013-05-28T20:03:21Z</time>
      </trkpt>
      <trkpt lat="60.0057177" lon="17.5923078">
        <ele>21.767</ele>
        <time>2013-05-28T20:03:22Z</time>
      </trkpt>
      <trkpt lat="60.0056363" lon="17.5923296">
        <ele>21.767</ele>
        <time>2013-05-28T20:03:23Z</time>
      </trkpt>
      <trkpt lat="60.0055557" lon="17.5923523">
        <ele>21.767</ele>
        <time>2013-05-28T20:03:24Z</time>
      </trkpt>
      <trkpt lat="60.0054754" lon="17.5923777">
        <ele>21.767</ele>
        <time>2013-05-28T20:03:25Z</time>
      </trkpt>
      <trkpt lat="60.005395" lon="17.5924009">
        <ele>21.767</ele>
        <time>2013-05-28T20:03:26Z</time>
      </trkpt>
      <trkpt lat="60.0053145" lon="17.5924202">
        <ele>21.767</ele>
        <time>2013-05-28T20:03:27Z</time>
      </trkpt>
      <trkpt lat="60.0052343" lon="17.5924394">
        <ele>21.767</ele>
        <time>2013-05-28T20:03:28Z</time>
      </trkpt>
      <trkpt lat="60.0051546" lon="17.5924591">
        <ele>21.767</ele>
        <time>2013-05-28T20:03:29Z</time>
      </trkpt>
      <trkpt lat="60.0050754" lon="17.5924798">
        <ele>21.767</ele>
        <time>2013-05-28T20:03:30Z</time>
      </trkpt>
      <trkpt lat="60.0049966" lon="17.5925009">
        <ele>21.767</ele>
        <time>2013-05-28T20:03:31Z</time>
      </trkpt>
      <trkpt lat="60.0049178" lon="17.5925209">
        <ele>21.767</ele>
        <time>2013-05-28T20:03:32Z</time>
      </trkpt>
      <trkpt lat="60.0048392" lon="17.5925414">
        <ele>21.767</ele>
        <time>2013-05-28T20:03:33Z</time>
      </trkpt>
      <trkpt lat="60.0047614" lon="17.5925621">
        <ele>21.767</ele>
        <time>2013-05-28T20:03:34Z</time>
      </trkpt>
      <trkpt lat="60.0046837" lon="17.5925823">
        <ele>21.767</ele>
        <time>2013-05-28T20:03:35Z</time>
      </trkpt>
      <trkpt lat="60.0046059" lon="17.5926031">
        <ele>21.767</ele>
        <time>2013-05-28T20:03:36Z</time>
      </trkpt>
      <trkpt lat="60.0045278" lon="17.5926243">
        <ele>21.767</ele>
        <time>2013-05-28T20:03:37Z</time>
      </trkpt>
      <trkpt lat="60.0044496" lon="17.5926451">
        <ele>21.767</ele>
        <time>2013-05-28T20:03:38Z</time>
      </trkpt>
      <trkpt lat="60.0043709" lon="17.5926659">
        <ele>21.767</ele>
        <time>2013-05-28T20:03:39Z</time>
      </trkpt>
      <trkpt lat="60.0042916" lon="17.592686">
        <ele>21.767</ele>
        <time>2013-05-28T20:03:40Z</time>
      </trkpt>
      <trkpt lat="60.0042123" lon="17.5927068">
        <ele>22.2476</ele>
        <time>2013-05-28T20:03:41Z</time>
      </trkpt>
      <trkpt lat="60.0041336" lon="17.5927285">
        <ele>22.2476</ele>
        <time>2013-05-28T20:03:42Z</time>
      </trkpt>
      <trkpt lat="60.0040554" lon="17.5927501">
        <ele>22.2476</ele>
        <time>2013-05-28T20:03:43Z</time>
      </trkpt>
      <trkpt lat="60.0039777" lon="17.592771">
        <ele>22.2476</ele>
        <time>2013-05-28T20:03:44Z</time>
      </trkpt>
      <trkpt lat="60.0039003" lon="17.5927912">
        <ele>22.2476</ele>
        <time>2013-05-28T20:03:45Z</time>
      </trkpt>
      <trkpt lat="60.0038233" lon="17.5928103">
        <ele>22.2476</ele>
        <time>2013-05-28T20:03:46Z</time>
      </trkpt>
      <trkpt lat="60.0037466" lon="17.5928286">
        <ele>22.2476</ele>
        <time>2013-05-28T20:03:47Z</time>
      </trkpt>
      <trkpt lat="60.0036706" lon="17.5928487">
        <ele>22.2476</ele>
        <time>2013-05-28T20:03:48Z</time>
      </trkpt>
      <trkpt lat="60.0035957" lon="17.5928709">
        <ele>22.7283</ele>
        <time>2013-05-28T20:03:49Z</time>
      </trkpt>
      <trkpt lat="60.0035213" lon="17.5928922">
        <ele>22.7283</ele>
        <time>2013-05-28T20:03:50Z</time>
      </trkpt>
      <trkpt lat="60.0034476" lon="17.5929103">
        <ele>22.7283</ele>
        <time>2013-05-28T20:03:51Z</time>
      </trkpt>
      <trkpt lat="60.0033741" lon="17.5929269">
        <ele>22.7283</ele>
        <time>2013-05-28T20:03:52Z</time>
      </trkpt>
      <trkpt lat="60.0033017" lon="17.5929434">
        <ele>22.7283</ele>
        <time>2013-05-28T20:03:53Z</time>
      </trkpt>
      <trkpt lat="60.0032302" lon="17.5929596">
        <ele>22.7283</ele>
        <time>2013-05-28T20:03:54Z</time>
      </trkpt>
      <trkpt lat="60.0031588" lon="17.5929764">
        <ele>23.209</ele>
        <time>2013-05-28T20:03:55Z</time>
      </trkpt>
      <trkpt lat="60.0030881" lon="17.592993">
        <ele>23.209</ele>
        <time>2013-05-28T20:03:56Z</time>
      </trkpt>
      <trkpt lat="60.0030181" lon="17.5930099">
        <ele>23.6896</ele>
        <time>2013-05-28T20:03:57Z</time>
      </trkpt>
      <trkpt lat="60.0029484" lon="17.593029">
        <ele>24.1703</ele>
        <time>2013-05-28T20:03:58Z</time>
      </trkpt>
      <trkpt lat="60.0028817" lon="17.5930506">
        <ele>24.1703</ele>
        <time>2013-05-28T20:03:59Z</time>
      </trkpt>
      <trkpt lat="60.0028164" lon="17.5930786">
        <ele>23.6896</ele>
        <time>2013-05-28T20:04:00Z</time>
      </trkpt>
      <trkpt lat="60.0027535" lon="17.5931197">
        <ele>23.209</ele>
        <time>2013-05-28T20:04:01Z</time>
      </trkpt>
      <trkpt lat="60.0026945" lon="17.5931656">
        <ele>23.6896</ele>
        <time>2013-05-28T20:04:02Z</time>
      </trkpt>
      <trkpt lat="60.0026345" lon="17.593209">
        <ele>23.6896</ele>
        <time>2013-05-28T20:04:03Z</time>
      </trkpt>
      <trkpt lat="60.0025755" lon="17.5932567">
        <ele>24.1703</ele>
        <time>2013-05-28T20:04:04Z</time>
      </trkpt>
      <trkpt lat="60.0025168" lon="17.5933155">
        <ele>24.651</ele>
        <time>2013-05-28T20:04:05Z</time>
      </trkpt>
      <trkpt lat="60.0024582" lon="17.5933839">
        <ele>24.651</ele>
        <time>2013-05-28T20:04:06Z</time>
      </trkpt>
      <trkpt lat="60.0024004" lon="17.5934553">
        <ele>24.651</ele>
        <time>2013-05-28T20:04:07Z</time>
      </trkpt>
      <trkpt lat="60.0023465" lon="17.5935267">
        <ele>24.651</ele>
        <time>2013-05-28T20:04:08Z</time>
      </trkpt>
      <trkpt lat="60.002296" lon="17.5935986">
        <ele>25.1317</ele>
        <time>2013-05-28T20:04:09Z</time>
      </trkpt>
      <trkpt lat="60.0022474" lon="17.5936711">
        <ele>25.6123</ele>
        <time>2013-05-28T20:04:10Z</time>
      </trkpt>
      <trkpt lat="60.0022014" lon="17.5937448">
        <ele>25.6123</ele>
        <time>2013-05-28T20:04:11Z</time>
      </trkpt>
      <trkpt lat="60.0021584" lon="17.5938231">
        <ele>26.5736</ele>
        <time>2013-05-28T20:04:12Z</time>
      </trkpt>
      <trkpt lat="60.0021161" lon="17.5939008">
        <ele>27.0543</ele>
        <time>2013-05-28T20:04:13Z</time>
      </trkpt>
      <trkpt lat="60.002073" lon="17.5939733">
        <ele>27.5349</ele>
        <time>2013-05-28T20:04:14Z</time>
      </trkpt>
      <trkpt lat="60.0020283" lon="17.5940411">
        <ele>28.4962</ele>
        <time>2013-05-28T20:04:15Z</time>
      </trkpt>
      <trkpt lat="60.0019842" lon="17.5941002">
        <ele>28.9769</ele>
        <time>2013-05-28T20:04:16Z</time>
      </trkpt>
      <trkpt lat="60.0019342" lon="17.5941518">
        <ele>26.5736</ele>
        <time>2013-05-28T20:04:17Z</time>
      </trkpt>
      <trkpt lat="60.0018834" lon="17.5941959">
        <ele>25.6123</ele>
        <time>2013-05-28T20:04:18Z</time>
      </trkpt>
      <trkpt lat="60.0018306" lon="17.5942312">
        <ele>24.651</ele>
        <time>2013-05-28T20:04:19Z</time>
      </trkpt>
      <trkpt lat="60.001777" lon="17.5942617">
        <ele>24.1703</ele>
        <time>2013-05-28T20:04:20Z</time>
      </trkpt>
      <trkpt lat="60.0017252" lon="17.5942892">
        <ele>24.1703</ele>
        <time>2013-05-28T20:04:21Z</time>
      </trkpt>
      <trkpt lat="60.0016698" lon="17.5943046">
        <ele>23.6896</ele>
        <time>2013-05-28T20:04:22Z</time>
      </trkpt>
      <trkpt lat="60.0016135" lon="17.5943149">
        <ele>22.7283</ele>
        <time>2013-05-28T20:04:23Z</time>
      </trkpt>
      <trkpt lat="60.0015576" lon="17.5943259">
        <ele>22.2476</ele>
        <time>2013-05-28T20:04:24Z</time>
      </trkpt>
      <trkpt lat="60.001502" lon="17.5943315">
        <ele>22.2476</ele>
        <time>2013-05-28T20:04:25Z</time>
      </trkpt>
      <trkpt lat="60.0014457" lon="17.5943271">
        <ele>21.767</ele>
        <time>2013-05-28T20:04:26Z</time>
      </trkpt>
      <trkpt lat="60.0013887" lon="17.5943163">
        <ele>21.2864</ele>
        <time>2013-05-28T20:04:27Z</time>
      </trkpt>
      <trkpt lat="60.0013315" lon="17.5943064">
        <ele>21.2864</ele>
        <time>2013-05-28T20:04:28Z</time>
      </trkpt>
      <trkpt lat="60.001274" lon="17.5942945">
        <ele>21.2864</ele>
        <time>2013-05-28T20:04:29Z</time>
      </trkpt>
      <trkpt lat="60.0012158" lon="17.5942782">
        <ele>20.8057</ele>
        <time>2013-05-28T20:04:30Z</time>
      </trkpt>
      <trkpt lat="60.0011572" lon="17.5942593">
        <ele>20.8057</ele>
        <time>2013-05-28T20:04:31Z</time>
      </trkpt>
      <trkpt lat="60.001098" lon="17.5942391">
        <ele>20.8057</ele>
        <time>2013-05-28T20:04:32Z</time>
      </trkpt>
      <trkpt lat="60.0010388" lon="17.5942157">
        <ele>20.8057</ele>
        <time>2013-05-28T20:04:33Z</time>
      </trkpt>
      <trkpt lat="60.00098" lon="17.5941916">
        <ele>20.325</ele>
        <time>2013-05-28T20:04:34Z</time>
      </trkpt>
      <trkpt lat="60.0009226" lon="17.5941678">
        <ele>20.8057</ele>
        <time>2013-05-28T20:04:35Z</time>
      </trkpt>
      <trkpt lat="60.0008653" lon="17.5941447">
        <ele>21.2864</ele>
        <time>2013-05-28T20:04:36Z</time>
      </trkpt>
      <trkpt lat="60.000807" lon="17.5941259">
        <ele>21.2864</ele>
        <time>2013-05-28T20:04:37Z</time>
      </trkpt>
      <trkpt lat="60.0007479" lon="17.5941103">
        <ele>21.767</ele>
        <time>2013-05-28T20:04:38Z</time>
      </trkpt>
      <trkpt lat="60.0006881" lon="17.594094">
        <ele>21.767</ele>
        <time>2013-05-28T20:04:39Z</time>
      </trkpt>
      <trkpt lat="60.0006279" lon="17.5940799">
        <ele>21.767</ele>
        <time>2013-05-28T20:04:40Z</time>
      </trkpt>
      <trkpt lat="60.0005671" lon="17.5940711">
        <ele>21.767</ele>
        <time>2013-05-28T20:04:41Z</time>
      </trkpt>
      <trkpt lat="60.0005055" lon="17.5940649">
        <ele>21.2864</ele>
        <time>2013-05-28T20:04:42Z</time>
      </trkpt>
      <trkpt lat="60.0004431" lon="17.5940598">
        <ele>21.767</ele>
        <time>2013-05-28T20:04:43Z</time>
      </trkpt>
      <trkpt lat="60.0003786" lon="17.5940539">
        <ele>21.2864</ele>
        <time>2013-05-28T20:04:44Z</time>
      </trkpt>
      <trkpt lat="60.0003132" lon="17.5940502">
        <ele>21.2864</ele>
        <time>2013-05-28T20:04:45Z</time>
      </trkpt>
      <trkpt lat="60.0002468" lon="17.5940516">
        <ele>21.2864</ele>
        <time>2013-05-28T20:04:46Z</time>
      </trkpt>
      <trkpt lat="60.0001802" lon="17.5940586">
        <ele>21.767</ele>
        <time>2013-05-28T20:04:47Z</time>
      </trkpt>
      <trkpt lat="60.0001134" lon="17.5940707">
        <ele>21.767</ele>
        <time>2013-05-28T20:04:48Z</time>
      </trkpt>
      <trkpt lat="60.0000476" lon="17.5940896">
        <ele>21.767</ele>
        <time>2013-05-28T20:04:49Z</time>
      </trkpt>
      <trkpt lat="59.9999771" lon="17.5941416">
        <ele>21.767</ele>
        <time>2013-05-28T20:04:50Z</time>
      </trkpt>
      <trkpt lat="59.9999114" lon="17.5941934">
        <ele>21.767</ele>
        <time>2013-05-28T20:04:51Z</time>
      </trkpt>
      <trkpt lat="59.999849" lon="17.5942478">
        <ele>22.2476</ele>
        <time>2013-05-28T20:04:52Z</time>
      </trkpt>
      <trkpt lat="59.9997889" lon="17.5943077">
        <ele>22.2476</ele>
        <time>2013-05-28T20:04:53Z</time>
      </trkpt>
      <trkpt lat="59.9997309" lon="17.5943669">
        <ele>22.7283</ele>
        <time>2013-05-28T20:04:54Z</time>
      </trkpt>
      <trkpt lat="59.9996708" lon="17.5944281">
        <ele>22.7283</ele>
        <time>2013-05-28T20:04:55Z</time>
      </trkpt>
      <trkpt lat="59.9996096" lon="17.5944864">
        <ele>22.2476</ele>
        <time>2013-05-28T20:04:56Z</time>
      </trkpt>
      <trkpt lat="59.9995494" lon="17.5945472">
        <ele>22.2476</ele>
        <time>2013-05-28T20:04:57Z</time>
      </trkpt>
      <trkpt lat="59.9994879" lon="17.5945957">
        <ele>22.2476</ele>
        <time>2013-05-28T20:04:58Z</time>
      </trkpt>
      <trkpt lat="59.9994221" lon="17.5946346">
        <ele>22.2476</ele>
        <time>2013-05-28T20:04:59Z</time>
      </trkpt>
      <trkpt lat="59.9993587" lon="17.5946659">
        <ele>22.7283</ele>
        <time>2013-05-28T20:05:00Z</time>
      </trkpt>
      <trkpt lat="59.9992944" lon="17.5946954">
        <ele>23.209</ele>
        <time>2013-05-28T20:05:01Z</time>
      </trkpt>
      <trkpt lat="59.9992302" lon="17.5947259">
        <ele>22.7283</ele>
        <time>2013-05-28T20:05:02Z</time>
      </trkpt>
      <trkpt lat="59.9991679" lon="17.5947513">
        <ele>23.209</ele>
        <time>2013-05-28T20:05:03Z</time>
      </trkpt>
      <trkpt lat="59.9991068" lon="17.5947798">
        <ele>23.209</ele>
        <time>2013-05-28T20:05:04Z</time>
      </trkpt>
      <trkpt lat="59.9990458" lon="17.594812">
        <ele>23.209</ele>
        <time>2013-05-28T20:05:05Z</time>
      </trkpt>
      <trkpt lat="59.9989883" lon="17.59484">
        <ele>23.209</ele>
        <time>2013-05-28T20:05:06Z</time>
      </trkpt>
      <trkpt lat="59.9989288" lon="17.5948827">
        <ele>23.209</ele>
        <time>2013-05-28T20:05:07Z</time>
      </trkpt>
      <trkpt lat="59.9988666" lon="17.5949305">
        <ele>23.6896</ele>
        <time>2013-05-28T20:05:08Z</time>
      </trkpt>
      <trkpt lat="59.9988027" lon="17.5949843">
        <ele>23.6896</ele>
        <time>2013-05-28T20:05:09Z</time>
      </trkpt>
      <trkpt lat="59.9987384" lon="17.5950363">
        <ele>23.209</ele>
        <time>2013-05-28T20:05:10Z</time>
      </trkpt>
      <trkpt lat="59.9986728" lon="17.5950985">
        <ele>22.7283</ele>
        <time>2013-05-28T20:05:11Z</time>
      </trkpt>
      <trkpt lat="59.9986091" lon="17.5951625">
        <ele>23.209</ele>
        <time>2013-05-28T20:05:12Z</time>
      </trkpt>
      <trkpt lat="59.9985488" lon="17.5952325">
        <ele>24.1703</ele>
        <time>2013-05-28T20:05:13Z</time>
      </trkpt>
      <trkpt lat="59.9984895" lon="17.5953071">
        <ele>25.6123</ele>
        <time>2013-05-28T20:05:14Z</time>
      </trkpt>
      <trkpt lat="59.9984296" lon="17.595382">
        <ele>26.0929</ele>
        <time>2013-05-28T20:05:15Z</time>
      </trkpt>
      <trkpt lat="59.9983708" lon="17.5954536">
        <ele>26.0929</ele>
        <time>2013-05-28T20:05:16Z</time>
      </trkpt>
      <trkpt lat="59.9983118" lon="17.5955247">
        <ele>26.0929</ele>
        <time>2013-05-28T20:05:17Z</time>
      </trkpt>
      <trkpt lat="59.9982543" lon="17.5955958">
        <ele>25.6123</ele>
        <time>2013-05-28T20:05:18Z</time>
      </trkpt>
      <trkpt lat="59.9981962" lon="17.5956657">
        <ele>25.6123</ele>
        <time>2013-05-28T20:05:19Z</time>
      </trkpt>
      <trkpt lat="59.998137" lon="17.5957367">
        <ele>25.6123</ele>
        <time>2013-05-28T20:05:20Z</time>
      </trkpt>
      <trkpt lat="59.9980765" lon="17.5957967">
        <ele>25.1317</ele>
        <time>2013-05-28T20:05:21Z</time>
      </trkpt>
      <trkpt lat="59.9980144" lon="17.5958527">
        <ele>24.1703</ele>
        <time>2013-05-28T20:05:22Z</time>
      </trkpt>
      <trkpt lat="59.9979499" lon="17.5959043">
        <ele>23.6896</ele>
        <time>2013-05-28T20:05:23Z</time>
      </trkpt>
      <trkpt lat="59.9978838" lon="17.5959515">
        <ele>23.6896</ele>
        <time>2013-05-28T20:05:24Z</time>
      </trkpt>
      <trkpt lat="59.9978163" lon="17.5959873">
        <ele>23.209</ele>
        <time>2013-05-28T20:05:25Z</time>
      </trkpt>
      <trkpt lat="59.9977476" lon="17.5960157">
        <ele>23.209</ele>
        <time>2013-05-28T20:05:26Z</time>
      </trkpt>
      <trkpt lat="59.9976781" lon="17.5960396">
        <ele>23.209</ele>
        <time>2013-05-28T20:05:27Z</time>
      </trkpt>
      <trkpt lat="59.9976093" lon="17.596058">
        <ele>23.209</ele>
        <time>2013-05-28T20:05:28Z</time>
      </trkpt>
      <trkpt lat="59.9975394" lon="17.5960738">
        <ele>23.209</ele>
        <time>2013-05-28T20:05:29Z</time>
      </trkpt>
      <trkpt lat="59.9974683" lon="17.596087">
        <ele>22.7283</ele>
        <time>2013-05-28T20:05:30Z</time>
      </trkpt>
      <trkpt lat="59.997397" lon="17.596093">
        <ele>22.2476</ele>
        <time>2013-05-28T20:05:31Z</time>
      </trkpt>
      <trkpt lat="59.9973234" lon="17.5960879">
        <ele>22.2476</ele>
        <time>2013-05-28T20:05:32Z</time>
      </trkpt>
      <trkpt lat="59.9972497" lon="17.5960671">
        <ele>22.2476</ele>
        <time>2013-05-28T20:05:33Z</time>
      </trkpt>
      <trkpt lat="59.9971735" lon="17.5960298">
        <ele>22.7283</ele>
        <time>2013-05-28T20:05:34Z</time>
      </trkpt>
      <trkpt lat="59.9970974" lon="17.5959794">
        <ele>23.209</ele>
        <time>2013-05-28T20:05:35Z</time>
      </trkpt>
      <trkpt lat="59.9970224" lon="17.5959135">
        <ele>24.651</ele>
        <time>2013-05-28T20:05:36Z</time>
      </trkpt>
      <trkpt lat="59.9969494" lon="17.5958371">
        <ele>24.651</ele>
        <time>2013-05-28T20:05:37Z</time>
      </trkpt>
      <trkpt lat="59.9968794" lon="17.5957524">
        <ele>24.651</ele>
        <time>2013-05-28T20:05:38Z</time>
      </trkpt>
      <trkpt lat="59.9968115" lon="17.5956603">
        <ele>24.1703</ele>
        <time>2013-05-28T20:05:39Z</time>
      </trkpt>
      <trkpt lat="59.9967485" lon="17.5955608">
        <ele>24.1703</ele>
        <time>2013-05-28T20:05:40Z</time>
      </trkpt>
      <trkpt lat="59.9966883" lon="17.5954548">
        <ele>23.209</ele>
        <time>2013-05-28T20:05:41Z</time>
      </trkpt>
      <trkpt lat="59.9966309" lon="17.5953548">
        <ele>24.1703</ele>
        <time>2013-05-28T20:05:42Z</time>
      </trkpt>
      <trkpt lat="59.9965729" lon="17.5952605">
        <ele>25.1317</ele>
        <time>2013-05-28T20:05:43Z</time>
      </trkpt>
      <trkpt lat="59.996524" lon="17.5951453">
        <ele>24.651</ele>
        <time>2013-05-28T20:05:44Z</time>
      </trkpt>
      <trkpt lat="59.9964768" lon="17.5950403">
        <ele>23.6896</ele>
        <time>2013-05-28T20:05:45Z</time>
      </trkpt>
      <trkpt lat="59.9964239" lon="17.5949423">
        <ele>23.209</ele>
        <time>2013-05-28T20:05:46Z</time>
      </trkpt>
      <trkpt lat="59.9963707" lon="17.5948451">
        <ele>22.2476</ele>
        <time>2013-05-28T20:05:47Z</time>
      </trkpt>
      <trkpt lat="59.9963175" lon="17.5947535">
        <ele>21.2864</ele>
        <time>2013-05-28T20:05:48Z</time>
      </trkpt>
      <trkpt lat="59.9962672" lon="17.5946669">
        <ele>21.767</ele>
        <time>2013-05-28T20:05:49Z</time>
      </trkpt>
      <trkpt lat="59.9962187" lon="17.5945849">
        <ele>22.7283</ele>
        <time>2013-05-28T20:05:50Z</time>
      </trkpt>
      <trkpt lat="59.9961719" lon="17.594511">
        <ele>22.2476</ele>
        <time>2013-05-28T20:05:51Z</time>
      </trkpt>
      <trkpt lat="59.9961211" lon="17.5944294">
        <ele>22.7283</ele>
        <time>2013-05-28T20:05:52Z</time>
      </trkpt>
      <trkpt lat="59.9960391" lon="17.5943509">
        <ele>23.209</ele>
        <time>2013-05-28T20:05:53Z</time>
      </trkpt>
      <trkpt lat="59.9959787" lon="17.594286">
        <ele>23.209</ele>
        <time>2013-05-28T20:05:54Z</time>
      </trkpt>
      <trkpt lat="59.9959095" lon="17.594252">
        <ele>22.2476</ele>
        <time>2013-05-28T20:05:55Z</time>
      </trkpt>
      <trkpt lat="59.9958477" lon="17.5941911">
        <ele>22.7283</ele>
        <time>2013-05-28T20:05:56Z</time>
      </trkpt>
      <trkpt lat="59.9957781" lon="17.5941266">
        <ele>22.2476</ele>
        <time>2013-05-28T20:05:57Z</time>
      </trkpt>
      <trkpt lat="59.9956984" lon="17.5940872">
        <ele>20.8057</ele>
        <time>2013-05-28T20:05:58Z</time>
      </trkpt>
      <trkpt lat="59.995631" lon="17.594038">
        <ele>20.325</ele>
        <time>2013-05-28T20:05:59Z</time>
      </trkpt>
      <trkpt lat="59.9955629" lon="17.593995">
        <ele>19.8444</ele>
        <time>2013-05-28T20:06:00Z</time>
      </trkpt>
      <trkpt lat="59.9954937" lon="17.59395">
        <ele>19.3638</ele>
        <time>2013-05-28T20:06:01Z</time>
      </trkpt>
      <trkpt lat="59.9954228" lon="17.5939133">
        <ele>19.3638</ele>
        <time>2013-05-28T20:06:02Z</time>
      </trkpt>
      <trkpt lat="59.9953488" lon="17.5938726">
        <ele>19.3638</ele>
        <time>2013-05-28T20:06:03Z</time>
      </trkpt>
      <trkpt lat="59.9952725" lon="17.5938135">
        <ele>19.3638</ele>
        <time>2013-05-28T20:06:04Z</time>
      </trkpt>
      <trkpt lat="59.9951983" lon="17.5937442">
        <ele>18.8831</ele>
        <time>2013-05-28T20:06:05Z</time>
      </trkpt>
      <trkpt lat="59.9951212" lon="17.5936774">
        <ele>18.8831</ele>
        <time>2013-05-28T20:06:06Z</time>
      </trkpt>
      <trkpt lat="59.9950425" lon="17.5936013">
        <ele>19.3638</ele>
        <time>2013-05-28T20:06:07Z</time>
      </trkpt>
      <trkpt lat="59.9949657" lon="17.5935195">
        <ele>19.8444</ele>
        <time>2013-05-28T20:06:08Z</time>
      </trkpt>
      <trkpt lat="59.9948942" lon="17.593436">
        <ele>21.2864</ele>
        <time>2013-05-28T20:06:09Z</time>
      </trkpt>
      <trkpt lat="59.9948206" lon="17.5933474">
        <ele>21.767</ele>
        <time>2013-05-28T20:06:10Z</time>
      </trkpt>
      <trkpt lat="59.9947539" lon="17.5932492">
        <ele>22.2476</ele>
        <time>2013-05-28T20:06:11Z</time>
      </trkpt>
      <trkpt lat="59.994696" lon="17.5931357">
        <ele>23.6896</ele>
        <time>2013-05-28T20:06:12Z</time>
      </trkpt>
      <trkpt lat="59.9946331" lon="17.5930397">
        <ele>24.1703</ele>
        <time>2013-05-28T20:06:13Z</time>
      </trkpt>
      <trkpt lat="59.9945736" lon="17.5929221">
        <ele>25.1317</ele>
        <time>2013-05-28T20:06:14Z</time>
      </trkpt>
      <trkpt lat="59.9945194" lon="17.5928112">
        <ele>25.1317</ele>
        <time>2013-05-28T20:06:15Z</time>
      </trkpt>
      <trkpt lat="59.9944629" lon="17.5927041">
        <ele>25.1317</ele>
        <time>2013-05-28T20:06:16Z</time>
      </trkpt>
      <trkpt lat="59.9944073" lon="17.5926053">
        <ele>24.651</ele>
        <time>2013-05-28T20:06:17Z</time>
      </trkpt>
      <trkpt lat="59.9943453" lon="17.592509">
        <ele>25.1317</ele>
        <time>2013-05-28T20:06:18Z</time>
      </trkpt>
      <trkpt lat="59.9942815" lon="17.5924151">
        <ele>25.1317</ele>
        <time>2013-05-28T20:06:19Z</time>
      </trkpt>
      <trkpt lat="59.9942184" lon="17.5923234">
        <ele>25.1317</ele>
        <time>2013-05-28T20:06:20Z</time>
      </trkpt>
      <trkpt lat="59.9941505" lon="17.59224">
        <ele>25.1317</ele>
        <time>2013-05-28T20:06:21Z</time>
      </trkpt>
      <trkpt lat="59.9940778" lon="17.5921763">
        <ele>25.1317</ele>
        <time>2013-05-28T20:06:22Z</time>
      </trkpt>
      <trkpt lat="59.9940024" lon="17.5921276">
        <ele>25.6123</ele>
        <time>2013-05-28T20:06:23Z</time>
      </trkpt>
      <trkpt lat="59.9939267" lon="17.5920892">
        <ele>25.1317</ele>
        <time>2013-05-28T20:06:24Z</time>
      </trkpt>
      <trkpt lat="59.9938471" lon="17.5920602">
        <ele>24.651</ele>
        <time>2013-05-28T20:06:25Z</time>
      </trkpt>
      <trkpt lat="59.9937693" lon="17.5920374">
        <ele>24.651</ele>
        <time>2013-05-28T20:06:26Z</time>
      </trkpt>
      <trkpt lat="59.9936921" lon="17.5920171">
        <ele>24.651</ele>
        <time>2013-05-28T20:06:27Z</time>
      </trkpt>
      <trkpt lat="59.9936161" lon="17.5919939">
        <ele>24.651</ele>
        <time>2013-05-28T20:06:28Z</time>
      </trkpt>
      <trkpt lat="59.9935412" lon="17.5919639">
        <ele>24.651</ele>
        <time>2013-05-28T20:06:29Z</time>
      </trkpt>
      <trkpt lat="59.9934678" lon="17.5919307">
        <ele>24.1703</ele>
        <time>2013-05-28T20:06:30Z</time>
      </trkpt>
      <trkpt lat="59.9933951" lon="17.5918986">
        <ele>24.1703</ele>
        <time>2013-05-28T20:06:31Z</time>
      </trkpt>
      <trkpt lat="59.9933262" lon="17.5918696">
        <ele>24.651</ele>
        <time>2013-05-28T20:06:32Z</time>
      </trkpt>
      <trkpt lat="59.9932564" lon="17.591848">
        <ele>25.1317</ele>
        <time>2013-05-28T20:06:33Z</time>
      </trkpt>
      <trkpt lat="59.9931856" lon="17.5918256">
        <ele>25.1317</ele>
        <time>2013-05-28T20:06:34Z</time>
      </trkpt>
      <trkpt lat="59.9931138" lon="17.5918105">
        <ele>25.6123</ele>
        <time>2013-05-28T20:06:35Z</time>
      </trkpt>
      <trkpt lat="59.9930389" lon="17.5917945">
        <ele>25.1317</ele>
        <time>2013-05-28T20:06:36Z</time>
      </trkpt>
      <trkpt lat="59.9929616" lon="17.5917803">
        <ele>25.1317</ele>
        <time>2013-05-28T20:06:37Z</time>
      </trkpt>
      <trkpt lat="59.9928834" lon="17.5917651">
        <ele>24.651</ele>
        <time>2013-05-28T20:06:38Z</time>
      </trkpt>
      <trkpt lat="59.9928061" lon="17.5917484">
        <ele>24.651</ele>
        <time>2013-05-28T20:06:39Z</time>
      </trkpt>
      <trkpt lat="59.9927284" lon="17.5917304">
        <ele>23.6896</ele>
        <time>2013-05-28T20:06:40Z</time>
      </trkpt>
      <trkpt lat="59.9926492" lon="17.5917173">
        <ele>23.6896</ele>
        <time>2013-05-28T20:06:41Z</time>
      </trkpt>
      <trkpt lat="59.9925689" lon="17.5917088">
        <ele>23.209</ele>
        <time>2013-05-28T20:06:42Z</time>
      </trkpt>
      <trkpt lat="59.9924875" lon="17.5916995">
        <ele>23.209</ele>
        <time>2013-05-28T20:06:43Z</time>
      </trkpt>
      <trkpt lat="59.9924062" lon="17.5916868">
        <ele>22.7283</ele>
        <time>2013-05-28T20:06:44Z</time>
      </trkpt>
      <trkpt lat="59.9923252" lon="17.5916687">
        <ele>22.2476</ele>
        <time>2013-05-28T20:06:45Z</time>
      </trkpt>
      <trkpt lat="59.9922446" lon="17.5916566">
        <ele>22.7283</ele>
        <time>2013-05-28T20:06:46Z</time>
      </trkpt>
      <trkpt lat="59.992168" lon="17.5916317">
        <ele>22.7283</ele>
        <time>2013-05-28T20:06:47Z</time>
      </trkpt>
      <trkpt lat="59.9920925" lon="17.5916016">
        <ele>22.2476</ele>
        <time>2013-05-28T20:06:48Z</time>
      </trkpt>
      <trkpt lat="59.9920179" lon="17.5915624">
        <ele>22.7283</ele>
        <time>2013-05-28T20:06:49Z</time>
      </trkpt>
      <trkpt lat="59.9919438" lon="17.5915227">
        <ele>22.2476</ele>
        <time>2013-05-28T20:06:50Z</time>
      </trkpt>
      <trkpt lat="59.9918708" lon="17.5914841">
        <ele>21.767</ele>
        <time>2013-05-28T20:06:51Z</time>
      </trkpt>
      <trkpt lat="59.9917947" lon="17.5914486">
        <ele>21.767</ele>
        <time>2013-05-28T20:06:52Z</time>
      </trkpt>
      <trkpt lat="59.9917172" lon="17.5914159">
        <ele>21.767</ele>
        <time>2013-05-28T20:06:53Z</time>
      </trkpt>
      <trkpt lat="59.9916387" lon="17.5913743">
        <ele>21.767</ele>
        <time>2013-05-28T20:06:54Z</time>
      </trkpt>
      <trkpt lat="59.9915582" lon="17.591333">
        <ele>22.7283</ele>
        <time>2013-05-28T20:06:55Z</time>
      </trkpt>
      <trkpt lat="59.9914801" lon="17.5912895">
        <ele>22.7283</ele>
        <time>2013-05-28T20:06:56Z</time>
      </trkpt>
      <trkpt lat="59.9914013" lon="17.5912541">
        <ele>22.7283</ele>
        <time>2013-05-28T20:06:57Z</time>
      </trkpt>
      <trkpt lat="59.9913212" lon="17.5912251">
        <ele>23.209</ele>
        <time>2013-05-28T20:06:58Z</time>
      </trkpt>
      <trkpt lat="59.9912414" lon="17.5912069">
        <ele>23.6896</ele>
        <time>2013-05-28T20:06:59Z</time>
      </trkpt>
      <trkpt lat="59.9911601" lon="17.5911968">
        <ele>23.6896</ele>
        <time>2013-05-28T20:07:00Z</time>
      </trkpt>
      <trkpt lat="59.9910803" lon="17.5911803">
        <ele>23.6896</ele>
        <time>2013-05-28T20:07:01Z</time>
      </trkpt>
      <trkpt lat="59.9910015" lon="17.5911812">
        <ele>24.1703</ele>
        <time>2013-05-28T20:07:02Z</time>
      </trkpt>
      <trkpt lat="59.9909197" lon="17.5911983">
        <ele>24.651</ele>
        <time>2013-05-28T20:07:03Z</time>
      </trkpt>
      <trkpt lat="59.990839" lon="17.5912224">
        <ele>25.1317</ele>
        <time>2013-05-28T20:07:04Z</time>
      </trkpt>
      <trkpt lat="59.9907575" lon="17.5912582">
        <ele>25.6123</ele>
        <time>2013-05-28T20:07:05Z</time>
      </trkpt>
      <trkpt lat="59.9906773" lon="17.5913014">
        <ele>26.0929</ele>
        <time>2013-05-28T20:07:06Z</time>
      </trkpt>
      <trkpt lat="59.9905996" lon="17.591346">
        <ele>26.5736</ele>
        <time>2013-05-28T20:07:07Z</time>
      </trkpt>
      <trkpt lat="59.9905227" lon="17.5913931">
        <ele>27.0543</ele>
        <time>2013-05-28T20:07:08Z</time>
      </trkpt>
      <trkpt lat="59.9904473" lon="17.5914453">
        <ele>27.5349</ele>
        <time>2013-05-28T20:07:09Z</time>
      </trkpt>
      <trkpt lat="59.9903726" lon="17.5915009">
        <ele>27.5349</ele>
        <time>2013-05-28T20:07:10Z</time>
      </trkpt>
      <trkpt lat="59.9902979" lon="17.5915671">
        <ele>27.5349</ele>
        <time>2013-05-28T20:07:11Z</time>
      </trkpt>
      <trkpt lat="59.9902255" lon="17.591635">
        <ele>28.0155</ele>
        <time>2013-05-28T20:07:12Z</time>
      </trkpt>
      <trkpt lat="59.9901534" lon="17.5917024">
        <ele>28.0155</ele>
        <time>2013-05-28T20:07:13Z</time>
      </trkpt>
      <trkpt lat="59.9900809" lon="17.591769">
        <ele>28.4962</ele>
        <time>2013-05-28T20:07:14Z</time>
      </trkpt>
      <trkpt lat="59.9900079" lon="17.59184">
        <ele>28.4962</ele>
        <time>2013-05-28T20:07:15Z</time>
      </trkpt>
      <trkpt lat="59.9899345" lon="17.591909">
        <ele>28.4962</ele>
        <time>2013-05-28T20:07:16Z</time>
      </trkpt>
      <trkpt lat="59.9898622" lon="17.5919767">
        <ele>28.9769</ele>
        <time>2013-05-28T20:07:17Z</time>
      </trkpt>
      <trkpt lat="59.9897879" lon="17.59204">
        <ele>29.4575</ele>
        <time>2013-05-28T20:07:18Z</time>
      </trkpt>
      <trkpt lat="59.9897115" lon="17.5920996">
        <ele>29.4575</ele>
        <time>2013-05-28T20:07:19Z</time>
      </trkpt>
      <trkpt lat="59.9896336" lon="17.5921488">
        <ele>29.4575</ele>
        <time>2013-05-28T20:07:20Z</time>
      </trkpt>
      <trkpt lat="59.9895548" lon="17.5921857">
        <ele>29.4575</ele>
        <time>2013-05-28T20:07:21Z</time>
      </trkpt>
      <trkpt lat="59.989474" lon="17.5922156">
        <ele>29.4575</ele>
        <time>2013-05-28T20:07:22Z</time>
      </trkpt>
      <trkpt lat="59.9893916" lon="17.5922404">
        <ele>29.4575</ele>
        <time>2013-05-28T20:07:23Z</time>
      </trkpt>
      <trkpt lat="59.9893096" lon="17.5922588">
        <ele>29.4575</ele>
        <time>2013-05-28T20:07:24Z</time>
      </trkpt>
      <trkpt lat="59.9892272" lon="17.5922746">
        <ele>29.4575</ele>
        <time>2013-05-28T20:07:25Z</time>
      </trkpt>
      <trkpt lat="59.9891439" lon="17.5922867">
        <ele>29.4575</ele>
        <time>2013-05-28T20:07:26Z</time>
      </trkpt>
      <trkpt lat="59.989061" lon="17.5922974">
        <ele>29.4575</ele>
        <time>2013-05-28T20:07:27Z</time>
      </trkpt>
      <trkpt lat="59.9889786" lon="17.5923115">
        <ele>29.4575</ele>
        <time>2013-05-28T20:07:28Z</time>
      </trkpt>
      <trkpt lat="59.9888957" lon="17.592327">
        <ele>29.4575</ele>
        <time>2013-05-28T20:07:29Z</time>
      </trkpt>
      <trkpt lat="59.9888124" lon="17.5923421">
        <ele>29.4575</ele>
        <time>2013-05-28T20:07:30Z</time>
      </trkpt>
      <trkpt lat="59.9887291" lon="17.5923608">
        <ele>29.4575</ele>
        <time>2013-05-28T20:07:31Z</time>
      </trkpt>
      <trkpt lat="59.9886462" lon="17.592384">
        <ele>29.4575</ele>
        <time>2013-05-28T20:07:32Z</time>
      </trkpt>
      <trkpt lat="59.9885638" lon="17.5924104">
        <ele>29.4575</ele>
        <time>2013-05-28T20:07:33Z</time>
      </trkpt>
      <trkpt lat="59.9884815" lon="17.5924432">
        <ele>29.4575</ele>
        <time>2013-05-28T20:07:34Z</time>
      </trkpt>
      <trkpt lat="59.9883999" lon="17.5924787">
        <ele>29.4575</ele>
        <time>2013-05-28T20:07:35Z</time>
      </trkpt>
      <trkpt lat="59.9883181" lon="17.5925136">
        <ele>28.9769</ele>
        <time>2013-05-28T20:07:36Z</time>
      </trkpt>
      <trkpt lat="59.9882365" lon="17.5925461">
        <ele>28.4962</ele>
        <time>2013-05-28T20:07:37Z</time>
      </trkpt>
      <trkpt lat="59.9881547" lon="17.5925833">
        <ele>28.0155</ele>
        <time>2013-05-28T20:07:38Z</time>
      </trkpt>
      <trkpt lat="59.9880726" lon="17.5926201">
        <ele>28.0155</ele>
        <time>2013-05-28T20:07:39Z</time>
      </trkpt>
      <trkpt lat="59.9879896" lon="17.5926557">
        <ele>27.5349</ele>
        <time>2013-05-28T20:07:40Z</time>
      </trkpt>
      <trkpt lat="59.987905" lon="17.5926944">
        <ele>26.5736</ele>
        <time>2013-05-28T20:07:41Z</time>
      </trkpt>
      <trkpt lat="59.9878228" lon="17.5927291">
        <ele>26.0929</ele>
        <time>2013-05-28T20:07:42Z</time>
      </trkpt>
      <trkpt lat="59.9877403" lon="17.592773">
        <ele>26.0929</ele>
        <time>2013-05-28T20:07:43Z</time>
      </trkpt>
      <trkpt lat="59.9876571" lon="17.5928211">
        <ele>25.6123</ele>
        <time>2013-05-28T20:07:44Z</time>
      </trkpt>
      <trkpt lat="59.9875722" lon="17.5928692">
        <ele>25.6123</ele>
        <time>2013-05-28T20:07:45Z</time>
      </trkpt>
      <trkpt lat="59.9874852" lon="17.5929125">
        <ele>25.1317</ele>
        <time>2013-05-28T20:07:46Z</time>
      </trkpt>
      <trkpt lat="59.9873967" lon="17.5929482">
        <ele>25.1317</ele>
        <time>2013-05-28T20:07:47Z</time>
      </trkpt>
      <trkpt lat="59.987307" lon="17.5929772">
        <ele>25.1317</ele>
        <time>2013-05-28T20:07:48Z</time>
      </trkpt>
      <trkpt lat="59.987217" lon="17.5930018">
        <ele>25.1317</ele>
        <time>2013-05-28T20:07:49Z</time>
      </trkpt>
      <trkpt lat="59.9871268" lon="17.5930241">
        <ele>25.1317</ele>
        <time>2013-05-28T20:07:50Z</time>
      </trkpt>
      <trkpt lat="59.9870362" lon="17.5930455">
        <ele>25.6123</ele>
        <time>2013-05-28T20:07:51Z</time>
      </trkpt>
      <trkpt lat="59.9869461" lon="17.5930657">
        <ele>25.6123</ele>
        <time>2013-05-28T20:07:52Z</time>
      </trkpt>
      <trkpt lat="59.9868569" lon="17.5930836">
        <ele>25.6123</ele>
        <time>2013-05-28T20:07:53Z</time>
      </trkpt>
      <trkpt lat="59.9867689" lon="17.5931018">
        <ele>25.6123</ele>
        <time>2013-05-28T20:07:54Z</time>
      </trkpt>
      <trkpt lat="59.9866814" lon="17.5931202">
        <ele>25.1317</ele>
        <time>2013-05-28T20:07:55Z</time>
      </trkpt>
      <trkpt lat="59.9865944" lon="17.5931378">
        <ele>25.1317</ele>
        <time>2013-05-28T20:07:56Z</time>
      </trkpt>
      <trkpt lat="59.9865082" lon="17.5931559">
        <ele>25.6123</ele>
        <time>2013-05-28T20:07:57Z</time>
      </trkpt>
      <trkpt lat="59.9864221" lon="17.5931763">
        <ele>25.6123</ele>
        <time>2013-05-28T20:07:58Z</time>
      </trkpt>
      <trkpt lat="59.9863369" lon="17.5931972">
        <ele>25.6123</ele>
        <time>2013-05-28T20:07:59Z</time>
      </trkpt>
      <trkpt lat="59.9862529" lon="17.5932175">
        <ele>25.6123</ele>
        <time>2013-05-28T20:08:00Z</time>
      </trkpt>
      <trkpt lat="59.9861706" lon="17.5932406">
        <ele>25.6123</ele>
        <time>2013-05-28T20:08:01Z</time>
      </trkpt>
      <trkpt lat="59.9860881" lon="17.593263">
        <ele>26.0929</ele>
        <time>2013-05-28T20:08:02Z</time>
      </trkpt>
      <trkpt lat="59.9860051" lon="17.5932863">
        <ele>26.0929</ele>
        <time>2013-05-28T20:08:03Z</time>
      </trkpt>
      <trkpt lat="59.9859208" lon="17.5933086">
        <ele>26.0929</ele>
        <time>2013-05-28T20:08:04Z</time>
      </trkpt>
      <trkpt lat="59.9858363" lon="17.5933324">
        <ele>26.0929</ele>
        <time>2013-05-28T20:08:05Z</time>
      </trkpt>
      <trkpt lat="59.9857513" lon="17.5933561">
        <ele>26.0929</ele>
        <time>2013-05-28T20:08:06Z</time>
      </trkpt>
      <trkpt lat="59.9856655" lon="17.5933807">
        <ele>25.6123</ele>
        <time>2013-05-28T20:08:07Z</time>
      </trkpt>
      <trkpt lat="59.9855789" lon="17.593408">
        <ele>25.6123</ele>
        <time>2013-05-28T20:08:08Z</time>
      </trkpt>
      <trkpt lat="59.9854915" lon="17.5934361">
        <ele>25.6123</ele>
        <time>2013-05-28T20:08:09Z</time>
      </trkpt>
      <trkpt lat="59.9854035" lon="17.5934631">
        <ele>25.6123</ele>
        <time>2013-05-28T20:08:10Z</time>
      </trkpt>
      <trkpt lat="59.9853163" lon="17.593489">
        <ele>25.6123</ele>
        <time>2013-05-28T20:08:11Z</time>
      </trkpt>
      <trkpt lat="59.9852293" lon="17.5935131">
        <ele>25.1317</ele>
        <time>2013-05-28T20:08:12Z</time>
      </trkpt>
      <trkpt lat="59.9851421" lon="17.593535">
        <ele>25.1317</ele>
        <time>2013-05-28T20:08:13Z</time>
      </trkpt>
      <trkpt lat="59.9850541" lon="17.5935547">
        <ele>25.1317</ele>
        <time>2013-05-28T20:08:14Z</time>
      </trkpt>
      <trkpt lat="59.9849651" lon="17.5935719">
        <ele>24.651</ele>
        <time>2013-05-28T20:08:15Z</time>
      </trkpt>
      <trkpt lat="59.9848754" lon="17.5935888">
        <ele>24.651</ele>
        <time>2013-05-28T20:08:16Z</time>
      </trkpt>
      <trkpt lat="59.9847855" lon="17.5936065">
        <ele>24.651</ele>
        <time>2013-05-28T20:08:17Z</time>
      </trkpt>
      <trkpt lat="59.9846957" lon="17.5936265">
        <ele>24.651</ele>
        <time>2013-05-28T20:08:18Z</time>
      </trkpt>
      <trkpt lat="59.9846057" lon="17.5936536">
        <ele>24.651</ele>
        <time>2013-05-28T20:08:19Z</time>
      </trkpt>
      <trkpt lat="59.9845162" lon="17.5936916">
        <ele>24.651</ele>
        <time>2013-05-28T20:08:20Z</time>
      </trkpt>
      <trkpt lat="59.984428" lon="17.5937389">
        <ele>24.1703</ele>
        <time>2013-05-28T20:08:21Z</time>
      </trkpt>
      <trkpt lat="59.9843418" lon="17.5937914">
        <ele>24.1703</ele>
        <time>2013-05-28T20:08:22Z</time>
      </trkpt>
      <trkpt lat="59.9842569" lon="17.5938479">
        <ele>24.1703</ele>
        <time>2013-05-28T20:08:23Z</time>
      </trkpt>
      <trkpt lat="59.9841737" lon="17.5939094">
        <ele>24.1703</ele>
        <time>2013-05-28T20:08:24Z</time>
      </trkpt>
      <trkpt lat="59.9840917" lon="17.5939738">
        <ele>23.6896</ele>
        <time>2013-05-28T20:08:25Z</time>
      </trkpt>
      <trkpt lat="59.98401" lon="17.5940357">
        <ele>23.6896</ele>
        <time>2013-05-28T20:08:26Z</time>
      </trkpt>
      <trkpt lat="59.9839292" lon="17.5940924">
        <ele>23.6896</ele>
        <time>2013-05-28T20:08:27Z</time>
      </trkpt>
      <trkpt lat="59.9838499" lon="17.5941438">
        <ele>23.6896</ele>
        <time>2013-05-28T20:08:28Z</time>
      </trkpt>
      <trkpt lat="59.9837715" lon="17.5941925">
        <ele>23.6896</ele>
        <time>2013-05-28T20:08:29Z</time>
      </trkpt>
      <trkpt lat="59.9836147" lon="17.5942763">
        <ele>23.209</ele>
        <time>2013-05-28T20:08:30Z</time>
      </trkpt>
      <trkpt lat="59.983535" lon="17.5943125">
        <ele>23.209</ele>
        <time>2013-05-28T20:08:31Z</time>
      </trkpt>
      <trkpt lat="59.9834545" lon="17.5943434">
        <ele>23.209</ele>
        <time>2013-05-28T20:08:32Z</time>
      </trkpt>
      <trkpt lat="59.9833728" lon="17.5943716">
        <ele>23.209</ele>
        <time>2013-05-28T20:08:33Z</time>
      </trkpt>
      <trkpt lat="59.9832911" lon="17.5943975">
        <ele>23.209</ele>
        <time>2013-05-28T20:08:34Z</time>
      </trkpt>
      <trkpt lat="59.9832097" lon="17.5944224">
        <ele>23.209</ele>
        <time>2013-05-28T20:08:35Z</time>
      </trkpt>
      <trkpt lat="59.9831283" lon="17.5944489">
        <ele>23.209</ele>
        <time>2013-05-28T20:08:36Z</time>
      </trkpt>
      <trkpt lat="59.9830448" lon="17.5944803">
        <ele>23.6896</ele>
        <time>2013-05-28T20:08:37Z</time>
      </trkpt>
      <trkpt lat="59.9829605" lon="17.5945113">
        <ele>24.1703</ele>
        <time>2013-05-28T20:08:38Z</time>
      </trkpt>
      <trkpt lat="59.982876" lon="17.5945379">
        <ele>24.651</ele>
        <time>2013-05-28T20:08:39Z</time>
      </trkpt>
      <trkpt lat="59.9827912" lon="17.5945625">
        <ele>24.651</ele>
        <time>2013-05-28T20:08:40Z</time>
      </trkpt>
      <trkpt lat="59.9827067" lon="17.5945869">
        <ele>24.651</ele>
        <time>2013-05-28T20:08:41Z</time>
      </trkpt>
      <trkpt lat="59.9826222" lon="17.5946136">
        <ele>24.651</ele>
        <time>2013-05-28T20:08:42Z</time>
      </trkpt>
      <trkpt lat="59.9825387" lon="17.5946406">
        <ele>25.1317</ele>
        <time>2013-05-28T20:08:43Z</time>
      </trkpt>
      <trkpt lat="59.9824554" lon="17.5946657">
        <ele>25.1317</ele>
        <time>2013-05-28T20:08:44Z</time>
      </trkpt>
      <trkpt lat="59.9823726" lon="17.5946923">
        <ele>25.1317</ele>
        <time>2013-05-28T20:08:45Z</time>
      </trkpt>
      <trkpt lat="59.9822895" lon="17.5947217">
        <ele>25.1317</ele>
        <time>2013-05-28T20:08:46Z</time>
      </trkpt>
      <trkpt lat="59.9822037" lon="17.5947538">
        <ele>25.6123</ele>
        <time>2013-05-28T20:08:47Z</time>
      </trkpt>
      <trkpt lat="59.9821171" lon="17.594785">
        <ele>26.0929</ele>
        <time>2013-05-28T20:08:48Z</time>
      </trkpt>
      <trkpt lat="59.9820326" lon="17.5948151">
        <ele>26.0929</ele>
        <time>2013-05-28T20:08:49Z</time>
      </trkpt>
      <trkpt lat="59.9819487" lon="17.594849">
        <ele>26.0929</ele>
        <time>2013-05-28T20:08:50Z</time>
      </trkpt>
      <trkpt lat="59.9818652" lon="17.5948844">
        <ele>26.0929</ele>
        <time>2013-05-28T20:08:51Z</time>
      </trkpt>
      <trkpt lat="59.9817821" lon="17.5949212">
        <ele>26.5736</ele>
        <time>2013-05-28T20:08:52Z</time>
      </trkpt>
      <trkpt lat="59.9816997" lon="17.5949609">
        <ele>26.5736</ele>
        <time>2013-05-28T20:08:53Z</time>
      </trkpt>
      <trkpt lat="59.9816174" lon="17.5950023">
        <ele>26.5736</ele>
        <time>2013-05-28T20:08:54Z</time>
      </trkpt>
      <trkpt lat="59.9815354" lon="17.5950439">
        <ele>26.5736</ele>
        <time>2013-05-28T20:08:55Z</time>
      </trkpt>
      <trkpt lat="59.981454" lon="17.5950854">
        <ele>26.5736</ele>
        <time>2013-05-28T20:08:56Z</time>
      </trkpt>
      <trkpt lat="59.9813722" lon="17.5951259">
        <ele>26.5736</ele>
        <time>2013-05-28T20:08:57Z</time>
      </trkpt>
      <trkpt lat="59.9812907" lon="17.5951616">
        <ele>27.0543</ele>
        <time>2013-05-28T20:08:58Z</time>
      </trkpt>
      <trkpt lat="59.9812097" lon="17.5951932">
        <ele>27.0543</ele>
        <time>2013-05-28T20:08:59Z</time>
      </trkpt>
      <trkpt lat="59.9811292" lon="17.5952217">
        <ele>27.0543</ele>
        <time>2013-05-28T20:09:00Z</time>
      </trkpt>
      <trkpt lat="59.9810496" lon="17.5952474">
        <ele>27.0543</ele>
        <time>2013-05-28T20:09:01Z</time>
      </trkpt>
      <trkpt lat="59.9809711" lon="17.5952687">
        <ele>27.0543</ele>
        <time>2013-05-28T20:09:02Z</time>
      </trkpt>
      <trkpt lat="59.9808926" lon="17.5952839">
        <ele>27.0543</ele>
        <time>2013-05-28T20:09:03Z</time>
      </trkpt>
      <trkpt lat="59.9808139" lon="17.5952964">
        <ele>27.0543</ele>
        <time>2013-05-28T20:09:04Z</time>
      </trkpt>
      <trkpt lat="59.9807355" lon="17.5953072">
        <ele>27.0543</ele>
        <time>2013-05-28T20:09:05Z</time>
      </trkpt>
      <trkpt lat="59.9806558" lon="17.5953147">
        <ele>26.5736</ele>
        <time>2013-05-28T20:09:06Z</time>
      </trkpt>
      <trkpt lat="59.9805754" lon="17.5953205">
        <ele>26.5736</ele>
        <time>2013-05-28T20:09:07Z</time>
      </trkpt>
      <trkpt lat="59.9804948" lon="17.5953271">
        <ele>26.5736</ele>
        <time>2013-05-28T20:09:08Z</time>
      </trkpt>
      <trkpt lat="59.9804132" lon="17.5953336">
        <ele>26.5736</ele>
        <time>2013-05-28T20:09:09Z</time>
      </trkpt>
      <trkpt lat="59.980332" lon="17.5953375">
        <ele>27.0543</ele>
        <time>2013-05-28T20:09:10Z</time>
      </trkpt>
      <trkpt lat="59.9802519" lon="17.5953416">
        <ele>27.0543</ele>
        <time>2013-05-28T20:09:11Z</time>
      </trkpt>
      <trkpt lat="59.980173" lon="17.5953455">
        <ele>27.5349</ele>
        <time>2013-05-28T20:09:12Z</time>
      </trkpt>
      <trkpt lat="59.9800953" lon="17.5953471">
        <ele>27.5349</ele>
        <time>2013-05-28T20:09:13Z</time>
      </trkpt>
      <trkpt lat="59.9800178" lon="17.595346">
        <ele>28.0155</ele>
        <time>2013-05-28T20:09:14Z</time>
      </trkpt>
      <trkpt lat="59.9799421" lon="17.595345">
        <ele>28.0155</ele>
        <time>2013-05-28T20:09:15Z</time>
      </trkpt>
      <trkpt lat="59.9798673" lon="17.5953466">
        <ele>28.4962</ele>
        <time>2013-05-28T20:09:16Z</time>
      </trkpt>
      <trkpt lat="59.9797929" lon="17.5953507">
        <ele>28.9769</ele>
        <time>2013-05-28T20:09:17Z</time>
      </trkpt>
      <trkpt lat="59.9797197" lon="17.5953543">
        <ele>28.9769</ele>
        <time>2013-05-28T20:09:18Z</time>
      </trkpt>
      <trkpt lat="59.9796478" lon="17.5953559">
        <ele>29.4575</ele>
        <time>2013-05-28T20:09:19Z</time>
      </trkpt>
      <trkpt lat="59.9795769" lon="17.5953589">
        <ele>29.4575</ele>
        <time>2013-05-28T20:09:20Z</time>
      </trkpt>
      <trkpt lat="59.9795068" lon="17.5953651">
        <ele>29.9381</ele>
        <time>2013-05-28T20:09:21Z</time>
      </trkpt>
      <trkpt lat="59.979438" lon="17.5953765">
        <ele>30.4188</ele>
        <time>2013-05-28T20:09:22Z</time>
      </trkpt>
      <trkpt lat="59.9793707" lon="17.5953888">
        <ele>30.4188</ele>
        <time>2013-05-28T20:09:23Z</time>
      </trkpt>
      <trkpt lat="59.9793049" lon="17.5954018">
        <ele>30.8995</ele>
        <time>2013-05-28T20:09:24Z</time>
      </trkpt>
      <trkpt lat="59.9792417" lon="17.5954247">
        <ele>30.8995</ele>
        <time>2013-05-28T20:09:25Z</time>
      </trkpt>
      <trkpt lat="59.9791841" lon="17.5954625">
        <ele>30.8995</ele>
        <time>2013-05-28T20:09:26Z</time>
      </trkpt>
      <trkpt lat="59.9791365" lon="17.5955167">
        <ele>30.8995</ele>
        <time>2013-05-28T20:09:27Z</time>
      </trkpt>
      <trkpt lat="59.9791033" lon="17.5955848">
        <ele>33.3029</ele>
        <time>2013-05-28T20:09:28Z</time>
      </trkpt>
      <trkpt lat="59.9790786" lon="17.5956914">
        <ele>33.7834</ele>
        <time>2013-05-28T20:09:29Z</time>
      </trkpt>
      <trkpt lat="59.9790624" lon="17.5958109">
        <ele>32.8223</ele>
        <time>2013-05-28T20:09:30Z</time>
      </trkpt>
      <trkpt lat="59.9790509" lon="17.5959319">
        <ele>32.3416</ele>
        <time>2013-05-28T20:09:31Z</time>
      </trkpt>
      <trkpt lat="59.979047" lon="17.5960572">
        <ele>32.3416</ele>
        <time>2013-05-28T20:09:32Z</time>
      </trkpt>
      <trkpt lat="59.9790478" lon="17.5961974">
        <ele>32.8223</ele>
        <time>2013-05-28T20:09:33Z</time>
      </trkpt>
      <trkpt lat="59.9790652" lon="17.5963533">
        <ele>33.7834</ele>
        <time>2013-05-28T20:09:34Z</time>
      </trkpt>
      <trkpt lat="59.9790732" lon="17.5964839">
        <ele>34.7449</ele>
        <time>2013-05-28T20:09:35Z</time>
      </trkpt>
      <trkpt lat="59.9790827" lon="17.5966285">
        <ele>35.7061</ele>
        <time>2013-05-28T20:09:36Z</time>
      </trkpt>
      <trkpt lat="59.9790898" lon="17.5967684">
        <ele>36.6675</ele>
        <time>2013-05-28T20:09:37Z</time>
      </trkpt>
      <trkpt lat="59.9790966" lon="17.5969047">
        <ele>37.6287</ele>
        <time>2013-05-28T20:09:38Z</time>
      </trkpt>
      <trkpt lat="59.9790983" lon="17.5970309">
        <ele>38.5901</ele>
        <time>2013-05-28T20:09:39Z</time>
      </trkpt>
      <trkpt lat="59.9790998" lon="17.5971564">
        <ele>40.0321</ele>
        <time>2013-05-28T20:09:40Z</time>
      </trkpt>
      <trkpt lat="59.9790987" lon="17.5972823">
        <ele>40.5128</ele>
        <time>2013-05-28T20:09:41Z</time>
      </trkpt>
      <trkpt lat="59.9791024" lon="17.597417">
        <ele>40.5128</ele>
        <time>2013-05-28T20:09:42Z</time>
      </trkpt>
      <trkpt lat="59.9791028" lon="17.5975437">
        <ele>40.5128</ele>
        <time>2013-05-28T20:09:43Z</time>
      </trkpt>
      <trkpt lat="59.9791039" lon="17.597672">
        <ele>40.5128</ele>
        <time>2013-05-28T20:09:44Z</time>
      </trkpt>
      <trkpt lat="59.9791065" lon="17.5978015">
        <ele>40.9934</ele>
        <time>2013-05-28T20:09:45Z</time>
      </trkpt>
      <trkpt lat="59.9791071" lon="17.597926">
        <ele>41.474</ele>
        <time>2013-05-28T20:09:46Z</time>
      </trkpt>
      <trkpt lat="59.9791086" lon="17.5980583">
        <ele>41.474</ele>
        <time>2013-05-28T20:09:47Z</time>
      </trkpt>
      <trkpt lat="59.9791135" lon="17.5981933">
        <ele>42.4354</ele>
        <time>2013-05-28T20:09:48Z</time>
      </trkpt>
      <trkpt lat="59.97912" lon="17.5983285">
        <ele>43.3966</ele>
        <time>2013-05-28T20:09:49Z</time>
      </trkpt>
      <trkpt lat="59.9791231" lon="17.5984644">
        <ele>42.916</ele>
        <time>2013-05-28T20:09:50Z</time>
      </trkpt>
      <trkpt lat="59.9791231" lon="17.598597">
        <ele>41.474</ele>
        <time>2013-05-28T20:09:51Z</time>
      </trkpt>
      <trkpt lat="59.9791232" lon="17.5987315">
        <ele>40.5128</ele>
        <time>2013-05-28T20:09:52Z</time>
      </trkpt>
      <trkpt lat="59.9791235" lon="17.5988689">
        <ele>40.0321</ele>
        <time>2013-05-28T20:09:53Z</time>
      </trkpt>
      <trkpt lat="59.9791226" lon="17.599012">
        <ele>39.5513</ele>
        <time>2013-05-28T20:09:54Z</time>
      </trkpt>
      <trkpt lat="59.979121" lon="17.5991506">
        <ele>39.5513</ele>
        <time>2013-05-28T20:09:55Z</time>
      </trkpt>
      <trkpt lat="59.9791158" lon="17.5992854">
        <ele>37.6287</ele>
        <time>2013-05-28T20:09:56Z</time>
      </trkpt>
      <trkpt lat="59.9791082" lon="17.5994228">
        <ele>35.2255</ele>
        <time>2013-05-28T20:09:57Z</time>
      </trkpt>
      <trkpt lat="59.9790929" lon="17.5996988">
        <ele>34.2642</ele>
        <time>2013-05-28T20:09:58Z</time>
      </trkpt>
      <trkpt lat="59.9790788" lon="17.5998454">
        <ele>32.3416</ele>
        <time>2013-05-28T20:09:59Z</time>
      </trkpt>
      <trkpt lat="59.979061" lon="17.5999889">
        <ele>31.3801</ele>
        <time>2013-05-28T20:10:00Z</time>
      </trkpt>
      <trkpt lat="59.9790401" lon="17.6001263">
        <ele>29.9381</ele>
        <time>2013-05-28T20:10:01Z</time>
      </trkpt>
      <trkpt lat="59.9790191" lon="17.6002607">
        <ele>28.9769</ele>
        <time>2013-05-28T20:10:02Z</time>
      </trkpt>
      <trkpt lat="59.978995" lon="17.6003961">
        <ele>28.9769</ele>
        <time>2013-05-28T20:10:03Z</time>
      </trkpt>
      <trkpt lat="59.978966" lon="17.6005307">
        <ele>28.4962</ele>
        <time>2013-05-28T20:10:04Z</time>
      </trkpt>
      <trkpt lat="59.9789335" lon="17.6006633">
        <ele>28.4962</ele>
        <time>2013-05-28T20:10:05Z</time>
      </trkpt>
      <trkpt lat="59.9788978" lon="17.6007934">
        <ele>28.0155</ele>
        <time>2013-05-28T20:10:06Z</time>
      </trkpt>
      <trkpt lat="59.9788595" lon="17.6009212">
        <ele>28.0155</ele>
        <time>2013-05-28T20:10:07Z</time>
      </trkpt>
      <trkpt lat="59.9788191" lon="17.6010467">
        <ele>28.0155</ele>
        <time>2013-05-28T20:10:08Z</time>
      </trkpt>
      <trkpt lat="59.9787764" lon="17.6011715">
        <ele>28.0155</ele>
        <time>2013-05-28T20:10:09Z</time>
      </trkpt>
      <trkpt lat="59.9787311" lon="17.6012936">
        <ele>28.0155</ele>
        <time>2013-05-28T20:10:10Z</time>
      </trkpt>
      <trkpt lat="59.9786843" lon="17.6014128">
        <ele>28.0155</ele>
        <time>2013-05-28T20:10:11Z</time>
      </trkpt>
      <trkpt lat="59.9786376" lon="17.6015313">
        <ele>28.0155</ele>
        <time>2013-05-28T20:10:12Z</time>
      </trkpt>
      <trkpt lat="59.9785895" lon="17.6016496">
        <ele>28.0155</ele>
        <time>2013-05-28T20:10:13Z</time>
      </trkpt>
      <trkpt lat="59.9785403" lon="17.6017678">
        <ele>28.0155</ele>
        <time>2013-05-28T20:10:14Z</time>
      </trkpt>
      <trkpt lat="59.9784916" lon="17.6018865">
        <ele>28.0155</ele>
        <time>2013-05-28T20:10:15Z</time>
      </trkpt>
      <trkpt lat="59.978444" lon="17.6020049">
        <ele>28.4962</ele>
        <time>2013-05-28T20:10:16Z</time>
      </trkpt>
      <trkpt lat="59.9783971" lon="17.6021215">
        <ele>28.4962</ele>
        <time>2013-05-28T20:10:17Z</time>
      </trkpt>
      <trkpt lat="59.9783505" lon="17.6022365">
        <ele>28.0155</ele>
        <time>2013-05-28T20:10:18Z</time>
      </trkpt>
      <trkpt lat="59.9783044" lon="17.6023508">
        <ele>28.0155</ele>
        <time>2013-05-28T20:10:19Z</time>
      </trkpt>
      <trkpt lat="59.9782581" lon="17.6024624">
        <ele>28.0155</ele>
        <time>2013-05-28T20:10:20Z</time>
      </trkpt>
      <trkpt lat="59.978212" lon="17.6025708">
        <ele>28.0155</ele>
        <time>2013-05-28T20:10:21Z</time>
      </trkpt>
      <trkpt lat="59.9781667" lon="17.6026789">
        <ele>28.0155</ele>
        <time>2013-05-28T20:10:22Z</time>
      </trkpt>
      <trkpt lat="59.9781221" lon="17.6027878">
        <ele>27.5349</ele>
        <time>2013-05-28T20:10:23Z</time>
      </trkpt>
      <trkpt lat="59.9780777" lon="17.6028986">
        <ele>27.5349</ele>
        <time>2013-05-28T20:10:24Z</time>
      </trkpt>
      <trkpt lat="59.9780332" lon="17.6030106">
        <ele>27.5349</ele>
        <time>2013-05-28T20:10:25Z</time>
      </trkpt>
      <trkpt lat="59.9779876" lon="17.603123">
        <ele>27.5349</ele>
        <time>2013-05-28T20:10:26Z</time>
      </trkpt>
      <trkpt lat="59.9779405" lon="17.6032363">
        <ele>27.0543</ele>
        <time>2013-05-28T20:10:27Z</time>
      </trkpt>
      <trkpt lat="59.9778926" lon="17.6033508">
        <ele>27.0543</ele>
        <time>2013-05-28T20:10:28Z</time>
      </trkpt>
      <trkpt lat="59.9778441" lon="17.6034679">
        <ele>27.0543</ele>
        <time>2013-05-28T20:10:29Z</time>
      </trkpt>
      <trkpt lat="59.9777963" lon="17.6035871">
        <ele>27.0543</ele>
        <time>2013-05-28T20:10:30Z</time>
      </trkpt>
      <trkpt lat="59.9777483" lon="17.6037072">
        <ele>26.5736</ele>
        <time>2013-05-28T20:10:31Z</time>
      </trkpt>
      <trkpt lat="59.9776996" lon="17.6038272">
        <ele>26.5736</ele>
        <time>2013-05-28T20:10:32Z</time>
      </trkpt>
      <trkpt lat="59.9776504" lon="17.6039481">
        <ele>26.5736</ele>
        <time>2013-05-28T20:10:33Z</time>
      </trkpt>
      <trkpt lat="59.977602" lon="17.6040703">
        <ele>26.5736</ele>
        <time>2013-05-28T20:10:34Z</time>
      </trkpt>
      <trkpt lat="59.977554" lon="17.6041923">
        <ele>26.0929</ele>
        <time>2013-05-28T20:10:35Z</time>
      </trkpt>
      <trkpt lat="59.9775054" lon="17.6043127">
        <ele>26.0929</ele>
        <time>2013-05-28T20:10:36Z</time>
      </trkpt>
      <trkpt lat="59.9774561" lon="17.604432">
        <ele>26.0929</ele>
        <time>2013-05-28T20:10:37Z</time>
      </trkpt>
      <trkpt lat="59.9774069" lon="17.604551">
        <ele>26.0929</ele>
        <time>2013-05-28T20:10:38Z</time>
      </trkpt>
      <trkpt lat="59.9773581" lon="17.6046697">
        <ele>26.0929</ele>
        <time>2013-05-28T20:10:39Z</time>
      </trkpt>
      <trkpt lat="59.9773096" lon="17.6047886">
        <ele>26.0929</ele>
        <time>2013-05-28T20:10:40Z</time>
      </trkpt>
      <trkpt lat="59.9772619" lon="17.6049074">
        <ele>26.0929</ele>
        <time>2013-05-28T20:10:41Z</time>
      </trkpt>
      <trkpt lat="59.9772146" lon="17.6050266">
        <ele>26.0929</ele>
        <time>2013-05-28T20:10:42Z</time>
      </trkpt>
      <trkpt lat="59.9771672" lon="17.605146">
        <ele>26.0929</ele>
        <time>2013-05-28T20:10:43Z</time>
      </trkpt>
      <trkpt lat="59.9771193" lon="17.6052657">
        <ele>26.0929</ele>
        <time>2013-05-28T20:10:44Z</time>
      </trkpt>
      <trkpt lat="59.9770697" lon="17.605385">
        <ele>26.0929</ele>
        <time>2013-05-28T20:10:45Z</time>
      </trkpt>
      <trkpt lat="59.9770201" lon="17.605504">
        <ele>26.0929</ele>
        <time>2013-05-28T20:10:46Z</time>
      </trkpt>
      <trkpt lat="59.9769714" lon="17.6056222">
        <ele>26.0929</ele>
        <time>2013-05-28T20:10:47Z</time>
      </trkpt>
      <trkpt lat="59.9769236" lon="17.6057415">
        <ele>26.0929</ele>
        <time>2013-05-28T20:10:48Z</time>
      </trkpt>
      <trkpt lat="59.9768765" lon="17.6058615">
        <ele>26.5736</ele>
        <time>2013-05-28T20:10:49Z</time>
      </trkpt>
      <trkpt lat="59.9768288" lon="17.6059786">
        <ele>26.5736</ele>
        <time>2013-05-28T20:10:50Z</time>
      </trkpt>
      <trkpt lat="59.9767809" lon="17.6060936">
        <ele>26.5736</ele>
        <time>2013-05-28T20:10:51Z</time>
      </trkpt>
      <trkpt lat="59.9767334" lon="17.6062087">
        <ele>26.5736</ele>
        <time>2013-05-28T20:10:52Z</time>
      </trkpt>
      <trkpt lat="59.9766863" lon="17.6063256">
        <ele>26.5736</ele>
        <time>2013-05-28T20:10:53Z</time>
      </trkpt>
      <trkpt lat="59.9766391" lon="17.6064433">
        <ele>26.5736</ele>
        <time>2013-05-28T20:10:54Z</time>
      </trkpt>
      <trkpt lat="59.9765919" lon="17.6065619">
        <ele>26.5736</ele>
        <time>2013-05-28T20:10:55Z</time>
      </trkpt>
      <trkpt lat="59.9765439" lon="17.6066805">
        <ele>26.5736</ele>
        <time>2013-05-28T20:10:56Z</time>
      </trkpt>
      <trkpt lat="59.9764953" lon="17.6067977">
        <ele>26.5736</ele>
        <time>2013-05-28T20:10:57Z</time>
      </trkpt>
      <trkpt lat="59.9764466" lon="17.6069152">
        <ele>26.5736</ele>
        <time>2013-05-28T20:10:58Z</time>
      </trkpt>
      <trkpt lat="59.9763987" lon="17.6070318">
        <ele>26.5736</ele>
        <time>2013-05-28T20:10:59Z</time>
      </trkpt>
      <trkpt lat="59.9763512" lon="17.6071479">
        <ele>26.5736</ele>
        <time>2013-05-28T20:11:00Z</time>
      </trkpt>
      <trkpt lat="59.9763046" lon="17.6072652">
        <ele>26.5736</ele>
        <time>2013-05-28T20:11:01Z</time>
      </trkpt>
      <trkpt lat="59.9762585" lon="17.6073836">
        <ele>26.5736</ele>
        <time>2013-05-28T20:11:02Z</time>
      </trkpt>
      <trkpt lat="59.9762138" lon="17.6075041">
        <ele>26.5736</ele>
        <time>2013-05-28T20:11:03Z</time>
      </trkpt>
      <trkpt lat="59.9761708" lon="17.6076276">
        <ele>26.5736</ele>
        <time>2013-05-28T20:11:04Z</time>
      </trkpt>
      <trkpt lat="59.9761295" lon="17.6077539">
        <ele>26.5736</ele>
        <time>2013-05-28T20:11:05Z</time>
      </trkpt>
      <trkpt lat="59.9760911" lon="17.6078838">
        <ele>27.0543</ele>
        <time>2013-05-28T20:11:06Z</time>
      </trkpt>
      <trkpt lat="59.9760557" lon="17.6080176">
        <ele>27.0543</ele>
        <time>2013-05-28T20:11:07Z</time>
      </trkpt>
      <trkpt lat="59.9760223" lon="17.608156">
        <ele>27.5349</ele>
        <time>2013-05-28T20:11:08Z</time>
      </trkpt>
      <trkpt lat="59.9759922" lon="17.608296">
        <ele>27.5349</ele>
        <time>2013-05-28T20:11:09Z</time>
      </trkpt>
      <trkpt lat="59.9759656" lon="17.608439">
        <ele>28.0155</ele>
        <time>2013-05-28T20:11:10Z</time>
      </trkpt>
      <trkpt lat="59.9759415" lon="17.6085822">
        <ele>28.0155</ele>
        <time>2013-05-28T20:11:11Z</time>
      </trkpt>
      <trkpt lat="59.9759213" lon="17.6087257">
        <ele>28.4962</ele>
        <time>2013-05-28T20:11:12Z</time>
      </trkpt>
      <trkpt lat="59.975904" lon="17.6088702">
        <ele>28.4962</ele>
        <time>2013-05-28T20:11:13Z</time>
      </trkpt>
      <trkpt lat="59.9758906" lon="17.6090151">
        <ele>29.4575</ele>
        <time>2013-05-28T20:11:14Z</time>
      </trkpt>
      <trkpt lat="59.9758776" lon="17.6091593">
        <ele>29.4575</ele>
        <time>2013-05-28T20:11:15Z</time>
      </trkpt>
      <trkpt lat="59.97587" lon="17.6092974">
        <ele>30.8995</ele>
        <time>2013-05-28T20:11:16Z</time>
      </trkpt>
      <trkpt lat="59.9758622" lon="17.6094331">
        <ele>31.3801</ele>
        <time>2013-05-28T20:11:17Z</time>
      </trkpt>
      <trkpt lat="59.9758566" lon="17.6095695">
        <ele>31.8607</ele>
        <time>2013-05-28T20:11:18Z</time>
      </trkpt>
      <trkpt lat="59.9758545" lon="17.6097083">
        <ele>32.8223</ele>
        <time>2013-05-28T20:11:19Z</time>
      </trkpt>
      <trkpt lat="59.9758539" lon="17.6098524">
        <ele>33.7834</ele>
        <time>2013-05-28T20:11:20Z</time>
      </trkpt>
      <trkpt lat="59.9758537" lon="17.6099961">
        <ele>34.7449</ele>
        <time>2013-05-28T20:11:21Z</time>
      </trkpt>
      <trkpt lat="59.9758523" lon="17.6101306">
        <ele>34.7449</ele>
        <time>2013-05-28T20:11:22Z</time>
      </trkpt>
      <trkpt lat="59.9758528" lon="17.6102631">
        <ele>34.7449</ele>
        <time>2013-05-28T20:11:23Z</time>
      </trkpt>
      <trkpt lat="59.9758565" lon="17.6104009">
        <ele>34.2642</ele>
        <time>2013-05-28T20:11:24Z</time>
      </trkpt>
      <trkpt lat="59.9758622" lon="17.6105438">
        <ele>34.2642</ele>
        <time>2013-05-28T20:11:25Z</time>
      </trkpt>
      <trkpt lat="59.9758694" lon="17.6106809">
        <ele>34.2642</ele>
        <time>2013-05-28T20:11:26Z</time>
      </trkpt>
      <trkpt lat="59.9758773" lon="17.6108198">
        <ele>34.2642</ele>
        <time>2013-05-28T20:11:27Z</time>
      </trkpt>
      <trkpt lat="59.9758871" lon="17.6109608">
        <ele>34.2642</ele>
        <time>2013-05-28T20:11:28Z</time>
      </trkpt>
      <trkpt lat="59.9758977" lon="17.6111037">
        <ele>34.2642</ele>
        <time>2013-05-28T20:11:29Z</time>
      </trkpt>
      <trkpt lat="59.9759109" lon="17.6112425">
        <ele>34.2642</ele>
        <time>2013-05-28T20:11:30Z</time>
      </trkpt>
      <trkpt lat="59.9759254" lon="17.6113794">
        <ele>33.7834</ele>
        <time>2013-05-28T20:11:31Z</time>
      </trkpt>
      <trkpt lat="59.9759421" lon="17.6115176">
        <ele>34.2642</ele>
        <time>2013-05-28T20:11:32Z</time>
      </trkpt>
      <trkpt lat="59.9759605" lon="17.6116595">
        <ele>33.7834</ele>
        <time>2013-05-28T20:11:33Z</time>
      </trkpt>
      <trkpt lat="59.9759794" lon="17.6118016">
        <ele>33.3029</ele>
        <time>2013-05-28T20:11:34Z</time>
      </trkpt>
      <trkpt lat="59.9759978" lon="17.6119475">
        <ele>32.3416</ele>
        <time>2013-05-28T20:11:35Z</time>
      </trkpt>
      <trkpt lat="59.9760171" lon="17.6121034">
        <ele>31.8607</ele>
        <time>2013-05-28T20:11:36Z</time>
      </trkpt>
      <trkpt lat="59.9760368" lon="17.612256">
        <ele>31.3801</ele>
        <time>2013-05-28T20:11:37Z</time>
      </trkpt>
      <trkpt lat="59.9760566" lon="17.6124077">
        <ele>31.3801</ele>
        <time>2013-05-28T20:11:38Z</time>
      </trkpt>
      <trkpt lat="59.9760761" lon="17.6125611">
        <ele>31.3801</ele>
        <time>2013-05-28T20:11:39Z</time>
      </trkpt>
      <trkpt lat="59.9760963" lon="17.6127149">
        <ele>31.3801</ele>
        <time>2013-05-28T20:11:40Z</time>
      </trkpt>
      <trkpt lat="59.9761191" lon="17.6128682">
        <ele>32.3416</ele>
        <time>2013-05-28T20:11:41Z</time>
      </trkpt>
      <trkpt lat="59.9761424" lon="17.6130174">
        <ele>32.8223</ele>
        <time>2013-05-28T20:11:42Z</time>
      </trkpt>
      <trkpt lat="59.9761658" lon="17.6131653">
        <ele>33.3029</ele>
        <time>2013-05-28T20:11:43Z</time>
      </trkpt>
      <trkpt lat="59.9761857" lon="17.6133168">
        <ele>31.8607</ele>
        <time>2013-05-28T20:11:44Z</time>
      </trkpt>
      <trkpt lat="59.9762078" lon="17.6134639">
        <ele>32.3416</ele>
        <time>2013-05-28T20:11:45Z</time>
      </trkpt>
      <trkpt lat="59.9762295" lon="17.613609">
        <ele>31.8607</ele>
        <time>2013-05-28T20:11:46Z</time>
      </trkpt>
      <trkpt lat="59.9762518" lon="17.6137508">
        <ele>31.8607</ele>
        <time>2013-05-28T20:11:47Z</time>
      </trkpt>
      <trkpt lat="59.9762754" lon="17.6138893">
        <ele>32.3416</ele>
        <time>2013-05-28T20:11:48Z</time>
      </trkpt>
      <trkpt lat="59.976299" lon="17.6140273">
        <ele>32.3416</ele>
        <time>2013-05-28T20:11:49Z</time>
      </trkpt>
      <trkpt lat="59.9763248" lon="17.6141625">
        <ele>32.3416</ele>
        <time>2013-05-28T20:11:50Z</time>
      </trkpt>
      <trkpt lat="59.9763534" lon="17.6142932">
        <ele>32.3416</ele>
        <time>2013-05-28T20:11:51Z</time>
      </trkpt>
      <trkpt lat="59.9763854" lon="17.6144215">
        <ele>32.8223</ele>
        <time>2013-05-28T20:11:52Z</time>
      </trkpt>
      <trkpt lat="59.9764192" lon="17.6145486">
        <ele>33.3029</ele>
        <time>2013-05-28T20:11:53Z</time>
      </trkpt>
      <trkpt lat="59.9764539" lon="17.6146733">
        <ele>33.3029</ele>
        <time>2013-05-28T20:11:54Z</time>
      </trkpt>
      <trkpt lat="59.9764905" lon="17.6147947">
        <ele>33.7834</ele>
        <time>2013-05-28T20:11:55Z</time>
      </trkpt>
      <trkpt lat="59.97653" lon="17.6149128">
        <ele>34.2642</ele>
        <time>2013-05-28T20:11:56Z</time>
      </trkpt>
      <trkpt lat="59.9765712" lon="17.6150268">
        <ele>34.2642</ele>
        <time>2013-05-28T20:11:57Z</time>
      </trkpt>
      <trkpt lat="59.9766153" lon="17.615137">
        <ele>34.2642</ele>
        <time>2013-05-28T20:11:58Z</time>
      </trkpt>
      <trkpt lat="59.9766623" lon="17.6152447">
        <ele>34.2642</ele>
        <time>2013-05-28T20:11:59Z</time>
      </trkpt>
      <trkpt lat="59.9767115" lon="17.615349">
        <ele>33.7834</ele>
        <time>2013-05-28T20:12:00Z</time>
      </trkpt>
      <trkpt lat="59.9767629" lon="17.6154485">
        <ele>33.7834</ele>
        <time>2013-05-28T20:12:01Z</time>
      </trkpt>
      <trkpt lat="59.9768156" lon="17.6155448">
        <ele>33.7834</ele>
        <time>2013-05-28T20:12:02Z</time>
      </trkpt>
      <trkpt lat="59.9768697" lon="17.6156375">
        <ele>33.7834</ele>
        <time>2013-05-28T20:12:03Z</time>
      </trkpt>
      <trkpt lat="59.9769284" lon="17.6157255">
        <ele>34.2642</ele>
        <time>2013-05-28T20:12:04Z</time>
      </trkpt>
      <trkpt lat="59.9769867" lon="17.6158125">
        <ele>34.2642</ele>
        <time>2013-05-28T20:12:05Z</time>
      </trkpt>
      <trkpt lat="59.9770467" lon="17.6158934">
        <ele>33.7834</ele>
        <time>2013-05-28T20:12:06Z</time>
      </trkpt>
      <trkpt lat="59.9771125" lon="17.6159673">
        <ele>34.2642</ele>
        <time>2013-05-28T20:12:07Z</time>
      </trkpt>
      <trkpt lat="59.9771778" lon="17.6160383">
        <ele>34.2642</ele>
        <time>2013-05-28T20:12:08Z</time>
      </trkpt>
      <trkpt lat="59.9772433" lon="17.6161052">
        <ele>34.7449</ele>
        <time>2013-05-28T20:12:09Z</time>
      </trkpt>
      <trkpt lat="59.977313" lon="17.6161642">
        <ele>35.7061</ele>
        <time>2013-05-28T20:12:10Z</time>
      </trkpt>
      <trkpt lat="59.9773837" lon="17.6162236">
        <ele>34.7449</ele>
        <time>2013-05-28T20:12:11Z</time>
      </trkpt>
      <trkpt lat="59.9774572" lon="17.6162744">
        <ele>34.2642</ele>
        <time>2013-05-28T20:12:12Z</time>
      </trkpt>
      <trkpt lat="59.9775321" lon="17.6163193">
        <ele>34.2642</ele>
        <time>2013-05-28T20:12:13Z</time>
      </trkpt>
      <trkpt lat="59.9776039" lon="17.6163591">
        <ele>34.7449</ele>
        <time>2013-05-28T20:12:14Z</time>
      </trkpt>
      <trkpt lat="59.9776701" lon="17.6163927">
        <ele>32.8223</ele>
        <time>2013-05-28T20:12:15Z</time>
      </trkpt>
      <trkpt lat="59.977739" lon="17.6164368">
        <ele>32.8223</ele>
        <time>2013-05-28T20:12:16Z</time>
      </trkpt>
      <trkpt lat="59.9778037" lon="17.6164884">
        <ele>32.3416</ele>
        <time>2013-05-28T20:12:17Z</time>
      </trkpt>
      <trkpt lat="59.9778679" lon="17.6165332">
        <ele>28.9769</ele>
        <time>2013-05-28T20:12:18Z</time>
      </trkpt>
      <trkpt lat="59.9779353" lon="17.6165686">
        <ele>27.5349</ele>
        <time>2013-05-28T20:12:19Z</time>
      </trkpt>
      <trkpt lat="59.9779939" lon="17.6166179">
        <ele>23.6896</ele>
        <time>2013-05-28T20:12:20Z</time>
      </trkpt>
      <trkpt lat="59.9780568" lon="17.6166681">
        <ele>21.2864</ele>
        <time>2013-05-28T20:12:21Z</time>
      </trkpt>
      <trkpt lat="59.9781311" lon="17.6167092">
        <ele>22.2476</ele>
        <time>2013-05-28T20:12:22Z</time>
      </trkpt>
      <trkpt lat="59.9782009" lon="17.6167631">
        <ele>23.209</ele>
        <time>2013-05-28T20:12:23Z</time>
      </trkpt>
      <trkpt lat="59.9782739" lon="17.6168165">
        <ele>23.209</ele>
        <time>2013-05-28T20:12:24Z</time>
      </trkpt>
      <trkpt lat="59.9783533" lon="17.6168646">
        <ele>24.1703</ele>
        <time>2013-05-28T20:12:25Z</time>
      </trkpt>
      <trkpt lat="59.9784304" lon="17.6169179">
        <ele>24.651</ele>
        <time>2013-05-28T20:12:26Z</time>
      </trkpt>
      <trkpt lat="59.978503" lon="17.6169791">
        <ele>24.651</ele>
        <time>2013-05-28T20:12:27Z</time>
      </trkpt>
      <trkpt lat="59.9785719" lon="17.6170302">
        <ele>24.651</ele>
        <time>2013-05-28T20:12:28Z</time>
      </trkpt>
      <trkpt lat="59.9786418" lon="17.6170951">
        <ele>24.651</ele>
        <time>2013-05-28T20:12:29Z</time>
      </trkpt>
      <trkpt lat="59.9787112" lon="17.6171563">
        <ele>24.651</ele>
        <time>2013-05-28T20:12:30Z</time>
      </trkpt>
      <trkpt lat="59.9787808" lon="17.617211">
        <ele>25.1317</ele>
        <time>2013-05-28T20:12:31Z</time>
      </trkpt>
      <trkpt lat="59.9788505" lon="17.6172687">
        <ele>25.1317</ele>
        <time>2013-05-28T20:12:32Z</time>
      </trkpt>
      <trkpt lat="59.9789193" lon="17.6173267">
        <ele>25.6123</ele>
        <time>2013-05-28T20:12:33Z</time>
      </trkpt>
      <trkpt lat="59.9789878" lon="17.6173888">
        <ele>25.6123</ele>
        <time>2013-05-28T20:12:34Z</time>
      </trkpt>
      <trkpt lat="59.9790561" lon="17.6174521">
        <ele>26.0929</ele>
        <time>2013-05-28T20:12:35Z</time>
      </trkpt>
      <trkpt lat="59.9791246" lon="17.6175132">
        <ele>26.0929</ele>
        <time>2013-05-28T20:12:36Z</time>
      </trkpt>
      <trkpt lat="59.9791924" lon="17.6175655">
        <ele>26.5736</ele>
        <time>2013-05-28T20:12:37Z</time>
      </trkpt>
      <trkpt lat="59.9792597" lon="17.617622">
        <ele>26.5736</ele>
        <time>2013-05-28T20:12:38Z</time>
      </trkpt>
      <trkpt lat="59.9793272" lon="17.61768">
        <ele>27.0543</ele>
        <time>2013-05-28T20:12:39Z</time>
      </trkpt>
      <trkpt lat="59.979395" lon="17.617736">
        <ele>27.0543</ele>
        <time>2013-05-28T20:12:40Z</time>
      </trkpt>
      <trkpt lat="59.9794629" lon="17.6177906">
        <ele>27.0543</ele>
        <time>2013-05-28T20:12:41Z</time>
      </trkpt>
      <trkpt lat="59.9795313" lon="17.6178441">
        <ele>27.5349</ele>
        <time>2013-05-28T20:12:42Z</time>
      </trkpt>
      <trkpt lat="59.9795985" lon="17.6179027">
        <ele>27.5349</ele>
        <time>2013-05-28T20:12:43Z</time>
      </trkpt>
      <trkpt lat="59.9796671" lon="17.6179618">
        <ele>27.5349</ele>
        <time>2013-05-28T20:12:44Z</time>
      </trkpt>
      <trkpt lat="59.9797363" lon="17.6180168">
        <ele>28.0155</ele>
        <time>2013-05-28T20:12:45Z</time>
      </trkpt>
      <trkpt lat="59.979804" lon="17.6180672">
        <ele>28.0155</ele>
        <time>2013-05-28T20:12:46Z</time>
      </trkpt>
      <trkpt lat="59.9798736" lon="17.6181213">
        <ele>27.5349</ele>
        <time>2013-05-28T20:12:47Z</time>
      </trkpt>
      <trkpt lat="59.9799426" lon="17.6181751">
        <ele>28.0155</ele>
        <time>2013-05-28T20:12:48Z</time>
      </trkpt>
      <trkpt lat="59.9800126" lon="17.6182338">
        <ele>28.0155</ele>
        <time>2013-05-28T20:12:49Z</time>
      </trkpt>
      <trkpt lat="59.9800833" lon="17.6182943">
        <ele>28.0155</ele>
        <time>2013-05-28T20:12:50Z</time>
      </trkpt>
      <trkpt lat="59.980153" lon="17.618352">
        <ele>28.0155</ele>
        <time>2013-05-28T20:12:51Z</time>
      </trkpt>
      <trkpt lat="59.9802216" lon="17.6184108">
        <ele>28.0155</ele>
        <time>2013-05-28T20:12:52Z</time>
      </trkpt>
      <trkpt lat="59.9802891" lon="17.6184728">
        <ele>28.0155</ele>
        <time>2013-05-28T20:12:53Z</time>
      </trkpt>
      <trkpt lat="59.9803554" lon="17.6185382">
        <ele>28.0155</ele>
        <time>2013-05-28T20:12:54Z</time>
      </trkpt>
      <trkpt lat="59.9804207" lon="17.618608">
        <ele>28.0155</ele>
        <time>2013-05-28T20:12:55Z</time>
      </trkpt>
      <trkpt lat="59.9804854" lon="17.6186868">
        <ele>28.0155</ele>
        <time>2013-05-28T20:12:56Z</time>
      </trkpt>
      <trkpt lat="59.9805458" lon="17.6187645">
        <ele>28.0155</ele>
        <time>2013-05-28T20:12:57Z</time>
      </trkpt>
      <trkpt lat="59.980603" lon="17.6188503">
        <ele>28.0155</ele>
        <time>2013-05-28T20:12:58Z</time>
      </trkpt>
      <trkpt lat="59.9806595" lon="17.618944">
        <ele>28.0155</ele>
        <time>2013-05-28T20:12:59Z</time>
      </trkpt>
      <trkpt lat="59.9807119" lon="17.6190445">
        <ele>28.0155</ele>
        <time>2013-05-28T20:13:00Z</time>
      </trkpt>
      <trkpt lat="59.980763" lon="17.6191504">
        <ele>28.0155</ele>
        <time>2013-05-28T20:13:01Z</time>
      </trkpt>
      <trkpt lat="59.9808127" lon="17.619261">
        <ele>28.0155</ele>
        <time>2013-05-28T20:13:02Z</time>
      </trkpt>
      <trkpt lat="59.9808584" lon="17.6193759">
        <ele>27.5349</ele>
        <time>2013-05-28T20:13:03Z</time>
      </trkpt>
      <trkpt lat="59.9809009" lon="17.6194949">
        <ele>27.5349</ele>
        <time>2013-05-28T20:13:04Z</time>
      </trkpt>
      <trkpt lat="59.9809421" lon="17.6196179">
        <ele>27.5349</ele>
        <time>2013-05-28T20:13:05Z</time>
      </trkpt>
      <trkpt lat="59.9809805" lon="17.6197448">
        <ele>27.5349</ele>
        <time>2013-05-28T20:13:06Z</time>
      </trkpt>
      <trkpt lat="59.9810136" lon="17.6198759">
        <ele>27.5349</ele>
        <time>2013-05-28T20:13:07Z</time>
      </trkpt>
      <trkpt lat="59.9810438" lon="17.620011">
        <ele>28.0155</ele>
        <time>2013-05-28T20:13:08Z</time>
      </trkpt>
      <trkpt lat="59.9810687" lon="17.6201484">
        <ele>28.0155</ele>
        <time>2013-05-28T20:13:09Z</time>
      </trkpt>
      <trkpt lat="59.9810898" lon="17.6202876">
        <ele>28.0155</ele>
        <time>2013-05-28T20:13:10Z</time>
      </trkpt>
      <trkpt lat="59.9811081" lon="17.6204283">
        <ele>28.0155</ele>
        <time>2013-05-28T20:13:11Z</time>
      </trkpt>
      <trkpt lat="59.9811247" lon="17.6205714">
        <ele>27.5349</ele>
        <time>2013-05-28T20:13:12Z</time>
      </trkpt>
      <trkpt lat="59.981139" lon="17.6207166">
        <ele>27.5349</ele>
        <time>2013-05-28T20:13:13Z</time>
      </trkpt>
      <trkpt lat="59.9811526" lon="17.6208641">
        <ele>27.5349</ele>
        <time>2013-05-28T20:13:14Z</time>
      </trkpt>
      <trkpt lat="59.9811659" lon="17.6210139">
        <ele>27.0543</ele>
        <time>2013-05-28T20:13:15Z</time>
      </trkpt>
      <trkpt lat="59.9811789" lon="17.6211655">
        <ele>27.0543</ele>
        <time>2013-05-28T20:13:16Z</time>
      </trkpt>
      <trkpt lat="59.9811909" lon="17.6213191">
        <ele>27.0543</ele>
        <time>2013-05-28T20:13:17Z</time>
      </trkpt>
      <trkpt lat="59.9812018" lon="17.6214745">
        <ele>27.0543</ele>
        <time>2013-05-28T20:13:18Z</time>
      </trkpt>
      <trkpt lat="59.9812132" lon="17.6216308">
        <ele>27.0543</ele>
        <time>2013-05-28T20:13:19Z</time>
      </trkpt>
      <trkpt lat="59.9812257" lon="17.6217882">
        <ele>26.5736</ele>
        <time>2013-05-28T20:13:20Z</time>
      </trkpt>
      <trkpt lat="59.9812376" lon="17.6219462">
        <ele>26.5736</ele>
        <time>2013-05-28T20:13:21Z</time>
      </trkpt>
      <trkpt lat="59.9812496" lon="17.6221042">
        <ele>26.5736</ele>
        <time>2013-05-28T20:13:22Z</time>
      </trkpt>
      <trkpt lat="59.9812614" lon="17.6222617">
        <ele>26.5736</ele>
        <time>2013-05-28T20:13:23Z</time>
      </trkpt>
      <trkpt lat="59.981274" lon="17.6224198">
        <ele>26.0929</ele>
        <time>2013-05-28T20:13:24Z</time>
      </trkpt>
      <trkpt lat="59.9812876" lon="17.6225782">
        <ele>26.0929</ele>
        <time>2013-05-28T20:13:25Z</time>
      </trkpt>
      <trkpt lat="59.9813008" lon="17.6227369">
        <ele>25.6123</ele>
        <time>2013-05-28T20:13:26Z</time>
      </trkpt>
      <trkpt lat="59.9813133" lon="17.6228961">
        <ele>25.6123</ele>
        <time>2013-05-28T20:13:27Z</time>
      </trkpt>
      <trkpt lat="59.9813265" lon="17.6230552">
        <ele>25.6123</ele>
        <time>2013-05-28T20:13:28Z</time>
      </trkpt>
      <trkpt lat="59.9813396" lon="17.6232116">
        <ele>25.6123</ele>
        <time>2013-05-28T20:13:29Z</time>
      </trkpt>
      <trkpt lat="59.9813517" lon="17.6233672">
        <ele>25.6123</ele>
        <time>2013-05-28T20:13:30Z</time>
      </trkpt>
      <trkpt lat="59.9813649" lon="17.6235205">
        <ele>25.6123</ele>
        <time>2013-05-28T20:13:31Z</time>
      </trkpt>
      <trkpt lat="59.9813781" lon="17.6236697">
        <ele>25.6123</ele>
        <time>2013-05-28T20:13:32Z</time>
      </trkpt>
      <trkpt lat="59.9813904" lon="17.6238174">
        <ele>26.0929</ele>
        <time>2013-05-28T20:13:33Z</time>
      </trkpt>
      <trkpt lat="59.9814023" lon="17.6239634">
        <ele>26.0929</ele>
        <time>2013-05-28T20:13:34Z</time>
      </trkpt>
      <trkpt lat="59.9814146" lon="17.624107">
        <ele>26.5736</ele>
        <time>2013-05-28T20:13:35Z</time>
      </trkpt>
      <trkpt lat="59.9814267" lon="17.6242485">
        <ele>26.5736</ele>
        <time>2013-05-28T20:13:36Z</time>
      </trkpt>
      <trkpt lat="59.9814373" lon="17.6243882">
        <ele>26.5736</ele>
        <time>2013-05-28T20:13:37Z</time>
      </trkpt>
      <trkpt lat="59.9814473" lon="17.6245255">
        <ele>26.5736</ele>
        <time>2013-05-28T20:13:38Z</time>
      </trkpt>
      <trkpt lat="59.9814578" lon="17.6246607">
        <ele>26.5736</ele>
        <time>2013-05-28T20:13:39Z</time>
      </trkpt>
      <trkpt lat="59.9814679" lon="17.6247955">
        <ele>26.5736</ele>
        <time>2013-05-28T20:13:40Z</time>
      </trkpt>
      <trkpt lat="59.9814774" lon="17.6249312">
        <ele>26.5736</ele>
        <time>2013-05-28T20:13:41Z</time>
      </trkpt>
      <trkpt lat="59.9814879" lon="17.6250663">
        <ele>26.5736</ele>
        <time>2013-05-28T20:13:42Z</time>
      </trkpt>
      <trkpt lat="59.9814986" lon="17.6252004">
        <ele>26.5736</ele>
        <time>2013-05-28T20:13:43Z</time>
      </trkpt>
      <trkpt lat="59.9815084" lon="17.6253346">
        <ele>26.5736</ele>
        <time>2013-05-28T20:13:44Z</time>
      </trkpt>
      <trkpt lat="59.9815188" lon="17.6254682">
        <ele>26.5736</ele>
        <time>2013-05-28T20:13:45Z</time>
      </trkpt>
      <trkpt lat="59.9815302" lon="17.6256004">
        <ele>26.5736</ele>
        <time>2013-05-28T20:13:46Z</time>
      </trkpt>
      <trkpt lat="59.9815404" lon="17.6257328">
        <ele>26.0929</ele>
        <time>2013-05-28T20:13:47Z</time>
      </trkpt>
      <trkpt lat="59.9815492" lon="17.6258652">
        <ele>26.0929</ele>
        <time>2013-05-28T20:13:48Z</time>
      </trkpt>
      <trkpt lat="59.9815581" lon="17.6259976">
        <ele>26.0929</ele>
        <time>2013-05-28T20:13:49Z</time>
      </trkpt>
      <trkpt lat="59.9815671" lon="17.6261296">
        <ele>26.0929</ele>
        <time>2013-05-28T20:13:50Z</time>
      </trkpt>
      <trkpt lat="59.9815764" lon="17.6262614">
        <ele>26.0929</ele>
        <time>2013-05-28T20:13:51Z</time>
      </trkpt>
      <trkpt lat="59.9815857" lon="17.6263937">
        <ele>25.6123</ele>
        <time>2013-05-28T20:13:52Z</time>
      </trkpt>
      <trkpt lat="59.9815944" lon="17.626526">
        <ele>25.6123</ele>
        <time>2013-05-28T20:13:53Z</time>
      </trkpt>
      <trkpt lat="59.9816013" lon="17.6266588">
        <ele>25.6123</ele>
        <time>2013-05-28T20:13:54Z</time>
      </trkpt>
      <trkpt lat="59.9816073" lon="17.6267919">
        <ele>25.6123</ele>
        <time>2013-05-28T20:13:55Z</time>
      </trkpt>
      <trkpt lat="59.9816125" lon="17.6269249">
        <ele>25.6123</ele>
        <time>2013-05-28T20:13:56Z</time>
      </trkpt>
      <trkpt lat="59.9816172" lon="17.6270591">
        <ele>25.1317</ele>
        <time>2013-05-28T20:13:57Z</time>
      </trkpt>
      <trkpt lat="59.981622" lon="17.6271953">
        <ele>25.1317</ele>
        <time>2013-05-28T20:13:58Z</time>
      </trkpt>
      <trkpt lat="59.9816266" lon="17.6273329">
        <ele>24.651</ele>
        <time>2013-05-28T20:13:59Z</time>
      </trkpt>
      <trkpt lat="59.9816302" lon="17.6274714">
        <ele>24.651</ele>
        <time>2013-05-28T20:14:00Z</time>
      </trkpt>
      <trkpt lat="59.9816345" lon="17.6276097">
        <ele>24.651</ele>
        <time>2013-05-28T20:14:01Z</time>
      </trkpt>
      <trkpt lat="59.98164" lon="17.6277475">
        <ele>24.1703</ele>
        <time>2013-05-28T20:14:02Z</time>
      </trkpt>
      <trkpt lat="59.9816458" lon="17.6278848">
        <ele>24.1703</ele>
        <time>2013-05-28T20:14:03Z</time>
      </trkpt>
      <trkpt lat="59.9816505" lon="17.6280226">
        <ele>24.1703</ele>
        <time>2013-05-28T20:14:04Z</time>
      </trkpt>
      <trkpt lat="59.9816533" lon="17.6281615">
        <ele>24.1703</ele>
        <time>2013-05-28T20:14:05Z</time>
      </trkpt>
      <trkpt lat="59.9816565" lon="17.6283022">
        <ele>24.1703</ele>
        <time>2013-05-28T20:14:06Z</time>
      </trkpt>
      <trkpt lat="59.9816611" lon="17.628444">
        <ele>24.1703</ele>
        <time>2013-05-28T20:14:07Z</time>
      </trkpt>
      <trkpt lat="59.981666" lon="17.6285866">
        <ele>24.1703</ele>
        <time>2013-05-28T20:14:08Z</time>
      </trkpt>
      <trkpt lat="59.9816702" lon="17.6287291">
        <ele>24.651</ele>
        <time>2013-05-28T20:14:09Z</time>
      </trkpt>
      <trkpt lat="59.9816738" lon="17.6288712">
        <ele>24.651</ele>
        <time>2013-05-28T20:14:10Z</time>
      </trkpt>
      <trkpt lat="59.9816779" lon="17.629012">
        <ele>24.651</ele>
        <time>2013-05-28T20:14:11Z</time>
      </trkpt>
      <trkpt lat="59.981682" lon="17.6291513">
        <ele>25.1317</ele>
        <time>2013-05-28T20:14:12Z</time>
      </trkpt>
      <trkpt lat="59.9816858" lon="17.6292889">
        <ele>25.1317</ele>
        <time>2013-05-28T20:14:13Z</time>
      </trkpt>
      <trkpt lat="59.9816901" lon="17.6294246">
        <ele>25.6123</ele>
        <time>2013-05-28T20:14:14Z</time>
      </trkpt>
      <trkpt lat="59.981694" lon="17.6295593">
        <ele>26.0929</ele>
        <time>2013-05-28T20:14:15Z</time>
      </trkpt>
      <trkpt lat="59.9816972" lon="17.6296937">
        <ele>26.0929</ele>
        <time>2013-05-28T20:14:16Z</time>
      </trkpt>
      <trkpt lat="59.9817013" lon="17.6298263">
        <ele>26.5736</ele>
        <time>2013-05-28T20:14:17Z</time>
      </trkpt>
      <trkpt lat="59.981706" lon="17.6299574">
        <ele>27.0543</ele>
        <time>2013-05-28T20:14:18Z</time>
      </trkpt>
      <trkpt lat="59.9817101" lon="17.6300884">
        <ele>27.0543</ele>
        <time>2013-05-28T20:14:19Z</time>
      </trkpt>
      <trkpt lat="59.9817147" lon="17.6302195">
        <ele>27.5349</ele>
        <time>2013-05-28T20:14:20Z</time>
      </trkpt>
      <trkpt lat="59.9817199" lon="17.63035">
        <ele>28.0155</ele>
        <time>2013-05-28T20:14:21Z</time>
      </trkpt>
      <trkpt lat="59.9817246" lon="17.6304803">
        <ele>28.4962</ele>
        <time>2013-05-28T20:14:22Z</time>
      </trkpt>
      <trkpt lat="59.9817282" lon="17.6306098">
        <ele>28.9769</ele>
        <time>2013-05-28T20:14:23Z</time>
      </trkpt>
      <trkpt lat="59.9817322" lon="17.6307398">
        <ele>29.4575</ele>
        <time>2013-05-28T20:14:24Z</time>
      </trkpt>
      <trkpt lat="59.9817368" lon="17.6308712">
        <ele>29.9381</ele>
        <time>2013-05-28T20:14:25Z</time>
      </trkpt>
      <trkpt lat="59.9817412" lon="17.6310043">
        <ele>29.9381</ele>
        <time>2013-05-28T20:14:26Z</time>
      </trkpt>
      <trkpt lat="59.9817457" lon="17.6311388">
        <ele>30.4188</ele>
        <time>2013-05-28T20:14:27Z</time>
      </trkpt>
      <trkpt lat="59.98175" lon="17.6312726">
        <ele>30.8995</ele>
        <time>2013-05-28T20:14:28Z</time>
      </trkpt>
      <trkpt lat="59.9817542" lon="17.631405">
        <ele>31.3801</ele>
        <time>2013-05-28T20:14:29Z</time>
      </trkpt>
      <trkpt lat="59.9817587" lon="17.6315371">
        <ele>31.8607</ele>
        <time>2013-05-28T20:14:30Z</time>
      </trkpt>
      <trkpt lat="59.9817635" lon="17.6316694">
        <ele>32.3416</ele>
        <time>2013-05-28T20:14:31Z</time>
      </trkpt>
      <trkpt lat="59.9817684" lon="17.631803">
        <ele>32.3416</ele>
        <time>2013-05-28T20:14:32Z</time>
      </trkpt>
      <trkpt lat="59.9817731" lon="17.6319361">
        <ele>32.8223</ele>
        <time>2013-05-28T20:14:33Z</time>
      </trkpt>
      <trkpt lat="59.9817769" lon="17.6320677">
        <ele>33.3029</ele>
        <time>2013-05-28T20:14:34Z</time>
      </trkpt>
      <trkpt lat="59.981781" lon="17.6321975">
        <ele>33.3029</ele>
        <time>2013-05-28T20:14:35Z</time>
      </trkpt>
      <trkpt lat="59.981786" lon="17.6323253">
        <ele>33.7834</ele>
        <time>2013-05-28T20:14:36Z</time>
      </trkpt>
      <trkpt lat="59.9817903" lon="17.6324514">
        <ele>34.2642</ele>
        <time>2013-05-28T20:14:37Z</time>
      </trkpt>
      <trkpt lat="59.981794" lon="17.6325748">
        <ele>34.2642</ele>
        <time>2013-05-28T20:14:38Z</time>
      </trkpt>
      <trkpt lat="59.9817976" lon="17.6326955">
        <ele>34.7449</ele>
        <time>2013-05-28T20:14:39Z</time>
      </trkpt>
      <trkpt lat="59.9818012" lon="17.6328142">
        <ele>34.7449</ele>
        <time>2013-05-28T20:14:40Z</time>
      </trkpt>
      <trkpt lat="59.9818039" lon="17.6329312">
        <ele>35.2255</ele>
        <time>2013-05-28T20:14:41Z</time>
      </trkpt>
      <trkpt lat="59.9818073" lon="17.6330478">
        <ele>35.7061</ele>
        <time>2013-05-28T20:14:42Z</time>
      </trkpt>
      <trkpt lat="59.9818109" lon="17.6331641">
        <ele>36.1868</ele>
        <time>2013-05-28T20:14:43Z</time>
      </trkpt>
      <trkpt lat="59.9818131" lon="17.6332804">
        <ele>36.6675</ele>
        <time>2013-05-28T20:14:44Z</time>
      </trkpt>
      <trkpt lat="59.9818132" lon="17.6333948">
        <ele>37.1481</ele>
        <time>2013-05-28T20:14:45Z</time>
      </trkpt>
      <trkpt lat="59.981812" lon="17.6335061">
        <ele>37.6287</ele>
        <time>2013-05-28T20:14:46Z</time>
      </trkpt>
      <trkpt lat="59.9818079" lon="17.6336151">
        <ele>38.1094</ele>
        <time>2013-05-28T20:14:47Z</time>
      </trkpt>
      <trkpt lat="59.9818017" lon="17.6337222">
        <ele>38.5901</ele>
        <time>2013-05-28T20:14:48Z</time>
      </trkpt>
      <trkpt lat="59.9817928" lon="17.6338283">
        <ele>39.0707</ele>
        <time>2013-05-28T20:14:49Z</time>
      </trkpt>
      <trkpt lat="59.9817841" lon="17.6339351">
        <ele>39.0707</ele>
        <time>2013-05-28T20:14:50Z</time>
      </trkpt>
      <trkpt lat="59.9817743" lon="17.634051">
        <ele>37.1481</ele>
        <time>2013-05-28T20:14:51Z</time>
      </trkpt>
      <trkpt lat="59.9817635" lon="17.6341624">
        <ele>35.7061</ele>
        <time>2013-05-28T20:14:52Z</time>
      </trkpt>
      <trkpt lat="59.9817555" lon="17.6342683">
        <ele>35.7061</ele>
        <time>2013-05-28T20:14:53Z</time>
      </trkpt>
      <trkpt lat="59.9817472" lon="17.6343744">
        <ele>35.2255</ele>
        <time>2013-05-28T20:14:54Z</time>
      </trkpt>
      <trkpt lat="59.9817393" lon="17.6344792">
        <ele>35.2255</ele>
        <time>2013-05-28T20:14:55Z</time>
      </trkpt>
      <trkpt lat="59.9817286" lon="17.6345821">
        <ele>34.7449</ele>
        <time>2013-05-28T20:14:56Z</time>
      </trkpt>
      <trkpt lat="59.9817157" lon="17.634684">
        <ele>34.7449</ele>
        <time>2013-05-28T20:14:57Z</time>
      </trkpt>
      <trkpt lat="59.9817016" lon="17.6347842">
        <ele>34.7449</ele>
        <time>2013-05-28T20:14:58Z</time>
      </trkpt>
      <trkpt lat="59.9816871" lon="17.6348865">
        <ele>35.2255</ele>
        <time>2013-05-28T20:14:59Z</time>
      </trkpt>
      <trkpt lat="59.9816702" lon="17.6349909">
        <ele>35.2255</ele>
        <time>2013-05-28T20:15:00Z</time>
      </trkpt>
      <trkpt lat="59.981651" lon="17.635097">
        <ele>35.7061</ele>
        <time>2013-05-28T20:15:01Z</time>
      </trkpt>
      <trkpt lat="59.9816313" lon="17.6352041">
        <ele>35.7061</ele>
        <time>2013-05-28T20:15:02Z</time>
      </trkpt>
      <trkpt lat="59.9816107" lon="17.6353115">
        <ele>35.7061</ele>
        <time>2013-05-28T20:15:03Z</time>
      </trkpt>
      <trkpt lat="59.9815898" lon="17.6354182">
        <ele>36.1868</ele>
        <time>2013-05-28T20:15:04Z</time>
      </trkpt>
      <trkpt lat="59.9815668" lon="17.6355238">
        <ele>36.1868</ele>
        <time>2013-05-28T20:15:05Z</time>
      </trkpt>
      <trkpt lat="59.9815425" lon="17.635629">
        <ele>36.6675</ele>
        <time>2013-05-28T20:15:06Z</time>
      </trkpt>
      <trkpt lat="59.9815162" lon="17.6357335">
        <ele>36.6675</ele>
        <time>2013-05-28T20:15:07Z</time>
      </trkpt>
      <trkpt lat="59.9814882" lon="17.6358372">
        <ele>37.1481</ele>
        <time>2013-05-28T20:15:08Z</time>
      </trkpt>
      <trkpt lat="59.9814593" lon="17.6359412">
        <ele>37.1481</ele>
        <time>2013-05-28T20:15:09Z</time>
      </trkpt>
      <trkpt lat="59.9814293" lon="17.6360459">
        <ele>37.6287</ele>
        <time>2013-05-28T20:15:10Z</time>
      </trkpt>
      <trkpt lat="59.9813976" lon="17.6361516">
        <ele>37.6287</ele>
        <time>2013-05-28T20:15:11Z</time>
      </trkpt>
      <trkpt lat="59.9813627" lon="17.6362563">
        <ele>37.6287</ele>
        <time>2013-05-28T20:15:12Z</time>
      </trkpt>
      <trkpt lat="59.9813262" lon="17.6363595">
        <ele>37.6287</ele>
        <time>2013-05-28T20:15:13Z</time>
      </trkpt>
      <trkpt lat="59.9812895" lon="17.6364616">
        <ele>37.6287</ele>
        <time>2013-05-28T20:15:14Z</time>
      </trkpt>
      <trkpt lat="59.9812521" lon="17.6365624">
        <ele>37.6287</ele>
        <time>2013-05-28T20:15:15Z</time>
      </trkpt>
      <trkpt lat="59.9812134" lon="17.636662">
        <ele>37.6287</ele>
        <time>2013-05-28T20:15:16Z</time>
      </trkpt>
      <trkpt lat="59.9811739" lon="17.6367594">
        <ele>37.6287</ele>
        <time>2013-05-28T20:15:17Z</time>
      </trkpt>
      <trkpt lat="59.9811335" lon="17.6368551">
        <ele>38.1094</ele>
        <time>2013-05-28T20:15:18Z</time>
      </trkpt>
      <trkpt lat="59.9810915" lon="17.6369493">
        <ele>38.1094</ele>
        <time>2013-05-28T20:15:19Z</time>
      </trkpt>
      <trkpt lat="59.981048" lon="17.6370394">
        <ele>38.1094</ele>
        <time>2013-05-28T20:15:20Z</time>
      </trkpt>
      <trkpt lat="59.9810054" lon="17.6371277">
        <ele>38.5901</ele>
        <time>2013-05-28T20:15:21Z</time>
      </trkpt>
      <trkpt lat="59.9809649" lon="17.6372144">
        <ele>39.0707</ele>
        <time>2013-05-28T20:15:22Z</time>
      </trkpt>
      <trkpt lat="59.9809242" lon="17.6372982">
        <ele>38.5901</ele>
        <time>2013-05-28T20:15:23Z</time>
      </trkpt>
      <trkpt lat="59.9808822" lon="17.6373823">
        <ele>39.0707</ele>
        <time>2013-05-28T20:15:24Z</time>
      </trkpt>
      <trkpt lat="59.9808387" lon="17.6374675">
        <ele>39.0707</ele>
        <time>2013-05-28T20:15:25Z</time>
      </trkpt>
      <trkpt lat="59.9807942" lon="17.6375524">
        <ele>39.0707</ele>
        <time>2013-05-28T20:15:26Z</time>
      </trkpt>
      <trkpt lat="59.9807428" lon="17.6376335">
        <ele>33.7834</ele>
        <time>2013-05-28T20:15:27Z</time>
      </trkpt>
      <trkpt lat="59.980702" lon="17.637717">
        <ele>34.2642</ele>
        <time>2013-05-28T20:15:28Z</time>
      </trkpt>
      <trkpt lat="59.9806619" lon="17.6378005">
        <ele>35.2255</ele>
        <time>2013-05-28T20:15:29Z</time>
      </trkpt>
      <trkpt lat="59.980622" lon="17.6378819">
        <ele>35.7061</ele>
        <time>2013-05-28T20:15:30Z</time>
      </trkpt>
      <trkpt lat="59.9805828" lon="17.6379596">
        <ele>36.6675</ele>
        <time>2013-05-28T20:15:31Z</time>
      </trkpt>
      <trkpt lat="59.9805451" lon="17.6380345">
        <ele>37.1481</ele>
        <time>2013-05-28T20:15:32Z</time>
      </trkpt>
      <trkpt lat="59.9805076" lon="17.6381102">
        <ele>37.6287</ele>
        <time>2013-05-28T20:15:33Z</time>
      </trkpt>
      <trkpt lat="59.9804712" lon="17.6381864">
        <ele>38.1094</ele>
        <time>2013-05-28T20:15:34Z</time>
      </trkpt>
      <trkpt lat="59.9804355" lon="17.63826">
        <ele>38.5901</ele>
        <time>2013-05-28T20:15:35Z</time>
      </trkpt>
      <trkpt lat="59.9803995" lon="17.6383351">
        <ele>39.0707</ele>
        <time>2013-05-28T20:15:36Z</time>
      </trkpt>
      <trkpt lat="59.9803645" lon="17.6384123">
        <ele>39.5513</ele>
        <time>2013-05-28T20:15:37Z</time>
      </trkpt>
      <trkpt lat="59.9803295" lon="17.6384906">
        <ele>40.0321</ele>
        <time>2013-05-28T20:15:38Z</time>
      </trkpt>
      <trkpt lat="59.9802953" lon="17.6385677">
        <ele>40.5128</ele>
        <time>2013-05-28T20:15:39Z</time>
      </trkpt>
      <trkpt lat="59.9802622" lon="17.6386443">
        <ele>40.5128</ele>
        <time>2013-05-28T20:15:40Z</time>
      </trkpt>
      <trkpt lat="59.980231" lon="17.638721">
        <ele>40.5128</ele>
        <time>2013-05-28T20:15:41Z</time>
      </trkpt>
      <trkpt lat="59.9802011" lon="17.6387999">
        <ele>40.9934</ele>
        <time>2013-05-28T20:15:42Z</time>
      </trkpt>
      <trkpt lat="59.9801705" lon="17.6388807">
        <ele>41.474</ele>
        <time>2013-05-28T20:15:43Z</time>
      </trkpt>
      <trkpt lat="59.9801415" lon="17.6389638">
        <ele>41.9547</ele>
        <time>2013-05-28T20:15:44Z</time>
      </trkpt>
      <trkpt lat="59.9801149" lon="17.63905">
        <ele>42.916</ele>
        <time>2013-05-28T20:15:45Z</time>
      </trkpt>
      <trkpt lat="59.9800881" lon="17.6391344">
        <ele>43.8773</ele>
        <time>2013-05-28T20:15:46Z</time>
      </trkpt>
      <trkpt lat="59.9800586" lon="17.6392121">
        <ele>43.3966</ele>
        <time>2013-05-28T20:15:47Z</time>
      </trkpt>
      <trkpt lat="59.9800322" lon="17.639299">
        <ele>43.8773</ele>
        <time>2013-05-28T20:15:48Z</time>
      </trkpt>
      <trkpt lat="59.9800073" lon="17.6393855">
        <ele>44.358</ele>
        <time>2013-05-28T20:15:49Z</time>
      </trkpt>
      <trkpt lat="59.9799823" lon="17.6394688">
        <ele>44.358</ele>
        <time>2013-05-28T20:15:50Z</time>
      </trkpt>
      <trkpt lat="59.9799602" lon="17.6395498">
        <ele>44.8386</ele>
        <time>2013-05-28T20:15:51Z</time>
      </trkpt>
      <trkpt lat="59.979939" lon="17.6396281">
        <ele>44.8386</ele>
        <time>2013-05-28T20:15:52Z</time>
      </trkpt>
      <trkpt lat="59.9799187" lon="17.6397073">
        <ele>44.8386</ele>
        <time>2013-05-28T20:15:53Z</time>
      </trkpt>
      <trkpt lat="59.9798988" lon="17.639789">
        <ele>44.8386</ele>
        <time>2013-05-28T20:15:54Z</time>
      </trkpt>
      <trkpt lat="59.9798792" lon="17.6398722">
        <ele>44.358</ele>
        <time>2013-05-28T20:15:55Z</time>
      </trkpt>
      <trkpt lat="59.9798612" lon="17.6399574">
        <ele>44.8386</ele>
        <time>2013-05-28T20:15:56Z</time>
      </trkpt>
      <trkpt lat="59.979843" lon="17.640045">
        <ele>44.358</ele>
        <time>2013-05-28T20:15:57Z</time>
      </trkpt>
      <trkpt lat="59.9798254" lon="17.640136">
        <ele>44.358</ele>
        <time>2013-05-28T20:15:58Z</time>
      </trkpt>
      <trkpt lat="59.9798074" lon="17.6402287">
        <ele>44.358</ele>
        <time>2013-05-28T20:15:59Z</time>
      </trkpt>
      <trkpt lat="59.9797888" lon="17.6403228">
        <ele>44.8386</ele>
        <time>2013-05-28T20:16:00Z</time>
      </trkpt>
      <trkpt lat="59.9797706" lon="17.6404178">
        <ele>44.8386</ele>
        <time>2013-05-28T20:16:01Z</time>
      </trkpt>
      <trkpt lat="59.9797528" lon="17.6405139">
        <ele>44.8386</ele>
        <time>2013-05-28T20:16:02Z</time>
      </trkpt>
      <trkpt lat="59.9797348" lon="17.6406128">
        <ele>44.358</ele>
        <time>2013-05-28T20:16:03Z</time>
      </trkpt>
      <trkpt lat="59.9797173" lon="17.6407132">
        <ele>44.358</ele>
        <time>2013-05-28T20:16:04Z</time>
      </trkpt>
      <trkpt lat="59.9797022" lon="17.6408153">
        <ele>44.8386</ele>
        <time>2013-05-28T20:16:05Z</time>
      </trkpt>
      <trkpt lat="59.9796862" lon="17.6409193">
        <ele>44.8386</ele>
        <time>2013-05-28T20:16:06Z</time>
      </trkpt>
      <trkpt lat="59.9796706" lon="17.6410257">
        <ele>45.3192</ele>
        <time>2013-05-28T20:16:07Z</time>
      </trkpt>
      <trkpt lat="59.9796545" lon="17.6411345">
        <ele>44.8386</ele>
        <time>2013-05-28T20:16:08Z</time>
      </trkpt>
      <trkpt lat="59.9796394" lon="17.6412457">
        <ele>44.8386</ele>
        <time>2013-05-28T20:16:09Z</time>
      </trkpt>
      <trkpt lat="59.9796244" lon="17.6413607">
        <ele>44.358</ele>
        <time>2013-05-28T20:16:10Z</time>
      </trkpt>
      <trkpt lat="59.97961" lon="17.6414803">
        <ele>44.8386</ele>
        <time>2013-05-28T20:16:11Z</time>
      </trkpt>
      <trkpt lat="59.9795955" lon="17.6416022">
        <ele>45.3192</ele>
        <time>2013-05-28T20:16:12Z</time>
      </trkpt>
      <trkpt lat="59.9795815" lon="17.6417285">
        <ele>45.7999</ele>
        <time>2013-05-28T20:16:13Z</time>
      </trkpt>
      <trkpt lat="59.9795682" lon="17.6418586">
        <ele>45.7999</ele>
        <time>2013-05-28T20:16:14Z</time>
      </trkpt>
      <trkpt lat="59.9795561" lon="17.6419917">
        <ele>45.7999</ele>
        <time>2013-05-28T20:16:15Z</time>
      </trkpt>
      <trkpt lat="59.979544" lon="17.6421269">
        <ele>45.3192</ele>
        <time>2013-05-28T20:16:16Z</time>
      </trkpt>
      <trkpt lat="59.9795328" lon="17.6422642">
        <ele>44.8386</ele>
        <time>2013-05-28T20:16:17Z</time>
      </trkpt>
      <trkpt lat="59.979522" lon="17.6424039">
        <ele>44.358</ele>
        <time>2013-05-28T20:16:18Z</time>
      </trkpt>
      <trkpt lat="59.9795109" lon="17.6425461">
        <ele>43.3966</ele>
        <time>2013-05-28T20:16:19Z</time>
      </trkpt>
      <trkpt lat="59.9794991" lon="17.6426885">
        <ele>42.916</ele>
        <time>2013-05-28T20:16:20Z</time>
      </trkpt>
      <trkpt lat="59.9794876" lon="17.642834">
        <ele>42.916</ele>
        <time>2013-05-28T20:16:21Z</time>
      </trkpt>
      <trkpt lat="59.9794739" lon="17.6429844">
        <ele>43.3966</ele>
        <time>2013-05-28T20:16:22Z</time>
      </trkpt>
      <trkpt lat="59.9794594" lon="17.643138">
        <ele>42.916</ele>
        <time>2013-05-28T20:16:23Z</time>
      </trkpt>
      <trkpt lat="59.9794438" lon="17.643293">
        <ele>43.3966</ele>
        <time>2013-05-28T20:16:24Z</time>
      </trkpt>
      <trkpt lat="59.9794287" lon="17.643451">
        <ele>42.916</ele>
        <time>2013-05-28T20:16:25Z</time>
      </trkpt>
      <trkpt lat="59.9794136" lon="17.643613">
        <ele>42.916</ele>
        <time>2013-05-28T20:16:26Z</time>
      </trkpt>
      <trkpt lat="59.9793987" lon="17.6437783">
        <ele>42.916</ele>
        <time>2013-05-28T20:16:27Z</time>
      </trkpt>
      <trkpt lat="59.9793841" lon="17.6439457">
        <ele>43.3966</ele>
        <time>2013-05-28T20:16:28Z</time>
      </trkpt>
      <trkpt lat="59.9793692" lon="17.6441133">
        <ele>43.3966</ele>
        <time>2013-05-28T20:16:29Z</time>
      </trkpt>
      <trkpt lat="59.9793546" lon="17.6442822">
        <ele>43.3966</ele>
        <time>2013-05-28T20:16:30Z</time>
      </trkpt>
      <trkpt lat="59.9793382" lon="17.6444507">
        <ele>43.3966</ele>
        <time>2013-05-28T20:16:31Z</time>
      </trkpt>
      <trkpt lat="59.9793197" lon="17.6446185">
        <ele>43.3966</ele>
        <time>2013-05-28T20:16:32Z</time>
      </trkpt>
      <trkpt lat="59.9792993" lon="17.6447846">
        <ele>43.3966</ele>
        <time>2013-05-28T20:16:33Z</time>
      </trkpt>
      <trkpt lat="59.9792767" lon="17.6449481">
        <ele>43.3966</ele>
        <time>2013-05-28T20:16:34Z</time>
      </trkpt>
      <trkpt lat="59.9792516" lon="17.6451051">
        <ele>43.8773</ele>
        <time>2013-05-28T20:16:35Z</time>
      </trkpt>
      <trkpt lat="59.9792234" lon="17.6452588">
        <ele>43.8773</ele>
        <time>2013-05-28T20:16:36Z</time>
      </trkpt>
      <trkpt lat="59.9791926" lon="17.6454099">
        <ele>43.8773</ele>
        <time>2013-05-28T20:16:37Z</time>
      </trkpt>
      <trkpt lat="59.9791607" lon="17.6455591">
        <ele>43.8773</ele>
        <time>2013-05-28T20:16:38Z</time>
      </trkpt>
      <trkpt lat="59.9791266" lon="17.6457043">
        <ele>43.8773</ele>
        <time>2013-05-28T20:16:39Z</time>
      </trkpt>
      <trkpt lat="59.9790894" lon="17.6458456">
        <ele>43.8773</ele>
        <time>2013-05-28T20:16:40Z</time>
      </trkpt>
      <trkpt lat="59.9790514" lon="17.6459833">
        <ele>43.8773</ele>
        <time>2013-05-28T20:16:41Z</time>
      </trkpt>
      <trkpt lat="59.9790122" lon="17.6461183">
        <ele>43.8773</ele>
        <time>2013-05-28T20:16:42Z</time>
      </trkpt>
      <trkpt lat="59.9789646" lon="17.6462487">
        <ele>39.5513</ele>
        <time>2013-05-28T20:16:43Z</time>
      </trkpt>
      <trkpt lat="59.9789179" lon="17.646374">
        <ele>36.6675</ele>
        <time>2013-05-28T20:16:44Z</time>
      </trkpt>
      <trkpt lat="59.9788738" lon="17.6464954">
        <ele>36.1868</ele>
        <time>2013-05-28T20:16:45Z</time>
      </trkpt>
      <trkpt lat="59.9788287" lon="17.6466159">
        <ele>36.1868</ele>
        <time>2013-05-28T20:16:46Z</time>
      </trkpt>
      <trkpt lat="59.9787825" lon="17.6467345">
        <ele>36.1868</ele>
        <time>2013-05-28T20:16:47Z</time>
      </trkpt>
      <trkpt lat="59.9787336" lon="17.6468501">
        <ele>35.7061</ele>
        <time>2013-05-28T20:16:48Z</time>
      </trkpt>
      <trkpt lat="59.9786832" lon="17.6469651">
        <ele>35.7061</ele>
        <time>2013-05-28T20:16:49Z</time>
      </trkpt>
      <trkpt lat="59.9786298" lon="17.6470776">
        <ele>33.7834</ele>
        <time>2013-05-28T20:16:50Z</time>
      </trkpt>
      <trkpt lat="59.9785766" lon="17.6471865">
        <ele>32.3416</ele>
        <time>2013-05-28T20:16:51Z</time>
      </trkpt>
      <trkpt lat="59.9785223" lon="17.6472931">
        <ele>30.8995</ele>
        <time>2013-05-28T20:16:52Z</time>
      </trkpt>
      <trkpt lat="59.9784668" lon="17.6473986">
        <ele>29.9381</ele>
        <time>2013-05-28T20:16:53Z</time>
      </trkpt>
      <trkpt lat="59.9784109" lon="17.6475027">
        <ele>29.4575</ele>
        <time>2013-05-28T20:16:54Z</time>
      </trkpt>
      <trkpt lat="59.9783559" lon="17.6476066">
        <ele>28.9769</ele>
        <time>2013-05-28T20:16:55Z</time>
      </trkpt>
      <trkpt lat="59.9783018" lon="17.6477104">
        <ele>28.4962</ele>
        <time>2013-05-28T20:16:56Z</time>
      </trkpt>
      <trkpt lat="59.9782481" lon="17.6478163">
        <ele>28.0155</ele>
        <time>2013-05-28T20:16:57Z</time>
      </trkpt>
      <trkpt lat="59.9781952" lon="17.6479249">
        <ele>28.0155</ele>
        <time>2013-05-28T20:16:58Z</time>
      </trkpt>
      <trkpt lat="59.9781441" lon="17.6480358">
        <ele>27.5349</ele>
        <time>2013-05-28T20:16:59Z</time>
      </trkpt>
      <trkpt lat="59.9780946" lon="17.6481497">
        <ele>27.5349</ele>
        <time>2013-05-28T20:17:00Z</time>
      </trkpt>
      <trkpt lat="59.9780465" lon="17.6482654">
        <ele>27.0543</ele>
        <time>2013-05-28T20:17:01Z</time>
      </trkpt>
      <trkpt lat="59.9779996" lon="17.648383">
        <ele>27.0543</ele>
        <time>2013-05-28T20:17:02Z</time>
      </trkpt>
      <trkpt lat="59.9779551" lon="17.6485031">
        <ele>27.0543</ele>
        <time>2013-05-28T20:17:03Z</time>
      </trkpt>
      <trkpt lat="59.9779125" lon="17.6486241">
        <ele>26.5736</ele>
        <time>2013-05-28T20:17:04Z</time>
      </trkpt>
      <trkpt lat="59.9778704" lon="17.6487454">
        <ele>26.5736</ele>
        <time>2013-05-28T20:17:05Z</time>
      </trkpt>
      <trkpt lat="59.9778291" lon="17.6488678">
        <ele>26.5736</ele>
        <time>2013-05-28T20:17:06Z</time>
      </trkpt>
      <trkpt lat="59.9777898" lon="17.6489933">
        <ele>26.5736</ele>
        <time>2013-05-28T20:17:07Z</time>
      </trkpt>
      <trkpt lat="59.9777529" lon="17.6491238">
        <ele>26.0929</ele>
        <time>2013-05-28T20:17:08Z</time>
      </trkpt>
      <trkpt lat="59.977718" lon="17.6492573">
        <ele>26.0929</ele>
        <time>2013-05-28T20:17:09Z</time>
      </trkpt>
      <trkpt lat="59.9776857" lon="17.6493931">
        <ele>26.0929</ele>
        <time>2013-05-28T20:17:10Z</time>
      </trkpt>
      <trkpt lat="59.9776556" lon="17.6495308">
        <ele>26.0929</ele>
        <time>2013-05-28T20:17:11Z</time>
      </trkpt>
      <trkpt lat="59.9776265" lon="17.6496686">
        <ele>26.0929</ele>
        <time>2013-05-28T20:17:12Z</time>
      </trkpt>
      <trkpt lat="59.9775987" lon="17.6498066">
        <ele>26.0929</ele>
        <time>2013-05-28T20:17:13Z</time>
      </trkpt>
      <trkpt lat="59.9775726" lon="17.6499458">
        <ele>25.6123</ele>
        <time>2013-05-28T20:17:14Z</time>
      </trkpt>
      <trkpt lat="59.9775478" lon="17.6500871">
        <ele>25.6123</ele>
        <time>2013-05-28T20:17:15Z</time>
      </trkpt>
      <trkpt lat="59.977525" lon="17.650231">
        <ele>25.6123</ele>
        <time>2013-05-28T20:17:16Z</time>
      </trkpt>
      <trkpt lat="59.9775033" lon="17.6503768">
        <ele>25.6123</ele>
        <time>2013-05-28T20:17:17Z</time>
      </trkpt>
      <trkpt lat="59.9774805" lon="17.6505233">
        <ele>25.6123</ele>
        <time>2013-05-28T20:17:18Z</time>
      </trkpt>
      <trkpt lat="59.9774577" lon="17.6506709">
        <ele>25.6123</ele>
        <time>2013-05-28T20:17:19Z</time>
      </trkpt>
      <trkpt lat="59.9774358" lon="17.6508185">
        <ele>25.6123</ele>
        <time>2013-05-28T20:17:20Z</time>
      </trkpt>
      <trkpt lat="59.9774142" lon="17.6509651">
        <ele>26.0929</ele>
        <time>2013-05-28T20:17:21Z</time>
      </trkpt>
      <trkpt lat="59.9773929" lon="17.6511107">
        <ele>26.0929</ele>
        <time>2013-05-28T20:17:22Z</time>
      </trkpt>
      <trkpt lat="59.9773728" lon="17.6512556">
        <ele>26.0929</ele>
        <time>2013-05-28T20:17:23Z</time>
      </trkpt>
      <trkpt lat="59.977353" lon="17.6513994">
        <ele>26.0929</ele>
        <time>2013-05-28T20:17:24Z</time>
      </trkpt>
      <trkpt lat="59.9773328" lon="17.6515417">
        <ele>26.5736</ele>
        <time>2013-05-28T20:17:25Z</time>
      </trkpt>
      <trkpt lat="59.9773129" lon="17.651683">
        <ele>26.5736</ele>
        <time>2013-05-28T20:17:26Z</time>
      </trkpt>
      <trkpt lat="59.9772938" lon="17.6518226">
        <ele>26.5736</ele>
        <time>2013-05-28T20:17:27Z</time>
      </trkpt>
      <trkpt lat="59.9772747" lon="17.6519606">
        <ele>26.5736</ele>
        <time>2013-05-28T20:17:28Z</time>
      </trkpt>
      <trkpt lat="59.977255" lon="17.652098">
        <ele>26.5736</ele>
        <time>2013-05-28T20:17:29Z</time>
      </trkpt>
      <trkpt lat="59.9772354" lon="17.652235">
        <ele>27.0543</ele>
        <time>2013-05-28T20:17:30Z</time>
      </trkpt>
      <trkpt lat="59.9772163" lon="17.6523721">
        <ele>27.0543</ele>
        <time>2013-05-28T20:17:31Z</time>
      </trkpt>
      <trkpt lat="59.9771972" lon="17.6525109">
        <ele>27.0543</ele>
        <time>2013-05-28T20:17:32Z</time>
      </trkpt>
      <trkpt lat="59.9771774" lon="17.6526503">
        <ele>27.0543</ele>
        <time>2013-05-28T20:17:33Z</time>
      </trkpt>
      <trkpt lat="59.9771563" lon="17.6527892">
        <ele>27.0543</ele>
        <time>2013-05-28T20:17:34Z</time>
      </trkpt>
      <trkpt lat="59.9771349" lon="17.652929">
        <ele>27.5349</ele>
        <time>2013-05-28T20:17:35Z</time>
      </trkpt>
      <trkpt lat="59.9771135" lon="17.65307">
        <ele>27.5349</ele>
        <time>2013-05-28T20:17:36Z</time>
      </trkpt>
      <trkpt lat="59.9770933" lon="17.6532113">
        <ele>27.5349</ele>
        <time>2013-05-28T20:17:37Z</time>
      </trkpt>
      <trkpt lat="59.9770736" lon="17.6533522">
        <ele>27.5349</ele>
        <time>2013-05-28T20:17:38Z</time>
      </trkpt>
      <trkpt lat="59.9770536" lon="17.6534929">
        <ele>27.5349</ele>
        <time>2013-05-28T20:17:39Z</time>
      </trkpt>
      <trkpt lat="59.9770337" lon="17.6536345">
        <ele>27.5349</ele>
        <time>2013-05-28T20:17:40Z</time>
      </trkpt>
      <trkpt lat="59.9770132" lon="17.6537764">
        <ele>27.5349</ele>
        <time>2013-05-28T20:17:41Z</time>
      </trkpt>
      <trkpt lat="59.9769925" lon="17.6539187">
        <ele>27.5349</ele>
        <time>2013-05-28T20:17:42Z</time>
      </trkpt>
      <trkpt lat="59.9769718" lon="17.6540619">
        <ele>27.5349</ele>
        <time>2013-05-28T20:17:43Z</time>
      </trkpt>
      <trkpt lat="59.9769509" lon="17.6542052">
        <ele>28.0155</ele>
        <time>2013-05-28T20:17:44Z</time>
      </trkpt>
      <trkpt lat="59.9769296" lon="17.6543478">
        <ele>28.0155</ele>
        <time>2013-05-28T20:17:45Z</time>
      </trkpt>
      <trkpt lat="59.9769086" lon="17.6544907">
        <ele>28.0155</ele>
        <time>2013-05-28T20:17:46Z</time>
      </trkpt>
      <trkpt lat="59.9768883" lon="17.6546343">
        <ele>28.0155</ele>
        <time>2013-05-28T20:17:47Z</time>
      </trkpt>
      <trkpt lat="59.9768683" lon="17.6547777">
        <ele>28.0155</ele>
        <time>2013-05-28T20:17:48Z</time>
      </trkpt>
      <trkpt lat="59.9768485" lon="17.6549197">
        <ele>28.0155</ele>
        <time>2013-05-28T20:17:49Z</time>
      </trkpt>
      <trkpt lat="59.9768283" lon="17.6550596">
        <ele>28.0155</ele>
        <time>2013-05-28T20:17:50Z</time>
      </trkpt>
      <trkpt lat="59.976808" lon="17.655198">
        <ele>28.0155</ele>
        <time>2013-05-28T20:17:51Z</time>
      </trkpt>
      <trkpt lat="59.976788" lon="17.655335">
        <ele>28.0155</ele>
        <time>2013-05-28T20:17:52Z</time>
      </trkpt>
      <trkpt lat="59.9767685" lon="17.6554713">
        <ele>28.0155</ele>
        <time>2013-05-28T20:17:53Z</time>
      </trkpt>
      <trkpt lat="59.9767484" lon="17.6556088">
        <ele>28.0155</ele>
        <time>2013-05-28T20:17:54Z</time>
      </trkpt>
      <trkpt lat="59.9767279" lon="17.655748">
        <ele>28.0155</ele>
        <time>2013-05-28T20:17:55Z</time>
      </trkpt>
      <trkpt lat="59.976708" lon="17.6558878">
        <ele>28.0155</ele>
        <time>2013-05-28T20:17:56Z</time>
      </trkpt>
      <trkpt lat="59.9766888" lon="17.6560293">
        <ele>28.4962</ele>
        <time>2013-05-28T20:17:57Z</time>
      </trkpt>
      <trkpt lat="59.9766693" lon="17.6561716">
        <ele>28.4962</ele>
        <time>2013-05-28T20:17:58Z</time>
      </trkpt>
      <trkpt lat="59.9766479" lon="17.6563145">
        <ele>28.9769</ele>
        <time>2013-05-28T20:17:59Z</time>
      </trkpt>
      <trkpt lat="59.9766269" lon="17.6564587">
        <ele>28.9769</ele>
        <time>2013-05-28T20:18:00Z</time>
      </trkpt>
      <trkpt lat="59.9766061" lon="17.6566068">
        <ele>28.9769</ele>
        <time>2013-05-28T20:18:01Z</time>
      </trkpt>
      <trkpt lat="59.9765853" lon="17.6567557">
        <ele>28.9769</ele>
        <time>2013-05-28T20:18:02Z</time>
      </trkpt>
      <trkpt lat="59.9765651" lon="17.6569073">
        <ele>28.9769</ele>
        <time>2013-05-28T20:18:03Z</time>
      </trkpt>
      <trkpt lat="59.9765447" lon="17.6570605">
        <ele>28.9769</ele>
        <time>2013-05-28T20:18:04Z</time>
      </trkpt>
      <trkpt lat="59.9765237" lon="17.6572104">
        <ele>28.9769</ele>
        <time>2013-05-28T20:18:05Z</time>
      </trkpt>
      <trkpt lat="59.9765014" lon="17.6573595">
        <ele>28.9769</ele>
        <time>2013-05-28T20:18:06Z</time>
      </trkpt>
      <trkpt lat="59.9764796" lon="17.6575068">
        <ele>28.9769</ele>
        <time>2013-05-28T20:18:07Z</time>
      </trkpt>
      <trkpt lat="59.9764579" lon="17.6576522">
        <ele>29.4575</ele>
        <time>2013-05-28T20:18:08Z</time>
      </trkpt>
      <trkpt lat="59.9764352" lon="17.6577961">
        <ele>29.4575</ele>
        <time>2013-05-28T20:18:09Z</time>
      </trkpt>
      <trkpt lat="59.9764128" lon="17.6579387">
        <ele>29.4575</ele>
        <time>2013-05-28T20:18:10Z</time>
      </trkpt>
      <trkpt lat="59.9763898" lon="17.6580787">
        <ele>29.4575</ele>
        <time>2013-05-28T20:18:11Z</time>
      </trkpt>
      <trkpt lat="59.9763673" lon="17.6582218">
        <ele>29.4575</ele>
        <time>2013-05-28T20:18:12Z</time>
      </trkpt>
      <trkpt lat="59.9763456" lon="17.6583648">
        <ele>29.4575</ele>
        <time>2013-05-28T20:18:13Z</time>
      </trkpt>
      <trkpt lat="59.9763232" lon="17.6585063">
        <ele>29.4575</ele>
        <time>2013-05-28T20:18:14Z</time>
      </trkpt>
      <trkpt lat="59.9762995" lon="17.6586469">
        <ele>29.4575</ele>
        <time>2013-05-28T20:18:15Z</time>
      </trkpt>
      <trkpt lat="59.9762764" lon="17.6587875">
        <ele>29.4575</ele>
        <time>2013-05-28T20:18:16Z</time>
      </trkpt>
      <trkpt lat="59.9762536" lon="17.6589275">
        <ele>29.4575</ele>
        <time>2013-05-28T20:18:17Z</time>
      </trkpt>
      <trkpt lat="59.9762305" lon="17.6590654">
        <ele>29.4575</ele>
        <time>2013-05-28T20:18:18Z</time>
      </trkpt>
      <trkpt lat="59.9762063" lon="17.6592011">
        <ele>29.4575</ele>
        <time>2013-05-28T20:18:19Z</time>
      </trkpt>
      <trkpt lat="59.9761817" lon="17.6593363">
        <ele>29.4575</ele>
        <time>2013-05-28T20:18:20Z</time>
      </trkpt>
      <trkpt lat="59.9761567" lon="17.6594714">
        <ele>29.4575</ele>
        <time>2013-05-28T20:18:21Z</time>
      </trkpt>
      <trkpt lat="59.9761321" lon="17.6596063">
        <ele>29.4575</ele>
        <time>2013-05-28T20:18:22Z</time>
      </trkpt>
      <trkpt lat="59.9761084" lon="17.6597422">
        <ele>29.4575</ele>
        <time>2013-05-28T20:18:23Z</time>
      </trkpt>
      <trkpt lat="59.9760849" lon="17.6598781">
        <ele>28.9769</ele>
        <time>2013-05-28T20:18:24Z</time>
      </trkpt>
      <trkpt lat="59.9760602" lon="17.6600139">
        <ele>29.4575</ele>
        <time>2013-05-28T20:18:25Z</time>
      </trkpt>
      <trkpt lat="59.9760352" lon="17.6601501">
        <ele>29.4575</ele>
        <time>2013-05-28T20:18:26Z</time>
      </trkpt>
      <trkpt lat="59.9760117" lon="17.6602835">
        <ele>29.4575</ele>
        <time>2013-05-28T20:18:27Z</time>
      </trkpt>
      <trkpt lat="59.9759901" lon="17.6604137">
        <ele>29.4575</ele>
        <time>2013-05-28T20:18:28Z</time>
      </trkpt>
      <trkpt lat="59.9759694" lon="17.6605412">
        <ele>29.4575</ele>
        <time>2013-05-28T20:18:29Z</time>
      </trkpt>
      <trkpt lat="59.9759477" lon="17.6606661">
        <ele>29.4575</ele>
        <time>2013-05-28T20:18:30Z</time>
      </trkpt>
      <trkpt lat="59.9759244" lon="17.6607886">
        <ele>29.4575</ele>
        <time>2013-05-28T20:18:31Z</time>
      </trkpt>
      <trkpt lat="59.9759011" lon="17.6609093">
        <ele>29.4575</ele>
        <time>2013-05-28T20:18:32Z</time>
      </trkpt>
      <trkpt lat="59.9758777" lon="17.6610298">
        <ele>29.9381</ele>
        <time>2013-05-28T20:18:33Z</time>
      </trkpt>
      <trkpt lat="59.9758532" lon="17.6611488">
        <ele>29.9381</ele>
        <time>2013-05-28T20:18:34Z</time>
      </trkpt>
      <trkpt lat="59.9758273" lon="17.6612641">
        <ele>29.9381</ele>
        <time>2013-05-28T20:18:35Z</time>
      </trkpt>
      <trkpt lat="59.9757998" lon="17.6613784">
        <ele>29.9381</ele>
        <time>2013-05-28T20:18:36Z</time>
      </trkpt>
      <trkpt lat="59.9757714" lon="17.6614929">
        <ele>29.9381</ele>
        <time>2013-05-28T20:18:37Z</time>
      </trkpt>
      <trkpt lat="59.9757425" lon="17.6616083">
        <ele>29.9381</ele>
        <time>2013-05-28T20:18:38Z</time>
      </trkpt>
      <trkpt lat="59.9757125" lon="17.6617253">
        <ele>29.9381</ele>
        <time>2013-05-28T20:18:39Z</time>
      </trkpt>
      <trkpt lat="59.9756805" lon="17.6618445">
        <ele>29.9381</ele>
        <time>2013-05-28T20:18:40Z</time>
      </trkpt>
      <trkpt lat="59.975646" lon="17.661966">
        <ele>29.4575</ele>
        <time>2013-05-28T20:18:41Z</time>
      </trkpt>
      <trkpt lat="59.9756109" lon="17.6620899">
        <ele>29.4575</ele>
        <time>2013-05-28T20:18:42Z</time>
      </trkpt>
      <trkpt lat="59.9755763" lon="17.6622164">
        <ele>29.4575</ele>
        <time>2013-05-28T20:18:43Z</time>
      </trkpt>
      <trkpt lat="59.9755416" lon="17.6623433">
        <ele>29.4575</ele>
        <time>2013-05-28T20:18:44Z</time>
      </trkpt>
      <trkpt lat="59.975507" lon="17.6624702">
        <ele>30.4188</ele>
        <time>2013-05-28T20:18:45Z</time>
      </trkpt>
      <trkpt lat="59.9754707" lon="17.6625969">
        <ele>31.3801</ele>
        <time>2013-05-28T20:18:46Z</time>
      </trkpt>
      <trkpt lat="59.9754347" lon="17.6627228">
        <ele>31.3801</ele>
        <time>2013-05-28T20:18:47Z</time>
      </trkpt>
      <trkpt lat="59.9754012" lon="17.6628544">
        <ele>30.8995</ele>
        <time>2013-05-28T20:18:48Z</time>
      </trkpt>
      <trkpt lat="59.9753668" lon="17.6629872">
        <ele>30.8995</ele>
        <time>2013-05-28T20:18:49Z</time>
      </trkpt>
      <trkpt lat="59.9753306" lon="17.663121">
        <ele>30.8995</ele>
        <time>2013-05-28T20:18:50Z</time>
      </trkpt>
      <trkpt lat="59.9752939" lon="17.6632592">
        <ele>30.8995</ele>
        <time>2013-05-28T20:18:51Z</time>
      </trkpt>
      <trkpt lat="59.9752566" lon="17.6634001">
        <ele>30.8995</ele>
        <time>2013-05-28T20:18:52Z</time>
      </trkpt>
      <trkpt lat="59.9752176" lon="17.6635394">
        <ele>30.8995</ele>
        <time>2013-05-28T20:18:53Z</time>
      </trkpt>
      <trkpt lat="59.9751784" lon="17.6636772">
        <ele>30.8995</ele>
        <time>2013-05-28T20:18:54Z</time>
      </trkpt>
      <trkpt lat="59.9751405" lon="17.6638124">
        <ele>31.3801</ele>
        <time>2013-05-28T20:18:55Z</time>
      </trkpt>
      <trkpt lat="59.9751034" lon="17.6639443">
        <ele>31.3801</ele>
        <time>2013-05-28T20:18:56Z</time>
      </trkpt>
      <trkpt lat="59.975067" lon="17.664073">
        <ele>31.8607</ele>
        <time>2013-05-28T20:18:57Z</time>
      </trkpt>
      <trkpt lat="59.9750307" lon="17.6641997">
        <ele>31.8607</ele>
        <time>2013-05-28T20:18:58Z</time>
      </trkpt>
      <trkpt lat="59.9749952" lon="17.6643256">
        <ele>32.3416</ele>
        <time>2013-05-28T20:18:59Z</time>
      </trkpt>
      <trkpt lat="59.9749602" lon="17.6644512">
        <ele>32.3416</ele>
        <time>2013-05-28T20:19:00Z</time>
      </trkpt>
      <trkpt lat="59.9749247" lon="17.6645745">
        <ele>32.8223</ele>
        <time>2013-05-28T20:19:01Z</time>
      </trkpt>
      <trkpt lat="59.9748889" lon="17.664694">
        <ele>32.8223</ele>
        <time>2013-05-28T20:19:02Z</time>
      </trkpt>
      <trkpt lat="59.9748529" lon="17.66481">
        <ele>31.3801</ele>
        <time>2013-05-28T20:19:03Z</time>
      </trkpt>
      <trkpt lat="59.9748177" lon="17.6649224">
        <ele>30.8995</ele>
        <time>2013-05-28T20:19:04Z</time>
      </trkpt>
      <trkpt lat="59.9747852" lon="17.6650347">
        <ele>30.8995</ele>
        <time>2013-05-28T20:19:05Z</time>
      </trkpt>
      <trkpt lat="59.9747556" lon="17.6651513">
        <ele>30.8995</ele>
        <time>2013-05-28T20:19:06Z</time>
      </trkpt>
      <trkpt lat="59.974725" lon="17.6652719">
        <ele>29.9381</ele>
        <time>2013-05-28T20:19:07Z</time>
      </trkpt>
      <trkpt lat="59.9746931" lon="17.6653926">
        <ele>29.4575</ele>
        <time>2013-05-28T20:19:08Z</time>
      </trkpt>
      <trkpt lat="59.9746616" lon="17.6655192">
        <ele>29.4575</ele>
        <time>2013-05-28T20:19:09Z</time>
      </trkpt>
      <trkpt lat="59.9746304" lon="17.6656421">
        <ele>31.3801</ele>
        <time>2013-05-28T20:19:10Z</time>
      </trkpt>
      <trkpt lat="59.9745957" lon="17.6657612">
        <ele>32.3416</ele>
        <time>2013-05-28T20:19:11Z</time>
      </trkpt>
      <trkpt lat="59.9745619" lon="17.6658882">
        <ele>33.3029</ele>
        <time>2013-05-28T20:19:12Z</time>
      </trkpt>
      <trkpt lat="59.9745323" lon="17.6660148">
        <ele>33.3029</ele>
        <time>2013-05-28T20:19:13Z</time>
      </trkpt>
      <trkpt lat="59.9745066" lon="17.666143">
        <ele>32.3416</ele>
        <time>2013-05-28T20:19:14Z</time>
      </trkpt>
      <trkpt lat="59.9744854" lon="17.6662724">
        <ele>32.8223</ele>
        <time>2013-05-28T20:19:15Z</time>
      </trkpt>
      <trkpt lat="59.974462" lon="17.6664017">
        <ele>33.7834</ele>
        <time>2013-05-28T20:19:16Z</time>
      </trkpt>
      <trkpt lat="59.9744382" lon="17.6665442">
        <ele>33.3029</ele>
        <time>2013-05-28T20:19:17Z</time>
      </trkpt>
      <trkpt lat="59.9744126" lon="17.666692">
        <ele>32.3416</ele>
        <time>2013-05-28T20:19:18Z</time>
      </trkpt>
      <trkpt lat="59.9743879" lon="17.6668493">
        <ele>31.8607</ele>
        <time>2013-05-28T20:19:19Z</time>
      </trkpt>
      <trkpt lat="59.9743641" lon="17.6670109">
        <ele>31.3801</ele>
        <time>2013-05-28T20:19:20Z</time>
      </trkpt>
      <trkpt lat="59.9743401" lon="17.6671738">
        <ele>30.4188</ele>
        <time>2013-05-28T20:19:21Z</time>
      </trkpt>
      <trkpt lat="59.9743159" lon="17.6673395">
        <ele>30.4188</ele>
        <time>2013-05-28T20:19:22Z</time>
      </trkpt>
      <trkpt lat="59.9742927" lon="17.6675068">
        <ele>29.9381</ele>
        <time>2013-05-28T20:19:23Z</time>
      </trkpt>
      <trkpt lat="59.9742688" lon="17.667674">
        <ele>29.4575</ele>
        <time>2013-05-28T20:19:24Z</time>
      </trkpt>
      <trkpt lat="59.9742446" lon="17.66784">
        <ele>28.9769</ele>
        <time>2013-05-28T20:19:25Z</time>
      </trkpt>
      <trkpt lat="59.9742195" lon="17.6680026">
        <ele>28.4962</ele>
        <time>2013-05-28T20:19:26Z</time>
      </trkpt>
      <trkpt lat="59.9741933" lon="17.6681647">
        <ele>28.0155</ele>
        <time>2013-05-28T20:19:27Z</time>
      </trkpt>
      <trkpt lat="59.9741678" lon="17.6683254">
        <ele>28.0155</ele>
        <time>2013-05-28T20:19:28Z</time>
      </trkpt>
      <trkpt lat="59.9741432" lon="17.6684857">
        <ele>27.5349</ele>
        <time>2013-05-28T20:19:29Z</time>
      </trkpt>
      <trkpt lat="59.9741175" lon="17.6686443">
        <ele>27.5349</ele>
        <time>2013-05-28T20:19:30Z</time>
      </trkpt>
      <trkpt lat="59.9740899" lon="17.6687987">
        <ele>27.5349</ele>
        <time>2013-05-28T20:19:31Z</time>
      </trkpt>
      <trkpt lat="59.97406" lon="17.6689474">
        <ele>27.0543</ele>
        <time>2013-05-28T20:19:32Z</time>
      </trkpt>
      <trkpt lat="59.9740293" lon="17.6690924">
        <ele>27.0543</ele>
        <time>2013-05-28T20:19:33Z</time>
      </trkpt>
      <trkpt lat="59.973998" lon="17.6692344">
        <ele>27.0543</ele>
        <time>2013-05-28T20:19:34Z</time>
      </trkpt>
      <trkpt lat="59.9739677" lon="17.6693746">
        <ele>27.0543</ele>
        <time>2013-05-28T20:19:35Z</time>
      </trkpt>
      <trkpt lat="59.9739362" lon="17.6695117">
        <ele>27.0543</ele>
        <time>2013-05-28T20:19:36Z</time>
      </trkpt>
      <trkpt lat="59.9739037" lon="17.6696481">
        <ele>26.5736</ele>
        <time>2013-05-28T20:19:37Z</time>
      </trkpt>
      <trkpt lat="59.9738706" lon="17.6697839">
        <ele>26.5736</ele>
        <time>2013-05-28T20:19:38Z</time>
      </trkpt>
      <trkpt lat="59.9738368" lon="17.6699183">
        <ele>26.0929</ele>
        <time>2013-05-28T20:19:39Z</time>
      </trkpt>
      <trkpt lat="59.9738021" lon="17.6700507">
        <ele>26.0929</ele>
        <time>2013-05-28T20:19:40Z</time>
      </trkpt>
      <trkpt lat="59.9737663" lon="17.6701808">
        <ele>26.0929</ele>
        <time>2013-05-28T20:19:41Z</time>
      </trkpt>
      <trkpt lat="59.973728" lon="17.6703102">
        <ele>25.6123</ele>
        <time>2013-05-28T20:19:42Z</time>
      </trkpt>
      <trkpt lat="59.9736866" lon="17.6704378">
        <ele>25.6123</ele>
        <time>2013-05-28T20:19:43Z</time>
      </trkpt>
      <trkpt lat="59.9736425" lon="17.6705622">
        <ele>25.6123</ele>
        <time>2013-05-28T20:19:44Z</time>
      </trkpt>
      <trkpt lat="59.9735955" lon="17.6706811">
        <ele>25.1317</ele>
        <time>2013-05-28T20:19:45Z</time>
      </trkpt>
      <trkpt lat="59.9735468" lon="17.6707944">
        <ele>25.1317</ele>
        <time>2013-05-28T20:19:46Z</time>
      </trkpt>
      <trkpt lat="59.9734969" lon="17.6709045">
        <ele>24.651</ele>
        <time>2013-05-28T20:19:47Z</time>
      </trkpt>
      <trkpt lat="59.9734452" lon="17.6710101">
        <ele>24.651</ele>
        <time>2013-05-28T20:19:48Z</time>
      </trkpt>
      <trkpt lat="59.9733908" lon="17.6711101">
        <ele>24.1703</ele>
        <time>2013-05-28T20:19:49Z</time>
      </trkpt>
      <trkpt lat="59.9733346" lon="17.6712035">
        <ele>24.1703</ele>
        <time>2013-05-28T20:19:50Z</time>
      </trkpt>
      <trkpt lat="59.9732763" lon="17.671291">
        <ele>24.1703</ele>
        <time>2013-05-28T20:19:51Z</time>
      </trkpt>
      <trkpt lat="59.9732161" lon="17.6713752">
        <ele>24.1703</ele>
        <time>2013-05-28T20:19:52Z</time>
      </trkpt>
      <trkpt lat="59.9731541" lon="17.6714571">
        <ele>24.1703</ele>
        <time>2013-05-28T20:19:53Z</time>
      </trkpt>
      <trkpt lat="59.9730909" lon="17.671535">
        <ele>23.6896</ele>
        <time>2013-05-28T20:19:54Z</time>
      </trkpt>
      <trkpt lat="59.9730254" lon="17.6716077">
        <ele>23.6896</ele>
        <time>2013-05-28T20:19:55Z</time>
      </trkpt>
      <trkpt lat="59.9729561" lon="17.6716756">
        <ele>23.6896</ele>
        <time>2013-05-28T20:19:56Z</time>
      </trkpt>
      <trkpt lat="59.9728829" lon="17.6717374">
        <ele>23.209</ele>
        <time>2013-05-28T20:19:57Z</time>
      </trkpt>
      <trkpt lat="59.9728078" lon="17.6717934">
        <ele>23.209</ele>
        <time>2013-05-28T20:19:58Z</time>
      </trkpt>
      <trkpt lat="59.9727318" lon="17.671847">
        <ele>23.209</ele>
        <time>2013-05-28T20:19:59Z</time>
      </trkpt>
      <trkpt lat="59.9726547" lon="17.6718965">
        <ele>22.7283</ele>
        <time>2013-05-28T20:20:00Z</time>
      </trkpt>
      <trkpt lat="59.9725784" lon="17.6719426">
        <ele>22.7283</ele>
        <time>2013-05-28T20:20:01Z</time>
      </trkpt>
      <trkpt lat="59.9725018" lon="17.6719865">
        <ele>22.2476</ele>
        <time>2013-05-28T20:20:02Z</time>
      </trkpt>
      <trkpt lat="59.9724243" lon="17.6720302">
        <ele>22.2476</ele>
        <time>2013-05-28T20:20:03Z</time>
      </trkpt>
      <trkpt lat="59.9723465" lon="17.6720782">
        <ele>21.767</ele>
        <time>2013-05-28T20:20:04Z</time>
      </trkpt>
      <trkpt lat="59.9722682" lon="17.6721274">
        <ele>21.767</ele>
        <time>2013-05-28T20:20:05Z</time>
      </trkpt>
      <trkpt lat="59.9721911" lon="17.6721779">
        <ele>21.767</ele>
        <time>2013-05-28T20:20:06Z</time>
      </trkpt>
      <trkpt lat="59.9721144" lon="17.6722297">
        <ele>21.2864</ele>
        <time>2013-05-28T20:20:07Z</time>
      </trkpt>
      <trkpt lat="59.9720377" lon="17.672284">
        <ele>21.2864</ele>
        <time>2013-05-28T20:20:08Z</time>
      </trkpt>
      <trkpt lat="59.9719612" lon="17.6723449">
        <ele>21.2864</ele>
        <time>2013-05-28T20:20:09Z</time>
      </trkpt>
      <trkpt lat="59.9718855" lon="17.6724134">
        <ele>21.2864</ele>
        <time>2013-05-28T20:20:10Z</time>
      </trkpt>
      <trkpt lat="59.9718112" lon="17.6724861">
        <ele>21.2864</ele>
        <time>2013-05-28T20:20:11Z</time>
      </trkpt>
      <trkpt lat="59.9717383" lon="17.6725627">
        <ele>21.2864</ele>
        <time>2013-05-28T20:20:12Z</time>
      </trkpt>
      <trkpt lat="59.9716663" lon="17.6726449">
        <ele>21.2864</ele>
        <time>2013-05-28T20:20:13Z</time>
      </trkpt>
      <trkpt lat="59.9715943" lon="17.6727315">
        <ele>21.2864</ele>
        <time>2013-05-28T20:20:14Z</time>
      </trkpt>
      <trkpt lat="59.9715228" lon="17.6728233">
        <ele>21.767</ele>
        <time>2013-05-28T20:20:15Z</time>
      </trkpt>
      <trkpt lat="59.9714533" lon="17.6729195">
        <ele>21.767</ele>
        <time>2013-05-28T20:20:16Z</time>
      </trkpt>
      <trkpt lat="59.9713867" lon="17.6730177">
        <ele>21.767</ele>
        <time>2013-05-28T20:20:17Z</time>
      </trkpt>
      <trkpt lat="59.971323" lon="17.6731184">
        <ele>21.767</ele>
        <time>2013-05-28T20:20:18Z</time>
      </trkpt>
      <trkpt lat="59.9712618" lon="17.6732276">
        <ele>22.2476</ele>
        <time>2013-05-28T20:20:19Z</time>
      </trkpt>
      <trkpt lat="59.9712002" lon="17.6733381">
        <ele>21.767</ele>
        <time>2013-05-28T20:20:20Z</time>
      </trkpt>
      <trkpt lat="59.9711388" lon="17.6734484">
        <ele>21.767</ele>
        <time>2013-05-28T20:20:21Z</time>
      </trkpt>
      <trkpt lat="59.9710769" lon="17.6735589">
        <ele>21.767</ele>
        <time>2013-05-28T20:20:22Z</time>
      </trkpt>
      <trkpt lat="59.9710147" lon="17.6736687">
        <ele>21.767</ele>
        <time>2013-05-28T20:20:23Z</time>
      </trkpt>
      <trkpt lat="59.9709528" lon="17.6737785">
        <ele>21.2864</ele>
        <time>2013-05-28T20:20:24Z</time>
      </trkpt>
      <trkpt lat="59.9708915" lon="17.6738909">
        <ele>21.2864</ele>
        <time>2013-05-28T20:20:25Z</time>
      </trkpt>
      <trkpt lat="59.9708313" lon="17.6740073">
        <ele>21.2864</ele>
        <time>2013-05-28T20:20:26Z</time>
      </trkpt>
      <trkpt lat="59.970771" lon="17.6741221">
        <ele>21.2864</ele>
        <time>2013-05-28T20:20:27Z</time>
      </trkpt>
      <trkpt lat="59.9707106" lon="17.6742368">
        <ele>21.767</ele>
        <time>2013-05-28T20:20:28Z</time>
      </trkpt>
      <trkpt lat="59.9706496" lon="17.6743493">
        <ele>21.767</ele>
        <time>2013-05-28T20:20:29Z</time>
      </trkpt>
      <trkpt lat="59.9705894" lon="17.6744617">
        <ele>21.767</ele>
        <time>2013-05-28T20:20:30Z</time>
      </trkpt>
      <trkpt lat="59.9705289" lon="17.6745704">
        <ele>21.767</ele>
        <time>2013-05-28T20:20:31Z</time>
      </trkpt>
      <trkpt lat="59.9704687" lon="17.6746772">
        <ele>21.767</ele>
        <time>2013-05-28T20:20:32Z</time>
      </trkpt>
      <trkpt lat="59.9704084" lon="17.6747844">
        <ele>21.767</ele>
        <time>2013-05-28T20:20:33Z</time>
      </trkpt>
      <trkpt lat="59.970348" lon="17.6748902">
        <ele>21.767</ele>
        <time>2013-05-28T20:20:34Z</time>
      </trkpt>
      <trkpt lat="59.9702882" lon="17.6749963">
        <ele>21.767</ele>
        <time>2013-05-28T20:20:35Z</time>
      </trkpt>
      <trkpt lat="59.9702294" lon="17.6751039">
        <ele>21.767</ele>
        <time>2013-05-28T20:20:36Z</time>
      </trkpt>
      <trkpt lat="59.9701709" lon="17.6752118">
        <ele>21.767</ele>
        <time>2013-05-28T20:20:37Z</time>
      </trkpt>
      <trkpt lat="59.9701121" lon="17.6753194">
        <ele>21.767</ele>
        <time>2013-05-28T20:20:38Z</time>
      </trkpt>
      <trkpt lat="59.970053" lon="17.6754258">
        <ele>21.767</ele>
        <time>2013-05-28T20:20:39Z</time>
      </trkpt>
      <trkpt lat="59.9699937" lon="17.6755327">
        <ele>22.2476</ele>
        <time>2013-05-28T20:20:40Z</time>
      </trkpt>
      <trkpt lat="59.9699351" lon="17.6756396">
        <ele>22.2476</ele>
        <time>2013-05-28T20:20:41Z</time>
      </trkpt>
      <trkpt lat="59.969875" lon="17.6757431">
        <ele>22.2476</ele>
        <time>2013-05-28T20:20:42Z</time>
      </trkpt>
      <trkpt lat="59.9698149" lon="17.6758453">
        <ele>22.2476</ele>
        <time>2013-05-28T20:20:43Z</time>
      </trkpt>
      <trkpt lat="59.9697548" lon="17.675949">
        <ele>22.2476</ele>
        <time>2013-05-28T20:20:44Z</time>
      </trkpt>
      <trkpt lat="59.9696949" lon="17.6760541">
        <ele>22.2476</ele>
        <time>2013-05-28T20:20:45Z</time>
      </trkpt>
      <trkpt lat="59.9696352" lon="17.6761606">
        <ele>22.2476</ele>
        <time>2013-05-28T20:20:46Z</time>
      </trkpt>
      <trkpt lat="59.9695751" lon="17.676267">
        <ele>21.767</ele>
        <time>2013-05-28T20:20:47Z</time>
      </trkpt>
      <trkpt lat="59.969515" lon="17.6763751">
        <ele>21.2864</ele>
        <time>2013-05-28T20:20:48Z</time>
      </trkpt>
      <trkpt lat="59.9694544" lon="17.6764892">
        <ele>21.2864</ele>
        <time>2013-05-28T20:20:49Z</time>
      </trkpt>
      <trkpt lat="59.9693948" lon="17.6766053">
        <ele>21.2864</ele>
        <time>2013-05-28T20:20:50Z</time>
      </trkpt>
      <trkpt lat="59.969338" lon="17.6767294">
        <ele>20.8057</ele>
        <time>2013-05-28T20:20:51Z</time>
      </trkpt>
      <trkpt lat="59.969285" lon="17.6768563">
        <ele>20.8057</ele>
        <time>2013-05-28T20:20:52Z</time>
      </trkpt>
      <trkpt lat="59.9692353" lon="17.6769849">
        <ele>21.2864</ele>
        <time>2013-05-28T20:20:53Z</time>
      </trkpt>
      <trkpt lat="59.9691882" lon="17.6771144">
        <ele>20.8057</ele>
        <time>2013-05-28T20:20:54Z</time>
      </trkpt>
      <trkpt lat="59.9691421" lon="17.677247">
        <ele>21.2864</ele>
        <time>2013-05-28T20:20:55Z</time>
      </trkpt>
      <trkpt lat="59.9690969" lon="17.6773813">
        <ele>21.2864</ele>
        <time>2013-05-28T20:20:56Z</time>
      </trkpt>
      <trkpt lat="59.9690536" lon="17.6775194">
        <ele>21.2864</ele>
        <time>2013-05-28T20:20:57Z</time>
      </trkpt>
      <trkpt lat="59.9690136" lon="17.6776607">
        <ele>21.2864</ele>
        <time>2013-05-28T20:20:58Z</time>
      </trkpt>
      <trkpt lat="59.9689766" lon="17.6778019">
        <ele>21.767</ele>
        <time>2013-05-28T20:20:59Z</time>
      </trkpt>
      <trkpt lat="59.9689422" lon="17.6779422">
        <ele>21.767</ele>
        <time>2013-05-28T20:21:00Z</time>
      </trkpt>
      <trkpt lat="59.9689095" lon="17.6780823">
        <ele>22.2476</ele>
        <time>2013-05-28T20:21:01Z</time>
      </trkpt>
      <trkpt lat="59.9688771" lon="17.6782223">
        <ele>22.7283</ele>
        <time>2013-05-28T20:21:02Z</time>
      </trkpt>
      <trkpt lat="59.9688467" lon="17.6783634">
        <ele>22.7283</ele>
        <time>2013-05-28T20:21:03Z</time>
      </trkpt>
      <trkpt lat="59.9688191" lon="17.6785052">
        <ele>23.209</ele>
        <time>2013-05-28T20:21:04Z</time>
      </trkpt>
      <trkpt lat="59.9687922" lon="17.6786476">
        <ele>23.209</ele>
        <time>2013-05-28T20:21:05Z</time>
      </trkpt>
      <trkpt lat="59.9687663" lon="17.6787911">
        <ele>23.6896</ele>
        <time>2013-05-28T20:21:06Z</time>
      </trkpt>
      <trkpt lat="59.9687406" lon="17.6789365">
        <ele>23.6896</ele>
        <time>2013-05-28T20:21:07Z</time>
      </trkpt>
      <trkpt lat="59.9687142" lon="17.6790844">
        <ele>24.1703</ele>
        <time>2013-05-28T20:21:08Z</time>
      </trkpt>
      <trkpt lat="59.9686867" lon="17.679235">
        <ele>24.1703</ele>
        <time>2013-05-28T20:21:09Z</time>
      </trkpt>
      <trkpt lat="59.9686596" lon="17.6793882">
        <ele>24.651</ele>
        <time>2013-05-28T20:21:10Z</time>
      </trkpt>
      <trkpt lat="59.9686333" lon="17.6795424">
        <ele>24.651</ele>
        <time>2013-05-28T20:21:11Z</time>
      </trkpt>
      <trkpt lat="59.9686065" lon="17.6796964">
        <ele>25.1317</ele>
        <time>2013-05-28T20:21:12Z</time>
      </trkpt>
      <trkpt lat="59.9685804" lon="17.6798487">
        <ele>25.6123</ele>
        <time>2013-05-28T20:21:13Z</time>
      </trkpt>
      <trkpt lat="59.9685541" lon="17.6799959">
        <ele>26.0929</ele>
        <time>2013-05-28T20:21:14Z</time>
      </trkpt>
      <trkpt lat="59.9685277" lon="17.6801401">
        <ele>26.0929</ele>
        <time>2013-05-28T20:21:15Z</time>
      </trkpt>
      <trkpt lat="59.9685008" lon="17.6802819">
        <ele>26.5736</ele>
        <time>2013-05-28T20:21:16Z</time>
      </trkpt>
      <trkpt lat="59.9684741" lon="17.6804224">
        <ele>26.5736</ele>
        <time>2013-05-28T20:21:17Z</time>
      </trkpt>
      <trkpt lat="59.9684482" lon="17.6805641">
        <ele>26.5736</ele>
        <time>2013-05-28T20:21:18Z</time>
      </trkpt>
      <trkpt lat="59.9684227" lon="17.6807066">
        <ele>26.5736</ele>
        <time>2013-05-28T20:21:19Z</time>
      </trkpt>
      <trkpt lat="59.9683966" lon="17.6808482">
        <ele>26.0929</ele>
        <time>2013-05-28T20:21:20Z</time>
      </trkpt>
      <trkpt lat="59.9683695" lon="17.6809884">
        <ele>26.0929</ele>
        <time>2013-05-28T20:21:21Z</time>
      </trkpt>
      <trkpt lat="59.9683426" lon="17.6811294">
        <ele>26.0929</ele>
        <time>2013-05-28T20:21:22Z</time>
      </trkpt>
      <trkpt lat="59.9683163" lon="17.6812709">
        <ele>26.0929</ele>
        <time>2013-05-28T20:21:23Z</time>
      </trkpt>
      <trkpt lat="59.9682898" lon="17.6814111">
        <ele>26.0929</ele>
        <time>2013-05-28T20:21:24Z</time>
      </trkpt>
      <trkpt lat="59.9682635" lon="17.681551">
        <ele>26.0929</ele>
        <time>2013-05-28T20:21:25Z</time>
      </trkpt>
      <trkpt lat="59.9682376" lon="17.6816913">
        <ele>26.0929</ele>
        <time>2013-05-28T20:21:26Z</time>
      </trkpt>
      <trkpt lat="59.9682117" lon="17.6818314">
        <ele>26.0929</ele>
        <time>2013-05-28T20:21:27Z</time>
      </trkpt>
      <trkpt lat="59.9681862" lon="17.6819715">
        <ele>25.6123</ele>
        <time>2013-05-28T20:21:28Z</time>
      </trkpt>
      <trkpt lat="59.9681605" lon="17.6821111">
        <ele>25.6123</ele>
        <time>2013-05-28T20:21:29Z</time>
      </trkpt>
      <trkpt lat="59.9681349" lon="17.6822494">
        <ele>25.6123</ele>
        <time>2013-05-28T20:21:30Z</time>
      </trkpt>
      <trkpt lat="59.9681097" lon="17.6823875">
        <ele>25.6123</ele>
        <time>2013-05-28T20:21:31Z</time>
      </trkpt>
      <trkpt lat="59.9680848" lon="17.6825256">
        <ele>25.6123</ele>
        <time>2013-05-28T20:21:32Z</time>
      </trkpt>
      <trkpt lat="59.9680592" lon="17.6826627">
        <ele>25.6123</ele>
        <time>2013-05-28T20:21:33Z</time>
      </trkpt>
      <trkpt lat="59.9680341" lon="17.682801">
        <ele>25.6123</ele>
        <time>2013-05-28T20:21:34Z</time>
      </trkpt>
      <trkpt lat="59.9680092" lon="17.6829407">
        <ele>25.6123</ele>
        <time>2013-05-28T20:21:35Z</time>
      </trkpt>
      <trkpt lat="59.9679838" lon="17.6830802">
        <ele>25.6123</ele>
        <time>2013-05-28T20:21:36Z</time>
      </trkpt>
      <trkpt lat="59.9679583" lon="17.68322">
        <ele>25.6123</ele>
        <time>2013-05-28T20:21:37Z</time>
      </trkpt>
      <trkpt lat="59.9679325" lon="17.6833595">
        <ele>25.1317</ele>
        <time>2013-05-28T20:21:38Z</time>
      </trkpt>
      <trkpt lat="59.9679066" lon="17.6834983">
        <ele>25.1317</ele>
        <time>2013-05-28T20:21:39Z</time>
      </trkpt>
      <trkpt lat="59.9678805" lon="17.6836372">
        <ele>24.651</ele>
        <time>2013-05-28T20:21:40Z</time>
      </trkpt>
      <trkpt lat="59.9678534" lon="17.6837771">
        <ele>24.651</ele>
        <time>2013-05-28T20:21:41Z</time>
      </trkpt>
      <trkpt lat="59.9678263" lon="17.683917">
        <ele>24.1703</ele>
        <time>2013-05-28T20:21:42Z</time>
      </trkpt>
      <trkpt lat="59.9678" lon="17.6840569">
        <ele>24.1703</ele>
        <time>2013-05-28T20:21:43Z</time>
      </trkpt>
      <trkpt lat="59.9677745" lon="17.6841972">
        <ele>24.1703</ele>
        <time>2013-05-28T20:21:44Z</time>
      </trkpt>
      <trkpt lat="59.9677487" lon="17.6843384">
        <ele>23.6896</ele>
        <time>2013-05-28T20:21:45Z</time>
      </trkpt>
      <trkpt lat="59.9677227" lon="17.68448">
        <ele>23.6896</ele>
        <time>2013-05-28T20:21:46Z</time>
      </trkpt>
      <trkpt lat="59.9676962" lon="17.6846215">
        <ele>23.209</ele>
        <time>2013-05-28T20:21:47Z</time>
      </trkpt>
      <trkpt lat="59.9676688" lon="17.6847629">
        <ele>23.209</ele>
        <time>2013-05-28T20:21:48Z</time>
      </trkpt>
      <trkpt lat="59.9676417" lon="17.6849045">
        <ele>23.209</ele>
        <time>2013-05-28T20:21:49Z</time>
      </trkpt>
      <trkpt lat="59.9676159" lon="17.6850454">
        <ele>22.7283</ele>
        <time>2013-05-28T20:21:50Z</time>
      </trkpt>
      <trkpt lat="59.9675914" lon="17.6851854">
        <ele>22.7283</ele>
        <time>2013-05-28T20:21:51Z</time>
      </trkpt>
      <trkpt lat="59.9675676" lon="17.6853231">
        <ele>22.7283</ele>
        <time>2013-05-28T20:21:52Z</time>
      </trkpt>
      <trkpt lat="59.9675439" lon="17.6854568">
        <ele>22.7283</ele>
        <time>2013-05-28T20:21:53Z</time>
      </trkpt>
      <trkpt lat="59.9675205" lon="17.6855863">
        <ele>22.7283</ele>
        <time>2013-05-28T20:21:54Z</time>
      </trkpt>
      <trkpt lat="59.9674973" lon="17.6857123">
        <ele>22.7283</ele>
        <time>2013-05-28T20:21:55Z</time>
      </trkpt>
      <trkpt lat="59.9674751" lon="17.685836">
        <ele>22.7283</ele>
        <time>2013-05-28T20:21:56Z</time>
      </trkpt>
      <trkpt lat="59.967454" lon="17.6859576">
        <ele>22.7283</ele>
        <time>2013-05-28T20:21:57Z</time>
      </trkpt>
      <trkpt lat="59.9674327" lon="17.6860774">
        <ele>22.7283</ele>
        <time>2013-05-28T20:21:58Z</time>
      </trkpt>
      <trkpt lat="59.9674112" lon="17.6861941">
        <ele>22.7283</ele>
        <time>2013-05-28T20:21:59Z</time>
      </trkpt>
      <trkpt lat="59.9673891" lon="17.6863073">
        <ele>22.7283</ele>
        <time>2013-05-28T20:22:00Z</time>
      </trkpt>
      <trkpt lat="59.9673674" lon="17.6864176">
        <ele>22.7283</ele>
        <time>2013-05-28T20:22:01Z</time>
      </trkpt>
      <trkpt lat="59.9673462" lon="17.6865251">
        <ele>22.7283</ele>
        <time>2013-05-28T20:22:02Z</time>
      </trkpt>
      <trkpt lat="59.967327" lon="17.6866293">
        <ele>22.7283</ele>
        <time>2013-05-28T20:22:03Z</time>
      </trkpt>
      <trkpt lat="59.9673104" lon="17.6867265">
        <ele>22.7283</ele>
        <time>2013-05-28T20:22:04Z</time>
      </trkpt>
      <trkpt lat="59.9672965" lon="17.6868129">
        <ele>22.7283</ele>
        <time>2013-05-28T20:22:05Z</time>
      </trkpt>
      <trkpt lat="59.9672829" lon="17.6868893">
        <ele>22.7283</ele>
        <time>2013-05-28T20:22:06Z</time>
      </trkpt>
      <trkpt lat="59.9672701" lon="17.6869586">
        <ele>23.209</ele>
        <time>2013-05-28T20:22:07Z</time>
      </trkpt>
      <trkpt lat="59.9672574" lon="17.687019">
        <ele>23.209</ele>
        <time>2013-05-28T20:22:08Z</time>
      </trkpt>
      <trkpt lat="59.9672418" lon="17.6870643">
        <ele>22.7283</ele>
        <time>2013-05-28T20:22:09Z</time>
      </trkpt>
      <trkpt lat="59.9672247" lon="17.6870919">
        <ele>22.2476</ele>
        <time>2013-05-28T20:22:10Z</time>
      </trkpt>
      <trkpt lat="59.9672083" lon="17.6871071">
        <ele>22.2476</ele>
        <time>2013-05-28T20:22:11Z</time>
      </trkpt>
      <trkpt lat="59.9671933" lon="17.6871188">
        <ele>22.2476</ele>
        <time>2013-05-28T20:22:12Z</time>
      </trkpt>
      <trkpt lat="59.9671794" lon="17.6871322">
        <ele>21.767</ele>
        <time>2013-05-28T20:22:13Z</time>
      </trkpt>
      <trkpt lat="59.9671644" lon="17.6871451">
        <ele>21.767</ele>
        <time>2013-05-28T20:22:14Z</time>
      </trkpt>
      <trkpt lat="59.967147" lon="17.6871732">
        <ele>21.2864</ele>
        <time>2013-05-28T20:22:15Z</time>
      </trkpt>
      <trkpt lat="59.9671327" lon="17.6872281">
        <ele>21.767</ele>
        <time>2013-05-28T20:22:16Z</time>
      </trkpt>
      <trkpt lat="59.967127" lon="17.6872999">
        <ele>21.767</ele>
        <time>2013-05-28T20:22:17Z</time>
      </trkpt>
      <trkpt lat="59.9671294" lon="17.6873848">
        <ele>21.2864</ele>
        <time>2013-05-28T20:22:18Z</time>
      </trkpt>
      <trkpt lat="59.967128" lon="17.687485">
        <ele>21.2864</ele>
        <time>2013-05-28T20:22:19Z</time>
      </trkpt>
      <trkpt lat="59.9671169" lon="17.6875915">
        <ele>21.2864</ele>
        <time>2013-05-28T20:22:20Z</time>
      </trkpt>
      <trkpt lat="59.9670962" lon="17.6876945">
        <ele>21.2864</ele>
        <time>2013-05-28T20:22:21Z</time>
      </trkpt>
      <trkpt lat="59.9670689" lon="17.6877961">
        <ele>20.8057</ele>
        <time>2013-05-28T20:22:22Z</time>
      </trkpt>
      <trkpt lat="59.967038" lon="17.6879018">
        <ele>20.325</ele>
        <time>2013-05-28T20:22:23Z</time>
      </trkpt>
      <trkpt lat="59.9670064" lon="17.6880126">
        <ele>20.325</ele>
        <time>2013-05-28T20:22:24Z</time>
      </trkpt>
      <trkpt lat="59.9669738" lon="17.6881279">
        <ele>19.8444</ele>
        <time>2013-05-28T20:22:25Z</time>
      </trkpt>
      <trkpt lat="59.9669409" lon="17.6882474">
        <ele>19.8444</ele>
        <time>2013-05-28T20:22:26Z</time>
      </trkpt>
      <trkpt lat="59.9669084" lon="17.68837">
        <ele>19.8444</ele>
        <time>2013-05-28T20:22:27Z</time>
      </trkpt>
      <trkpt lat="59.9668777" lon="17.6884949">
        <ele>19.3638</ele>
        <time>2013-05-28T20:22:28Z</time>
      </trkpt>
      <trkpt lat="59.9668481" lon="17.6886214">
        <ele>19.3638</ele>
        <time>2013-05-28T20:22:29Z</time>
      </trkpt>
      <trkpt lat="59.9668191" lon="17.6887494">
        <ele>18.8831</ele>
        <time>2013-05-28T20:22:30Z</time>
      </trkpt>
      <trkpt lat="59.9667923" lon="17.6888805">
        <ele>18.8831</ele>
        <time>2013-05-28T20:22:31Z</time>
      </trkpt>
      <trkpt lat="59.9667679" lon="17.6890147">
        <ele>18.8831</ele>
        <time>2013-05-28T20:22:32Z</time>
      </trkpt>
      <trkpt lat="59.9667464" lon="17.6891513">
        <ele>18.8831</ele>
        <time>2013-05-28T20:22:33Z</time>
      </trkpt>
      <trkpt lat="59.9667277" lon="17.6892897">
        <ele>18.4023</ele>
        <time>2013-05-28T20:22:34Z</time>
      </trkpt>
      <trkpt lat="59.9667108" lon="17.6894302">
        <ele>18.4023</ele>
        <time>2013-05-28T20:22:35Z</time>
      </trkpt>
      <trkpt lat="59.966696" lon="17.6895702">
        <ele>18.8831</ele>
        <time>2013-05-28T20:22:36Z</time>
      </trkpt>
      <trkpt lat="59.9666836" lon="17.6897104">
        <ele>18.8831</ele>
        <time>2013-05-28T20:22:37Z</time>
      </trkpt>
      <trkpt lat="59.9666707" lon="17.6898512">
        <ele>19.3638</ele>
        <time>2013-05-28T20:22:38Z</time>
      </trkpt>
      <trkpt lat="59.9666564" lon="17.6899932">
        <ele>19.3638</ele>
        <time>2013-05-28T20:22:39Z</time>
      </trkpt>
      <trkpt lat="59.966643" lon="17.6901391">
        <ele>19.3638</ele>
        <time>2013-05-28T20:22:40Z</time>
      </trkpt>
      <trkpt lat="59.9666308" lon="17.6902899">
        <ele>18.8831</ele>
        <time>2013-05-28T20:22:41Z</time>
      </trkpt>
      <trkpt lat="59.9666183" lon="17.6904473">
        <ele>18.8831</ele>
        <time>2013-05-28T20:22:42Z</time>
      </trkpt>
      <trkpt lat="59.9666048" lon="17.6906106">
        <ele>18.4023</ele>
        <time>2013-05-28T20:22:43Z</time>
      </trkpt>
      <trkpt lat="59.9665892" lon="17.6907795">
        <ele>17.9218</ele>
        <time>2013-05-28T20:22:44Z</time>
      </trkpt>
      <trkpt lat="59.9665707" lon="17.6909544">
        <ele>17.4412</ele>
        <time>2013-05-28T20:22:45Z</time>
      </trkpt>
      <trkpt lat="59.9665478" lon="17.6911343">
        <ele>16.9604</ele>
        <time>2013-05-28T20:22:46Z</time>
      </trkpt>
      <trkpt lat="59.9665189" lon="17.6913155">
        <ele>16.4797</ele>
        <time>2013-05-28T20:22:47Z</time>
      </trkpt>
      <trkpt lat="59.9664837" lon="17.6914946">
        <ele>15.999</ele>
        <time>2013-05-28T20:22:48Z</time>
      </trkpt>
      <trkpt lat="59.9664446" lon="17.6916705">
        <ele>15.999</ele>
        <time>2013-05-28T20:22:49Z</time>
      </trkpt>
      <trkpt lat="59.9664037" lon="17.691841">
        <ele>15.5184</ele>
        <time>2013-05-28T20:22:50Z</time>
      </trkpt>
      <trkpt lat="59.9663633" lon="17.6920067">
        <ele>15.0377</ele>
        <time>2013-05-28T20:22:51Z</time>
      </trkpt>
      <trkpt lat="59.9663241" lon="17.6921697">
        <ele>15.0377</ele>
        <time>2013-05-28T20:22:52Z</time>
      </trkpt>
      <trkpt lat="59.9662858" lon="17.6923304">
        <ele>15.0377</ele>
        <time>2013-05-28T20:22:53Z</time>
      </trkpt>
      <trkpt lat="59.9662489" lon="17.6924879">
        <ele>14.557</ele>
        <time>2013-05-28T20:22:54Z</time>
      </trkpt>
      <trkpt lat="59.9662132" lon="17.6926421">
        <ele>14.557</ele>
        <time>2013-05-28T20:22:55Z</time>
      </trkpt>
      <trkpt lat="59.9661783" lon="17.6927915">
        <ele>14.557</ele>
        <time>2013-05-28T20:22:56Z</time>
      </trkpt>
      <trkpt lat="59.9661426" lon="17.692936">
        <ele>14.557</ele>
        <time>2013-05-28T20:22:57Z</time>
      </trkpt>
      <trkpt lat="59.9661075" lon="17.693078">
        <ele>14.0764</ele>
        <time>2013-05-28T20:22:58Z</time>
      </trkpt>
      <trkpt lat="59.966074" lon="17.6932209">
        <ele>14.0764</ele>
        <time>2013-05-28T20:22:59Z</time>
      </trkpt>
      <trkpt lat="59.9660428" lon="17.6933638">
        <ele>14.0764</ele>
        <time>2013-05-28T20:23:00Z</time>
      </trkpt>
      <trkpt lat="59.9660116" lon="17.6935033">
        <ele>14.0764</ele>
        <time>2013-05-28T20:23:01Z</time>
      </trkpt>
      <trkpt lat="59.9659785" lon="17.693639">
        <ele>14.0764</ele>
        <time>2013-05-28T20:23:02Z</time>
      </trkpt>
      <trkpt lat="59.9659457" lon="17.6937736">
        <ele>13.5958</ele>
        <time>2013-05-28T20:23:03Z</time>
      </trkpt>
      <trkpt lat="59.9659144" lon="17.6939073">
        <ele>13.5958</ele>
        <time>2013-05-28T20:23:04Z</time>
      </trkpt>
      <trkpt lat="59.9658838" lon="17.6940435">
        <ele>13.5958</ele>
        <time>2013-05-28T20:23:05Z</time>
      </trkpt>
      <trkpt lat="59.9658509" lon="17.6941781">
        <ele>13.5958</ele>
        <time>2013-05-28T20:23:06Z</time>
      </trkpt>
      <trkpt lat="59.9658202" lon="17.694316">
        <ele>14.557</ele>
        <time>2013-05-28T20:23:07Z</time>
      </trkpt>
      <trkpt lat="59.9657844" lon="17.6944526">
        <ele>14.0764</ele>
        <time>2013-05-28T20:23:08Z</time>
      </trkpt>
      <trkpt lat="59.9657456" lon="17.6945877">
        <ele>13.1151</ele>
        <time>2013-05-28T20:23:09Z</time>
      </trkpt>
      <trkpt lat="59.9657036" lon="17.6947298">
        <ele>13.1151</ele>
        <time>2013-05-28T20:23:10Z</time>
      </trkpt>
      <trkpt lat="59.9656582" lon="17.694865">
        <ele>12.6344</ele>
        <time>2013-05-28T20:23:11Z</time>
      </trkpt>
      <trkpt lat="59.9656113" lon="17.6950013">
        <ele>12.6344</ele>
        <time>2013-05-28T20:23:12Z</time>
      </trkpt>
      <trkpt lat="59.9655636" lon="17.6951349">
        <ele>12.6344</ele>
        <time>2013-05-28T20:23:13Z</time>
      </trkpt>
      <trkpt lat="59.9655159" lon="17.6952637">
        <ele>12.1538</ele>
        <time>2013-05-28T20:23:14Z</time>
      </trkpt>
      <trkpt lat="59.9654669" lon="17.6953846">
        <ele>12.1538</ele>
        <time>2013-05-28T20:23:15Z</time>
      </trkpt>
      <trkpt lat="59.9654158" lon="17.6954973">
        <ele>11.6732</ele>
        <time>2013-05-28T20:23:16Z</time>
      </trkpt>
      <trkpt lat="59.9653619" lon="17.6956022">
        <ele>12.1538</ele>
        <time>2013-05-28T20:23:17Z</time>
      </trkpt>
      <trkpt lat="59.9653072" lon="17.6956978">
        <ele>12.1538</ele>
        <time>2013-05-28T20:23:18Z</time>
      </trkpt>
      <trkpt lat="59.9652518" lon="17.6957916">
        <ele>12.1538</ele>
        <time>2013-05-28T20:23:19Z</time>
      </trkpt>
      <trkpt lat="59.9651973" lon="17.6958853">
        <ele>12.1538</ele>
        <time>2013-05-28T20:23:20Z</time>
      </trkpt>
      <trkpt lat="59.9651451" lon="17.6959794">
        <ele>13.1151</ele>
        <time>2013-05-28T20:23:21Z</time>
      </trkpt>
      <trkpt lat="59.9650967" lon="17.696077">
        <ele>14.557</ele>
        <time>2013-05-28T20:23:22Z</time>
      </trkpt>
      <trkpt lat="59.9650498" lon="17.6961708">
        <ele>15.999</ele>
        <time>2013-05-28T20:23:23Z</time>
      </trkpt>
      <trkpt lat="59.9649985" lon="17.6962479">
        <ele>16.9604</ele>
        <time>2013-05-28T20:23:24Z</time>
      </trkpt>
      <trkpt lat="59.9649466" lon="17.6963269">
        <ele>17.4412</ele>
        <time>2013-05-28T20:23:25Z</time>
      </trkpt>
      <trkpt lat="59.9648954" lon="17.6964149">
        <ele>17.4412</ele>
        <time>2013-05-28T20:23:26Z</time>
      </trkpt>
      <trkpt lat="59.9648442" lon="17.6965045">
        <ele>17.9218</ele>
        <time>2013-05-28T20:23:27Z</time>
      </trkpt>
      <trkpt lat="59.9647921" lon="17.6965939">
        <ele>18.4023</ele>
        <time>2013-05-28T20:23:28Z</time>
      </trkpt>
      <trkpt lat="59.9647403" lon="17.6966828">
        <ele>18.4023</ele>
        <time>2013-05-28T20:23:29Z</time>
      </trkpt>
      <trkpt lat="59.9646885" lon="17.6967718">
        <ele>18.8831</ele>
        <time>2013-05-28T20:23:30Z</time>
      </trkpt>
      <trkpt lat="59.964636" lon="17.6968607">
        <ele>19.3638</ele>
        <time>2013-05-28T20:23:31Z</time>
      </trkpt>
      <trkpt lat="59.964583" lon="17.6969475">
        <ele>19.3638</ele>
        <time>2013-05-28T20:23:32Z</time>
      </trkpt>
      <trkpt lat="59.9645307" lon="17.6970353">
        <ele>19.8444</ele>
        <time>2013-05-28T20:23:33Z</time>
      </trkpt>
      <trkpt lat="59.9644789" lon="17.6971242">
        <ele>19.8444</ele>
        <time>2013-05-28T20:23:34Z</time>
      </trkpt>
      <trkpt lat="59.9644278" lon="17.6972137">
        <ele>20.325</ele>
        <time>2013-05-28T20:23:35Z</time>
      </trkpt>
      <trkpt lat="59.9643769" lon="17.6973039">
        <ele>20.8057</ele>
        <time>2013-05-28T20:23:36Z</time>
      </trkpt>
      <trkpt lat="59.9643256" lon="17.6973914">
        <ele>20.8057</ele>
        <time>2013-05-28T20:23:37Z</time>
      </trkpt>
      <trkpt lat="59.964279" lon="17.6974923">
        <ele>21.2864</ele>
        <time>2013-05-28T20:23:38Z</time>
      </trkpt>
      <trkpt lat="59.9642296" lon="17.697581">
        <ele>21.767</ele>
        <time>2013-05-28T20:23:39Z</time>
      </trkpt>
      <trkpt lat="59.9641788" lon="17.6976628">
        <ele>21.767</ele>
        <time>2013-05-28T20:23:40Z</time>
      </trkpt>
      <trkpt lat="59.9641275" lon="17.6977422">
        <ele>21.2864</ele>
        <time>2013-05-28T20:23:41Z</time>
      </trkpt>
      <trkpt lat="59.964079" lon="17.6978255">
        <ele>20.8057</ele>
        <time>2013-05-28T20:23:42Z</time>
      </trkpt>
      <trkpt lat="59.9640296" lon="17.6979046">
        <ele>20.325</ele>
        <time>2013-05-28T20:23:43Z</time>
      </trkpt>
      <trkpt lat="59.9639791" lon="17.6979863">
        <ele>19.8444</ele>
        <time>2013-05-28T20:23:44Z</time>
      </trkpt>
      <trkpt lat="59.9639287" lon="17.6980692">
        <ele>19.8444</ele>
        <time>2013-05-28T20:23:45Z</time>
      </trkpt>
      <trkpt lat="59.96388" lon="17.6981523">
        <ele>19.3638</ele>
        <time>2013-05-28T20:23:46Z</time>
      </trkpt>
      <trkpt lat="59.9638315" lon="17.6982384">
        <ele>19.3638</ele>
        <time>2013-05-28T20:23:47Z</time>
      </trkpt>
      <trkpt lat="59.9637825" lon="17.6983248">
        <ele>19.3638</ele>
        <time>2013-05-28T20:23:48Z</time>
      </trkpt>
      <trkpt lat="59.963733" lon="17.6984091">
        <ele>19.3638</ele>
        <time>2013-05-28T20:23:49Z</time>
      </trkpt>
      <trkpt lat="59.9636833" lon="17.6984956">
        <ele>18.8831</ele>
        <time>2013-05-28T20:23:50Z</time>
      </trkpt>
      <trkpt lat="59.9636334" lon="17.6985828">
        <ele>18.8831</ele>
        <time>2013-05-28T20:23:51Z</time>
      </trkpt>
      <trkpt lat="59.9635829" lon="17.6986678">
        <ele>18.8831</ele>
        <time>2013-05-28T20:23:52Z</time>
      </trkpt>
      <trkpt lat="59.9635334" lon="17.6987522">
        <ele>18.4023</ele>
        <time>2013-05-28T20:23:53Z</time>
      </trkpt>
      <trkpt lat="59.9634841" lon="17.6988385">
        <ele>18.4023</ele>
        <time>2013-05-28T20:23:54Z</time>
      </trkpt>
      <trkpt lat="59.9634375" lon="17.6989227">
        <ele>18.4023</ele>
        <time>2013-05-28T20:23:55Z</time>
      </trkpt>
      <trkpt lat="59.9633922" lon="17.6990051">
        <ele>18.4023</ele>
        <time>2013-05-28T20:23:56Z</time>
      </trkpt>
      <trkpt lat="59.9633466" lon="17.6990845">
        <ele>18.4023</ele>
        <time>2013-05-28T20:23:57Z</time>
      </trkpt>
      <trkpt lat="59.9633005" lon="17.69916">
        <ele>18.4023</ele>
        <time>2013-05-28T20:23:58Z</time>
      </trkpt>
      <trkpt lat="59.9632559" lon="17.6992343">
        <ele>18.4023</ele>
        <time>2013-05-28T20:23:59Z</time>
      </trkpt>
      <trkpt lat="59.9632118" lon="17.6993111">
        <ele>18.4023</ele>
        <time>2013-05-28T20:24:00Z</time>
      </trkpt>
      <trkpt lat="59.9631671" lon="17.6993888">
        <ele>18.8831</ele>
        <time>2013-05-28T20:24:01Z</time>
      </trkpt>
      <trkpt lat="59.9631219" lon="17.6994644">
        <ele>18.8831</ele>
        <time>2013-05-28T20:24:02Z</time>
      </trkpt>
      <trkpt lat="59.9630772" lon="17.6995376">
        <ele>18.8831</ele>
        <time>2013-05-28T20:24:03Z</time>
      </trkpt>
      <trkpt lat="59.9630325" lon="17.6996115">
        <ele>19.3638</ele>
        <time>2013-05-28T20:24:04Z</time>
      </trkpt>
      <trkpt lat="59.9629885" lon="17.6996861">
        <ele>19.3638</ele>
        <time>2013-05-28T20:24:05Z</time>
      </trkpt>
      <trkpt lat="59.9629446" lon="17.699756">
        <ele>19.3638</ele>
        <time>2013-05-28T20:24:06Z</time>
      </trkpt>
      <trkpt lat="59.9629016" lon="17.6998242">
        <ele>19.8444</ele>
        <time>2013-05-28T20:24:07Z</time>
      </trkpt>
      <trkpt lat="59.9628596" lon="17.6998934">
        <ele>20.325</ele>
        <time>2013-05-28T20:24:08Z</time>
      </trkpt>
      <trkpt lat="59.9628169" lon="17.6999602">
        <ele>19.3638</ele>
        <time>2013-05-28T20:24:09Z</time>
      </trkpt>
      <trkpt lat="59.9627756" lon="17.700027">
        <ele>19.8444</ele>
        <time>2013-05-28T20:24:10Z</time>
      </trkpt>
      <trkpt lat="59.9627317" lon="17.7000917">
        <ele>18.8831</ele>
        <time>2013-05-28T20:24:11Z</time>
      </trkpt>
      <trkpt lat="59.9626887" lon="17.7001587">
        <ele>18.4023</ele>
        <time>2013-05-28T20:24:12Z</time>
      </trkpt>
      <trkpt lat="59.9626457" lon="17.7002244">
        <ele>18.4023</ele>
        <time>2013-05-28T20:24:13Z</time>
      </trkpt>
      <trkpt lat="59.9626022" lon="17.7002886">
        <ele>17.9218</ele>
        <time>2013-05-28T20:24:14Z</time>
      </trkpt>
      <trkpt lat="59.9625592" lon="17.7003575">
        <ele>17.9218</ele>
        <time>2013-05-28T20:24:15Z</time>
      </trkpt>
      <trkpt lat="59.962515" lon="17.7004274">
        <ele>16.9604</ele>
        <time>2013-05-28T20:24:16Z</time>
      </trkpt>
      <trkpt lat="59.9624722" lon="17.7004967">
        <ele>15.999</ele>
        <time>2013-05-28T20:24:17Z</time>
      </trkpt>
      <trkpt lat="59.9624324" lon="17.7005631">
        <ele>16.4797</ele>
        <time>2013-05-28T20:24:18Z</time>
      </trkpt>
      <trkpt lat="59.9623919" lon="17.7006316">
        <ele>16.4797</ele>
        <time>2013-05-28T20:24:19Z</time>
      </trkpt>
      <trkpt lat="59.9623461" lon="17.7007019">
        <ele>16.9604</ele>
        <time>2013-05-28T20:24:20Z</time>
      </trkpt>
      <trkpt lat="59.9623021" lon="17.7007724">
        <ele>17.9218</ele>
        <time>2013-05-28T20:24:21Z</time>
      </trkpt>
      <trkpt lat="59.962257" lon="17.7008398">
        <ele>17.9218</ele>
        <time>2013-05-28T20:24:22Z</time>
      </trkpt>
      <trkpt lat="59.9622132" lon="17.7009134">
        <ele>18.4023</ele>
        <time>2013-05-28T20:24:23Z</time>
      </trkpt>
      <trkpt lat="59.9621689" lon="17.7009875">
        <ele>18.8831</ele>
        <time>2013-05-28T20:24:24Z</time>
      </trkpt>
      <trkpt lat="59.9621225" lon="17.7010573">
        <ele>18.8831</ele>
        <time>2013-05-28T20:24:25Z</time>
      </trkpt>
      <trkpt lat="59.9620747" lon="17.7011272">
        <ele>19.3638</ele>
        <time>2013-05-28T20:24:26Z</time>
      </trkpt>
      <trkpt lat="59.9620256" lon="17.7011944">
        <ele>19.8444</ele>
        <time>2013-05-28T20:24:27Z</time>
      </trkpt>
      <trkpt lat="59.961975" lon="17.7012618">
        <ele>20.325</ele>
        <time>2013-05-28T20:24:28Z</time>
      </trkpt>
      <trkpt lat="59.9619241" lon="17.7013272">
        <ele>20.325</ele>
        <time>2013-05-28T20:24:29Z</time>
      </trkpt>
      <trkpt lat="59.9618739" lon="17.7013931">
        <ele>20.8057</ele>
        <time>2013-05-28T20:24:30Z</time>
      </trkpt>
      <trkpt lat="59.9618232" lon="17.7014598">
        <ele>21.767</ele>
        <time>2013-05-28T20:24:31Z</time>
      </trkpt>
      <trkpt lat="59.9617718" lon="17.7015249">
        <ele>21.767</ele>
        <time>2013-05-28T20:24:32Z</time>
      </trkpt>
      <trkpt lat="59.961722" lon="17.7015893">
        <ele>23.209</ele>
        <time>2013-05-28T20:24:33Z</time>
      </trkpt>
      <trkpt lat="59.9616713" lon="17.7016528">
        <ele>23.6896</ele>
        <time>2013-05-28T20:24:34Z</time>
      </trkpt>
      <trkpt lat="59.9616199" lon="17.7017139">
        <ele>24.1703</ele>
        <time>2013-05-28T20:24:35Z</time>
      </trkpt>
      <trkpt lat="59.9615694" lon="17.7017771">
        <ele>24.1703</ele>
        <time>2013-05-28T20:24:36Z</time>
      </trkpt>
      <trkpt lat="59.9615188" lon="17.701839">
        <ele>24.651</ele>
        <time>2013-05-28T20:24:37Z</time>
      </trkpt>
      <trkpt lat="59.9614698" lon="17.7019001">
        <ele>25.6123</ele>
        <time>2013-05-28T20:24:38Z</time>
      </trkpt>
      <trkpt lat="59.9614232" lon="17.7019659">
        <ele>26.0929</ele>
        <time>2013-05-28T20:24:39Z</time>
      </trkpt>
      <trkpt lat="59.961378" lon="17.7020294">
        <ele>26.5736</ele>
        <time>2013-05-28T20:24:40Z</time>
      </trkpt>
      <trkpt lat="59.96133" lon="17.7020926">
        <ele>26.0929</ele>
        <time>2013-05-28T20:24:41Z</time>
      </trkpt>
      <trkpt lat="59.9612818" lon="17.7021527">
        <ele>26.0929</ele>
        <time>2013-05-28T20:24:42Z</time>
      </trkpt>
      <trkpt lat="59.9612356" lon="17.7022152">
        <ele>26.5736</ele>
        <time>2013-05-28T20:24:43Z</time>
      </trkpt>
      <trkpt lat="59.961189" lon="17.7022819">
        <ele>26.0929</ele>
        <time>2013-05-28T20:24:44Z</time>
      </trkpt>
      <trkpt lat="59.9611435" lon="17.7023512">
        <ele>25.6123</ele>
        <time>2013-05-28T20:24:45Z</time>
      </trkpt>
      <trkpt lat="59.9610999" lon="17.7024218">
        <ele>25.1317</ele>
        <time>2013-05-28T20:24:46Z</time>
      </trkpt>
      <trkpt lat="59.9610533" lon="17.7024964">
        <ele>25.1317</ele>
        <time>2013-05-28T20:24:47Z</time>
      </trkpt>
      <trkpt lat="59.9610066" lon="17.7025715">
        <ele>25.6123</ele>
        <time>2013-05-28T20:24:48Z</time>
      </trkpt>
      <trkpt lat="59.9609621" lon="17.7026435">
        <ele>25.6123</ele>
        <time>2013-05-28T20:24:49Z</time>
      </trkpt>
      <trkpt lat="59.9609167" lon="17.702716">
        <ele>24.651</ele>
        <time>2013-05-28T20:24:50Z</time>
      </trkpt>
      <trkpt lat="59.9608735" lon="17.7027865">
        <ele>24.651</ele>
        <time>2013-05-28T20:24:51Z</time>
      </trkpt>
      <trkpt lat="59.9608311" lon="17.7028608">
        <ele>24.651</ele>
        <time>2013-05-28T20:24:52Z</time>
      </trkpt>
      <trkpt lat="59.9607886" lon="17.7029309">
        <ele>24.651</ele>
        <time>2013-05-28T20:24:53Z</time>
      </trkpt>
      <trkpt lat="59.960744" lon="17.7030062">
        <ele>24.1703</ele>
        <time>2013-05-28T20:24:54Z</time>
      </trkpt>
      <trkpt lat="59.9606991" lon="17.703082">
        <ele>23.6896</ele>
        <time>2013-05-28T20:24:55Z</time>
      </trkpt>
      <trkpt lat="59.9606544" lon="17.7031548">
        <ele>23.6896</ele>
        <time>2013-05-28T20:24:56Z</time>
      </trkpt>
      <trkpt lat="59.9606089" lon="17.7032292">
        <ele>23.6896</ele>
        <time>2013-05-28T20:24:57Z</time>
      </trkpt>
      <trkpt lat="59.9605627" lon="17.7033046">
        <ele>23.6896</ele>
        <time>2013-05-28T20:24:58Z</time>
      </trkpt>
      <trkpt lat="59.9605165" lon="17.703396">
        <ele>24.1703</ele>
        <time>2013-05-28T20:24:59Z</time>
      </trkpt>
      <trkpt lat="59.9604707" lon="17.7034721">
        <ele>24.1703</ele>
        <time>2013-05-28T20:25:00Z</time>
      </trkpt>
      <trkpt lat="59.960428" lon="17.70354">
        <ele>24.651</ele>
        <time>2013-05-28T20:25:01Z</time>
      </trkpt>
      <trkpt lat="59.9603845" lon="17.7036064">
        <ele>24.651</ele>
        <time>2013-05-28T20:25:02Z</time>
      </trkpt>
      <trkpt lat="59.9603412" lon="17.7036843">
        <ele>24.651</ele>
        <time>2013-05-28T20:25:03Z</time>
      </trkpt>
      <trkpt lat="59.9602992" lon="17.7037549">
        <ele>25.1317</ele>
        <time>2013-05-28T20:25:04Z</time>
      </trkpt>
      <trkpt lat="59.960258" lon="17.7038157">
        <ele>25.6123</ele>
        <time>2013-05-28T20:25:05Z</time>
      </trkpt>
      <trkpt lat="59.9602202" lon="17.7038717">
        <ele>25.6123</ele>
        <time>2013-05-28T20:25:06Z</time>
      </trkpt>
      <trkpt lat="59.9601875" lon="17.7039312">
        <ele>26.0929</ele>
        <time>2013-05-28T20:25:07Z</time>
      </trkpt>
      <trkpt lat="59.9601567" lon="17.7039885">
        <ele>26.5736</ele>
        <time>2013-05-28T20:25:08Z</time>
      </trkpt>
      <trkpt lat="59.9601301" lon="17.7040555">
        <ele>26.5736</ele>
        <time>2013-05-28T20:25:09Z</time>
      </trkpt>
      <trkpt lat="59.9601163" lon="17.7041339">
        <ele>27.0543</ele>
        <time>2013-05-28T20:25:10Z</time>
      </trkpt>
      <trkpt lat="59.960121" lon="17.7042232">
        <ele>27.5349</ele>
        <time>2013-05-28T20:25:11Z</time>
      </trkpt>
      <trkpt lat="59.9601378" lon="17.7043169">
        <ele>27.5349</ele>
        <time>2013-05-28T20:25:12Z</time>
      </trkpt>
      <trkpt lat="59.9601708" lon="17.7044015">
        <ele>28.0155</ele>
        <time>2013-05-28T20:25:13Z</time>
      </trkpt>
      <trkpt lat="59.9602181" lon="17.7044751">
        <ele>28.4962</ele>
        <time>2013-05-28T20:25:14Z</time>
      </trkpt>
      <trkpt lat="59.9602706" lon="17.7045413">
        <ele>28.9769</ele>
        <time>2013-05-28T20:25:15Z</time>
      </trkpt>
      <trkpt lat="59.9603251" lon="17.7046031">
        <ele>29.4575</ele>
        <time>2013-05-28T20:25:16Z</time>
      </trkpt>
      <trkpt lat="59.9603784" lon="17.7046669">
        <ele>29.4575</ele>
        <time>2013-05-28T20:25:17Z</time>
      </trkpt>
      <trkpt lat="59.9604343" lon="17.7047336">
        <ele>29.9381</ele>
        <time>2013-05-28T20:25:18Z</time>
      </trkpt>
      <trkpt lat="59.9604908" lon="17.7048035">
        <ele>30.4188</ele>
        <time>2013-05-28T20:25:19Z</time>
      </trkpt>
      <trkpt lat="59.9605481" lon="17.704874">
        <ele>30.8995</ele>
        <time>2013-05-28T20:25:20Z</time>
      </trkpt>
      <trkpt lat="59.9606053" lon="17.7049424">
        <ele>30.8995</ele>
        <time>2013-05-28T20:25:21Z</time>
      </trkpt>
      <trkpt lat="59.9606623" lon="17.7050185">
        <ele>32.3416</ele>
        <time>2013-05-28T20:25:22Z</time>
      </trkpt>
      <trkpt lat="59.9607222" lon="17.7050963">
        <ele>33.3029</ele>
        <time>2013-05-28T20:25:23Z</time>
      </trkpt>
      <trkpt lat="59.9607823" lon="17.7051769">
        <ele>34.7449</ele>
        <time>2013-05-28T20:25:24Z</time>
      </trkpt>
      <trkpt lat="59.9608411" lon="17.7052593">
        <ele>35.2255</ele>
        <time>2013-05-28T20:25:25Z</time>
      </trkpt>
      <trkpt lat="59.9608996" lon="17.7053397">
        <ele>35.2255</ele>
        <time>2013-05-28T20:25:26Z</time>
      </trkpt>
      <trkpt lat="59.9609576" lon="17.7054293">
        <ele>35.2255</ele>
        <time>2013-05-28T20:25:27Z</time>
      </trkpt>
      <trkpt lat="59.9610174" lon="17.7055319">
        <ele>34.7449</ele>
        <time>2013-05-28T20:25:28Z</time>
      </trkpt>
      <trkpt lat="59.9610729" lon="17.7056313">
        <ele>35.2255</ele>
        <time>2013-05-28T20:25:29Z</time>
      </trkpt>
      <trkpt lat="59.9611294" lon="17.7057291">
        <ele>35.7061</ele>
        <time>2013-05-28T20:25:30Z</time>
      </trkpt>
      <trkpt lat="59.9611849" lon="17.7058308">
        <ele>34.7449</ele>
        <time>2013-05-28T20:25:31Z</time>
      </trkpt>
      <trkpt lat="59.9612412" lon="17.7059309">
        <ele>35.2255</ele>
        <time>2013-05-28T20:25:32Z</time>
      </trkpt>
      <trkpt lat="59.9612954" lon="17.7060271">
        <ele>35.2255</ele>
        <time>2013-05-28T20:25:33Z</time>
      </trkpt>
      <trkpt lat="59.961349" lon="17.7061222">
        <ele>35.7061</ele>
        <time>2013-05-28T20:25:34Z</time>
      </trkpt>
      <trkpt lat="59.9614044" lon="17.7062178">
        <ele>36.1868</ele>
        <time>2013-05-28T20:25:35Z</time>
      </trkpt>
      <trkpt lat="59.9614611" lon="17.7063048">
        <ele>36.6675</ele>
        <time>2013-05-28T20:25:36Z</time>
      </trkpt>
      <trkpt lat="59.9615183" lon="17.7063924">
        <ele>37.1481</ele>
        <time>2013-05-28T20:25:37Z</time>
      </trkpt>
      <trkpt lat="59.9615782" lon="17.7064669">
        <ele>37.6287</ele>
        <time>2013-05-28T20:25:38Z</time>
      </trkpt>
      <trkpt lat="59.9616382" lon="17.7065423">
        <ele>38.1094</ele>
        <time>2013-05-28T20:25:39Z</time>
      </trkpt>
      <trkpt lat="59.9616977" lon="17.7066124">
        <ele>38.1094</ele>
        <time>2013-05-28T20:25:40Z</time>
      </trkpt>
      <trkpt lat="59.9617569" lon="17.7066757">
        <ele>34.2642</ele>
        <time>2013-05-28T20:25:41Z</time>
      </trkpt>
      <trkpt lat="59.96182" lon="17.7067378">
        <ele>32.3416</ele>
        <time>2013-05-28T20:25:42Z</time>
      </trkpt>
      <trkpt lat="59.9618914" lon="17.7067987">
        <ele>31.3801</ele>
        <time>2013-05-28T20:25:43Z</time>
      </trkpt>
      <trkpt lat="59.9619586" lon="17.7068481">
        <ele>31.3801</ele>
        <time>2013-05-28T20:25:44Z</time>
      </trkpt>
      <trkpt lat="59.9620256" lon="17.7068926">
        <ele>31.3801</ele>
        <time>2013-05-28T20:25:45Z</time>
      </trkpt>
      <trkpt lat="59.9620929" lon="17.7069341">
        <ele>31.3801</ele>
        <time>2013-05-28T20:25:46Z</time>
      </trkpt>
      <trkpt lat="59.962164" lon="17.7069775">
        <ele>29.9381</ele>
        <time>2013-05-28T20:25:47Z</time>
      </trkpt>
      <trkpt lat="59.962236" lon="17.7070238">
        <ele>29.4575</ele>
        <time>2013-05-28T20:25:48Z</time>
      </trkpt>
      <trkpt lat="59.9623095" lon="17.7070629">
        <ele>29.4575</ele>
        <time>2013-05-28T20:25:49Z</time>
      </trkpt>
      <trkpt lat="59.9623744" lon="17.7070912">
        <ele>27.0543</ele>
        <time>2013-05-28T20:25:50Z</time>
      </trkpt>
      <trkpt lat="59.9624503" lon="17.7071217">
        <ele>27.0543</ele>
        <time>2013-05-28T20:25:51Z</time>
      </trkpt>
      <trkpt lat="59.9625188" lon="17.707146">
        <ele>26.5736</ele>
        <time>2013-05-28T20:25:52Z</time>
      </trkpt>
      <trkpt lat="59.9625851" lon="17.7071692">
        <ele>24.1703</ele>
        <time>2013-05-28T20:25:53Z</time>
      </trkpt>
      <trkpt lat="59.9626553" lon="17.7071888">
        <ele>23.6896</ele>
        <time>2013-05-28T20:25:54Z</time>
      </trkpt>
      <trkpt lat="59.9627281" lon="17.7072029">
        <ele>24.651</ele>
        <time>2013-05-28T20:25:55Z</time>
      </trkpt>
      <trkpt lat="59.9627974" lon="17.7072138">
        <ele>24.1703</ele>
        <time>2013-05-28T20:25:56Z</time>
      </trkpt>
      <trkpt lat="59.9628747" lon="17.7072249">
        <ele>23.6896</ele>
        <time>2013-05-28T20:25:57Z</time>
      </trkpt>
      <trkpt lat="59.9629534" lon="17.7072292">
        <ele>21.767</ele>
        <time>2013-05-28T20:25:58Z</time>
      </trkpt>
      <trkpt lat="59.9630337" lon="17.7072299">
        <ele>19.8444</ele>
        <time>2013-05-28T20:25:59Z</time>
      </trkpt>
      <trkpt lat="59.9631176" lon="17.7072284">
        <ele>18.8831</ele>
        <time>2013-05-28T20:26:00Z</time>
      </trkpt>
      <trkpt lat="59.9632015" lon="17.7072273">
        <ele>17.9218</ele>
        <time>2013-05-28T20:26:01Z</time>
      </trkpt>
      <trkpt lat="59.9632865" lon="17.707233">
        <ele>17.9218</ele>
        <time>2013-05-28T20:26:02Z</time>
      </trkpt>
      <trkpt lat="59.9633708" lon="17.707238">
        <ele>17.4412</ele>
        <time>2013-05-28T20:26:03Z</time>
      </trkpt>
      <trkpt lat="59.9634522" lon="17.7072504">
        <ele>16.4797</ele>
        <time>2013-05-28T20:26:04Z</time>
      </trkpt>
      <trkpt lat="59.9635331" lon="17.7072599">
        <ele>15.999</ele>
        <time>2013-05-28T20:26:05Z</time>
      </trkpt>
      <trkpt lat="59.9636157" lon="17.7072678">
        <ele>15.5184</ele>
        <time>2013-05-28T20:26:06Z</time>
      </trkpt>
      <trkpt lat="59.9636988" lon="17.7072749">
        <ele>15.5184</ele>
        <time>2013-05-28T20:26:07Z</time>
      </trkpt>
      <trkpt lat="59.9637802" lon="17.7072775">
        <ele>15.5184</ele>
        <time>2013-05-28T20:26:08Z</time>
      </trkpt>
      <trkpt lat="59.9638656" lon="17.7072864">
        <ele>15.5184</ele>
        <time>2013-05-28T20:26:09Z</time>
      </trkpt>
      <trkpt lat="59.9639504" lon="17.7072981">
        <ele>15.5184</ele>
        <time>2013-05-28T20:26:10Z</time>
      </trkpt>
      <trkpt lat="59.9640339" lon="17.7073128">
        <ele>14.557</ele>
        <time>2013-05-28T20:26:11Z</time>
      </trkpt>
      <trkpt lat="59.9641149" lon="17.7073283">
        <ele>13.5958</ele>
        <time>2013-05-28T20:26:12Z</time>
      </trkpt>
      <trkpt lat="59.9641952" lon="17.7073486">
        <ele>13.1151</ele>
        <time>2013-05-28T20:26:13Z</time>
      </trkpt>
      <trkpt lat="59.9642737" lon="17.7073704">
        <ele>12.1538</ele>
        <time>2013-05-28T20:26:14Z</time>
      </trkpt>
      <trkpt lat="59.9643489" lon="17.7074015">
        <ele>11.1925</ele>
        <time>2013-05-28T20:26:15Z</time>
      </trkpt>
      <trkpt lat="59.9644207" lon="17.7074328">
        <ele>10.7118</ele>
        <time>2013-05-28T20:26:16Z</time>
      </trkpt>
      <trkpt lat="59.9644964" lon="17.7074708">
        <ele>10.7118</ele>
        <time>2013-05-28T20:26:17Z</time>
      </trkpt>
      <trkpt lat="59.9645706" lon="17.7075147">
        <ele>10.7118</ele>
        <time>2013-05-28T20:26:18Z</time>
      </trkpt>
      <trkpt lat="59.9646438" lon="17.7075573">
        <ele>10.2312</ele>
        <time>2013-05-28T20:26:19Z</time>
      </trkpt>
      <trkpt lat="59.9647189" lon="17.7076055">
        <ele>10.7118</ele>
        <time>2013-05-28T20:26:20Z</time>
      </trkpt>
      <trkpt lat="59.9647968" lon="17.7076566">
        <ele>11.1925</ele>
        <time>2013-05-28T20:26:21Z</time>
      </trkpt>
      <trkpt lat="59.9648793" lon="17.7077081">
        <ele>11.6732</ele>
        <time>2013-05-28T20:26:22Z</time>
      </trkpt>
      <trkpt lat="59.964959" lon="17.7077648">
        <ele>12.1538</ele>
        <time>2013-05-28T20:26:23Z</time>
      </trkpt>
      <trkpt lat="59.965038" lon="17.7078234">
        <ele>12.1538</ele>
        <time>2013-05-28T20:26:24Z</time>
      </trkpt>
      <trkpt lat="59.9651161" lon="17.7078852">
        <ele>11.6732</ele>
        <time>2013-05-28T20:26:25Z</time>
      </trkpt>
      <trkpt lat="59.9651953" lon="17.7079478">
        <ele>11.6732</ele>
        <time>2013-05-28T20:26:26Z</time>
      </trkpt>
      <trkpt lat="59.9652734" lon="17.7080203">
        <ele>11.6732</ele>
        <time>2013-05-28T20:26:27Z</time>
      </trkpt>
      <trkpt lat="59.9653495" lon="17.708101">
        <ele>11.6732</ele>
        <time>2013-05-28T20:26:28Z</time>
      </trkpt>
      <trkpt lat="59.9654243" lon="17.7081825">
        <ele>12.1538</ele>
        <time>2013-05-28T20:26:29Z</time>
      </trkpt>
      <trkpt lat="59.9654984" lon="17.7082647">
        <ele>12.1538</ele>
        <time>2013-05-28T20:26:30Z</time>
      </trkpt>
      <trkpt lat="59.9655694" lon="17.7083523">
        <ele>12.6344</ele>
        <time>2013-05-28T20:26:31Z</time>
      </trkpt>
      <trkpt lat="59.9656352" lon="17.7084478">
        <ele>13.1151</ele>
        <time>2013-05-28T20:26:32Z</time>
      </trkpt>
      <trkpt lat="59.9656955" lon="17.7085522">
        <ele>13.1151</ele>
        <time>2013-05-28T20:26:33Z</time>
      </trkpt>
      <trkpt lat="59.9657504" lon="17.7086648">
        <ele>12.6344</ele>
        <time>2013-05-28T20:26:34Z</time>
      </trkpt>
      <trkpt lat="59.9658012" lon="17.7087845">
        <ele>13.1151</ele>
        <time>2013-05-28T20:26:35Z</time>
      </trkpt>
      <trkpt lat="59.9658476" lon="17.7089094">
        <ele>13.1151</ele>
        <time>2013-05-28T20:26:36Z</time>
      </trkpt>
      <trkpt lat="59.9658911" lon="17.7090383">
        <ele>12.6344</ele>
        <time>2013-05-28T20:26:37Z</time>
      </trkpt>
      <trkpt lat="59.9659315" lon="17.7091697">
        <ele>12.6344</ele>
        <time>2013-05-28T20:26:38Z</time>
      </trkpt>
      <trkpt lat="59.9659716" lon="17.7093004">
        <ele>12.6344</ele>
        <time>2013-05-28T20:26:39Z</time>
      </trkpt>
      <trkpt lat="59.9660146" lon="17.7094341">
        <ele>13.1151</ele>
        <time>2013-05-28T20:26:40Z</time>
      </trkpt>
      <trkpt lat="59.966052" lon="17.7095656">
        <ele>13.1151</ele>
        <time>2013-05-28T20:26:41Z</time>
      </trkpt>
      <trkpt lat="59.9660913" lon="17.7096983">
        <ele>13.1151</ele>
        <time>2013-05-28T20:26:42Z</time>
      </trkpt>
      <trkpt lat="59.9661262" lon="17.7098289">
        <ele>13.5958</ele>
        <time>2013-05-28T20:26:43Z</time>
      </trkpt>
      <trkpt lat="59.9661608" lon="17.7099589">
        <ele>14.0764</ele>
        <time>2013-05-28T20:26:44Z</time>
      </trkpt>
      <trkpt lat="59.9661982" lon="17.7100903">
        <ele>14.557</ele>
        <time>2013-05-28T20:26:45Z</time>
      </trkpt>
      <trkpt lat="59.9662334" lon="17.7102204">
        <ele>14.557</ele>
        <time>2013-05-28T20:26:46Z</time>
      </trkpt>
      <trkpt lat="59.9662693" lon="17.7103479">
        <ele>14.557</ele>
        <time>2013-05-28T20:26:47Z</time>
      </trkpt>
      <trkpt lat="59.9663052" lon="17.710475">
        <ele>15.0377</ele>
        <time>2013-05-28T20:26:48Z</time>
      </trkpt>
      <trkpt lat="59.9663402" lon="17.7106021">
        <ele>15.0377</ele>
        <time>2013-05-28T20:26:49Z</time>
      </trkpt>
      <trkpt lat="59.9663758" lon="17.7107273">
        <ele>15.0377</ele>
        <time>2013-05-28T20:26:50Z</time>
      </trkpt>
      <trkpt lat="59.966408" lon="17.7108498">
        <ele>15.0377</ele>
        <time>2013-05-28T20:26:51Z</time>
      </trkpt>
      <trkpt lat="59.9664416" lon="17.7109642">
        <ele>15.5184</ele>
        <time>2013-05-28T20:26:52Z</time>
      </trkpt>
      <trkpt lat="59.966476" lon="17.7110812">
        <ele>15.999</ele>
        <time>2013-05-28T20:26:53Z</time>
      </trkpt>
      <trkpt lat="59.9665104" lon="17.7111997">
        <ele>16.4797</ele>
        <time>2013-05-28T20:26:54Z</time>
      </trkpt>
      <trkpt lat="59.9665468" lon="17.7113186">
        <ele>16.9604</ele>
        <time>2013-05-28T20:26:55Z</time>
      </trkpt>
      <trkpt lat="59.9665846" lon="17.7114339">
        <ele>17.4412</ele>
        <time>2013-05-28T20:26:56Z</time>
      </trkpt>
      <trkpt lat="59.9666212" lon="17.711548">
        <ele>18.4023</ele>
        <time>2013-05-28T20:26:57Z</time>
      </trkpt>
      <trkpt lat="59.9666513" lon="17.7116675">
        <ele>18.4023</ele>
        <time>2013-05-28T20:26:58Z</time>
      </trkpt>
      <trkpt lat="59.9666837" lon="17.711791">
        <ele>18.8831</ele>
        <time>2013-05-28T20:26:59Z</time>
      </trkpt>
      <trkpt lat="59.9667215" lon="17.7119016">
        <ele>19.3638</ele>
        <time>2013-05-28T20:27:00Z</time>
      </trkpt>
      <trkpt lat="59.9667618" lon="17.7120037">
        <ele>19.3638</ele>
        <time>2013-05-28T20:27:01Z</time>
      </trkpt>
      <trkpt lat="59.9668017" lon="17.7121069">
        <ele>18.8831</ele>
        <time>2013-05-28T20:27:02Z</time>
      </trkpt>
      <trkpt lat="59.9668429" lon="17.7122121">
        <ele>19.3638</ele>
        <time>2013-05-28T20:27:03Z</time>
      </trkpt>
      <trkpt lat="59.9668811" lon="17.7123224">
        <ele>20.325</ele>
        <time>2013-05-28T20:27:04Z</time>
      </trkpt>
      <trkpt lat="59.9669135" lon="17.7124375">
        <ele>20.325</ele>
        <time>2013-05-28T20:27:05Z</time>
      </trkpt>
      <trkpt lat="59.9669426" lon="17.7125561">
        <ele>20.325</ele>
        <time>2013-05-28T20:27:06Z</time>
      </trkpt>
      <trkpt lat="59.9669706" lon="17.7126772">
        <ele>20.325</ele>
        <time>2013-05-28T20:27:07Z</time>
      </trkpt>
      <trkpt lat="59.966997" lon="17.7128005">
        <ele>20.8057</ele>
        <time>2013-05-28T20:27:08Z</time>
      </trkpt>
      <trkpt lat="59.9670234" lon="17.7129249">
        <ele>20.8057</ele>
        <time>2013-05-28T20:27:09Z</time>
      </trkpt>
      <trkpt lat="59.9670512" lon="17.7130522">
        <ele>20.8057</ele>
        <time>2013-05-28T20:27:10Z</time>
      </trkpt>
      <trkpt lat="59.9670783" lon="17.7131823">
        <ele>21.2864</ele>
        <time>2013-05-28T20:27:11Z</time>
      </trkpt>
      <trkpt lat="59.9671038" lon="17.7133143">
        <ele>21.2864</ele>
        <time>2013-05-28T20:27:12Z</time>
      </trkpt>
      <trkpt lat="59.9671287" lon="17.7134469">
        <ele>21.2864</ele>
        <time>2013-05-28T20:27:13Z</time>
      </trkpt>
      <trkpt lat="59.9671529" lon="17.7135818">
        <ele>21.2864</ele>
        <time>2013-05-28T20:27:14Z</time>
      </trkpt>
      <trkpt lat="59.9671762" lon="17.7137196">
        <ele>20.8057</ele>
        <time>2013-05-28T20:27:15Z</time>
      </trkpt>
      <trkpt lat="59.9671993" lon="17.7138584">
        <ele>20.8057</ele>
        <time>2013-05-28T20:27:16Z</time>
      </trkpt>
      <trkpt lat="59.9672223" lon="17.7139988">
        <ele>21.2864</ele>
        <time>2013-05-28T20:27:17Z</time>
      </trkpt>
      <trkpt lat="59.9672446" lon="17.7141447">
        <ele>21.2864</ele>
        <time>2013-05-28T20:27:18Z</time>
      </trkpt>
      <trkpt lat="59.9672659" lon="17.7142956">
        <ele>21.2864</ele>
        <time>2013-05-28T20:27:19Z</time>
      </trkpt>
      <trkpt lat="59.9672865" lon="17.7144524">
        <ele>20.8057</ele>
        <time>2013-05-28T20:27:20Z</time>
      </trkpt>
      <trkpt lat="59.9673103" lon="17.71461">
        <ele>20.8057</ele>
        <time>2013-05-28T20:27:21Z</time>
      </trkpt>
      <trkpt lat="59.9673363" lon="17.7147705">
        <ele>21.2864</ele>
        <time>2013-05-28T20:27:22Z</time>
      </trkpt>
      <trkpt lat="59.9673611" lon="17.7149322">
        <ele>20.8057</ele>
        <time>2013-05-28T20:27:23Z</time>
      </trkpt>
      <trkpt lat="59.967387" lon="17.7150978">
        <ele>21.2864</ele>
        <time>2013-05-28T20:27:24Z</time>
      </trkpt>
      <trkpt lat="59.9674115" lon="17.7152553">
        <ele>21.767</ele>
        <time>2013-05-28T20:27:25Z</time>
      </trkpt>
      <trkpt lat="59.9674361" lon="17.7153953">
        <ele>21.2864</ele>
        <time>2013-05-28T20:27:26Z</time>
      </trkpt>
      <trkpt lat="59.9674571" lon="17.7155397">
        <ele>21.767</ele>
        <time>2013-05-28T20:27:27Z</time>
      </trkpt>
      <trkpt lat="59.9674875" lon="17.7156746">
        <ele>22.2476</ele>
        <time>2013-05-28T20:27:28Z</time>
      </trkpt>
      <trkpt lat="59.9675196" lon="17.7157885">
        <ele>21.767</ele>
        <time>2013-05-28T20:27:29Z</time>
      </trkpt>
      <trkpt lat="59.9675461" lon="17.715917">
        <ele>20.8057</ele>
        <time>2013-05-28T20:27:30Z</time>
      </trkpt>
      <trkpt lat="59.9675788" lon="17.7160183">
        <ele>19.8444</ele>
        <time>2013-05-28T20:27:31Z</time>
      </trkpt>
      <trkpt lat="59.9676037" lon="17.7161188">
        <ele>19.8444</ele>
        <time>2013-05-28T20:27:32Z</time>
      </trkpt>
      <trkpt lat="59.96763" lon="17.7162204">
        <ele>20.325</ele>
        <time>2013-05-28T20:27:33Z</time>
      </trkpt>
      <trkpt lat="59.9676704" lon="17.7163132">
        <ele>21.2864</ele>
        <time>2013-05-28T20:27:34Z</time>
      </trkpt>
      <trkpt lat="59.96772" lon="17.7164156">
        <ele>22.2476</ele>
        <time>2013-05-28T20:27:35Z</time>
      </trkpt>
      <trkpt lat="59.9677663" lon="17.7165078">
        <ele>23.209</ele>
        <time>2013-05-28T20:27:36Z</time>
      </trkpt>
      <trkpt lat="59.967815" lon="17.7165966">
        <ele>23.6896</ele>
        <time>2013-05-28T20:27:37Z</time>
      </trkpt>
      <trkpt lat="59.9678604" lon="17.7166816">
        <ele>23.6896</ele>
        <time>2013-05-28T20:27:38Z</time>
      </trkpt>
      <trkpt lat="59.9679074" lon="17.716763">
        <ele>23.6896</ele>
        <time>2013-05-28T20:27:39Z</time>
      </trkpt>
      <trkpt lat="59.9679558" lon="17.7168385">
        <ele>24.651</ele>
        <time>2013-05-28T20:27:40Z</time>
      </trkpt>
      <trkpt lat="59.9680044" lon="17.7169074">
        <ele>25.6123</ele>
        <time>2013-05-28T20:27:41Z</time>
      </trkpt>
      <trkpt lat="59.9680553" lon="17.7169741">
        <ele>26.5736</ele>
        <time>2013-05-28T20:27:42Z</time>
      </trkpt>
      <trkpt lat="59.9681071" lon="17.7170385">
        <ele>27.0543</ele>
        <time>2013-05-28T20:27:43Z</time>
      </trkpt>
      <trkpt lat="59.9681607" lon="17.7170985">
        <ele>27.5349</ele>
        <time>2013-05-28T20:27:44Z</time>
      </trkpt>
      <trkpt lat="59.9682257" lon="17.7171556">
        <ele>28.0155</ele>
        <time>2013-05-28T20:27:45Z</time>
      </trkpt>
      <trkpt lat="59.9682859" lon="17.7172114">
        <ele>28.4962</ele>
        <time>2013-05-28T20:27:46Z</time>
      </trkpt>
      <trkpt lat="59.9683477" lon="17.7172617">
        <ele>30.4188</ele>
        <time>2013-05-28T20:27:47Z</time>
      </trkpt>
      <trkpt lat="59.9684117" lon="17.7173055">
        <ele>30.8995</ele>
        <time>2013-05-28T20:27:48Z</time>
      </trkpt>
      <trkpt lat="59.9684775" lon="17.7173433">
        <ele>31.3801</ele>
        <time>2013-05-28T20:27:49Z</time>
      </trkpt>
      <trkpt lat="59.968536" lon="17.7173798">
        <ele>31.8607</ele>
        <time>2013-05-28T20:27:50Z</time>
      </trkpt>
      <trkpt lat="59.9685943" lon="17.7174104">
        <ele>31.8607</ele>
        <time>2013-05-28T20:27:51Z</time>
      </trkpt>
      <trkpt lat="59.968657" lon="17.7174378">
        <ele>31.8607</ele>
        <time>2013-05-28T20:27:52Z</time>
      </trkpt>
      <trkpt lat="59.9687228" lon="17.7174585">
        <ele>32.8223</ele>
        <time>2013-05-28T20:27:53Z</time>
      </trkpt>
      <trkpt lat="59.9687815" lon="17.7174788">
        <ele>31.8607</ele>
        <time>2013-05-28T20:27:54Z</time>
      </trkpt>
      <trkpt lat="59.9688391" lon="17.7174726">
        <ele>31.3801</ele>
        <time>2013-05-28T20:27:55Z</time>
      </trkpt>
      <trkpt lat="59.9688935" lon="17.7174529">
        <ele>30.4188</ele>
        <time>2013-05-28T20:27:56Z</time>
      </trkpt>
      <trkpt lat="59.9689494" lon="17.7174376">
        <ele>29.4575</ele>
        <time>2013-05-28T20:27:57Z</time>
      </trkpt>
      <trkpt lat="59.9690089" lon="17.7174368">
        <ele>28.9769</ele>
        <time>2013-05-28T20:27:58Z</time>
      </trkpt>
      <trkpt lat="59.9690667" lon="17.7174544">
        <ele>27.5349</ele>
        <time>2013-05-28T20:27:59Z</time>
      </trkpt>
      <trkpt lat="59.9691302" lon="17.7174763">
        <ele>28.0155</ele>
        <time>2013-05-28T20:28:00Z</time>
      </trkpt>
      <trkpt lat="59.9691939" lon="17.7175056">
        <ele>28.4962</ele>
        <time>2013-05-28T20:28:01Z</time>
      </trkpt>
      <trkpt lat="59.9692555" lon="17.7175337">
        <ele>28.0155</ele>
        <time>2013-05-28T20:28:02Z</time>
      </trkpt>
      <trkpt lat="59.9693196" lon="17.7175643">
        <ele>27.5349</ele>
        <time>2013-05-28T20:28:03Z</time>
      </trkpt>
      <trkpt lat="59.9693855" lon="17.7176">
        <ele>27.0543</ele>
        <time>2013-05-28T20:28:04Z</time>
      </trkpt>
      <trkpt lat="59.9694523" lon="17.7176404">
        <ele>26.5736</ele>
        <time>2013-05-28T20:28:05Z</time>
      </trkpt>
      <trkpt lat="59.9695198" lon="17.7176809">
        <ele>26.0929</ele>
        <time>2013-05-28T20:28:06Z</time>
      </trkpt>
      <trkpt lat="59.9695875" lon="17.7177228">
        <ele>25.1317</ele>
        <time>2013-05-28T20:28:07Z</time>
      </trkpt>
      <trkpt lat="59.9696565" lon="17.7177715">
        <ele>25.1317</ele>
        <time>2013-05-28T20:28:08Z</time>
      </trkpt>
      <trkpt lat="59.9697238" lon="17.7178263">
        <ele>24.651</ele>
        <time>2013-05-28T20:28:09Z</time>
      </trkpt>
      <trkpt lat="59.9697911" lon="17.7178827">
        <ele>24.651</ele>
        <time>2013-05-28T20:28:10Z</time>
      </trkpt>
      <trkpt lat="59.9698579" lon="17.7179398">
        <ele>24.1703</ele>
        <time>2013-05-28T20:28:11Z</time>
      </trkpt>
      <trkpt lat="59.9699242" lon="17.7179981">
        <ele>24.1703</ele>
        <time>2013-05-28T20:28:12Z</time>
      </trkpt>
      <trkpt lat="59.9699906" lon="17.7180578">
        <ele>23.6896</ele>
        <time>2013-05-28T20:28:13Z</time>
      </trkpt>
      <trkpt lat="59.9700563" lon="17.718118">
        <ele>23.6896</ele>
        <time>2013-05-28T20:28:14Z</time>
      </trkpt>
      <trkpt lat="59.9701211" lon="17.7181784">
        <ele>23.6896</ele>
        <time>2013-05-28T20:28:15Z</time>
      </trkpt>
      <trkpt lat="59.9701858" lon="17.7182375">
        <ele>23.209</ele>
        <time>2013-05-28T20:28:16Z</time>
      </trkpt>
      <trkpt lat="59.9702507" lon="17.7182944">
        <ele>23.209</ele>
        <time>2013-05-28T20:28:17Z</time>
      </trkpt>
      <trkpt lat="59.9703154" lon="17.7183517">
        <ele>23.209</ele>
        <time>2013-05-28T20:28:18Z</time>
      </trkpt>
      <trkpt lat="59.9703796" lon="17.7184099">
        <ele>23.209</ele>
        <time>2013-05-28T20:28:19Z</time>
      </trkpt>
      <trkpt lat="59.9704428" lon="17.718467">
        <ele>23.209</ele>
        <time>2013-05-28T20:28:20Z</time>
      </trkpt>
      <trkpt lat="59.9705054" lon="17.7185241">
        <ele>23.209</ele>
        <time>2013-05-28T20:28:21Z</time>
      </trkpt>
      <trkpt lat="59.9705666" lon="17.7185796">
        <ele>22.7283</ele>
        <time>2013-05-28T20:28:22Z</time>
      </trkpt>
      <trkpt lat="59.9706276" lon="17.7186358">
        <ele>22.2476</ele>
        <time>2013-05-28T20:28:23Z</time>
      </trkpt>
      <trkpt lat="59.9706866" lon="17.7186899">
        <ele>20.8057</ele>
        <time>2013-05-28T20:28:24Z</time>
      </trkpt>
      <trkpt lat="59.970749" lon="17.7187478">
        <ele>21.767</ele>
        <time>2013-05-28T20:28:25Z</time>
      </trkpt>
      <trkpt lat="59.9708106" lon="17.7188054">
        <ele>21.767</ele>
        <time>2013-05-28T20:28:26Z</time>
      </trkpt>
      <trkpt lat="59.9708682" lon="17.7188575">
        <ele>19.8444</ele>
        <time>2013-05-28T20:28:27Z</time>
      </trkpt>
      <trkpt lat="59.9709275" lon="17.71891">
        <ele>18.4023</ele>
        <time>2013-05-28T20:28:28Z</time>
      </trkpt>
      <trkpt lat="59.9709884" lon="17.718965">
        <ele>18.4023</ele>
        <time>2013-05-28T20:28:29Z</time>
      </trkpt>
      <trkpt lat="59.9710494" lon="17.7190198">
        <ele>17.9218</ele>
        <time>2013-05-28T20:28:30Z</time>
      </trkpt>
      <trkpt lat="59.9711099" lon="17.7190736">
        <ele>17.9218</ele>
        <time>2013-05-28T20:28:31Z</time>
      </trkpt>
      <trkpt lat="59.9711695" lon="17.7191266">
        <ele>17.9218</ele>
        <time>2013-05-28T20:28:32Z</time>
      </trkpt>
      <trkpt lat="59.9712291" lon="17.7191805">
        <ele>17.9218</ele>
        <time>2013-05-28T20:28:33Z</time>
      </trkpt>
      <trkpt lat="59.9712887" lon="17.719236">
        <ele>17.9218</ele>
        <time>2013-05-28T20:28:34Z</time>
      </trkpt>
      <trkpt lat="59.9713498" lon="17.7192909">
        <ele>17.9218</ele>
        <time>2013-05-28T20:28:35Z</time>
      </trkpt>
      <trkpt lat="59.9714115" lon="17.7193451">
        <ele>17.9218</ele>
        <time>2013-05-28T20:28:36Z</time>
      </trkpt>
      <trkpt lat="59.971474" lon="17.7193993">
        <ele>17.9218</ele>
        <time>2013-05-28T20:28:37Z</time>
      </trkpt>
      <trkpt lat="59.9715366" lon="17.7194553">
        <ele>18.4023</ele>
        <time>2013-05-28T20:28:38Z</time>
      </trkpt>
      <trkpt lat="59.9715994" lon="17.7195114">
        <ele>17.9218</ele>
        <time>2013-05-28T20:28:39Z</time>
      </trkpt>
      <trkpt lat="59.9716628" lon="17.7195667">
        <ele>17.9218</ele>
        <time>2013-05-28T20:28:40Z</time>
      </trkpt>
      <trkpt lat="59.9717258" lon="17.7196227">
        <ele>17.9218</ele>
        <time>2013-05-28T20:28:41Z</time>
      </trkpt>
      <trkpt lat="59.971789" lon="17.7196803">
        <ele>17.9218</ele>
        <time>2013-05-28T20:28:42Z</time>
      </trkpt>
      <trkpt lat="59.9718524" lon="17.7197384">
        <ele>17.9218</ele>
        <time>2013-05-28T20:28:43Z</time>
      </trkpt>
      <trkpt lat="59.9719165" lon="17.7197959">
        <ele>17.9218</ele>
        <time>2013-05-28T20:28:44Z</time>
      </trkpt>
      <trkpt lat="59.9719805" lon="17.7198532">
        <ele>17.9218</ele>
        <time>2013-05-28T20:28:45Z</time>
      </trkpt>
      <trkpt lat="59.9720443" lon="17.7199103">
        <ele>17.9218</ele>
        <time>2013-05-28T20:28:46Z</time>
      </trkpt>
      <trkpt lat="59.9721086" lon="17.7199671">
        <ele>17.9218</ele>
        <time>2013-05-28T20:28:47Z</time>
      </trkpt>
      <trkpt lat="59.9721734" lon="17.7200247">
        <ele>17.9218</ele>
        <time>2013-05-28T20:28:48Z</time>
      </trkpt>
      <trkpt lat="59.972238" lon="17.7200839">
        <ele>17.9218</ele>
        <time>2013-05-28T20:28:49Z</time>
      </trkpt>
      <trkpt lat="59.9723024" lon="17.7201434">
        <ele>17.9218</ele>
        <time>2013-05-28T20:28:50Z</time>
      </trkpt>
      <trkpt lat="59.9723672" lon="17.7202014">
        <ele>17.9218</ele>
        <time>2013-05-28T20:28:51Z</time>
      </trkpt>
      <trkpt lat="59.972432" lon="17.7202606">
        <ele>17.9218</ele>
        <time>2013-05-28T20:28:52Z</time>
      </trkpt>
      <trkpt lat="59.9724962" lon="17.72032">
        <ele>17.9218</ele>
        <time>2013-05-28T20:28:53Z</time>
      </trkpt>
      <trkpt lat="59.97256" lon="17.7203787">
        <ele>17.9218</ele>
        <time>2013-05-28T20:28:54Z</time>
      </trkpt>
      <trkpt lat="59.9726236" lon="17.7204402">
        <ele>17.9218</ele>
        <time>2013-05-28T20:28:55Z</time>
      </trkpt>
      <trkpt lat="59.9726868" lon="17.7205048">
        <ele>17.9218</ele>
        <time>2013-05-28T20:28:56Z</time>
      </trkpt>
      <trkpt lat="59.9727496" lon="17.7205721">
        <ele>17.9218</ele>
        <time>2013-05-28T20:28:57Z</time>
      </trkpt>
      <trkpt lat="59.9728117" lon="17.7206433">
        <ele>17.9218</ele>
        <time>2013-05-28T20:28:58Z</time>
      </trkpt>
      <trkpt lat="59.9728726" lon="17.7207169">
        <ele>17.9218</ele>
        <time>2013-05-28T20:28:59Z</time>
      </trkpt>
      <trkpt lat="59.9729319" lon="17.7207925">
        <ele>17.9218</ele>
        <time>2013-05-28T20:29:00Z</time>
      </trkpt>
      <trkpt lat="59.9729908" lon="17.7208707">
        <ele>17.9218</ele>
        <time>2013-05-28T20:29:01Z</time>
      </trkpt>
      <trkpt lat="59.9730469" lon="17.7209545">
        <ele>17.4412</ele>
        <time>2013-05-28T20:29:02Z</time>
      </trkpt>
      <trkpt lat="59.9731017" lon="17.7210427">
        <ele>17.4412</ele>
        <time>2013-05-28T20:29:03Z</time>
      </trkpt>
      <trkpt lat="59.9731564" lon="17.7211316">
        <ele>17.4412</ele>
        <time>2013-05-28T20:29:04Z</time>
      </trkpt>
      <trkpt lat="59.9732115" lon="17.7212232">
        <ele>17.9218</ele>
        <time>2013-05-28T20:29:05Z</time>
      </trkpt>
      <trkpt lat="59.9732657" lon="17.7213184">
        <ele>17.9218</ele>
        <time>2013-05-28T20:29:06Z</time>
      </trkpt>
      <trkpt lat="59.9733178" lon="17.7214166">
        <ele>18.4023</ele>
        <time>2013-05-28T20:29:07Z</time>
      </trkpt>
      <trkpt lat="59.973368" lon="17.7215151">
        <ele>18.4023</ele>
        <time>2013-05-28T20:29:08Z</time>
      </trkpt>
      <trkpt lat="59.9734167" lon="17.7216159">
        <ele>18.4023</ele>
        <time>2013-05-28T20:29:09Z</time>
      </trkpt>
      <trkpt lat="59.9734665" lon="17.7217218">
        <ele>18.8831</ele>
        <time>2013-05-28T20:29:10Z</time>
      </trkpt>
      <trkpt lat="59.9735141" lon="17.7218309">
        <ele>19.3638</ele>
        <time>2013-05-28T20:29:11Z</time>
      </trkpt>
      <trkpt lat="59.9735597" lon="17.7219446">
        <ele>19.3638</ele>
        <time>2013-05-28T20:29:12Z</time>
      </trkpt>
      <trkpt lat="59.9736056" lon="17.7220638">
        <ele>19.8444</ele>
        <time>2013-05-28T20:29:13Z</time>
      </trkpt>
      <trkpt lat="59.9736507" lon="17.7221869">
        <ele>20.325</ele>
        <time>2013-05-28T20:29:14Z</time>
      </trkpt>
      <trkpt lat="59.9736948" lon="17.7223119">
        <ele>20.8057</ele>
        <time>2013-05-28T20:29:15Z</time>
      </trkpt>
      <trkpt lat="59.9737382" lon="17.7224371">
        <ele>21.2864</ele>
        <time>2013-05-28T20:29:16Z</time>
      </trkpt>
      <trkpt lat="59.9737802" lon="17.7225635">
        <ele>21.767</ele>
        <time>2013-05-28T20:29:17Z</time>
      </trkpt>
      <trkpt lat="59.9738175" lon="17.7226889">
        <ele>21.767</ele>
        <time>2013-05-28T20:29:18Z</time>
      </trkpt>
      <trkpt lat="59.9738511" lon="17.7228169">
        <ele>21.767</ele>
        <time>2013-05-28T20:29:19Z</time>
      </trkpt>
      <trkpt lat="59.9738822" lon="17.7229457">
        <ele>21.767</ele>
        <time>2013-05-28T20:29:20Z</time>
      </trkpt>
      <trkpt lat="59.9739122" lon="17.7230753">
        <ele>21.2864</ele>
        <time>2013-05-28T20:29:21Z</time>
      </trkpt>
      <trkpt lat="59.9739404" lon="17.7232075">
        <ele>21.2864</ele>
        <time>2013-05-28T20:29:22Z</time>
      </trkpt>
      <trkpt lat="59.9739673" lon="17.7233426">
        <ele>21.2864</ele>
        <time>2013-05-28T20:29:23Z</time>
      </trkpt>
      <trkpt lat="59.9739925" lon="17.7234795">
        <ele>21.2864</ele>
        <time>2013-05-28T20:29:24Z</time>
      </trkpt>
      <trkpt lat="59.974016" lon="17.7236166">
        <ele>21.767</ele>
        <time>2013-05-28T20:29:25Z</time>
      </trkpt>
      <trkpt lat="59.9740389" lon="17.7237529">
        <ele>21.767</ele>
        <time>2013-05-28T20:29:26Z</time>
      </trkpt>
      <trkpt lat="59.9740612" lon="17.7238891">
        <ele>22.2476</ele>
        <time>2013-05-28T20:29:27Z</time>
      </trkpt>
      <trkpt lat="59.9740823" lon="17.7240243">
        <ele>22.7283</ele>
        <time>2013-05-28T20:29:28Z</time>
      </trkpt>
      <trkpt lat="59.974102" lon="17.7241606">
        <ele>22.7283</ele>
        <time>2013-05-28T20:29:29Z</time>
      </trkpt>
      <trkpt lat="59.9741222" lon="17.7242967">
        <ele>23.209</ele>
        <time>2013-05-28T20:29:30Z</time>
      </trkpt>
      <trkpt lat="59.9741429" lon="17.7244325">
        <ele>23.209</ele>
        <time>2013-05-28T20:29:31Z</time>
      </trkpt>
      <trkpt lat="59.9741642" lon="17.7245642">
        <ele>23.6896</ele>
        <time>2013-05-28T20:29:32Z</time>
      </trkpt>
      <trkpt lat="59.9741886" lon="17.7247015">
        <ele>23.6896</ele>
        <time>2013-05-28T20:29:33Z</time>
      </trkpt>
      <trkpt lat="59.9742116" lon="17.7248385">
        <ele>24.1703</ele>
        <time>2013-05-28T20:29:34Z</time>
      </trkpt>
      <trkpt lat="59.9742326" lon="17.7249754">
        <ele>24.1703</ele>
        <time>2013-05-28T20:29:35Z</time>
      </trkpt>
      <trkpt lat="59.9742527" lon="17.7251141">
        <ele>23.6896</ele>
        <time>2013-05-28T20:29:36Z</time>
      </trkpt>
      <trkpt lat="59.9742705" lon="17.725252">
        <ele>23.6896</ele>
        <time>2013-05-28T20:29:37Z</time>
      </trkpt>
      <trkpt lat="59.9742869" lon="17.7253919">
        <ele>23.6896</ele>
        <time>2013-05-28T20:29:38Z</time>
      </trkpt>
      <trkpt lat="59.9743023" lon="17.7255311">
        <ele>23.209</ele>
        <time>2013-05-28T20:29:39Z</time>
      </trkpt>
      <trkpt lat="59.9743149" lon="17.725669">
        <ele>23.209</ele>
        <time>2013-05-28T20:29:40Z</time>
      </trkpt>
      <trkpt lat="59.974328" lon="17.7258024">
        <ele>23.6896</ele>
        <time>2013-05-28T20:29:41Z</time>
      </trkpt>
      <trkpt lat="59.9743398" lon="17.7259363">
        <ele>23.6896</ele>
        <time>2013-05-28T20:29:42Z</time>
      </trkpt>
      <trkpt lat="59.9743497" lon="17.7260706">
        <ele>23.6896</ele>
        <time>2013-05-28T20:29:43Z</time>
      </trkpt>
      <trkpt lat="59.974358" lon="17.7262056">
        <ele>23.6896</ele>
        <time>2013-05-28T20:29:44Z</time>
      </trkpt>
      <trkpt lat="59.9743657" lon="17.7263403">
        <ele>24.1703</ele>
        <time>2013-05-28T20:29:45Z</time>
      </trkpt>
      <trkpt lat="59.9743724" lon="17.7264736">
        <ele>24.651</ele>
        <time>2013-05-28T20:29:46Z</time>
      </trkpt>
      <trkpt lat="59.9743781" lon="17.7266075">
        <ele>24.651</ele>
        <time>2013-05-28T20:29:47Z</time>
      </trkpt>
      <trkpt lat="59.9743811" lon="17.726746">
        <ele>24.1703</ele>
        <time>2013-05-28T20:29:48Z</time>
      </trkpt>
      <trkpt lat="59.9743818" lon="17.7268861">
        <ele>23.6896</ele>
        <time>2013-05-28T20:29:49Z</time>
      </trkpt>
      <trkpt lat="59.9743794" lon="17.7270246">
        <ele>22.2476</ele>
        <time>2013-05-28T20:29:50Z</time>
      </trkpt>
      <trkpt lat="59.9743771" lon="17.7271666">
        <ele>21.2864</ele>
        <time>2013-05-28T20:29:51Z</time>
      </trkpt>
      <trkpt lat="59.9743761" lon="17.7273107">
        <ele>20.8057</ele>
        <time>2013-05-28T20:29:52Z</time>
      </trkpt>
      <trkpt lat="59.974377" lon="17.727459">
        <ele>20.325</ele>
        <time>2013-05-28T20:29:53Z</time>
      </trkpt>
      <trkpt lat="59.9743789" lon="17.7276104">
        <ele>19.8444</ele>
        <time>2013-05-28T20:29:54Z</time>
      </trkpt>
      <trkpt lat="59.9743802" lon="17.7277634">
        <ele>19.8444</ele>
        <time>2013-05-28T20:29:55Z</time>
      </trkpt>
      <trkpt lat="59.9743818" lon="17.7279188">
        <ele>19.3638</ele>
        <time>2013-05-28T20:29:56Z</time>
      </trkpt>
      <trkpt lat="59.9743826" lon="17.7280766">
        <ele>19.3638</ele>
        <time>2013-05-28T20:29:57Z</time>
      </trkpt>
      <trkpt lat="59.9743857" lon="17.7282335">
        <ele>20.325</ele>
        <time>2013-05-28T20:29:58Z</time>
      </trkpt>
      <trkpt lat="59.9743891" lon="17.7283895">
        <ele>20.325</ele>
        <time>2013-05-28T20:29:59Z</time>
      </trkpt>
      <trkpt lat="59.974394" lon="17.7285432">
        <ele>20.325</ele>
        <time>2013-05-28T20:30:00Z</time>
      </trkpt>
      <trkpt lat="59.9743984" lon="17.7286951">
        <ele>20.325</ele>
        <time>2013-05-28T20:30:01Z</time>
      </trkpt>
      <trkpt lat="59.974403" lon="17.7288453">
        <ele>20.325</ele>
        <time>2013-05-28T20:30:02Z</time>
      </trkpt>
      <trkpt lat="59.9744081" lon="17.7289941">
        <ele>20.8057</ele>
        <time>2013-05-28T20:30:03Z</time>
      </trkpt>
      <trkpt lat="59.9744128" lon="17.7291443">
        <ele>20.8057</ele>
        <time>2013-05-28T20:30:04Z</time>
      </trkpt>
      <trkpt lat="59.9744147" lon="17.7292939">
        <ele>21.2864</ele>
        <time>2013-05-28T20:30:05Z</time>
      </trkpt>
      <trkpt lat="59.974414" lon="17.7294428">
        <ele>21.2864</ele>
        <time>2013-05-28T20:30:06Z</time>
      </trkpt>
      <trkpt lat="59.974411" lon="17.7295889">
        <ele>21.2864</ele>
        <time>2013-05-28T20:30:07Z</time>
      </trkpt>
      <trkpt lat="59.9744036" lon="17.7297261">
        <ele>21.767</ele>
        <time>2013-05-28T20:30:08Z</time>
      </trkpt>
      <trkpt lat="59.974395" lon="17.7298628">
        <ele>21.767</ele>
        <time>2013-05-28T20:30:09Z</time>
      </trkpt>
      <trkpt lat="59.9743833" lon="17.7299959">
        <ele>22.2476</ele>
        <time>2013-05-28T20:30:10Z</time>
      </trkpt>
      <trkpt lat="59.9743719" lon="17.7301311">
        <ele>22.2476</ele>
        <time>2013-05-28T20:30:11Z</time>
      </trkpt>
      <trkpt lat="59.9743615" lon="17.7302661">
        <ele>22.2476</ele>
        <time>2013-05-28T20:30:12Z</time>
      </trkpt>
      <trkpt lat="59.9743521" lon="17.7304014">
        <ele>22.7283</ele>
        <time>2013-05-28T20:30:13Z</time>
      </trkpt>
      <trkpt lat="59.9743425" lon="17.7305363">
        <ele>22.7283</ele>
        <time>2013-05-28T20:30:14Z</time>
      </trkpt>
      <trkpt lat="59.9743334" lon="17.730673">
        <ele>22.7283</ele>
        <time>2013-05-28T20:30:15Z</time>
      </trkpt>
      <trkpt lat="59.9743247" lon="17.7308119">
        <ele>22.7283</ele>
        <time>2013-05-28T20:30:16Z</time>
      </trkpt>
      <trkpt lat="59.9743212" lon="17.7309553">
        <ele>25.1317</ele>
        <time>2013-05-28T20:30:17Z</time>
      </trkpt>
      <trkpt lat="59.9743164" lon="17.7310983">
        <ele>26.5736</ele>
        <time>2013-05-28T20:30:18Z</time>
      </trkpt>
      <trkpt lat="59.9743121" lon="17.7312426">
        <ele>27.5349</ele>
        <time>2013-05-28T20:30:19Z</time>
      </trkpt>
      <trkpt lat="59.9743092" lon="17.7313887">
        <ele>28.4962</ele>
        <time>2013-05-28T20:30:20Z</time>
      </trkpt>
      <trkpt lat="59.9743086" lon="17.7315358">
        <ele>29.4575</ele>
        <time>2013-05-28T20:30:21Z</time>
      </trkpt>
      <trkpt lat="59.9743097" lon="17.7316841">
        <ele>29.9381</ele>
        <time>2013-05-28T20:30:22Z</time>
      </trkpt>
      <trkpt lat="59.9743114" lon="17.7318323">
        <ele>30.4188</ele>
        <time>2013-05-28T20:30:23Z</time>
      </trkpt>
      <trkpt lat="59.9743142" lon="17.7319804">
        <ele>30.4188</ele>
        <time>2013-05-28T20:30:24Z</time>
      </trkpt>
      <trkpt lat="59.9743174" lon="17.7321276">
        <ele>30.4188</ele>
        <time>2013-05-28T20:30:25Z</time>
      </trkpt>
      <trkpt lat="59.9743204" lon="17.7322748">
        <ele>30.4188</ele>
        <time>2013-05-28T20:30:26Z</time>
      </trkpt>
      <trkpt lat="59.9743243" lon="17.7324231">
        <ele>30.4188</ele>
        <time>2013-05-28T20:30:27Z</time>
      </trkpt>
      <trkpt lat="59.9743287" lon="17.7325713">
        <ele>30.4188</ele>
        <time>2013-05-28T20:30:28Z</time>
      </trkpt>
      <trkpt lat="59.9743294" lon="17.7327198">
        <ele>30.4188</ele>
        <time>2013-05-28T20:30:29Z</time>
      </trkpt>
      <trkpt lat="59.9743278" lon="17.7328693">
        <ele>30.4188</ele>
        <time>2013-05-28T20:30:30Z</time>
      </trkpt>
      <trkpt lat="59.9743249" lon="17.7330195">
        <ele>30.4188</ele>
        <time>2013-05-28T20:30:31Z</time>
      </trkpt>
      <trkpt lat="59.9743216" lon="17.7331693">
        <ele>30.8995</ele>
        <time>2013-05-28T20:30:32Z</time>
      </trkpt>
      <trkpt lat="59.9743158" lon="17.733319">
        <ele>30.8995</ele>
        <time>2013-05-28T20:30:33Z</time>
      </trkpt>
      <trkpt lat="59.974308" lon="17.7334666">
        <ele>30.8995</ele>
        <time>2013-05-28T20:30:34Z</time>
      </trkpt>
      <trkpt lat="59.9743008" lon="17.7336106">
        <ele>30.8995</ele>
        <time>2013-05-28T20:30:35Z</time>
      </trkpt>
      <trkpt lat="59.9742945" lon="17.7337526">
        <ele>30.8995</ele>
        <time>2013-05-28T20:30:36Z</time>
      </trkpt>
      <trkpt lat="59.9742881" lon="17.7338932">
        <ele>31.3801</ele>
        <time>2013-05-28T20:30:37Z</time>
      </trkpt>
      <trkpt lat="59.9742797" lon="17.7340327">
        <ele>31.3801</ele>
        <time>2013-05-28T20:30:38Z</time>
      </trkpt>
      <trkpt lat="59.9742719" lon="17.7341719">
        <ele>31.3801</ele>
        <time>2013-05-28T20:30:39Z</time>
      </trkpt>
      <trkpt lat="59.9742667" lon="17.7343115">
        <ele>31.3801</ele>
        <time>2013-05-28T20:30:40Z</time>
      </trkpt>
      <trkpt lat="59.9742643" lon="17.7344508">
        <ele>31.3801</ele>
        <time>2013-05-28T20:30:41Z</time>
      </trkpt>
      <trkpt lat="59.9742653" lon="17.73459">
        <ele>31.3801</ele>
        <time>2013-05-28T20:30:42Z</time>
      </trkpt>
      <trkpt lat="59.9742688" lon="17.7347295">
        <ele>30.8995</ele>
        <time>2013-05-28T20:30:43Z</time>
      </trkpt>
      <trkpt lat="59.9742741" lon="17.7348694">
        <ele>31.3801</ele>
        <time>2013-05-28T20:30:44Z</time>
      </trkpt>
      <trkpt lat="59.9742812" lon="17.7350088">
        <ele>30.8995</ele>
        <time>2013-05-28T20:30:45Z</time>
      </trkpt>
      <trkpt lat="59.97429" lon="17.7351468">
        <ele>30.8995</ele>
        <time>2013-05-28T20:30:46Z</time>
      </trkpt>
      <trkpt lat="59.9743007" lon="17.7352837">
        <ele>31.3801</ele>
        <time>2013-05-28T20:30:47Z</time>
      </trkpt>
      <trkpt lat="59.9743133" lon="17.7354138">
        <ele>31.3801</ele>
        <time>2013-05-28T20:30:48Z</time>
      </trkpt>
      <trkpt lat="59.9743293" lon="17.7355395">
        <ele>31.8607</ele>
        <time>2013-05-28T20:30:49Z</time>
      </trkpt>
      <trkpt lat="59.9743465" lon="17.7356629">
        <ele>31.8607</ele>
        <time>2013-05-28T20:30:50Z</time>
      </trkpt>
      <trkpt lat="59.9743646" lon="17.7357824">
        <ele>31.8607</ele>
        <time>2013-05-28T20:30:51Z</time>
      </trkpt>
      <trkpt lat="59.9743831" lon="17.7358983">
        <ele>31.8607</ele>
        <time>2013-05-28T20:30:52Z</time>
      </trkpt>
      <trkpt lat="59.9744039" lon="17.7360121">
        <ele>31.8607</ele>
        <time>2013-05-28T20:30:53Z</time>
      </trkpt>
      <trkpt lat="59.9744273" lon="17.7361235">
        <ele>32.3416</ele>
        <time>2013-05-28T20:30:54Z</time>
      </trkpt>
      <trkpt lat="59.9744499" lon="17.7362375">
        <ele>31.8607</ele>
        <time>2013-05-28T20:30:55Z</time>
      </trkpt>
      <trkpt lat="59.9744729" lon="17.7363496">
        <ele>31.3801</ele>
        <time>2013-05-28T20:30:56Z</time>
      </trkpt>
      <trkpt lat="59.9744977" lon="17.7364574">
        <ele>30.8995</ele>
        <time>2013-05-28T20:30:57Z</time>
      </trkpt>
      <trkpt lat="59.9745253" lon="17.7365612">
        <ele>30.4188</ele>
        <time>2013-05-28T20:30:58Z</time>
      </trkpt>
      <trkpt lat="59.9745558" lon="17.7366636">
        <ele>29.9381</ele>
        <time>2013-05-28T20:30:59Z</time>
      </trkpt>
      <trkpt lat="59.9745869" lon="17.7367667">
        <ele>29.9381</ele>
        <time>2013-05-28T20:31:00Z</time>
      </trkpt>
      <trkpt lat="59.9746186" lon="17.7368698">
        <ele>29.9381</ele>
        <time>2013-05-28T20:31:01Z</time>
      </trkpt>
      <trkpt lat="59.9746509" lon="17.736971">
        <ele>29.4575</ele>
        <time>2013-05-28T20:31:02Z</time>
      </trkpt>
      <trkpt lat="59.9746861" lon="17.7370689">
        <ele>29.9381</ele>
        <time>2013-05-28T20:31:03Z</time>
      </trkpt>
      <trkpt lat="59.9747226" lon="17.7371631">
        <ele>29.4575</ele>
        <time>2013-05-28T20:31:04Z</time>
      </trkpt>
      <trkpt lat="59.9747598" lon="17.7372564">
        <ele>29.9381</ele>
        <time>2013-05-28T20:31:05Z</time>
      </trkpt>
      <trkpt lat="59.9747956" lon="17.7373491">
        <ele>29.9381</ele>
        <time>2013-05-28T20:31:06Z</time>
      </trkpt>
      <trkpt lat="59.974831" lon="17.7374387">
        <ele>29.4575</ele>
        <time>2013-05-28T20:31:07Z</time>
      </trkpt>
      <trkpt lat="59.9748702" lon="17.7375235">
        <ele>29.9381</ele>
        <time>2013-05-28T20:31:08Z</time>
      </trkpt>
      <trkpt lat="59.9749121" lon="17.7376019">
        <ele>30.4188</ele>
        <time>2013-05-28T20:31:09Z</time>
      </trkpt>
      <trkpt lat="59.9749567" lon="17.7376768">
        <ele>31.8607</ele>
        <time>2013-05-28T20:31:10Z</time>
      </trkpt>
      <trkpt lat="59.9750011" lon="17.7377542">
        <ele>32.8223</ele>
        <time>2013-05-28T20:31:11Z</time>
      </trkpt>
      <trkpt lat="59.975042" lon="17.737832">
        <ele>32.8223</ele>
        <time>2013-05-28T20:31:12Z</time>
      </trkpt>
      <trkpt lat="59.9750832" lon="17.7379111">
        <ele>32.8223</ele>
        <time>2013-05-28T20:31:13Z</time>
      </trkpt>
      <trkpt lat="59.9751259" lon="17.73799">
        <ele>32.3416</ele>
        <time>2013-05-28T20:31:14Z</time>
      </trkpt>
      <trkpt lat="59.9751689" lon="17.7380646">
        <ele>32.3416</ele>
        <time>2013-05-28T20:31:15Z</time>
      </trkpt>
      <trkpt lat="59.9752125" lon="17.7381384">
        <ele>32.3416</ele>
        <time>2013-05-28T20:31:16Z</time>
      </trkpt>
      <trkpt lat="59.9752608" lon="17.7382109">
        <ele>33.3029</ele>
        <time>2013-05-28T20:31:17Z</time>
      </trkpt>
      <trkpt lat="59.9753094" lon="17.7382861">
        <ele>33.7834</ele>
        <time>2013-05-28T20:31:18Z</time>
      </trkpt>
      <trkpt lat="59.9753581" lon="17.7383644">
        <ele>34.7449</ele>
        <time>2013-05-28T20:31:19Z</time>
      </trkpt>
      <trkpt lat="59.9754075" lon="17.7384437">
        <ele>35.2255</ele>
        <time>2013-05-28T20:31:20Z</time>
      </trkpt>
      <trkpt lat="59.9754566" lon="17.7385246">
        <ele>35.7061</ele>
        <time>2013-05-28T20:31:21Z</time>
      </trkpt>
      <trkpt lat="59.9755049" lon="17.7386071">
        <ele>36.1868</ele>
        <time>2013-05-28T20:31:22Z</time>
      </trkpt>
      <trkpt lat="59.9755536" lon="17.7386898">
        <ele>36.6675</ele>
        <time>2013-05-28T20:31:23Z</time>
      </trkpt>
      <trkpt lat="59.9756027" lon="17.7387741">
        <ele>37.1481</ele>
        <time>2013-05-28T20:31:24Z</time>
      </trkpt>
      <trkpt lat="59.9756517" lon="17.738857">
        <ele>37.6287</ele>
        <time>2013-05-28T20:31:25Z</time>
      </trkpt>
      <trkpt lat="59.9756981" lon="17.7389414">
        <ele>38.1094</ele>
        <time>2013-05-28T20:31:26Z</time>
      </trkpt>
      <trkpt lat="59.9757426" lon="17.7390272">
        <ele>38.5901</ele>
        <time>2013-05-28T20:31:27Z</time>
      </trkpt>
      <trkpt lat="59.9757876" lon="17.7391107">
        <ele>36.1868</ele>
        <time>2013-05-28T20:31:28Z</time>
      </trkpt>
      <trkpt lat="59.9758342" lon="17.7391895">
        <ele>34.7449</ele>
        <time>2013-05-28T20:31:29Z</time>
      </trkpt>
      <trkpt lat="59.9758802" lon="17.7392648">
        <ele>33.7834</ele>
        <time>2013-05-28T20:31:30Z</time>
      </trkpt>
      <trkpt lat="59.9759249" lon="17.7393399">
        <ele>32.8223</ele>
        <time>2013-05-28T20:31:31Z</time>
      </trkpt>
      <trkpt lat="59.9759689" lon="17.7394148">
        <ele>32.3416</ele>
        <time>2013-05-28T20:31:32Z</time>
      </trkpt>
      <trkpt lat="59.9760122" lon="17.7394907">
        <ele>31.3801</ele>
        <time>2013-05-28T20:31:33Z</time>
      </trkpt>
      <trkpt lat="59.9760549" lon="17.739566">
        <ele>30.8995</ele>
        <time>2013-05-28T20:31:34Z</time>
      </trkpt>
      <trkpt lat="59.9760961" lon="17.7396292">
        <ele>29.9381</ele>
        <time>2013-05-28T20:31:35Z</time>
      </trkpt>
      <trkpt lat="59.9761388" lon="17.7396775">
        <ele>29.4575</ele>
        <time>2013-05-28T20:31:36Z</time>
      </trkpt>
      <trkpt lat="59.9761767" lon="17.7397174">
        <ele>28.4962</ele>
        <time>2013-05-28T20:31:37Z</time>
      </trkpt>
      <trkpt lat="59.9762098" lon="17.7397562">
        <ele>27.5349</ele>
        <time>2013-05-28T20:31:38Z</time>
      </trkpt>
      <trkpt lat="59.9762425" lon="17.7397941">
        <ele>26.5736</ele>
        <time>2013-05-28T20:31:39Z</time>
      </trkpt>
      <trkpt lat="59.9762765" lon="17.7398284">
        <ele>26.5736</ele>
        <time>2013-05-28T20:31:40Z</time>
      </trkpt>
      <trkpt lat="59.976305" lon="17.7398496">
        <ele>25.6123</ele>
        <time>2013-05-28T20:31:41Z</time>
      </trkpt>
      <trkpt lat="59.9763362" lon="17.7398604">
        <ele>25.6123</ele>
        <time>2013-05-28T20:31:42Z</time>
      </trkpt>
      <trkpt lat="59.9763683" lon="17.7398624">
        <ele>25.6123</ele>
        <time>2013-05-28T20:31:43Z</time>
      </trkpt>
      <trkpt lat="59.9763998" lon="17.7398406">
        <ele>25.6123</ele>
        <time>2013-05-28T20:31:44Z</time>
      </trkpt>
      <trkpt lat="59.9764325" lon="17.739807">
        <ele>25.6123</ele>
        <time>2013-05-28T20:31:45Z</time>
      </trkpt>
      <trkpt lat="59.9764691" lon="17.7397615">
        <ele>25.6123</ele>
        <time>2013-05-28T20:31:46Z</time>
      </trkpt>
      <trkpt lat="59.9765056" lon="17.7397041">
        <ele>25.6123</ele>
        <time>2013-05-28T20:31:47Z</time>
      </trkpt>
      <trkpt lat="59.976546" lon="17.7396554">
        <ele>25.1317</ele>
        <time>2013-05-28T20:31:48Z</time>
      </trkpt>
      <trkpt lat="59.9765867" lon="17.7396085">
        <ele>23.209</ele>
        <time>2013-05-28T20:31:49Z</time>
      </trkpt>
      <trkpt lat="59.9766318" lon="17.7395691">
        <ele>22.7283</ele>
        <time>2013-05-28T20:31:50Z</time>
      </trkpt>
      <trkpt lat="59.9766759" lon="17.7395341">
        <ele>21.2864</ele>
        <time>2013-05-28T20:31:51Z</time>
      </trkpt>
      <trkpt lat="59.9767169" lon="17.7395018">
        <ele>18.4023</ele>
        <time>2013-05-28T20:31:52Z</time>
      </trkpt>
      <trkpt lat="59.9767636" lon="17.7394691">
        <ele>18.8831</ele>
        <time>2013-05-28T20:31:53Z</time>
      </trkpt>
      <trkpt lat="59.976807" lon="17.739446">
        <ele>16.9604</ele>
        <time>2013-05-28T20:31:54Z</time>
      </trkpt>
      <trkpt lat="59.9768525" lon="17.7394422">
        <ele>15.5184</ele>
        <time>2013-05-28T20:31:55Z</time>
      </trkpt>
      <trkpt lat="59.9768959" lon="17.7394292">
        <ele>15.0377</ele>
        <time>2013-05-28T20:31:56Z</time>
      </trkpt>
      <trkpt lat="59.9769371" lon="17.7394161">
        <ele>12.6344</ele>
        <time>2013-05-28T20:31:57Z</time>
      </trkpt>
      <trkpt lat="59.9769765" lon="17.7394106">
        <ele>11.1925</ele>
        <time>2013-05-28T20:31:58Z</time>
      </trkpt>
      <trkpt lat="59.9770158" lon="17.7394045">
        <ele>9.75061</ele>
        <time>2013-05-28T20:31:59Z</time>
      </trkpt>
      <trkpt lat="59.9770543" lon="17.7393848">
        <ele>8.30859</ele>
        <time>2013-05-28T20:32:00Z</time>
      </trkpt>
      <trkpt lat="59.9770991" lon="17.7393705">
        <ele>8.30859</ele>
        <time>2013-05-28T20:32:01Z</time>
      </trkpt>
      <trkpt lat="59.9771417" lon="17.7393538">
        <ele>6.86646</ele>
        <time>2013-05-28T20:32:02Z</time>
      </trkpt>
      <trkpt lat="59.9771902" lon="17.7393283">
        <ele>6.38586</ele>
        <time>2013-05-28T20:32:03Z</time>
      </trkpt>
      <trkpt lat="59.9772375" lon="17.739301">
        <ele>6.38586</ele>
        <time>2013-05-28T20:32:04Z</time>
      </trkpt>
      <trkpt lat="59.9772841" lon="17.7392713">
        <ele>4.94385</ele>
        <time>2013-05-28T20:32:05Z</time>
      </trkpt>
      <trkpt lat="59.9773308" lon="17.7392436">
        <ele>3.98267</ele>
        <time>2013-05-28T20:32:06Z</time>
      </trkpt>
      <trkpt lat="59.9773778" lon="17.7391891">
        <ele>6.38586</ele>
        <time>2013-05-28T20:32:07Z</time>
      </trkpt>
      <trkpt lat="59.9774319" lon="17.7391419">
        <ele>8.78918</ele>
        <time>2013-05-28T20:32:08Z</time>
      </trkpt>
      <trkpt lat="59.977483" lon="17.7391138">
        <ele>10.2312</ele>
        <time>2013-05-28T20:32:09Z</time>
      </trkpt>
      <trkpt lat="59.977535" lon="17.7390993">
        <ele>10.7118</ele>
        <time>2013-05-28T20:32:10Z</time>
      </trkpt>
      <trkpt lat="59.9775782" lon="17.7390868">
        <ele>11.1925</ele>
        <time>2013-05-28T20:32:11Z</time>
      </trkpt>
      <trkpt lat="59.9776161" lon="17.7390927">
        <ele>11.1925</ele>
        <time>2013-05-28T20:32:12Z</time>
      </trkpt>
      <trkpt lat="59.9776593" lon="17.7390989">
        <ele>12.1538</ele>
        <time>2013-05-28T20:32:13Z</time>
      </trkpt>
      <trkpt lat="59.9777098" lon="17.7391046">
        <ele>16.4797</ele>
        <time>2013-05-28T20:32:14Z</time>
      </trkpt>
      <trkpt lat="59.977756" lon="17.7391153">
        <ele>18.4023</ele>
        <time>2013-05-28T20:32:15Z</time>
      </trkpt>
      <trkpt lat="59.9778033" lon="17.7391309">
        <ele>20.325</ele>
        <time>2013-05-28T20:32:16Z</time>
      </trkpt>
      <trkpt lat="59.9778513" lon="17.7391474">
        <ele>21.767</ele>
        <time>2013-05-28T20:32:17Z</time>
      </trkpt>
      <trkpt lat="59.9778952" lon="17.7391728">
        <ele>23.209</ele>
        <time>2013-05-28T20:32:18Z</time>
      </trkpt>
      <trkpt lat="59.9779432" lon="17.7391904">
        <ele>26.0929</ele>
        <time>2013-05-28T20:32:19Z</time>
      </trkpt>
      <trkpt lat="59.9779885" lon="17.7392119">
        <ele>26.5736</ele>
        <time>2013-05-28T20:32:20Z</time>
      </trkpt>
      <trkpt lat="59.9780348" lon="17.7392371">
        <ele>28.0155</ele>
        <time>2013-05-28T20:32:21Z</time>
      </trkpt>
      <trkpt lat="59.9780794" lon="17.7392609">
        <ele>29.9381</ele>
        <time>2013-05-28T20:32:22Z</time>
      </trkpt>
      <trkpt lat="59.9781285" lon="17.7392734">
        <ele>31.3801</ele>
        <time>2013-05-28T20:32:23Z</time>
      </trkpt>
      <trkpt lat="59.9781848" lon="17.7392844">
        <ele>33.7834</ele>
        <time>2013-05-28T20:32:24Z</time>
      </trkpt>
      <trkpt lat="59.9782364" lon="17.739302">
        <ele>33.7834</ele>
        <time>2013-05-28T20:32:25Z</time>
      </trkpt>
      <trkpt lat="59.9782917" lon="17.7393154">
        <ele>34.2642</ele>
        <time>2013-05-28T20:32:26Z</time>
      </trkpt>
      <trkpt lat="59.9783448" lon="17.7393196">
        <ele>34.7449</ele>
        <time>2013-05-28T20:32:27Z</time>
      </trkpt>
      <trkpt lat="59.9783979" lon="17.7393287">
        <ele>34.7449</ele>
        <time>2013-05-28T20:32:28Z</time>
      </trkpt>
      <trkpt lat="59.9784539" lon="17.7393396">
        <ele>34.2642</ele>
        <time>2013-05-28T20:32:29Z</time>
      </trkpt>
      <trkpt lat="59.9785175" lon="17.7393362">
        <ele>35.2255</ele>
        <time>2013-05-28T20:32:30Z</time>
      </trkpt>
      <trkpt lat="59.9785819" lon="17.7393459">
        <ele>35.7061</ele>
        <time>2013-05-28T20:32:31Z</time>
      </trkpt>
      <trkpt lat="59.9786408" lon="17.7393475">
        <ele>35.2255</ele>
        <time>2013-05-28T20:32:32Z</time>
      </trkpt>
      <trkpt lat="59.9786953" lon="17.7393551">
        <ele>33.7834</ele>
        <time>2013-05-28T20:32:33Z</time>
      </trkpt>
    </trkseg>
  </trk>
</gpx>